<?xml version="1.0" encoding="UTF-8"?>
<gpx xmlns="http://www.topografix.com/GPX/1/1" version="1.1" creator="GPSBabel - http://www.gpsbabel.org">
	<metadata>
		<author>
			<name>Lykun</name>
		</author>
	</metadata>
	<wpt lat="33.269711" lon="103.814903">
		<ele>2528.000000</ele>
		<time>2024-01-18T09:32:10Z</time>
		<name><![CDATA[CP1(七号营地)距离5.8KM，海拔2537M]]></name>
		<desc><![CDATA[CP1(七号营地)距离5.7KM，海拔2550M
裁判：
站长：
到达时间：
功能：补给、医疗、收容、计时、安保、天气观察、分路指标。]]></desc>
	</wpt>
	<wpt lat="33.269711" lon="103.814903">
		<ele>2528.000000</ele>
		<time>2024-01-18T09:32:10Z</time>
		<name><![CDATA[CP1(七号营地)距离5.8KM，海拔2537M]]></name>
		<desc><![CDATA[CP1(七号营地)距离5.7KM，海拔2550M
裁判：
站长：
到达时间：
功能：补给、医疗、收容、计时、安保、天气观察、分路指标。]]></desc>
	</wpt>
	<wpt lat="33.269711" lon="103.814903">
		<ele>2528.000000</ele>
		<time>2024-01-18T09:32:10Z</time>
		<name><![CDATA[CP1(七号营地)距离5.8KM，海拔2537M]]></name>
		<desc><![CDATA[CP1(七号营地)距离5.7KM，海拔2550M
裁判：
站长：
到达时间：
功能：补给、医疗、收容、计时、安保、天气观察、分路指标。]]></desc>
	</wpt>
	<trk>
		<trkseg>
			<trkpt lat="33.307030" lon="103.819153">
				<ele>2191.000000</ele>
				<time>1970-01-01T00:00:00Z</time>
			</trkpt>
			<trkpt lat="33.306835" lon="103.819160">
				<ele>2191.000000</ele>
				<time>1970-01-01T00:00:00Z</time>
			</trkpt>
			<trkpt lat="33.306694" lon="103.819122">
				<ele>2197.000000</ele>
				<time>1970-01-01T00:00:00Z</time>
			</trkpt>
			<trkpt lat="33.306572" lon="103.818985">
				<ele>2191.000000</ele>
				<time>1970-01-01T00:00:00Z</time>
			</trkpt>
			<trkpt lat="33.306499" lon="103.818832">
				<ele>2201.000000</ele>
				<time>1970-01-01T00:00:00Z</time>
			</trkpt>
			<trkpt lat="33.306412" lon="103.818634">
				<ele>2198.000000</ele>
				<time>1970-01-01T00:00:00Z</time>
			</trkpt>
			<trkpt lat="33.306309" lon="103.818352">
				<ele>2196.000000</ele>
				<time>1970-01-01T00:00:00Z</time>
			</trkpt>
			<trkpt lat="33.306229" lon="103.818146">
				<ele>2208.000000</ele>
				<time>1970-01-01T00:00:00Z</time>
			</trkpt>
			<trkpt lat="33.306118" lon="103.817947">
				<ele>2208.000000</ele>
				<time>1970-01-01T00:00:00Z</time>
			</trkpt>
			<trkpt lat="33.306019" lon="103.817726">
				<ele>2209.000000</ele>
				<time>1970-01-01T00:00:00Z</time>
			</trkpt>
			<trkpt lat="33.306007" lon="103.817337">
				<ele>2208.000000</ele>
				<time>1970-01-01T00:00:00Z</time>
			</trkpt>
			<trkpt lat="33.306084" lon="103.816887">
				<ele>2208.000000</ele>
				<time>1970-01-01T00:00:00Z</time>
			</trkpt>
			<trkpt lat="33.306080" lon="103.816452">
				<ele>2209.000000</ele>
				<time>1970-01-01T00:00:00Z</time>
			</trkpt>
			<trkpt lat="33.306190" lon="103.815872">
				<ele>2208.000000</ele>
				<time>1970-01-01T00:00:00Z</time>
			</trkpt>
			<trkpt lat="33.306488" lon="103.815224">
				<ele>2203.000000</ele>
				<time>1970-01-01T00:00:00Z</time>
			</trkpt>
			<trkpt lat="33.306538" lon="103.814934">
				<ele>2204.000000</ele>
				<time>1970-01-01T00:00:00Z</time>
			</trkpt>
			<trkpt lat="33.306446" lon="103.814629">
				<ele>2204.000000</ele>
				<time>1970-01-01T00:00:00Z</time>
			</trkpt>
			<trkpt lat="33.306293" lon="103.814598">
				<ele>2204.000000</ele>
				<time>1970-01-01T00:00:00Z</time>
			</trkpt>
			<trkpt lat="33.306293" lon="103.814598">
				<ele>2204.000000</ele>
				<time>1970-01-01T00:00:00Z</time>
			</trkpt>
			<trkpt lat="33.306293" lon="103.814598">
				<ele>2204.000000</ele>
				<time>1970-01-01T00:00:00Z</time>
			</trkpt>
			<trkpt lat="33.306065" lon="103.814583">
				<ele>2207.000000</ele>
				<time>1970-01-01T00:00:00Z</time>
			</trkpt>
			<trkpt lat="33.305969" lon="103.814575">
				<ele>2214.000000</ele>
				<time>1970-01-01T00:00:00Z</time>
			</trkpt>
			<trkpt lat="33.305862" lon="103.814575">
				<ele>2214.000000</ele>
				<time>1970-01-01T00:00:00Z</time>
			</trkpt>
			<trkpt lat="33.305744" lon="103.814583">
				<ele>2214.000000</ele>
				<time>1970-01-01T00:00:00Z</time>
			</trkpt>
			<trkpt lat="33.305611" lon="103.814590">
				<ele>2205.000000</ele>
				<time>1970-01-01T00:00:00Z</time>
			</trkpt>
			<trkpt lat="33.305462" lon="103.814598">
				<ele>2205.000000</ele>
				<time>1970-01-01T00:00:00Z</time>
			</trkpt>
			<trkpt lat="33.305298" lon="103.814613">
				<ele>2209.000000</ele>
				<time>1970-01-01T00:00:00Z</time>
			</trkpt>
			<trkpt lat="33.305138" lon="103.814621">
				<ele>2214.000000</ele>
				<time>1970-01-01T00:00:00Z</time>
			</trkpt>
			<trkpt lat="33.304989" lon="103.814636">
				<ele>2214.000000</ele>
				<time>1970-01-01T00:00:00Z</time>
			</trkpt>
			<trkpt lat="33.304844" lon="103.814644">
				<ele>2217.000000</ele>
				<time>1970-01-01T00:00:00Z</time>
			</trkpt>
			<trkpt lat="33.304703" lon="103.814651">
				<ele>2217.000000</ele>
				<time>1970-01-01T00:00:00Z</time>
			</trkpt>
			<trkpt lat="33.304550" lon="103.814659">
				<ele>2214.000000</ele>
				<time>1970-01-01T00:00:00Z</time>
			</trkpt>
			<trkpt lat="33.304428" lon="103.814659">
				<ele>2214.000000</ele>
				<time>1970-01-01T00:00:00Z</time>
			</trkpt>
			<trkpt lat="33.304245" lon="103.814682">
				<ele>2215.000000</ele>
				<time>1970-01-01T00:00:00Z</time>
			</trkpt>
			<trkpt lat="33.304081" lon="103.814682">
				<ele>2215.000000</ele>
				<time>1970-01-01T00:00:00Z</time>
			</trkpt>
			<trkpt lat="33.303913" lon="103.814674">
				<ele>2213.000000</ele>
				<time>1970-01-01T00:00:00Z</time>
			</trkpt>
			<trkpt lat="33.303757" lon="103.814682">
				<ele>2213.000000</ele>
				<time>1970-01-01T00:00:00Z</time>
			</trkpt>
			<trkpt lat="33.303623" lon="103.814697">
				<ele>2218.000000</ele>
				<time>1970-01-01T00:00:00Z</time>
			</trkpt>
			<trkpt lat="33.303509" lon="103.814751">
				<ele>2218.000000</ele>
				<time>1970-01-01T00:00:00Z</time>
			</trkpt>
			<trkpt lat="33.303421" lon="103.814781">
				<ele>2231.000000</ele>
				<time>1970-01-01T00:00:00Z</time>
			</trkpt>
			<trkpt lat="33.303333" lon="103.814812">
				<ele>2231.000000</ele>
				<time>1970-01-01T00:00:00Z</time>
			</trkpt>
			<trkpt lat="33.303246" lon="103.814842">
				<ele>2231.000000</ele>
				<time>1970-01-01T00:00:00Z</time>
			</trkpt>
			<trkpt lat="33.303139" lon="103.814880">
				<ele>2229.000000</ele>
				<time>1970-01-01T00:00:00Z</time>
			</trkpt>
			<trkpt lat="33.302990" lon="103.814934">
				<ele>2229.000000</ele>
				<time>1970-01-01T00:00:00Z</time>
			</trkpt>
			<trkpt lat="33.302849" lon="103.814987">
				<ele>2236.000000</ele>
				<time>1970-01-01T00:00:00Z</time>
			</trkpt>
			<trkpt lat="33.302677" lon="103.815048">
				<ele>2236.000000</ele>
				<time>1970-01-01T00:00:00Z</time>
			</trkpt>
			<trkpt lat="33.302589" lon="103.815071">
				<ele>2242.000000</ele>
				<time>1970-01-01T00:00:00Z</time>
			</trkpt>
			<trkpt lat="33.302494" lon="103.815071">
				<ele>2242.000000</ele>
				<time>1970-01-01T00:00:00Z</time>
			</trkpt>
			<trkpt lat="33.302391" lon="103.815063">
				<ele>2242.000000</ele>
				<time>1970-01-01T00:00:00Z</time>
			</trkpt>
			<trkpt lat="33.302299" lon="103.815048">
				<ele>2249.000000</ele>
				<time>1970-01-01T00:00:00Z</time>
			</trkpt>
			<trkpt lat="33.302204" lon="103.815033">
				<ele>2249.000000</ele>
				<time>1970-01-01T00:00:00Z</time>
			</trkpt>
			<trkpt lat="33.302116" lon="103.815025">
				<ele>2249.000000</ele>
				<time>1970-01-01T00:00:00Z</time>
			</trkpt>
			<trkpt lat="33.302025" lon="103.815010">
				<ele>2253.000000</ele>
				<time>1970-01-01T00:00:00Z</time>
			</trkpt>
			<trkpt lat="33.301929" lon="103.815002">
				<ele>2253.000000</ele>
				<time>1970-01-01T00:00:00Z</time>
			</trkpt>
			<trkpt lat="33.301830" lon="103.814987">
				<ele>2253.000000</ele>
				<time>1970-01-01T00:00:00Z</time>
			</trkpt>
			<trkpt lat="33.301739" lon="103.814972">
				<ele>2258.000000</ele>
				<time>1970-01-01T00:00:00Z</time>
			</trkpt>
			<trkpt lat="33.301640" lon="103.814972">
				<ele>2258.000000</ele>
				<time>1970-01-01T00:00:00Z</time>
			</trkpt>
			<trkpt lat="33.301544" lon="103.814957">
				<ele>2258.000000</ele>
				<time>1970-01-01T00:00:00Z</time>
			</trkpt>
			<trkpt lat="33.301437" lon="103.814941">
				<ele>2251.000000</ele>
				<time>1970-01-01T00:00:00Z</time>
			</trkpt>
			<trkpt lat="33.301346" lon="103.814919">
				<ele>2251.000000</ele>
				<time>1970-01-01T00:00:00Z</time>
			</trkpt>
			<trkpt lat="33.301254" lon="103.814903">
				<ele>2251.000000</ele>
				<time>1970-01-01T00:00:00Z</time>
			</trkpt>
			<trkpt lat="33.301094" lon="103.814873">
				<ele>2245.000000</ele>
				<time>1970-01-01T00:00:00Z</time>
			</trkpt>
			<trkpt lat="33.300964" lon="103.814865">
				<ele>2255.000000</ele>
				<time>1970-01-01T00:00:00Z</time>
			</trkpt>
			<trkpt lat="33.300858" lon="103.814796">
				<ele>2261.000000</ele>
				<time>1970-01-01T00:00:00Z</time>
			</trkpt>
			<trkpt lat="33.300858" lon="103.814796">
				<ele>2261.000000</ele>
				<time>1970-01-01T00:00:00Z</time>
			</trkpt>
			<trkpt lat="33.300812" lon="103.814713">
				<ele>2261.000000</ele>
				<time>1970-01-01T00:00:00Z</time>
			</trkpt>
			<trkpt lat="33.300781" lon="103.814606">
				<ele>2261.000000</ele>
				<time>1970-01-01T00:00:00Z</time>
			</trkpt>
			<trkpt lat="33.300724" lon="103.814507">
				<ele>2268.000000</ele>
				<time>1970-01-01T00:00:00Z</time>
			</trkpt>
			<trkpt lat="33.300697" lon="103.814400">
				<ele>2268.000000</ele>
				<time>1970-01-01T00:00:00Z</time>
			</trkpt>
			<trkpt lat="33.300716" lon="103.814293">
				<ele>2278.000000</ele>
				<time>1970-01-01T00:00:00Z</time>
			</trkpt>
			<trkpt lat="33.300724" lon="103.814178">
				<ele>2278.000000</ele>
				<time>1970-01-01T00:00:00Z</time>
			</trkpt>
			<trkpt lat="33.300724" lon="103.814064">
				<ele>2278.000000</ele>
				<time>1970-01-01T00:00:00Z</time>
			</trkpt>
			<trkpt lat="33.300682" lon="103.813965">
				<ele>2281.000000</ele>
				<time>1970-01-01T00:00:00Z</time>
			</trkpt>
			<trkpt lat="33.300652" lon="103.813866">
				<ele>2281.000000</ele>
				<time>1970-01-01T00:00:00Z</time>
			</trkpt>
			<trkpt lat="33.300560" lon="103.813835">
				<ele>2281.000000</ele>
				<time>1970-01-01T00:00:00Z</time>
			</trkpt>
			<trkpt lat="33.300465" lon="103.813820">
				<ele>2281.000000</ele>
				<time>1970-01-01T00:00:00Z</time>
			</trkpt>
			<trkpt lat="33.300369" lon="103.813820">
				<ele>2285.000000</ele>
				<time>1970-01-01T00:00:00Z</time>
			</trkpt>
			<trkpt lat="33.300278" lon="103.813820">
				<ele>2285.000000</ele>
				<time>1970-01-01T00:00:00Z</time>
			</trkpt>
			<trkpt lat="33.300198" lon="103.813759">
				<ele>2285.000000</ele>
				<time>1970-01-01T00:00:00Z</time>
			</trkpt>
			<trkpt lat="33.300201" lon="103.813652">
				<ele>2291.000000</ele>
				<time>1970-01-01T00:00:00Z</time>
			</trkpt>
			<trkpt lat="33.300140" lon="103.813560">
				<ele>2291.000000</ele>
				<time>1970-01-01T00:00:00Z</time>
			</trkpt>
			<trkpt lat="33.300083" lon="103.813446">
				<ele>2307.000000</ele>
				<time>1970-01-01T00:00:00Z</time>
			</trkpt>
			<trkpt lat="33.300072" lon="103.813309">
				<ele>2307.000000</ele>
				<time>1970-01-01T00:00:00Z</time>
			</trkpt>
			<trkpt lat="33.300026" lon="103.813210">
				<ele>2307.000000</ele>
				<time>1970-01-01T00:00:00Z</time>
			</trkpt>
			<trkpt lat="33.299995" lon="103.813103">
				<ele>2313.000000</ele>
				<time>1970-01-01T00:00:00Z</time>
			</trkpt>
			<trkpt lat="33.299976" lon="103.812996">
				<ele>2313.000000</ele>
				<time>1970-01-01T00:00:00Z</time>
			</trkpt>
			<trkpt lat="33.299908" lon="103.812912">
				<ele>2322.000000</ele>
				<time>1970-01-01T00:00:00Z</time>
			</trkpt>
			<trkpt lat="33.299843" lon="103.812828">
				<ele>2325.000000</ele>
				<time>1970-01-01T00:00:00Z</time>
			</trkpt>
			<trkpt lat="33.299778" lon="103.812752">
				<ele>2325.000000</ele>
				<time>1970-01-01T00:00:00Z</time>
			</trkpt>
			<trkpt lat="33.299728" lon="103.812653">
				<ele>2325.000000</ele>
				<time>1970-01-01T00:00:00Z</time>
			</trkpt>
			<trkpt lat="33.299709" lon="103.812546">
				<ele>2335.000000</ele>
				<time>1970-01-01T00:00:00Z</time>
			</trkpt>
			<trkpt lat="33.299694" lon="103.812431">
				<ele>2335.000000</ele>
				<time>1970-01-01T00:00:00Z</time>
			</trkpt>
			<trkpt lat="33.299683" lon="103.812332">
				<ele>2348.000000</ele>
				<time>1970-01-01T00:00:00Z</time>
			</trkpt>
			<trkpt lat="33.299644" lon="103.812225">
				<ele>2348.000000</ele>
				<time>1970-01-01T00:00:00Z</time>
			</trkpt>
			<trkpt lat="33.299625" lon="103.812119">
				<ele>2348.000000</ele>
				<time>1970-01-01T00:00:00Z</time>
			</trkpt>
			<trkpt lat="33.299633" lon="103.812012">
				<ele>2360.000000</ele>
				<time>1970-01-01T00:00:00Z</time>
			</trkpt>
			<trkpt lat="33.299545" lon="103.811966">
				<ele>2361.000000</ele>
				<time>1970-01-01T00:00:00Z</time>
			</trkpt>
			<trkpt lat="33.299549" lon="103.811859">
				<ele>2361.000000</ele>
				<time>1970-01-01T00:00:00Z</time>
			</trkpt>
			<trkpt lat="33.299549" lon="103.811745">
				<ele>2371.000000</ele>
				<time>1970-01-01T00:00:00Z</time>
			</trkpt>
			<trkpt lat="33.299526" lon="103.811638">
				<ele>2371.000000</ele>
				<time>1970-01-01T00:00:00Z</time>
			</trkpt>
			<trkpt lat="33.299488" lon="103.811539">
				<ele>2371.000000</ele>
				<time>1970-01-01T00:00:00Z</time>
			</trkpt>
			<trkpt lat="33.299438" lon="103.811447">
				<ele>2381.000000</ele>
				<time>1970-01-01T00:00:00Z</time>
			</trkpt>
			<trkpt lat="33.299488" lon="103.811356">
				<ele>2381.000000</ele>
				<time>1970-01-01T00:00:00Z</time>
			</trkpt>
			<trkpt lat="33.299496" lon="103.811241">
				<ele>2389.000000</ele>
				<time>1970-01-01T00:00:00Z</time>
			</trkpt>
			<trkpt lat="33.299500" lon="103.811134">
				<ele>2389.000000</ele>
				<time>1970-01-01T00:00:00Z</time>
			</trkpt>
			<trkpt lat="33.299446" lon="103.811043">
				<ele>2389.000000</ele>
				<time>1970-01-01T00:00:00Z</time>
			</trkpt>
			<trkpt lat="33.299397" lon="103.810944">
				<ele>2400.000000</ele>
				<time>1970-01-01T00:00:00Z</time>
			</trkpt>
			<trkpt lat="33.299343" lon="103.810852">
				<ele>2400.000000</ele>
				<time>1970-01-01T00:00:00Z</time>
			</trkpt>
			<trkpt lat="33.299278" lon="103.810768">
				<ele>2405.000000</ele>
				<time>1970-01-01T00:00:00Z</time>
			</trkpt>
			<trkpt lat="33.299244" lon="103.810661">
				<ele>2416.000000</ele>
				<time>1970-01-01T00:00:00Z</time>
			</trkpt>
			<trkpt lat="33.299137" lon="103.810577">
				<ele>2416.000000</ele>
				<time>1970-01-01T00:00:00Z</time>
			</trkpt>
			<trkpt lat="33.299137" lon="103.810577">
				<ele>2416.000000</ele>
				<time>1970-01-01T00:00:00Z</time>
			</trkpt>
			<trkpt lat="33.299137" lon="103.810577">
				<ele>2416.000000</ele>
				<time>1970-01-01T00:00:00Z</time>
			</trkpt>
			<trkpt lat="33.299000" lon="103.810616">
				<ele>2421.000000</ele>
				<time>1970-01-01T00:00:00Z</time>
			</trkpt>
			<trkpt lat="33.298901" lon="103.810654">
				<ele>2421.000000</ele>
				<time>1970-01-01T00:00:00Z</time>
			</trkpt>
			<trkpt lat="33.298813" lon="103.810738">
				<ele>2413.000000</ele>
				<time>1970-01-01T00:00:00Z</time>
			</trkpt>
			<trkpt lat="33.298721" lon="103.810791">
				<ele>2422.000000</ele>
				<time>1970-01-01T00:00:00Z</time>
			</trkpt>
			<trkpt lat="33.298630" lon="103.810852">
				<ele>2422.000000</ele>
				<time>1970-01-01T00:00:00Z</time>
			</trkpt>
			<trkpt lat="33.298515" lon="103.810837">
				<ele>2422.000000</ele>
				<time>1970-01-01T00:00:00Z</time>
			</trkpt>
			<trkpt lat="33.298420" lon="103.810806">
				<ele>2430.000000</ele>
				<time>1970-01-01T00:00:00Z</time>
			</trkpt>
			<trkpt lat="33.298328" lon="103.810768">
				<ele>2430.000000</ele>
				<time>1970-01-01T00:00:00Z</time>
			</trkpt>
			<trkpt lat="33.298244" lon="103.810707">
				<ele>2430.000000</ele>
				<time>1970-01-01T00:00:00Z</time>
			</trkpt>
			<trkpt lat="33.298164" lon="103.810646">
				<ele>2439.000000</ele>
				<time>1970-01-01T00:00:00Z</time>
			</trkpt>
			<trkpt lat="33.298088" lon="103.810577">
				<ele>2439.000000</ele>
				<time>1970-01-01T00:00:00Z</time>
			</trkpt>
			<trkpt lat="33.297989" lon="103.810577">
				<ele>2439.000000</ele>
				<time>1970-01-01T00:00:00Z</time>
			</trkpt>
			<trkpt lat="33.297905" lon="103.810631">
				<ele>2438.000000</ele>
				<time>1970-01-01T00:00:00Z</time>
			</trkpt>
			<trkpt lat="33.297821" lon="103.810677">
				<ele>2438.000000</ele>
				<time>1970-01-01T00:00:00Z</time>
			</trkpt>
			<trkpt lat="33.297726" lon="103.810699">
				<ele>2427.000000</ele>
				<time>1970-01-01T00:00:00Z</time>
			</trkpt>
			<trkpt lat="33.297630" lon="103.810677">
				<ele>2435.000000</ele>
				<time>1970-01-01T00:00:00Z</time>
			</trkpt>
			<trkpt lat="33.297531" lon="103.810654">
				<ele>2435.000000</ele>
				<time>1970-01-01T00:00:00Z</time>
			</trkpt>
			<trkpt lat="33.297459" lon="103.810623">
				<ele>2435.000000</ele>
				<time>1970-01-01T00:00:00Z</time>
			</trkpt>
			<trkpt lat="33.297363" lon="103.810593">
				<ele>2435.000000</ele>
				<time>1970-01-01T00:00:00Z</time>
			</trkpt>
			<trkpt lat="33.297279" lon="103.810555">
				<ele>2435.000000</ele>
				<time>1970-01-01T00:00:00Z</time>
			</trkpt>
			<trkpt lat="33.297192" lon="103.810501">
				<ele>2435.000000</ele>
				<time>1970-01-01T00:00:00Z</time>
			</trkpt>
			<trkpt lat="33.297085" lon="103.810471">
				<ele>2435.000000</ele>
				<time>1970-01-01T00:00:00Z</time>
			</trkpt>
			<trkpt lat="33.296989" lon="103.810463">
				<ele>2439.000000</ele>
				<time>1970-01-01T00:00:00Z</time>
			</trkpt>
			<trkpt lat="33.296890" lon="103.810486">
				<ele>2439.000000</ele>
				<time>1970-01-01T00:00:00Z</time>
			</trkpt>
			<trkpt lat="33.296795" lon="103.810516">
				<ele>2434.000000</ele>
				<time>1970-01-01T00:00:00Z</time>
			</trkpt>
			<trkpt lat="33.296703" lon="103.810555">
				<ele>2434.000000</ele>
				<time>1970-01-01T00:00:00Z</time>
			</trkpt>
			<trkpt lat="33.296604" lon="103.810577">
				<ele>2434.000000</ele>
				<time>1970-01-01T00:00:00Z</time>
			</trkpt>
			<trkpt lat="33.296505" lon="103.810608">
				<ele>2428.000000</ele>
				<time>1970-01-01T00:00:00Z</time>
			</trkpt>
			<trkpt lat="33.296406" lon="103.810654">
				<ele>2428.000000</ele>
				<time>1970-01-01T00:00:00Z</time>
			</trkpt>
			<trkpt lat="33.296314" lon="103.810684">
				<ele>2428.000000</ele>
				<time>1970-01-01T00:00:00Z</time>
			</trkpt>
			<trkpt lat="33.296215" lon="103.810722">
				<ele>2429.000000</ele>
				<time>1970-01-01T00:00:00Z</time>
			</trkpt>
			<trkpt lat="33.296124" lon="103.810745">
				<ele>2429.000000</ele>
				<time>1970-01-01T00:00:00Z</time>
			</trkpt>
			<trkpt lat="33.296028" lon="103.810760">
				<ele>2429.000000</ele>
				<time>1970-01-01T00:00:00Z</time>
			</trkpt>
			<trkpt lat="33.295933" lon="103.810768">
				<ele>2431.000000</ele>
				<time>1970-01-01T00:00:00Z</time>
			</trkpt>
			<trkpt lat="33.295834" lon="103.810760">
				<ele>2431.000000</ele>
				<time>1970-01-01T00:00:00Z</time>
			</trkpt>
			<trkpt lat="33.295746" lon="103.810745">
				<ele>2431.000000</ele>
				<time>1970-01-01T00:00:00Z</time>
			</trkpt>
			<trkpt lat="33.295769" lon="103.810631">
				<ele>2441.000000</ele>
				<time>1970-01-01T00:00:00Z</time>
			</trkpt>
			<trkpt lat="33.295715" lon="103.810539">
				<ele>2441.000000</ele>
				<time>1970-01-01T00:00:00Z</time>
			</trkpt>
			<trkpt lat="33.295658" lon="103.810463">
				<ele>2444.000000</ele>
				<time>1970-01-01T00:00:00Z</time>
			</trkpt>
			<trkpt lat="33.295704" lon="103.810349">
				<ele>2450.000000</ele>
				<time>1970-01-01T00:00:00Z</time>
			</trkpt>
			<trkpt lat="33.295757" lon="103.810249">
				<ele>2450.000000</ele>
				<time>1970-01-01T00:00:00Z</time>
			</trkpt>
			<trkpt lat="33.295757" lon="103.810249">
				<ele>2450.000000</ele>
				<time>1970-01-01T00:00:00Z</time>
			</trkpt>
			<trkpt lat="33.295841" lon="103.810196">
				<ele>2450.000000</ele>
				<time>1970-01-01T00:00:00Z</time>
			</trkpt>
			<trkpt lat="33.295841" lon="103.810196">
				<ele>2450.000000</ele>
				<time>1970-01-01T00:00:00Z</time>
			</trkpt>
			<trkpt lat="33.295818" lon="103.810074">
				<ele>2457.000000</ele>
				<time>1970-01-01T00:00:00Z</time>
			</trkpt>
			<trkpt lat="33.295784" lon="103.809975">
				<ele>2457.000000</ele>
				<time>1970-01-01T00:00:00Z</time>
			</trkpt>
			<trkpt lat="33.295700" lon="103.809914">
				<ele>2457.000000</ele>
				<time>1970-01-01T00:00:00Z</time>
			</trkpt>
			<trkpt lat="33.295616" lon="103.809860">
				<ele>2476.000000</ele>
				<time>1970-01-01T00:00:00Z</time>
			</trkpt>
			<trkpt lat="33.295536" lon="103.809792">
				<ele>2476.000000</ele>
				<time>1970-01-01T00:00:00Z</time>
			</trkpt>
			<trkpt lat="33.295441" lon="103.809746">
				<ele>2476.000000</ele>
				<time>1970-01-01T00:00:00Z</time>
			</trkpt>
			<trkpt lat="33.295372" lon="103.809677">
				<ele>2488.000000</ele>
				<time>1970-01-01T00:00:00Z</time>
			</trkpt>
			<trkpt lat="33.295349" lon="103.809555">
				<ele>2499.000000</ele>
				<time>1970-01-01T00:00:00Z</time>
			</trkpt>
			<trkpt lat="33.295349" lon="103.809517">
				<ele>2499.000000</ele>
				<time>1970-01-01T00:00:00Z</time>
			</trkpt>
			<trkpt lat="33.295254" lon="103.809502">
				<ele>2499.000000</ele>
				<time>1970-01-01T00:00:00Z</time>
			</trkpt>
			<trkpt lat="33.295162" lon="103.809502">
				<ele>2499.000000</ele>
				<time>1970-01-01T00:00:00Z</time>
			</trkpt>
			<trkpt lat="33.295063" lon="103.809540">
				<ele>2503.000000</ele>
				<time>1970-01-01T00:00:00Z</time>
			</trkpt>
			<trkpt lat="33.294960" lon="103.809570">
				<ele>2503.000000</ele>
				<time>1970-01-01T00:00:00Z</time>
			</trkpt>
			<trkpt lat="33.294876" lon="103.809631">
				<ele>2494.000000</ele>
				<time>1970-01-01T00:00:00Z</time>
			</trkpt>
			<trkpt lat="33.294815" lon="103.809662">
				<ele>2496.000000</ele>
				<time>1970-01-01T00:00:00Z</time>
			</trkpt>
			<trkpt lat="33.294804" lon="103.809570">
				<ele>2509.000000</ele>
				<time>1970-01-01T00:00:00Z</time>
			</trkpt>
			<trkpt lat="33.294727" lon="103.809631">
				<ele>2496.000000</ele>
				<time>1970-01-01T00:00:00Z</time>
			</trkpt>
			<trkpt lat="33.294640" lon="103.809669">
				<ele>2496.000000</ele>
				<time>1970-01-01T00:00:00Z</time>
			</trkpt>
			<trkpt lat="33.294617" lon="103.809662">
				<ele>2496.000000</ele>
				<time>1970-01-01T00:00:00Z</time>
			</trkpt>
			<trkpt lat="33.294544" lon="103.809753">
				<ele>2504.000000</ele>
				<time>1970-01-01T00:00:00Z</time>
			</trkpt>
			<trkpt lat="33.294453" lon="103.809837">
				<ele>2504.000000</ele>
				<time>1970-01-01T00:00:00Z</time>
			</trkpt>
			<trkpt lat="33.294369" lon="103.809914">
				<ele>2490.000000</ele>
				<time>1970-01-01T00:00:00Z</time>
			</trkpt>
			<trkpt lat="33.294289" lon="103.809914">
				<ele>2495.000000</ele>
				<time>1970-01-01T00:00:00Z</time>
			</trkpt>
			<trkpt lat="33.294239" lon="103.809853">
				<ele>2509.000000</ele>
				<time>1970-01-01T00:00:00Z</time>
			</trkpt>
			<trkpt lat="33.294216" lon="103.809792">
				<ele>2509.000000</ele>
				<time>1970-01-01T00:00:00Z</time>
			</trkpt>
			<trkpt lat="33.294167" lon="103.809685">
				<ele>2509.000000</ele>
				<time>1970-01-01T00:00:00Z</time>
			</trkpt>
			<trkpt lat="33.294106" lon="103.809593">
				<ele>2509.000000</ele>
				<time>1970-01-01T00:00:00Z</time>
			</trkpt>
			<trkpt lat="33.294044" lon="103.809494">
				<ele>2519.000000</ele>
				<time>1970-01-01T00:00:00Z</time>
			</trkpt>
			<trkpt lat="33.293976" lon="103.809410">
				<ele>2507.000000</ele>
				<time>1970-01-01T00:00:00Z</time>
			</trkpt>
			<trkpt lat="33.293877" lon="103.809341">
				<ele>2507.000000</ele>
				<time>1970-01-01T00:00:00Z</time>
			</trkpt>
			<trkpt lat="33.293766" lon="103.809319">
				<ele>2507.000000</ele>
				<time>1970-01-01T00:00:00Z</time>
			</trkpt>
			<trkpt lat="33.293663" lon="103.809311">
				<ele>2502.000000</ele>
				<time>1970-01-01T00:00:00Z</time>
			</trkpt>
			<trkpt lat="33.293560" lon="103.809319">
				<ele>2502.000000</ele>
				<time>1970-01-01T00:00:00Z</time>
			</trkpt>
			<trkpt lat="33.293472" lon="103.809326">
				<ele>2502.000000</ele>
				<time>1970-01-01T00:00:00Z</time>
			</trkpt>
			<trkpt lat="33.293415" lon="103.809280">
				<ele>2501.000000</ele>
				<time>1970-01-01T00:00:00Z</time>
			</trkpt>
			<trkpt lat="33.293423" lon="103.809181">
				<ele>2501.000000</ele>
				<time>1970-01-01T00:00:00Z</time>
			</trkpt>
			<trkpt lat="33.293339" lon="103.809120">
				<ele>2501.000000</ele>
				<time>1970-01-01T00:00:00Z</time>
			</trkpt>
			<trkpt lat="33.293240" lon="103.809120">
				<ele>2501.000000</ele>
				<time>1970-01-01T00:00:00Z</time>
			</trkpt>
			<trkpt lat="33.293140" lon="103.809151">
				<ele>2503.000000</ele>
				<time>1970-01-01T00:00:00Z</time>
			</trkpt>
			<trkpt lat="33.293053" lon="103.809219">
				<ele>2503.000000</ele>
				<time>1970-01-01T00:00:00Z</time>
			</trkpt>
			<trkpt lat="33.292953" lon="103.809219">
				<ele>2503.000000</ele>
				<time>1970-01-01T00:00:00Z</time>
			</trkpt>
			<trkpt lat="33.292881" lon="103.809166">
				<ele>2505.000000</ele>
				<time>1970-01-01T00:00:00Z</time>
			</trkpt>
			<trkpt lat="33.292904" lon="103.809097">
				<ele>2505.000000</ele>
				<time>1970-01-01T00:00:00Z</time>
			</trkpt>
			<trkpt lat="33.292984" lon="103.809029">
				<ele>2503.000000</ele>
				<time>1970-01-01T00:00:00Z</time>
			</trkpt>
			<trkpt lat="33.293015" lon="103.808952">
				<ele>2511.000000</ele>
				<time>1970-01-01T00:00:00Z</time>
			</trkpt>
			<trkpt lat="33.292976" lon="103.808861">
				<ele>2511.000000</ele>
				<time>1970-01-01T00:00:00Z</time>
			</trkpt>
			<trkpt lat="33.292938" lon="103.808762">
				<ele>2511.000000</ele>
				<time>1970-01-01T00:00:00Z</time>
			</trkpt>
			<trkpt lat="33.292904" lon="103.808662">
				<ele>2519.000000</ele>
				<time>1970-01-01T00:00:00Z</time>
			</trkpt>
			<trkpt lat="33.292862" lon="103.808556">
				<ele>2519.000000</ele>
				<time>1970-01-01T00:00:00Z</time>
			</trkpt>
			<trkpt lat="33.292805" lon="103.808441">
				<ele>2524.000000</ele>
				<time>1970-01-01T00:00:00Z</time>
			</trkpt>
			<trkpt lat="33.292786" lon="103.808319">
				<ele>2524.000000</ele>
				<time>1970-01-01T00:00:00Z</time>
			</trkpt>
			<trkpt lat="33.292767" lon="103.808205">
				<ele>2524.000000</ele>
				<time>1970-01-01T00:00:00Z</time>
			</trkpt>
			<trkpt lat="33.292793" lon="103.808083">
				<ele>2529.000000</ele>
				<time>1970-01-01T00:00:00Z</time>
			</trkpt>
			<trkpt lat="33.292858" lon="103.807991">
				<ele>2529.000000</ele>
				<time>1970-01-01T00:00:00Z</time>
			</trkpt>
			<trkpt lat="33.292942" lon="103.807953">
				<ele>2528.000000</ele>
				<time>1970-01-01T00:00:00Z</time>
			</trkpt>
			<trkpt lat="33.292988" lon="103.807877">
				<ele>2539.000000</ele>
				<time>1970-01-01T00:00:00Z</time>
			</trkpt>
			<trkpt lat="33.292980" lon="103.807762">
				<ele>2539.000000</ele>
				<time>1970-01-01T00:00:00Z</time>
			</trkpt>
			<trkpt lat="33.293026" lon="103.807648">
				<ele>2539.000000</ele>
				<time>1970-01-01T00:00:00Z</time>
			</trkpt>
			<trkpt lat="33.292976" lon="103.807549">
				<ele>2553.000000</ele>
				<time>1970-01-01T00:00:00Z</time>
			</trkpt>
			<trkpt lat="33.292892" lon="103.807487">
				<ele>2564.000000</ele>
				<time>1970-01-01T00:00:00Z</time>
			</trkpt>
			<trkpt lat="33.292801" lon="103.807480">
				<ele>2564.000000</ele>
				<time>1970-01-01T00:00:00Z</time>
			</trkpt>
			<trkpt lat="33.292709" lon="103.807426">
				<ele>2564.000000</ele>
				<time>1970-01-01T00:00:00Z</time>
			</trkpt>
			<trkpt lat="33.292618" lon="103.807373">
				<ele>2561.000000</ele>
				<time>1970-01-01T00:00:00Z</time>
			</trkpt>
			<trkpt lat="33.292534" lon="103.807335">
				<ele>2571.000000</ele>
				<time>1970-01-01T00:00:00Z</time>
			</trkpt>
			<trkpt lat="33.292465" lon="103.807251">
				<ele>2571.000000</ele>
				<time>1970-01-01T00:00:00Z</time>
			</trkpt>
			<trkpt lat="33.292397" lon="103.807167">
				<ele>2571.000000</ele>
				<time>1970-01-01T00:00:00Z</time>
			</trkpt>
			<trkpt lat="33.292332" lon="103.807091">
				<ele>2574.000000</ele>
				<time>1970-01-01T00:00:00Z</time>
			</trkpt>
			<trkpt lat="33.292244" lon="103.807053">
				<ele>2585.000000</ele>
				<time>1970-01-01T00:00:00Z</time>
			</trkpt>
			<trkpt lat="33.292156" lon="103.807014">
				<ele>2585.000000</ele>
				<time>1970-01-01T00:00:00Z</time>
			</trkpt>
			<trkpt lat="33.292080" lon="103.806969">
				<ele>2585.000000</ele>
				<time>1970-01-01T00:00:00Z</time>
			</trkpt>
			<trkpt lat="33.291950" lon="103.806915">
				<ele>2585.000000</ele>
				<time>1970-01-01T00:00:00Z</time>
			</trkpt>
			<trkpt lat="33.291950" lon="103.806915">
				<ele>2585.000000</ele>
				<time>1970-01-01T00:00:00Z</time>
			</trkpt>
			<trkpt lat="33.291950" lon="103.806915">
				<ele>2585.000000</ele>
				<time>1970-01-01T00:00:00Z</time>
			</trkpt>
			<trkpt lat="33.291862" lon="103.806946">
				<ele>2585.000000</ele>
				<time>1970-01-01T00:00:00Z</time>
			</trkpt>
			<trkpt lat="33.291779" lon="103.806999">
				<ele>2585.000000</ele>
				<time>1970-01-01T00:00:00Z</time>
			</trkpt>
			<trkpt lat="33.291698" lon="103.807060">
				<ele>2585.000000</ele>
				<time>1970-01-01T00:00:00Z</time>
			</trkpt>
			<trkpt lat="33.291611" lon="103.807114">
				<ele>2578.000000</ele>
				<time>1970-01-01T00:00:00Z</time>
			</trkpt>
			<trkpt lat="33.291527" lon="103.807175">
				<ele>2580.000000</ele>
				<time>1970-01-01T00:00:00Z</time>
			</trkpt>
			<trkpt lat="33.291443" lon="103.807220">
				<ele>2580.000000</ele>
				<time>1970-01-01T00:00:00Z</time>
			</trkpt>
			<trkpt lat="33.291355" lon="103.807259">
				<ele>2580.000000</ele>
				<time>1970-01-01T00:00:00Z</time>
			</trkpt>
			<trkpt lat="33.291256" lon="103.807281">
				<ele>2580.000000</ele>
				<time>1970-01-01T00:00:00Z</time>
			</trkpt>
			<trkpt lat="33.291172" lon="103.807320">
				<ele>2585.000000</ele>
				<time>1970-01-01T00:00:00Z</time>
			</trkpt>
			<trkpt lat="33.291084" lon="103.807365">
				<ele>2574.000000</ele>
				<time>1970-01-01T00:00:00Z</time>
			</trkpt>
			<trkpt lat="33.291004" lon="103.807419">
				<ele>2574.000000</ele>
				<time>1970-01-01T00:00:00Z</time>
			</trkpt>
			<trkpt lat="33.290920" lon="103.807457">
				<ele>2575.000000</ele>
				<time>1970-01-01T00:00:00Z</time>
			</trkpt>
			<trkpt lat="33.290825" lon="103.807495">
				<ele>2575.000000</ele>
				<time>1970-01-01T00:00:00Z</time>
			</trkpt>
			<trkpt lat="33.290737" lon="103.807541">
				<ele>2575.000000</ele>
				<time>1970-01-01T00:00:00Z</time>
			</trkpt>
			<trkpt lat="33.290646" lon="103.807564">
				<ele>2575.000000</ele>
				<time>1970-01-01T00:00:00Z</time>
			</trkpt>
			<trkpt lat="33.290558" lon="103.807602">
				<ele>2575.000000</ele>
				<time>1970-01-01T00:00:00Z</time>
			</trkpt>
			<trkpt lat="33.290470" lon="103.807640">
				<ele>2568.000000</ele>
				<time>1970-01-01T00:00:00Z</time>
			</trkpt>
			<trkpt lat="33.290382" lon="103.807671">
				<ele>2574.000000</ele>
				<time>1970-01-01T00:00:00Z</time>
			</trkpt>
			<trkpt lat="33.290291" lon="103.807709">
				<ele>2574.000000</ele>
				<time>1970-01-01T00:00:00Z</time>
			</trkpt>
			<trkpt lat="33.290203" lon="103.807777">
				<ele>2574.000000</ele>
				<time>1970-01-01T00:00:00Z</time>
			</trkpt>
			<trkpt lat="33.290108" lon="103.807785">
				<ele>2576.000000</ele>
				<time>1970-01-01T00:00:00Z</time>
			</trkpt>
			<trkpt lat="33.290024" lon="103.807716">
				<ele>2576.000000</ele>
				<time>1970-01-01T00:00:00Z</time>
			</trkpt>
			<trkpt lat="33.289928" lon="103.807686">
				<ele>2576.000000</ele>
				<time>1970-01-01T00:00:00Z</time>
			</trkpt>
			<trkpt lat="33.289852" lon="103.807617">
				<ele>2576.000000</ele>
				<time>1970-01-01T00:00:00Z</time>
			</trkpt>
			<trkpt lat="33.289783" lon="103.807541">
				<ele>2576.000000</ele>
				<time>1970-01-01T00:00:00Z</time>
			</trkpt>
			<trkpt lat="33.289719" lon="103.807457">
				<ele>2576.000000</ele>
				<time>1970-01-01T00:00:00Z</time>
			</trkpt>
			<trkpt lat="33.289669" lon="103.807365">
				<ele>2576.000000</ele>
				<time>1970-01-01T00:00:00Z</time>
			</trkpt>
			<trkpt lat="33.289612" lon="103.807274">
				<ele>2577.000000</ele>
				<time>1970-01-01T00:00:00Z</time>
			</trkpt>
			<trkpt lat="33.289551" lon="103.807190">
				<ele>2584.000000</ele>
				<time>1970-01-01T00:00:00Z</time>
			</trkpt>
			<trkpt lat="33.289490" lon="103.807106">
				<ele>2584.000000</ele>
				<time>1970-01-01T00:00:00Z</time>
			</trkpt>
			<trkpt lat="33.289429" lon="103.807014">
				<ele>2588.000000</ele>
				<time>1970-01-01T00:00:00Z</time>
			</trkpt>
			<trkpt lat="33.289410" lon="103.806885">
				<ele>2588.000000</ele>
				<time>1970-01-01T00:00:00Z</time>
			</trkpt>
			<trkpt lat="33.289413" lon="103.806747">
				<ele>2596.000000</ele>
				<time>1970-01-01T00:00:00Z</time>
			</trkpt>
			<trkpt lat="33.289364" lon="103.806656">
				<ele>2596.000000</ele>
				<time>1970-01-01T00:00:00Z</time>
			</trkpt>
			<trkpt lat="33.289272" lon="103.806686">
				<ele>2599.000000</ele>
				<time>1970-01-01T00:00:00Z</time>
			</trkpt>
			<trkpt lat="33.289230" lon="103.806793">
				<ele>2599.000000</ele>
				<time>1970-01-01T00:00:00Z</time>
			</trkpt>
			<trkpt lat="33.289207" lon="103.806900">
				<ele>2595.000000</ele>
				<time>1970-01-01T00:00:00Z</time>
			</trkpt>
			<trkpt lat="33.289169" lon="103.806999">
				<ele>2595.000000</ele>
				<time>1970-01-01T00:00:00Z</time>
			</trkpt>
			<trkpt lat="33.289135" lon="103.807106">
				<ele>2593.000000</ele>
				<time>1970-01-01T00:00:00Z</time>
			</trkpt>
			<trkpt lat="33.289066" lon="103.807182">
				<ele>2593.000000</ele>
				<time>1970-01-01T00:00:00Z</time>
			</trkpt>
			<trkpt lat="33.288986" lon="103.807251">
				<ele>2594.000000</ele>
				<time>1970-01-01T00:00:00Z</time>
			</trkpt>
			<trkpt lat="33.288906" lon="103.807320">
				<ele>2594.000000</ele>
				<time>1970-01-01T00:00:00Z</time>
			</trkpt>
			<trkpt lat="33.288841" lon="103.807404">
				<ele>2589.000000</ele>
				<time>1970-01-01T00:00:00Z</time>
			</trkpt>
			<trkpt lat="33.288769" lon="103.807472">
				<ele>2589.000000</ele>
				<time>1970-01-01T00:00:00Z</time>
			</trkpt>
			<trkpt lat="33.288677" lon="103.807533">
				<ele>2588.000000</ele>
				<time>1970-01-01T00:00:00Z</time>
			</trkpt>
			<trkpt lat="33.288601" lon="103.807587">
				<ele>2588.000000</ele>
				<time>1970-01-01T00:00:00Z</time>
			</trkpt>
			<trkpt lat="33.288513" lon="103.807625">
				<ele>2588.000000</ele>
				<time>1970-01-01T00:00:00Z</time>
			</trkpt>
			<trkpt lat="33.288452" lon="103.807716">
				<ele>2596.000000</ele>
				<time>1970-01-01T00:00:00Z</time>
			</trkpt>
			<trkpt lat="33.288387" lon="103.807800">
				<ele>2596.000000</ele>
				<time>1970-01-01T00:00:00Z</time>
			</trkpt>
			<trkpt lat="33.288338" lon="103.807892">
				<ele>2596.000000</ele>
				<time>1970-01-01T00:00:00Z</time>
			</trkpt>
			<trkpt lat="33.288311" lon="103.808006">
				<ele>2594.000000</ele>
				<time>1970-01-01T00:00:00Z</time>
			</trkpt>
			<trkpt lat="33.288261" lon="103.808105">
				<ele>2594.000000</ele>
				<time>1970-01-01T00:00:00Z</time>
			</trkpt>
			<trkpt lat="33.288219" lon="103.808205">
				<ele>2597.000000</ele>
				<time>1970-01-01T00:00:00Z</time>
			</trkpt>
			<trkpt lat="33.288143" lon="103.808266">
				<ele>2603.000000</ele>
				<time>1970-01-01T00:00:00Z</time>
			</trkpt>
			<trkpt lat="33.288071" lon="103.808334">
				<ele>2603.000000</ele>
				<time>1970-01-01T00:00:00Z</time>
			</trkpt>
			<trkpt lat="33.287983" lon="103.808365">
				<ele>2603.000000</ele>
				<time>1970-01-01T00:00:00Z</time>
			</trkpt>
			<trkpt lat="33.287899" lon="103.808403">
				<ele>2609.000000</ele>
				<time>1970-01-01T00:00:00Z</time>
			</trkpt>
			<trkpt lat="33.287811" lon="103.808464">
				<ele>2609.000000</ele>
				<time>1970-01-01T00:00:00Z</time>
			</trkpt>
			<trkpt lat="33.287731" lon="103.808517">
				<ele>2603.000000</ele>
				<time>1970-01-01T00:00:00Z</time>
			</trkpt>
			<trkpt lat="33.287640" lon="103.808556">
				<ele>2603.000000</ele>
				<time>1970-01-01T00:00:00Z</time>
			</trkpt>
			<trkpt lat="33.287548" lon="103.808578">
				<ele>2612.000000</ele>
				<time>1970-01-01T00:00:00Z</time>
			</trkpt>
			<trkpt lat="33.287457" lon="103.808594">
				<ele>2612.000000</ele>
				<time>1970-01-01T00:00:00Z</time>
			</trkpt>
			<trkpt lat="33.287357" lon="103.808594">
				<ele>2621.000000</ele>
				<time>1970-01-01T00:00:00Z</time>
			</trkpt>
			<trkpt lat="33.287273" lon="103.808632">
				<ele>2621.000000</ele>
				<time>1970-01-01T00:00:00Z</time>
			</trkpt>
			<trkpt lat="33.287178" lon="103.808662">
				<ele>2621.000000</ele>
				<time>1970-01-01T00:00:00Z</time>
			</trkpt>
			<trkpt lat="33.287090" lon="103.808708">
				<ele>2621.000000</ele>
				<time>1970-01-01T00:00:00Z</time>
			</trkpt>
			<trkpt lat="33.286991" lon="103.808762">
				<ele>2607.000000</ele>
				<time>1970-01-01T00:00:00Z</time>
			</trkpt>
			<trkpt lat="33.286911" lon="103.808815">
				<ele>2607.000000</ele>
				<time>1970-01-01T00:00:00Z</time>
			</trkpt>
			<trkpt lat="33.286827" lon="103.808853">
				<ele>2607.000000</ele>
				<time>1970-01-01T00:00:00Z</time>
			</trkpt>
			<trkpt lat="33.286739" lon="103.808899">
				<ele>2613.000000</ele>
				<time>1970-01-01T00:00:00Z</time>
			</trkpt>
			<trkpt lat="33.286652" lon="103.808929">
				<ele>2613.000000</ele>
				<time>1970-01-01T00:00:00Z</time>
			</trkpt>
			<trkpt lat="33.286560" lon="103.808960">
				<ele>2613.000000</ele>
				<time>1970-01-01T00:00:00Z</time>
			</trkpt>
			<trkpt lat="33.286469" lon="103.808983">
				<ele>2623.000000</ele>
				<time>1970-01-01T00:00:00Z</time>
			</trkpt>
			<trkpt lat="33.286366" lon="103.809013">
				<ele>2623.000000</ele>
				<time>1970-01-01T00:00:00Z</time>
			</trkpt>
			<trkpt lat="33.286274" lon="103.809029">
				<ele>2614.000000</ele>
				<time>1970-01-01T00:00:00Z</time>
			</trkpt>
			<trkpt lat="33.286182" lon="103.809036">
				<ele>2626.000000</ele>
				<time>1970-01-01T00:00:00Z</time>
			</trkpt>
			<trkpt lat="33.286102" lon="103.809082">
				<ele>2626.000000</ele>
				<time>1970-01-01T00:00:00Z</time>
			</trkpt>
			<trkpt lat="33.286037" lon="103.809174">
				<ele>2626.000000</ele>
				<time>1970-01-01T00:00:00Z</time>
			</trkpt>
			<trkpt lat="33.285984" lon="103.809273">
				<ele>2626.000000</ele>
				<time>1970-01-01T00:00:00Z</time>
			</trkpt>
			<trkpt lat="33.285908" lon="103.809349">
				<ele>2622.000000</ele>
				<time>1970-01-01T00:00:00Z</time>
			</trkpt>
			<trkpt lat="33.285828" lon="103.809402">
				<ele>2622.000000</ele>
				<time>1970-01-01T00:00:00Z</time>
			</trkpt>
			<trkpt lat="33.285736" lon="103.809410">
				<ele>2622.000000</ele>
				<time>1970-01-01T00:00:00Z</time>
			</trkpt>
			<trkpt lat="33.285645" lon="103.809441">
				<ele>2621.000000</ele>
				<time>1970-01-01T00:00:00Z</time>
			</trkpt>
			<trkpt lat="33.285549" lon="103.809456">
				<ele>2621.000000</ele>
				<time>1970-01-01T00:00:00Z</time>
			</trkpt>
			<trkpt lat="33.285461" lon="103.809479">
				<ele>2621.000000</ele>
				<time>1970-01-01T00:00:00Z</time>
			</trkpt>
			<trkpt lat="33.285408" lon="103.809570">
				<ele>2620.000000</ele>
				<time>1970-01-01T00:00:00Z</time>
			</trkpt>
			<trkpt lat="33.285343" lon="103.809654">
				<ele>2615.000000</ele>
				<time>1970-01-01T00:00:00Z</time>
			</trkpt>
			<trkpt lat="33.285290" lon="103.809738">
				<ele>2615.000000</ele>
				<time>1970-01-01T00:00:00Z</time>
			</trkpt>
			<trkpt lat="33.285202" lon="103.809845">
				<ele>2615.000000</ele>
				<time>1970-01-01T00:00:00Z</time>
			</trkpt>
			<trkpt lat="33.285202" lon="103.809845">
				<ele>2615.000000</ele>
				<time>1970-01-01T00:00:00Z</time>
			</trkpt>
			<trkpt lat="33.285130" lon="103.809921">
				<ele>2612.000000</ele>
				<time>1970-01-01T00:00:00Z</time>
			</trkpt>
			<trkpt lat="33.285057" lon="103.810005">
				<ele>2612.000000</ele>
				<time>1970-01-01T00:00:00Z</time>
			</trkpt>
			<trkpt lat="33.284988" lon="103.810074">
				<ele>2612.000000</ele>
				<time>1970-01-01T00:00:00Z</time>
			</trkpt>
			<trkpt lat="33.284897" lon="103.810097">
				<ele>2612.000000</ele>
				<time>1970-01-01T00:00:00Z</time>
			</trkpt>
			<trkpt lat="33.284801" lon="103.810173">
				<ele>2599.000000</ele>
				<time>1970-01-01T00:00:00Z</time>
			</trkpt>
			<trkpt lat="33.284801" lon="103.810173">
				<ele>2599.000000</ele>
				<time>1970-01-01T00:00:00Z</time>
			</trkpt>
			<trkpt lat="33.284698" lon="103.810226">
				<ele>2599.000000</ele>
				<time>1970-01-01T00:00:00Z</time>
			</trkpt>
			<trkpt lat="33.284595" lon="103.810280">
				<ele>2599.000000</ele>
				<time>1970-01-01T00:00:00Z</time>
			</trkpt>
			<trkpt lat="33.284481" lon="103.810310">
				<ele>2587.000000</ele>
				<time>1970-01-01T00:00:00Z</time>
			</trkpt>
			<trkpt lat="33.284389" lon="103.810333">
				<ele>2587.000000</ele>
				<time>1970-01-01T00:00:00Z</time>
			</trkpt>
			<trkpt lat="33.284309" lon="103.810387">
				<ele>2587.000000</ele>
				<time>1970-01-01T00:00:00Z</time>
			</trkpt>
			<trkpt lat="33.284237" lon="103.810463">
				<ele>2576.000000</ele>
				<time>1970-01-01T00:00:00Z</time>
			</trkpt>
			<trkpt lat="33.284149" lon="103.810562">
				<ele>2576.000000</ele>
				<time>1970-01-01T00:00:00Z</time>
			</trkpt>
			<trkpt lat="33.284069" lon="103.810661">
				<ele>2576.000000</ele>
				<time>1970-01-01T00:00:00Z</time>
			</trkpt>
			<trkpt lat="33.283997" lon="103.810730">
				<ele>2574.000000</ele>
				<time>1970-01-01T00:00:00Z</time>
			</trkpt>
			<trkpt lat="33.283913" lon="103.810791">
				<ele>2574.000000</ele>
				<time>1970-01-01T00:00:00Z</time>
			</trkpt>
			<trkpt lat="33.283817" lon="103.810837">
				<ele>2574.000000</ele>
				<time>1970-01-01T00:00:00Z</time>
			</trkpt>
			<trkpt lat="33.283733" lon="103.810875">
				<ele>2570.000000</ele>
				<time>1970-01-01T00:00:00Z</time>
			</trkpt>
			<trkpt lat="33.283638" lon="103.810913">
				<ele>2570.000000</ele>
				<time>1970-01-01T00:00:00Z</time>
			</trkpt>
			<trkpt lat="33.283539" lon="103.810928">
				<ele>2570.000000</ele>
				<time>1970-01-01T00:00:00Z</time>
			</trkpt>
			<trkpt lat="33.283443" lon="103.810944">
				<ele>2571.000000</ele>
				<time>1970-01-01T00:00:00Z</time>
			</trkpt>
			<trkpt lat="33.283337" lon="103.810936">
				<ele>2571.000000</ele>
				<time>1970-01-01T00:00:00Z</time>
			</trkpt>
			<trkpt lat="33.283237" lon="103.810944">
				<ele>2571.000000</ele>
				<time>1970-01-01T00:00:00Z</time>
			</trkpt>
			<trkpt lat="33.283165" lon="103.810875">
				<ele>2559.000000</ele>
				<time>1970-01-01T00:00:00Z</time>
			</trkpt>
			<trkpt lat="33.283089" lon="103.810799">
				<ele>2559.000000</ele>
				<time>1970-01-01T00:00:00Z</time>
			</trkpt>
			<trkpt lat="33.283009" lon="103.810738">
				<ele>2559.000000</ele>
				<time>1970-01-01T00:00:00Z</time>
			</trkpt>
			<trkpt lat="33.282906" lon="103.810677">
				<ele>2557.000000</ele>
				<time>1970-01-01T00:00:00Z</time>
			</trkpt>
			<trkpt lat="33.282856" lon="103.810577">
				<ele>2557.000000</ele>
				<time>1970-01-01T00:00:00Z</time>
			</trkpt>
			<trkpt lat="33.282768" lon="103.810623">
				<ele>2557.000000</ele>
				<time>1970-01-01T00:00:00Z</time>
			</trkpt>
			<trkpt lat="33.282681" lon="103.810638">
				<ele>2557.000000</ele>
				<time>1970-01-01T00:00:00Z</time>
			</trkpt>
			<trkpt lat="33.282585" lon="103.810616">
				<ele>2553.000000</ele>
				<time>1970-01-01T00:00:00Z</time>
			</trkpt>
			<trkpt lat="33.282497" lon="103.810608">
				<ele>2553.000000</ele>
				<time>1970-01-01T00:00:00Z</time>
			</trkpt>
			<trkpt lat="33.282391" lon="103.810608">
				<ele>2553.000000</ele>
				<time>1970-01-01T00:00:00Z</time>
			</trkpt>
			<trkpt lat="33.282307" lon="103.810654">
				<ele>2546.000000</ele>
				<time>1970-01-01T00:00:00Z</time>
			</trkpt>
			<trkpt lat="33.282223" lon="103.810715">
				<ele>2541.000000</ele>
				<time>1970-01-01T00:00:00Z</time>
			</trkpt>
			<trkpt lat="33.282143" lon="103.810646">
				<ele>2546.000000</ele>
				<time>1970-01-01T00:00:00Z</time>
			</trkpt>
			<trkpt lat="33.282047" lon="103.810623">
				<ele>2542.000000</ele>
				<time>1970-01-01T00:00:00Z</time>
			</trkpt>
			<trkpt lat="33.281956" lon="103.810570">
				<ele>2542.000000</ele>
				<time>1970-01-01T00:00:00Z</time>
			</trkpt>
			<trkpt lat="33.281849" lon="103.810623">
				<ele>2542.000000</ele>
				<time>1970-01-01T00:00:00Z</time>
			</trkpt>
			<trkpt lat="33.281773" lon="103.810684">
				<ele>2544.000000</ele>
				<time>1970-01-01T00:00:00Z</time>
			</trkpt>
			<trkpt lat="33.281727" lon="103.810791">
				<ele>2536.000000</ele>
				<time>1970-01-01T00:00:00Z</time>
			</trkpt>
			<trkpt lat="33.281712" lon="103.810898">
				<ele>2536.000000</ele>
				<time>1970-01-01T00:00:00Z</time>
			</trkpt>
			<trkpt lat="33.281612" lon="103.810936">
				<ele>2536.000000</ele>
				<time>1970-01-01T00:00:00Z</time>
			</trkpt>
			<trkpt lat="33.281513" lon="103.810905">
				<ele>2530.000000</ele>
				<time>1970-01-01T00:00:00Z</time>
			</trkpt>
			<trkpt lat="33.281433" lon="103.810852">
				<ele>2530.000000</ele>
				<time>1970-01-01T00:00:00Z</time>
			</trkpt>
			<trkpt lat="33.281353" lon="103.810791">
				<ele>2530.000000</ele>
				<time>1970-01-01T00:00:00Z</time>
			</trkpt>
			<trkpt lat="33.281269" lon="103.810745">
				<ele>2530.000000</ele>
				<time>1970-01-01T00:00:00Z</time>
			</trkpt>
			<trkpt lat="33.281178" lon="103.810745">
				<ele>2526.000000</ele>
				<time>1970-01-01T00:00:00Z</time>
			</trkpt>
			<trkpt lat="33.281090" lon="103.810783">
				<ele>2526.000000</ele>
				<time>1970-01-01T00:00:00Z</time>
			</trkpt>
			<trkpt lat="33.280998" lon="103.810783">
				<ele>2526.000000</ele>
				<time>1970-01-01T00:00:00Z</time>
			</trkpt>
			<trkpt lat="33.280910" lon="103.810822">
				<ele>2527.000000</ele>
				<time>1970-01-01T00:00:00Z</time>
			</trkpt>
			<trkpt lat="33.280819" lon="103.810844">
				<ele>2527.000000</ele>
				<time>1970-01-01T00:00:00Z</time>
			</trkpt>
			<trkpt lat="33.280727" lon="103.810844">
				<ele>2527.000000</ele>
				<time>1970-01-01T00:00:00Z</time>
			</trkpt>
			<trkpt lat="33.280636" lon="103.810883">
				<ele>2526.000000</ele>
				<time>1970-01-01T00:00:00Z</time>
			</trkpt>
			<trkpt lat="33.280533" lon="103.810875">
				<ele>2526.000000</ele>
				<time>1970-01-01T00:00:00Z</time>
			</trkpt>
			<trkpt lat="33.280434" lon="103.810852">
				<ele>2526.000000</ele>
				<time>1970-01-01T00:00:00Z</time>
			</trkpt>
			<trkpt lat="33.280346" lon="103.810814">
				<ele>2524.000000</ele>
				<time>1970-01-01T00:00:00Z</time>
			</trkpt>
			<trkpt lat="33.280258" lon="103.810753">
				<ele>2524.000000</ele>
				<time>1970-01-01T00:00:00Z</time>
			</trkpt>
			<trkpt lat="33.280170" lon="103.810715">
				<ele>2524.000000</ele>
				<time>1970-01-01T00:00:00Z</time>
			</trkpt>
			<trkpt lat="33.280090" lon="103.810661">
				<ele>2542.000000</ele>
				<time>1970-01-01T00:00:00Z</time>
			</trkpt>
			<trkpt lat="33.279995" lon="103.810684">
				<ele>2542.000000</ele>
				<time>1970-01-01T00:00:00Z</time>
			</trkpt>
			<trkpt lat="33.279892" lon="103.810661">
				<ele>2542.000000</ele>
				<time>1970-01-01T00:00:00Z</time>
			</trkpt>
			<trkpt lat="33.279785" lon="103.810661">
				<ele>2544.000000</ele>
				<time>1970-01-01T00:00:00Z</time>
			</trkpt>
			<trkpt lat="33.279678" lon="103.810684">
				<ele>2544.000000</ele>
				<time>1970-01-01T00:00:00Z</time>
			</trkpt>
			<trkpt lat="33.279598" lon="103.810738">
				<ele>2532.000000</ele>
				<time>1970-01-01T00:00:00Z</time>
			</trkpt>
			<trkpt lat="33.279507" lon="103.810783">
				<ele>2538.000000</ele>
				<time>1970-01-01T00:00:00Z</time>
			</trkpt>
			<trkpt lat="33.279411" lon="103.810814">
				<ele>2538.000000</ele>
				<time>1970-01-01T00:00:00Z</time>
			</trkpt>
			<trkpt lat="33.279320" lon="103.810860">
				<ele>2538.000000</ele>
				<time>1970-01-01T00:00:00Z</time>
			</trkpt>
			<trkpt lat="33.279221" lon="103.810860">
				<ele>2540.000000</ele>
				<time>1970-01-01T00:00:00Z</time>
			</trkpt>
			<trkpt lat="33.279125" lon="103.810905">
				<ele>2540.000000</ele>
				<time>1970-01-01T00:00:00Z</time>
			</trkpt>
			<trkpt lat="33.279045" lon="103.810944">
				<ele>2540.000000</ele>
				<time>1970-01-01T00:00:00Z</time>
			</trkpt>
			<trkpt lat="33.278957" lon="103.810997">
				<ele>2538.000000</ele>
				<time>1970-01-01T00:00:00Z</time>
			</trkpt>
			<trkpt lat="33.278866" lon="103.811043">
				<ele>2538.000000</ele>
				<time>1970-01-01T00:00:00Z</time>
			</trkpt>
			<trkpt lat="33.278774" lon="103.811043">
				<ele>2538.000000</ele>
				<time>1970-01-01T00:00:00Z</time>
			</trkpt>
			<trkpt lat="33.278694" lon="103.811111">
				<ele>2546.000000</ele>
				<time>1970-01-01T00:00:00Z</time>
			</trkpt>
			<trkpt lat="33.278614" lon="103.811180">
				<ele>2546.000000</ele>
				<time>1970-01-01T00:00:00Z</time>
			</trkpt>
			<trkpt lat="33.278530" lon="103.811241">
				<ele>2546.000000</ele>
				<time>1970-01-01T00:00:00Z</time>
			</trkpt>
			<trkpt lat="33.278450" lon="103.811302">
				<ele>2544.000000</ele>
				<time>1970-01-01T00:00:00Z</time>
			</trkpt>
			<trkpt lat="33.278389" lon="103.811401">
				<ele>2544.000000</ele>
				<time>1970-01-01T00:00:00Z</time>
			</trkpt>
			<trkpt lat="33.278328" lon="103.811485">
				<ele>2544.000000</ele>
				<time>1970-01-01T00:00:00Z</time>
			</trkpt>
			<trkpt lat="33.278278" lon="103.811584">
				<ele>2538.000000</ele>
				<time>1970-01-01T00:00:00Z</time>
			</trkpt>
			<trkpt lat="33.278240" lon="103.811691">
				<ele>2538.000000</ele>
				<time>1970-01-01T00:00:00Z</time>
			</trkpt>
			<trkpt lat="33.278164" lon="103.811760">
				<ele>2544.000000</ele>
				<time>1970-01-01T00:00:00Z</time>
			</trkpt>
			<trkpt lat="33.278069" lon="103.811806">
				<ele>2537.000000</ele>
				<time>1970-01-01T00:00:00Z</time>
			</trkpt>
			<trkpt lat="33.277981" lon="103.811859">
				<ele>2537.000000</ele>
				<time>1970-01-01T00:00:00Z</time>
			</trkpt>
			<trkpt lat="33.277893" lon="103.811905">
				<ele>2529.000000</ele>
				<time>1970-01-01T00:00:00Z</time>
			</trkpt>
			<trkpt lat="33.277802" lon="103.811935">
				<ele>2529.000000</ele>
				<time>1970-01-01T00:00:00Z</time>
			</trkpt>
			<trkpt lat="33.277710" lon="103.811928">
				<ele>2529.000000</ele>
				<time>1970-01-01T00:00:00Z</time>
			</trkpt>
			<trkpt lat="33.277615" lon="103.811905">
				<ele>2527.000000</ele>
				<time>1970-01-01T00:00:00Z</time>
			</trkpt>
			<trkpt lat="33.277523" lon="103.811859">
				<ele>2527.000000</ele>
				<time>1970-01-01T00:00:00Z</time>
			</trkpt>
			<trkpt lat="33.277428" lon="103.811836">
				<ele>2527.000000</ele>
				<time>1970-01-01T00:00:00Z</time>
			</trkpt>
			<trkpt lat="33.277332" lon="103.811852">
				<ele>2527.000000</ele>
				<time>1970-01-01T00:00:00Z</time>
			</trkpt>
			<trkpt lat="33.277241" lon="103.811813">
				<ele>2527.000000</ele>
				<time>1970-01-01T00:00:00Z</time>
			</trkpt>
			<trkpt lat="33.277161" lon="103.811752">
				<ele>2542.000000</ele>
				<time>1970-01-01T00:00:00Z</time>
			</trkpt>
			<trkpt lat="33.277073" lon="103.811691">
				<ele>2534.000000</ele>
				<time>1970-01-01T00:00:00Z</time>
			</trkpt>
			<trkpt lat="33.276974" lon="103.811684">
				<ele>2534.000000</ele>
				<time>1970-01-01T00:00:00Z</time>
			</trkpt>
			<trkpt lat="33.276875" lon="103.811714">
				<ele>2534.000000</ele>
				<time>1970-01-01T00:00:00Z</time>
			</trkpt>
			<trkpt lat="33.276779" lon="103.811752">
				<ele>2537.000000</ele>
				<time>1970-01-01T00:00:00Z</time>
			</trkpt>
			<trkpt lat="33.276688" lon="103.811790">
				<ele>2537.000000</ele>
				<time>1970-01-01T00:00:00Z</time>
			</trkpt>
			<trkpt lat="33.276596" lon="103.811829">
				<ele>2529.000000</ele>
				<time>1970-01-01T00:00:00Z</time>
			</trkpt>
			<trkpt lat="33.276508" lon="103.811859">
				<ele>2532.000000</ele>
				<time>1970-01-01T00:00:00Z</time>
			</trkpt>
			<trkpt lat="33.276417" lon="103.811867">
				<ele>2532.000000</ele>
				<time>1970-01-01T00:00:00Z</time>
			</trkpt>
			<trkpt lat="33.276325" lon="103.811905">
				<ele>2532.000000</ele>
				<time>1970-01-01T00:00:00Z</time>
			</trkpt>
			<trkpt lat="33.276226" lon="103.811935">
				<ele>2531.000000</ele>
				<time>1970-01-01T00:00:00Z</time>
			</trkpt>
			<trkpt lat="33.276138" lon="103.811989">
				<ele>2531.000000</ele>
				<time>1970-01-01T00:00:00Z</time>
			</trkpt>
			<trkpt lat="33.276058" lon="103.812057">
				<ele>2531.000000</ele>
				<time>1970-01-01T00:00:00Z</time>
			</trkpt>
			<trkpt lat="33.275970" lon="103.812126">
				<ele>2529.000000</ele>
				<time>1970-01-01T00:00:00Z</time>
			</trkpt>
			<trkpt lat="33.275890" lon="103.812187">
				<ele>2529.000000</ele>
				<time>1970-01-01T00:00:00Z</time>
			</trkpt>
			<trkpt lat="33.275486" lon="103.812302">
				<ele>2526.000000</ele>
				<time>1970-01-01T00:00:00Z</time>
			</trkpt>
			<trkpt lat="33.275486" lon="103.812302">
				<ele>2526.000000</ele>
				<time>1970-01-01T00:00:00Z</time>
			</trkpt>
			<trkpt lat="33.275352" lon="103.812363">
				<ele>2517.000000</ele>
				<time>1970-01-01T00:00:00Z</time>
			</trkpt>
			<trkpt lat="33.275070" lon="103.812500">
				<ele>2520.000000</ele>
				<time>1970-01-01T00:00:00Z</time>
			</trkpt>
			<trkpt lat="33.274902" lon="103.812660">
				<ele>2515.000000</ele>
				<time>1970-01-01T00:00:00Z</time>
			</trkpt>
			<trkpt lat="33.274723" lon="103.812805">
				<ele>2522.000000</ele>
				<time>1970-01-01T00:00:00Z</time>
			</trkpt>
			<trkpt lat="33.274498" lon="103.812935">
				<ele>2517.000000</ele>
				<time>1970-01-01T00:00:00Z</time>
			</trkpt>
			<trkpt lat="33.274414" lon="103.813072">
				<ele>2517.000000</ele>
				<time>1970-01-01T00:00:00Z</time>
			</trkpt>
			<trkpt lat="33.274284" lon="103.813286">
				<ele>2512.000000</ele>
				<time>1970-01-01T00:00:00Z</time>
			</trkpt>
			<trkpt lat="33.274197" lon="103.813400">
				<ele>2512.000000</ele>
				<time>1970-01-01T00:00:00Z</time>
			</trkpt>
			<trkpt lat="33.274124" lon="103.813545">
				<ele>2506.000000</ele>
				<time>1970-01-01T00:00:00Z</time>
			</trkpt>
			<trkpt lat="33.273998" lon="103.813782">
				<ele>2503.000000</ele>
				<time>1970-01-01T00:00:00Z</time>
			</trkpt>
			<trkpt lat="33.273933" lon="103.813896">
				<ele>2503.000000</ele>
				<time>1970-01-01T00:00:00Z</time>
			</trkpt>
			<trkpt lat="33.273869" lon="103.813950">
				<ele>2503.000000</ele>
				<time>1970-01-01T00:00:00Z</time>
			</trkpt>
			<trkpt lat="33.273666" lon="103.814011">
				<ele>2510.000000</ele>
				<time>1970-01-01T00:00:00Z</time>
			</trkpt>
			<trkpt lat="33.273426" lon="103.814095">
				<ele>2505.000000</ele>
				<time>1970-01-01T00:00:00Z</time>
			</trkpt>
			<trkpt lat="33.273232" lon="103.814240">
				<ele>2505.000000</ele>
				<time>1970-01-01T00:00:00Z</time>
			</trkpt>
			<trkpt lat="33.273109" lon="103.814323">
				<ele>2499.000000</ele>
				<time>1970-01-01T00:00:00Z</time>
			</trkpt>
			<trkpt lat="33.272606" lon="103.814407">
				<ele>2515.000000</ele>
				<time>1970-01-01T00:00:00Z</time>
			</trkpt>
			<trkpt lat="33.272331" lon="103.814522">
				<ele>2515.000000</ele>
				<time>1970-01-01T00:00:00Z</time>
			</trkpt>
			<trkpt lat="33.272099" lon="103.814705">
				<ele>2515.000000</ele>
				<time>1970-01-01T00:00:00Z</time>
			</trkpt>
			<trkpt lat="33.272018" lon="103.814720">
				<ele>2516.000000</ele>
				<time>1970-01-01T00:00:00Z</time>
			</trkpt>
			<trkpt lat="33.271801" lon="103.814766">
				<ele>2513.000000</ele>
				<time>1970-01-01T00:00:00Z</time>
			</trkpt>
			<trkpt lat="33.271736" lon="103.814827">
				<ele>2513.000000</ele>
				<time>1970-01-01T00:00:00Z</time>
			</trkpt>
			<trkpt lat="33.271694" lon="103.814926">
				<ele>2513.000000</ele>
				<time>1970-01-01T00:00:00Z</time>
			</trkpt>
			<trkpt lat="33.271591" lon="103.814995">
				<ele>2513.000000</ele>
				<time>1970-01-01T00:00:00Z</time>
			</trkpt>
			<trkpt lat="33.271408" lon="103.815056">
				<ele>2520.000000</ele>
				<time>1970-01-01T00:00:00Z</time>
			</trkpt>
			<trkpt lat="33.271244" lon="103.815147">
				<ele>2522.000000</ele>
				<time>1970-01-01T00:00:00Z</time>
			</trkpt>
			<trkpt lat="33.271149" lon="103.815155">
				<ele>2522.000000</ele>
				<time>1970-01-01T00:00:00Z</time>
			</trkpt>
			<trkpt lat="33.271065" lon="103.815109">
				<ele>2525.000000</ele>
				<time>1970-01-01T00:00:00Z</time>
			</trkpt>
			<trkpt lat="33.270981" lon="103.815048">
				<ele>2525.000000</ele>
				<time>1970-01-01T00:00:00Z</time>
			</trkpt>
			<trkpt lat="33.270882" lon="103.815018">
				<ele>2529.000000</ele>
				<time>1970-01-01T00:00:00Z</time>
			</trkpt>
			<trkpt lat="33.270699" lon="103.814972">
				<ele>2529.000000</ele>
				<time>1970-01-01T00:00:00Z</time>
			</trkpt>
			<trkpt lat="33.270584" lon="103.814957">
				<ele>2526.000000</ele>
				<time>1970-01-01T00:00:00Z</time>
			</trkpt>
			<trkpt lat="33.270298" lon="103.814980">
				<ele>2525.000000</ele>
				<time>1970-01-01T00:00:00Z</time>
			</trkpt>
			<trkpt lat="33.270065" lon="103.814957">
				<ele>2528.000000</ele>
				<time>1970-01-01T00:00:00Z</time>
			</trkpt>
			<trkpt lat="33.269924" lon="103.814911">
				<ele>2528.000000</ele>
				<time>1970-01-01T00:00:00Z</time>
			</trkpt>
			<trkpt lat="33.269787" lon="103.814980">
				<ele>2528.000000</ele>
				<time>1970-01-01T00:00:00Z</time>
			</trkpt>
			<trkpt lat="33.269676" lon="103.815079">
				<ele>2528.000000</ele>
				<time>1970-01-01T00:00:00Z</time>
			</trkpt>
			<trkpt lat="33.269501" lon="103.815056">
				<ele>2529.000000</ele>
				<time>1970-01-01T00:00:00Z</time>
			</trkpt>
			<trkpt lat="33.269409" lon="103.815102">
				<ele>2529.000000</ele>
				<time>1970-01-01T00:00:00Z</time>
			</trkpt>
			<trkpt lat="33.269341" lon="103.815125">
				<ele>2529.000000</ele>
				<time>1970-01-01T00:00:00Z</time>
			</trkpt>
			<trkpt lat="33.269341" lon="103.815125">
				<ele>2529.000000</ele>
				<time>1970-01-01T00:00:00Z</time>
			</trkpt>
			<trkpt lat="33.269268" lon="103.815155">
				<ele>2530.000000</ele>
				<time>1970-01-01T00:00:00Z</time>
			</trkpt>
			<trkpt lat="33.269165" lon="103.815193">
				<ele>2530.000000</ele>
				<time>1970-01-01T00:00:00Z</time>
			</trkpt>
			<trkpt lat="33.269062" lon="103.815224">
				<ele>2530.000000</ele>
				<time>1970-01-01T00:00:00Z</time>
			</trkpt>
			<trkpt lat="33.269005" lon="103.815247">
				<ele>2539.000000</ele>
				<time>1970-01-01T00:00:00Z</time>
			</trkpt>
			<trkpt lat="33.268932" lon="103.815247">
				<ele>2539.000000</ele>
				<time>1970-01-01T00:00:00Z</time>
			</trkpt>
			<trkpt lat="33.268871" lon="103.815254">
				<ele>2539.000000</ele>
				<time>1970-01-01T00:00:00Z</time>
			</trkpt>
			<trkpt lat="33.268780" lon="103.815285">
				<ele>2539.000000</ele>
				<time>1970-01-01T00:00:00Z</time>
			</trkpt>
			<trkpt lat="33.268700" lon="103.815315">
				<ele>2540.000000</ele>
				<time>1970-01-01T00:00:00Z</time>
			</trkpt>
			<trkpt lat="33.268700" lon="103.815315">
				<ele>2540.000000</ele>
				<time>1970-01-01T00:00:00Z</time>
			</trkpt>
			<trkpt lat="33.268700" lon="103.815323">
				<ele>2540.000000</ele>
				<time>1970-01-01T00:00:00Z</time>
			</trkpt>
			<trkpt lat="33.268692" lon="103.815323">
				<ele>2540.000000</ele>
				<time>1970-01-01T00:00:00Z</time>
			</trkpt>
			<trkpt lat="33.268692" lon="103.815331">
				<ele>2540.000000</ele>
				<time>1970-01-01T00:00:00Z</time>
			</trkpt>
			<trkpt lat="33.268688" lon="103.815331">
				<ele>2540.000000</ele>
				<time>1970-01-01T00:00:00Z</time>
			</trkpt>
			<trkpt lat="33.268688" lon="103.815338">
				<ele>2540.000000</ele>
				<time>1970-01-01T00:00:00Z</time>
			</trkpt>
			<trkpt lat="33.268684" lon="103.815338">
				<ele>2540.000000</ele>
				<time>1970-01-01T00:00:00Z</time>
			</trkpt>
			<trkpt lat="33.268684" lon="103.815346">
				<ele>2540.000000</ele>
				<time>1970-01-01T00:00:00Z</time>
			</trkpt>
			<trkpt lat="33.268681" lon="103.815346">
				<ele>2540.000000</ele>
				<time>1970-01-01T00:00:00Z</time>
			</trkpt>
			<trkpt lat="33.268681" lon="103.815346">
				<ele>2540.000000</ele>
				<time>1970-01-01T00:00:00Z</time>
			</trkpt>
			<trkpt lat="33.268681" lon="103.815353">
				<ele>2540.000000</ele>
				<time>1970-01-01T00:00:00Z</time>
			</trkpt>
			<trkpt lat="33.268677" lon="103.815353">
				<ele>2540.000000</ele>
				<time>1970-01-01T00:00:00Z</time>
			</trkpt>
			<trkpt lat="33.268677" lon="103.815361">
				<ele>2540.000000</ele>
				<time>1970-01-01T00:00:00Z</time>
			</trkpt>
			<trkpt lat="33.268677" lon="103.815369">
				<ele>2540.000000</ele>
				<time>1970-01-01T00:00:00Z</time>
			</trkpt>
			<trkpt lat="33.268669" lon="103.815369">
				<ele>2540.000000</ele>
				<time>1970-01-01T00:00:00Z</time>
			</trkpt>
			<trkpt lat="33.268669" lon="103.815369">
				<ele>2540.000000</ele>
				<time>1970-01-01T00:00:00Z</time>
			</trkpt>
			<trkpt lat="33.268669" lon="103.815376">
				<ele>2540.000000</ele>
				<time>1970-01-01T00:00:00Z</time>
			</trkpt>
			<trkpt lat="33.268665" lon="103.815376">
				<ele>2540.000000</ele>
				<time>1970-01-01T00:00:00Z</time>
			</trkpt>
			<trkpt lat="33.268665" lon="103.815384">
				<ele>2540.000000</ele>
				<time>1970-01-01T00:00:00Z</time>
			</trkpt>
			<trkpt lat="33.268665" lon="103.815384">
				<ele>2540.000000</ele>
				<time>1970-01-01T00:00:00Z</time>
			</trkpt>
			<trkpt lat="33.268665" lon="103.815392">
				<ele>2540.000000</ele>
				<time>1970-01-01T00:00:00Z</time>
			</trkpt>
			<trkpt lat="33.268661" lon="103.815392">
				<ele>2540.000000</ele>
				<time>1970-01-01T00:00:00Z</time>
			</trkpt>
			<trkpt lat="33.268661" lon="103.815399">
				<ele>2540.000000</ele>
				<time>1970-01-01T00:00:00Z</time>
			</trkpt>
			<trkpt lat="33.268661" lon="103.815399">
				<ele>2540.000000</ele>
				<time>1970-01-01T00:00:00Z</time>
			</trkpt>
			<trkpt lat="33.268658" lon="103.815399">
				<ele>2540.000000</ele>
				<time>1970-01-01T00:00:00Z</time>
			</trkpt>
			<trkpt lat="33.268658" lon="103.815407">
				<ele>2540.000000</ele>
				<time>1970-01-01T00:00:00Z</time>
			</trkpt>
			<trkpt lat="33.268658" lon="103.815414">
				<ele>2540.000000</ele>
				<time>1970-01-01T00:00:00Z</time>
			</trkpt>
			<trkpt lat="33.268658" lon="103.815422">
				<ele>2546.000000</ele>
				<time>1970-01-01T00:00:00Z</time>
			</trkpt>
			<trkpt lat="33.268658" lon="103.815422">
				<ele>2546.000000</ele>
				<time>1970-01-01T00:00:00Z</time>
			</trkpt>
			<trkpt lat="33.268654" lon="103.815422">
				<ele>2546.000000</ele>
				<time>1970-01-01T00:00:00Z</time>
			</trkpt>
			<trkpt lat="33.268654" lon="103.815430">
				<ele>2546.000000</ele>
				<time>1970-01-01T00:00:00Z</time>
			</trkpt>
			<trkpt lat="33.268654" lon="103.815437">
				<ele>2546.000000</ele>
				<time>1970-01-01T00:00:00Z</time>
			</trkpt>
			<trkpt lat="33.268654" lon="103.815437">
				<ele>2546.000000</ele>
				<time>1970-01-01T00:00:00Z</time>
			</trkpt>
			<trkpt lat="33.268650" lon="103.815445">
				<ele>2546.000000</ele>
				<time>1970-01-01T00:00:00Z</time>
			</trkpt>
			<trkpt lat="33.268650" lon="103.815453">
				<ele>2546.000000</ele>
				<time>1970-01-01T00:00:00Z</time>
			</trkpt>
			<trkpt lat="33.268642" lon="103.815453">
				<ele>2546.000000</ele>
				<time>1970-01-01T00:00:00Z</time>
			</trkpt>
			<trkpt lat="33.268642" lon="103.815460">
				<ele>2546.000000</ele>
				<time>1970-01-01T00:00:00Z</time>
			</trkpt>
			<trkpt lat="33.268642" lon="103.815460">
				<ele>2546.000000</ele>
				<time>1970-01-01T00:00:00Z</time>
			</trkpt>
			<trkpt lat="33.268639" lon="103.815460">
				<ele>2546.000000</ele>
				<time>1970-01-01T00:00:00Z</time>
			</trkpt>
			<trkpt lat="33.268639" lon="103.815468">
				<ele>2546.000000</ele>
				<time>1970-01-01T00:00:00Z</time>
			</trkpt>
			<trkpt lat="33.268639" lon="103.815475">
				<ele>2546.000000</ele>
				<time>1970-01-01T00:00:00Z</time>
			</trkpt>
			<trkpt lat="33.268635" lon="103.815475">
				<ele>2546.000000</ele>
				<time>1970-01-01T00:00:00Z</time>
			</trkpt>
			<trkpt lat="33.268635" lon="103.815475">
				<ele>2546.000000</ele>
				<time>1970-01-01T00:00:00Z</time>
			</trkpt>
			<trkpt lat="33.268635" lon="103.815483">
				<ele>2546.000000</ele>
				<time>1970-01-01T00:00:00Z</time>
			</trkpt>
			<trkpt lat="33.268631" lon="103.815483">
				<ele>2546.000000</ele>
				<time>1970-01-01T00:00:00Z</time>
			</trkpt>
			<trkpt lat="33.268631" lon="103.815491">
				<ele>2546.000000</ele>
				<time>1970-01-01T00:00:00Z</time>
			</trkpt>
			<trkpt lat="33.268631" lon="103.815491">
				<ele>2546.000000</ele>
				<time>1970-01-01T00:00:00Z</time>
			</trkpt>
			<trkpt lat="33.268631" lon="103.815498">
				<ele>2546.000000</ele>
				<time>1970-01-01T00:00:00Z</time>
			</trkpt>
			<trkpt lat="33.268631" lon="103.815506">
				<ele>2546.000000</ele>
				<time>1970-01-01T00:00:00Z</time>
			</trkpt>
			<trkpt lat="33.268627" lon="103.815506">
				<ele>2546.000000</ele>
				<time>1970-01-01T00:00:00Z</time>
			</trkpt>
			<trkpt lat="33.268623" lon="103.815506">
				<ele>2546.000000</ele>
				<time>1970-01-01T00:00:00Z</time>
			</trkpt>
			<trkpt lat="33.268623" lon="103.815514">
				<ele>2546.000000</ele>
				<time>1970-01-01T00:00:00Z</time>
			</trkpt>
			<trkpt lat="33.268623" lon="103.815514">
				<ele>2546.000000</ele>
				<time>1970-01-01T00:00:00Z</time>
			</trkpt>
			<trkpt lat="33.268616" lon="103.815514">
				<ele>2546.000000</ele>
				<time>1970-01-01T00:00:00Z</time>
			</trkpt>
			<trkpt lat="33.268616" lon="103.815521">
				<ele>2546.000000</ele>
				<time>1970-01-01T00:00:00Z</time>
			</trkpt>
			<trkpt lat="33.268616" lon="103.815529">
				<ele>2546.000000</ele>
				<time>1970-01-01T00:00:00Z</time>
			</trkpt>
			<trkpt lat="33.268612" lon="103.815529">
				<ele>2546.000000</ele>
				<time>1970-01-01T00:00:00Z</time>
			</trkpt>
			<trkpt lat="33.268612" lon="103.815529">
				<ele>2546.000000</ele>
				<time>1970-01-01T00:00:00Z</time>
			</trkpt>
			<trkpt lat="33.268612" lon="103.815536">
				<ele>2546.000000</ele>
				<time>1970-01-01T00:00:00Z</time>
			</trkpt>
			<trkpt lat="33.268612" lon="103.815544">
				<ele>2546.000000</ele>
				<time>1970-01-01T00:00:00Z</time>
			</trkpt>
			<trkpt lat="33.268608" lon="103.815544">
				<ele>2546.000000</ele>
				<time>1970-01-01T00:00:00Z</time>
			</trkpt>
			<trkpt lat="33.268608" lon="103.815544">
				<ele>2546.000000</ele>
				<time>1970-01-01T00:00:00Z</time>
			</trkpt>
			<trkpt lat="33.268604" lon="103.815544">
				<ele>2546.000000</ele>
				<time>1970-01-01T00:00:00Z</time>
			</trkpt>
			<trkpt lat="33.268604" lon="103.815552">
				<ele>2546.000000</ele>
				<time>1970-01-01T00:00:00Z</time>
			</trkpt>
			<trkpt lat="33.268604" lon="103.815559">
				<ele>2546.000000</ele>
				<time>1970-01-01T00:00:00Z</time>
			</trkpt>
			<trkpt lat="33.268604" lon="103.815567">
				<ele>2546.000000</ele>
				<time>1970-01-01T00:00:00Z</time>
			</trkpt>
			<trkpt lat="33.268600" lon="103.815567">
				<ele>2546.000000</ele>
				<time>1970-01-01T00:00:00Z</time>
			</trkpt>
			<trkpt lat="33.268600" lon="103.815567">
				<ele>2546.000000</ele>
				<time>1970-01-01T00:00:00Z</time>
			</trkpt>
			<trkpt lat="33.268600" lon="103.815575">
				<ele>2546.000000</ele>
				<time>1970-01-01T00:00:00Z</time>
			</trkpt>
			<trkpt lat="33.268600" lon="103.815582">
				<ele>2546.000000</ele>
				<time>1970-01-01T00:00:00Z</time>
			</trkpt>
			<trkpt lat="33.268593" lon="103.815582">
				<ele>2546.000000</ele>
				<time>1970-01-01T00:00:00Z</time>
			</trkpt>
			<trkpt lat="33.268593" lon="103.815582">
				<ele>2546.000000</ele>
				<time>1970-01-01T00:00:00Z</time>
			</trkpt>
			<trkpt lat="33.268593" lon="103.815590">
				<ele>2546.000000</ele>
				<time>1970-01-01T00:00:00Z</time>
			</trkpt>
			<trkpt lat="33.268593" lon="103.815598">
				<ele>2546.000000</ele>
				<time>1970-01-01T00:00:00Z</time>
			</trkpt>
			<trkpt lat="33.268593" lon="103.815598">
				<ele>2546.000000</ele>
				<time>1970-01-01T00:00:00Z</time>
			</trkpt>
			<trkpt lat="33.268589" lon="103.815598">
				<ele>2546.000000</ele>
				<time>1970-01-01T00:00:00Z</time>
			</trkpt>
			<trkpt lat="33.268589" lon="103.815605">
				<ele>2546.000000</ele>
				<time>1970-01-01T00:00:00Z</time>
			</trkpt>
			<trkpt lat="33.268585" lon="103.815605">
				<ele>2546.000000</ele>
				<time>1970-01-01T00:00:00Z</time>
			</trkpt>
			<trkpt lat="33.268585" lon="103.815613">
				<ele>2546.000000</ele>
				<time>1970-01-01T00:00:00Z</time>
			</trkpt>
			<trkpt lat="33.268585" lon="103.815620">
				<ele>2546.000000</ele>
				<time>1970-01-01T00:00:00Z</time>
			</trkpt>
			<trkpt lat="33.268585" lon="103.815620">
				<ele>2546.000000</ele>
				<time>1970-01-01T00:00:00Z</time>
			</trkpt>
			<trkpt lat="33.268585" lon="103.815628">
				<ele>2546.000000</ele>
				<time>1970-01-01T00:00:00Z</time>
			</trkpt>
			<trkpt lat="33.268585" lon="103.815636">
				<ele>2546.000000</ele>
				<time>1970-01-01T00:00:00Z</time>
			</trkpt>
			<trkpt lat="33.268585" lon="103.815636">
				<ele>2546.000000</ele>
				<time>1970-01-01T00:00:00Z</time>
			</trkpt>
			<trkpt lat="33.268585" lon="103.815643">
				<ele>2546.000000</ele>
				<time>1970-01-01T00:00:00Z</time>
			</trkpt>
			<trkpt lat="33.268585" lon="103.815651">
				<ele>2546.000000</ele>
				<time>1970-01-01T00:00:00Z</time>
			</trkpt>
			<trkpt lat="33.268585" lon="103.815659">
				<ele>2546.000000</ele>
				<time>1970-01-01T00:00:00Z</time>
			</trkpt>
			<trkpt lat="33.268585" lon="103.815659">
				<ele>2546.000000</ele>
				<time>1970-01-01T00:00:00Z</time>
			</trkpt>
			<trkpt lat="33.268581" lon="103.815659">
				<ele>2546.000000</ele>
				<time>1970-01-01T00:00:00Z</time>
			</trkpt>
			<trkpt lat="33.268581" lon="103.815666">
				<ele>2546.000000</ele>
				<time>1970-01-01T00:00:00Z</time>
			</trkpt>
			<trkpt lat="33.268581" lon="103.815674">
				<ele>2546.000000</ele>
				<time>1970-01-01T00:00:00Z</time>
			</trkpt>
			<trkpt lat="33.268581" lon="103.815674">
				<ele>2546.000000</ele>
				<time>1970-01-01T00:00:00Z</time>
			</trkpt>
			<trkpt lat="33.268581" lon="103.815681">
				<ele>2546.000000</ele>
				<time>1970-01-01T00:00:00Z</time>
			</trkpt>
			<trkpt lat="33.268581" lon="103.815689">
				<ele>2546.000000</ele>
				<time>1970-01-01T00:00:00Z</time>
			</trkpt>
			<trkpt lat="33.268581" lon="103.815689">
				<ele>2546.000000</ele>
				<time>1970-01-01T00:00:00Z</time>
			</trkpt>
			<trkpt lat="33.268581" lon="103.815697">
				<ele>2547.000000</ele>
				<time>1970-01-01T00:00:00Z</time>
			</trkpt>
			<trkpt lat="33.268581" lon="103.815704">
				<ele>2547.000000</ele>
				<time>1970-01-01T00:00:00Z</time>
			</trkpt>
			<trkpt lat="33.268578" lon="103.815704">
				<ele>2547.000000</ele>
				<time>1970-01-01T00:00:00Z</time>
			</trkpt>
			<trkpt lat="33.268578" lon="103.815712">
				<ele>2547.000000</ele>
				<time>1970-01-01T00:00:00Z</time>
			</trkpt>
			<trkpt lat="33.268578" lon="103.815712">
				<ele>2547.000000</ele>
				<time>1970-01-01T00:00:00Z</time>
			</trkpt>
			<trkpt lat="33.268578" lon="103.815720">
				<ele>2547.000000</ele>
				<time>1970-01-01T00:00:00Z</time>
			</trkpt>
			<trkpt lat="33.268578" lon="103.815727">
				<ele>2547.000000</ele>
				<time>1970-01-01T00:00:00Z</time>
			</trkpt>
			<trkpt lat="33.268578" lon="103.815727">
				<ele>2547.000000</ele>
				<time>1970-01-01T00:00:00Z</time>
			</trkpt>
			<trkpt lat="33.268578" lon="103.815735">
				<ele>2547.000000</ele>
				<time>1970-01-01T00:00:00Z</time>
			</trkpt>
			<trkpt lat="33.268581" lon="103.815735">
				<ele>2547.000000</ele>
				<time>1970-01-01T00:00:00Z</time>
			</trkpt>
			<trkpt lat="33.268581" lon="103.815742">
				<ele>2547.000000</ele>
				<time>1970-01-01T00:00:00Z</time>
			</trkpt>
			<trkpt lat="33.268581" lon="103.815742">
				<ele>2547.000000</ele>
				<time>1970-01-01T00:00:00Z</time>
			</trkpt>
			<trkpt lat="33.268581" lon="103.815750">
				<ele>2547.000000</ele>
				<time>1970-01-01T00:00:00Z</time>
			</trkpt>
			<trkpt lat="33.268585" lon="103.815750">
				<ele>2547.000000</ele>
				<time>1970-01-01T00:00:00Z</time>
			</trkpt>
			<trkpt lat="33.268585" lon="103.815758">
				<ele>2547.000000</ele>
				<time>1970-01-01T00:00:00Z</time>
			</trkpt>
			<trkpt lat="33.268589" lon="103.815758">
				<ele>2547.000000</ele>
				<time>1970-01-01T00:00:00Z</time>
			</trkpt>
			<trkpt lat="33.268589" lon="103.815765">
				<ele>2547.000000</ele>
				<time>1970-01-01T00:00:00Z</time>
			</trkpt>
			<trkpt lat="33.268589" lon="103.815765">
				<ele>2547.000000</ele>
				<time>1970-01-01T00:00:00Z</time>
			</trkpt>
			<trkpt lat="33.268589" lon="103.815773">
				<ele>2547.000000</ele>
				<time>1970-01-01T00:00:00Z</time>
			</trkpt>
			<trkpt lat="33.268593" lon="103.815773">
				<ele>2547.000000</ele>
				<time>1970-01-01T00:00:00Z</time>
			</trkpt>
			<trkpt lat="33.268593" lon="103.815781">
				<ele>2547.000000</ele>
				<time>1970-01-01T00:00:00Z</time>
			</trkpt>
			<trkpt lat="33.268593" lon="103.815781">
				<ele>2547.000000</ele>
				<time>1970-01-01T00:00:00Z</time>
			</trkpt>
			<trkpt lat="33.268600" lon="103.815781">
				<ele>2547.000000</ele>
				<time>1970-01-01T00:00:00Z</time>
			</trkpt>
			<trkpt lat="33.268600" lon="103.815788">
				<ele>2547.000000</ele>
				<time>1970-01-01T00:00:00Z</time>
			</trkpt>
			<trkpt lat="33.268600" lon="103.815796">
				<ele>2547.000000</ele>
				<time>1970-01-01T00:00:00Z</time>
			</trkpt>
			<trkpt lat="33.268600" lon="103.815804">
				<ele>2547.000000</ele>
				<time>1970-01-01T00:00:00Z</time>
			</trkpt>
			<trkpt lat="33.268604" lon="103.815804">
				<ele>2547.000000</ele>
				<time>1970-01-01T00:00:00Z</time>
			</trkpt>
			<trkpt lat="33.268604" lon="103.815804">
				<ele>2547.000000</ele>
				<time>1970-01-01T00:00:00Z</time>
			</trkpt>
			<trkpt lat="33.268608" lon="103.815804">
				<ele>2547.000000</ele>
				<time>1970-01-01T00:00:00Z</time>
			</trkpt>
			<trkpt lat="33.268608" lon="103.815811">
				<ele>2547.000000</ele>
				<time>1970-01-01T00:00:00Z</time>
			</trkpt>
			<trkpt lat="33.268608" lon="103.815819">
				<ele>2547.000000</ele>
				<time>1970-01-01T00:00:00Z</time>
			</trkpt>
			<trkpt lat="33.268608" lon="103.815819">
				<ele>2547.000000</ele>
				<time>1970-01-01T00:00:00Z</time>
			</trkpt>
			<trkpt lat="33.268612" lon="103.815826">
				<ele>2547.000000</ele>
				<time>1970-01-01T00:00:00Z</time>
			</trkpt>
			<trkpt lat="33.268612" lon="103.815834">
				<ele>2547.000000</ele>
				<time>1970-01-01T00:00:00Z</time>
			</trkpt>
			<trkpt lat="33.268612" lon="103.815834">
				<ele>2547.000000</ele>
				<time>1970-01-01T00:00:00Z</time>
			</trkpt>
			<trkpt lat="33.268616" lon="103.815834">
				<ele>2547.000000</ele>
				<time>1970-01-01T00:00:00Z</time>
			</trkpt>
			<trkpt lat="33.268616" lon="103.815842">
				<ele>2547.000000</ele>
				<time>1970-01-01T00:00:00Z</time>
			</trkpt>
			<trkpt lat="33.268616" lon="103.815849">
				<ele>2547.000000</ele>
				<time>1970-01-01T00:00:00Z</time>
			</trkpt>
			<trkpt lat="33.268623" lon="103.815849">
				<ele>2547.000000</ele>
				<time>1970-01-01T00:00:00Z</time>
			</trkpt>
			<trkpt lat="33.268623" lon="103.815857">
				<ele>2547.000000</ele>
				<time>1970-01-01T00:00:00Z</time>
			</trkpt>
			<trkpt lat="33.268627" lon="103.815857">
				<ele>2547.000000</ele>
				<time>1970-01-01T00:00:00Z</time>
			</trkpt>
			<trkpt lat="33.268627" lon="103.815857">
				<ele>2547.000000</ele>
				<time>1970-01-01T00:00:00Z</time>
			</trkpt>
			<trkpt lat="33.268627" lon="103.815865">
				<ele>2547.000000</ele>
				<time>1970-01-01T00:00:00Z</time>
			</trkpt>
			<trkpt lat="33.268631" lon="103.815865">
				<ele>2547.000000</ele>
				<time>1970-01-01T00:00:00Z</time>
			</trkpt>
			<trkpt lat="33.268631" lon="103.815872">
				<ele>2547.000000</ele>
				<time>1970-01-01T00:00:00Z</time>
			</trkpt>
			<trkpt lat="33.268631" lon="103.815872">
				<ele>2547.000000</ele>
				<time>1970-01-01T00:00:00Z</time>
			</trkpt>
			<trkpt lat="33.268635" lon="103.815872">
				<ele>2547.000000</ele>
				<time>1970-01-01T00:00:00Z</time>
			</trkpt>
			<trkpt lat="33.268635" lon="103.815880">
				<ele>2547.000000</ele>
				<time>1970-01-01T00:00:00Z</time>
			</trkpt>
			<trkpt lat="33.268639" lon="103.815887">
				<ele>2547.000000</ele>
				<time>1970-01-01T00:00:00Z</time>
			</trkpt>
			<trkpt lat="33.268639" lon="103.815887">
				<ele>2547.000000</ele>
				<time>1970-01-01T00:00:00Z</time>
			</trkpt>
			<trkpt lat="33.268642" lon="103.815887">
				<ele>2547.000000</ele>
				<time>1970-01-01T00:00:00Z</time>
			</trkpt>
			<trkpt lat="33.268642" lon="103.815895">
				<ele>2547.000000</ele>
				<time>1970-01-01T00:00:00Z</time>
			</trkpt>
			<trkpt lat="33.268642" lon="103.815903">
				<ele>2547.000000</ele>
				<time>1970-01-01T00:00:00Z</time>
			</trkpt>
			<trkpt lat="33.268650" lon="103.815903">
				<ele>2547.000000</ele>
				<time>1970-01-01T00:00:00Z</time>
			</trkpt>
			<trkpt lat="33.268650" lon="103.815910">
				<ele>2547.000000</ele>
				<time>1970-01-01T00:00:00Z</time>
			</trkpt>
			<trkpt lat="33.268654" lon="103.815910">
				<ele>2547.000000</ele>
				<time>1970-01-01T00:00:00Z</time>
			</trkpt>
			<trkpt lat="33.268654" lon="103.815910">
				<ele>2547.000000</ele>
				<time>1970-01-01T00:00:00Z</time>
			</trkpt>
			<trkpt lat="33.268658" lon="103.815910">
				<ele>2547.000000</ele>
				<time>1970-01-01T00:00:00Z</time>
			</trkpt>
			<trkpt lat="33.268658" lon="103.815918">
				<ele>2547.000000</ele>
				<time>1970-01-01T00:00:00Z</time>
			</trkpt>
			<trkpt lat="33.268658" lon="103.815926">
				<ele>2547.000000</ele>
				<time>1970-01-01T00:00:00Z</time>
			</trkpt>
			<trkpt lat="33.268661" lon="103.815926">
				<ele>2547.000000</ele>
				<time>1970-01-01T00:00:00Z</time>
			</trkpt>
			<trkpt lat="33.268661" lon="103.815926">
				<ele>2547.000000</ele>
				<time>1970-01-01T00:00:00Z</time>
			</trkpt>
			<trkpt lat="33.268665" lon="103.815926">
				<ele>2547.000000</ele>
				<time>1970-01-01T00:00:00Z</time>
			</trkpt>
			<trkpt lat="33.268665" lon="103.815933">
				<ele>2547.000000</ele>
				<time>1970-01-01T00:00:00Z</time>
			</trkpt>
			<trkpt lat="33.268669" lon="103.815941">
				<ele>2547.000000</ele>
				<time>1970-01-01T00:00:00Z</time>
			</trkpt>
			<trkpt lat="33.268669" lon="103.815941">
				<ele>2547.000000</ele>
				<time>1970-01-01T00:00:00Z</time>
			</trkpt>
			<trkpt lat="33.268669" lon="103.815948">
				<ele>2547.000000</ele>
				<time>1970-01-01T00:00:00Z</time>
			</trkpt>
			<trkpt lat="33.268677" lon="103.815948">
				<ele>2547.000000</ele>
				<time>1970-01-01T00:00:00Z</time>
			</trkpt>
			<trkpt lat="33.268677" lon="103.815956">
				<ele>2547.000000</ele>
				<time>1970-01-01T00:00:00Z</time>
			</trkpt>
			<trkpt lat="33.268681" lon="103.815956">
				<ele>2547.000000</ele>
				<time>1970-01-01T00:00:00Z</time>
			</trkpt>
			<trkpt lat="33.268684" lon="103.815956">
				<ele>2547.000000</ele>
				<time>1970-01-01T00:00:00Z</time>
			</trkpt>
			<trkpt lat="33.268684" lon="103.815964">
				<ele>2547.000000</ele>
				<time>1970-01-01T00:00:00Z</time>
			</trkpt>
			<trkpt lat="33.268684" lon="103.815964">
				<ele>2547.000000</ele>
				<time>1970-01-01T00:00:00Z</time>
			</trkpt>
			<trkpt lat="33.268688" lon="103.815964">
				<ele>2547.000000</ele>
				<time>1970-01-01T00:00:00Z</time>
			</trkpt>
			<trkpt lat="33.268688" lon="103.815971">
				<ele>2547.000000</ele>
				<time>1970-01-01T00:00:00Z</time>
			</trkpt>
			<trkpt lat="33.268688" lon="103.815979">
				<ele>2546.000000</ele>
				<time>1970-01-01T00:00:00Z</time>
			</trkpt>
			<trkpt lat="33.268692" lon="103.815979">
				<ele>2546.000000</ele>
				<time>1970-01-01T00:00:00Z</time>
			</trkpt>
			<trkpt lat="33.268700" lon="103.815979">
				<ele>2546.000000</ele>
				<time>1970-01-01T00:00:00Z</time>
			</trkpt>
			<trkpt lat="33.268703" lon="103.815979">
				<ele>2546.000000</ele>
				<time>1970-01-01T00:00:00Z</time>
			</trkpt>
			<trkpt lat="33.268703" lon="103.815987">
				<ele>2546.000000</ele>
				<time>1970-01-01T00:00:00Z</time>
			</trkpt>
			<trkpt lat="33.268703" lon="103.815994">
				<ele>2546.000000</ele>
				<time>1970-01-01T00:00:00Z</time>
			</trkpt>
			<trkpt lat="33.268707" lon="103.815994">
				<ele>2546.000000</ele>
				<time>1970-01-01T00:00:00Z</time>
			</trkpt>
			<trkpt lat="33.268707" lon="103.816002">
				<ele>2546.000000</ele>
				<time>1970-01-01T00:00:00Z</time>
			</trkpt>
			<trkpt lat="33.268711" lon="103.816002">
				<ele>2546.000000</ele>
				<time>1970-01-01T00:00:00Z</time>
			</trkpt>
			<trkpt lat="33.268711" lon="103.816010">
				<ele>2546.000000</ele>
				<time>1970-01-01T00:00:00Z</time>
			</trkpt>
			<trkpt lat="33.268715" lon="103.816010">
				<ele>2546.000000</ele>
				<time>1970-01-01T00:00:00Z</time>
			</trkpt>
			<trkpt lat="33.268715" lon="103.816017">
				<ele>2546.000000</ele>
				<time>1970-01-01T00:00:00Z</time>
			</trkpt>
			<trkpt lat="33.268719" lon="103.816017">
				<ele>2546.000000</ele>
				<time>1970-01-01T00:00:00Z</time>
			</trkpt>
			<trkpt lat="33.268719" lon="103.816017">
				<ele>2546.000000</ele>
				<time>1970-01-01T00:00:00Z</time>
			</trkpt>
			<trkpt lat="33.268726" lon="103.816017">
				<ele>2546.000000</ele>
				<time>1970-01-01T00:00:00Z</time>
			</trkpt>
			<trkpt lat="33.268730" lon="103.816025">
				<ele>2546.000000</ele>
				<time>1970-01-01T00:00:00Z</time>
			</trkpt>
			<trkpt lat="33.268734" lon="103.816025">
				<ele>2546.000000</ele>
				<time>1970-01-01T00:00:00Z</time>
			</trkpt>
			<trkpt lat="33.268734" lon="103.816032">
				<ele>2546.000000</ele>
				<time>1970-01-01T00:00:00Z</time>
			</trkpt>
			<trkpt lat="33.268738" lon="103.816032">
				<ele>2546.000000</ele>
				<time>1970-01-01T00:00:00Z</time>
			</trkpt>
			<trkpt lat="33.268738" lon="103.816032">
				<ele>2546.000000</ele>
				<time>1970-01-01T00:00:00Z</time>
			</trkpt>
			<trkpt lat="33.268742" lon="103.816032">
				<ele>2546.000000</ele>
				<time>1970-01-01T00:00:00Z</time>
			</trkpt>
			<trkpt lat="33.268742" lon="103.816040">
				<ele>2546.000000</ele>
				<time>1970-01-01T00:00:00Z</time>
			</trkpt>
			<trkpt lat="33.268745" lon="103.816040">
				<ele>2546.000000</ele>
				<time>1970-01-01T00:00:00Z</time>
			</trkpt>
			<trkpt lat="33.268745" lon="103.816048">
				<ele>2546.000000</ele>
				<time>1970-01-01T00:00:00Z</time>
			</trkpt>
			<trkpt lat="33.268753" lon="103.816048">
				<ele>2542.000000</ele>
				<time>1970-01-01T00:00:00Z</time>
			</trkpt>
			<trkpt lat="33.268757" lon="103.816048">
				<ele>2542.000000</ele>
				<time>1970-01-01T00:00:00Z</time>
			</trkpt>
			<trkpt lat="33.268757" lon="103.816055">
				<ele>2542.000000</ele>
				<time>1970-01-01T00:00:00Z</time>
			</trkpt>
			<trkpt lat="33.268757" lon="103.816055">
				<ele>2542.000000</ele>
				<time>1970-01-01T00:00:00Z</time>
			</trkpt>
			<trkpt lat="33.268761" lon="103.816055">
				<ele>2542.000000</ele>
				<time>1970-01-01T00:00:00Z</time>
			</trkpt>
			<trkpt lat="33.268761" lon="103.816063">
				<ele>2542.000000</ele>
				<time>1970-01-01T00:00:00Z</time>
			</trkpt>
			<trkpt lat="33.268764" lon="103.816063">
				<ele>2542.000000</ele>
				<time>1970-01-01T00:00:00Z</time>
			</trkpt>
			<trkpt lat="33.268764" lon="103.816071">
				<ele>2542.000000</ele>
				<time>1970-01-01T00:00:00Z</time>
			</trkpt>
			<trkpt lat="33.268768" lon="103.816071">
				<ele>2542.000000</ele>
				<time>1970-01-01T00:00:00Z</time>
			</trkpt>
			<trkpt lat="33.268772" lon="103.816071">
				<ele>2542.000000</ele>
				<time>1970-01-01T00:00:00Z</time>
			</trkpt>
			<trkpt lat="33.268772" lon="103.816071">
				<ele>2542.000000</ele>
				<time>1970-01-01T00:00:00Z</time>
			</trkpt>
			<trkpt lat="33.268780" lon="103.816071">
				<ele>2542.000000</ele>
				<time>1970-01-01T00:00:00Z</time>
			</trkpt>
			<trkpt lat="33.268780" lon="103.816078">
				<ele>2542.000000</ele>
				<time>1970-01-01T00:00:00Z</time>
			</trkpt>
			<trkpt lat="33.268784" lon="103.816078">
				<ele>2542.000000</ele>
				<time>1970-01-01T00:00:00Z</time>
			</trkpt>
			<trkpt lat="33.268784" lon="103.816086">
				<ele>2542.000000</ele>
				<time>1970-01-01T00:00:00Z</time>
			</trkpt>
			<trkpt lat="33.268787" lon="103.816086">
				<ele>2542.000000</ele>
				<time>1970-01-01T00:00:00Z</time>
			</trkpt>
			<trkpt lat="33.268791" lon="103.816086">
				<ele>2542.000000</ele>
				<time>1970-01-01T00:00:00Z</time>
			</trkpt>
			<trkpt lat="33.268791" lon="103.816086">
				<ele>2542.000000</ele>
				<time>1970-01-01T00:00:00Z</time>
			</trkpt>
			<trkpt lat="33.268795" lon="103.816086">
				<ele>2542.000000</ele>
				<time>1970-01-01T00:00:00Z</time>
			</trkpt>
			<trkpt lat="33.268795" lon="103.816093">
				<ele>2542.000000</ele>
				<time>1970-01-01T00:00:00Z</time>
			</trkpt>
			<trkpt lat="33.268795" lon="103.816101">
				<ele>2542.000000</ele>
				<time>1970-01-01T00:00:00Z</time>
			</trkpt>
			<trkpt lat="33.268803" lon="103.816101">
				<ele>2542.000000</ele>
				<time>1970-01-01T00:00:00Z</time>
			</trkpt>
			<trkpt lat="33.268803" lon="103.816109">
				<ele>2542.000000</ele>
				<time>1970-01-01T00:00:00Z</time>
			</trkpt>
			<trkpt lat="33.268806" lon="103.816109">
				<ele>2542.000000</ele>
				<time>1970-01-01T00:00:00Z</time>
			</trkpt>
			<trkpt lat="33.268810" lon="103.816109">
				<ele>2542.000000</ele>
				<time>1970-01-01T00:00:00Z</time>
			</trkpt>
			<trkpt lat="33.268810" lon="103.816109">
				<ele>2542.000000</ele>
				<time>1970-01-01T00:00:00Z</time>
			</trkpt>
			<trkpt lat="33.268814" lon="103.816109">
				<ele>2542.000000</ele>
				<time>1970-01-01T00:00:00Z</time>
			</trkpt>
			<trkpt lat="33.268814" lon="103.816116">
				<ele>2542.000000</ele>
				<time>1970-01-01T00:00:00Z</time>
			</trkpt>
			<trkpt lat="33.268818" lon="103.816116">
				<ele>2542.000000</ele>
				<time>1970-01-01T00:00:00Z</time>
			</trkpt>
			<trkpt lat="33.268818" lon="103.816124">
				<ele>2542.000000</ele>
				<time>1970-01-01T00:00:00Z</time>
			</trkpt>
			<trkpt lat="33.268822" lon="103.816124">
				<ele>2542.000000</ele>
				<time>1970-01-01T00:00:00Z</time>
			</trkpt>
			<trkpt lat="33.268822" lon="103.816124">
				<ele>2542.000000</ele>
				<time>1970-01-01T00:00:00Z</time>
			</trkpt>
			<trkpt lat="33.268829" lon="103.816124">
				<ele>2542.000000</ele>
				<time>1970-01-01T00:00:00Z</time>
			</trkpt>
			<trkpt lat="33.268833" lon="103.816124">
				<ele>2542.000000</ele>
				<time>1970-01-01T00:00:00Z</time>
			</trkpt>
			<trkpt lat="33.268833" lon="103.816132">
				<ele>2542.000000</ele>
				<time>1970-01-01T00:00:00Z</time>
			</trkpt>
			<trkpt lat="33.268837" lon="103.816132">
				<ele>2542.000000</ele>
				<time>1970-01-01T00:00:00Z</time>
			</trkpt>
			<trkpt lat="33.268837" lon="103.816139">
				<ele>2542.000000</ele>
				<time>1970-01-01T00:00:00Z</time>
			</trkpt>
			<trkpt lat="33.268841" lon="103.816139">
				<ele>2542.000000</ele>
				<time>1970-01-01T00:00:00Z</time>
			</trkpt>
			<trkpt lat="33.268841" lon="103.816147">
				<ele>2542.000000</ele>
				<time>1970-01-01T00:00:00Z</time>
			</trkpt>
			<trkpt lat="33.268845" lon="103.816147">
				<ele>2542.000000</ele>
				<time>1970-01-01T00:00:00Z</time>
			</trkpt>
			<trkpt lat="33.268848" lon="103.816147">
				<ele>2542.000000</ele>
				<time>1970-01-01T00:00:00Z</time>
			</trkpt>
			<trkpt lat="33.268848" lon="103.816154">
				<ele>2542.000000</ele>
				<time>1970-01-01T00:00:00Z</time>
			</trkpt>
			<trkpt lat="33.268856" lon="103.816154">
				<ele>2542.000000</ele>
				<time>1970-01-01T00:00:00Z</time>
			</trkpt>
			<trkpt lat="33.268856" lon="103.816162">
				<ele>2542.000000</ele>
				<time>1970-01-01T00:00:00Z</time>
			</trkpt>
			<trkpt lat="33.268860" lon="103.816162">
				<ele>2542.000000</ele>
				<time>1970-01-01T00:00:00Z</time>
			</trkpt>
			<trkpt lat="33.268860" lon="103.816162">
				<ele>2542.000000</ele>
				<time>1970-01-01T00:00:00Z</time>
			</trkpt>
			<trkpt lat="33.268864" lon="103.816170">
				<ele>2542.000000</ele>
				<time>1970-01-01T00:00:00Z</time>
			</trkpt>
			<trkpt lat="33.268867" lon="103.816170">
				<ele>2542.000000</ele>
				<time>1970-01-01T00:00:00Z</time>
			</trkpt>
			<trkpt lat="33.268867" lon="103.816177">
				<ele>2542.000000</ele>
				<time>1970-01-01T00:00:00Z</time>
			</trkpt>
			<trkpt lat="33.268871" lon="103.816177">
				<ele>2542.000000</ele>
				<time>1970-01-01T00:00:00Z</time>
			</trkpt>
			<trkpt lat="33.268871" lon="103.816177">
				<ele>2542.000000</ele>
				<time>1970-01-01T00:00:00Z</time>
			</trkpt>
			<trkpt lat="33.268879" lon="103.816177">
				<ele>2542.000000</ele>
				<time>1970-01-01T00:00:00Z</time>
			</trkpt>
			<trkpt lat="33.268883" lon="103.816177">
				<ele>2542.000000</ele>
				<time>1970-01-01T00:00:00Z</time>
			</trkpt>
			<trkpt lat="33.268883" lon="103.816185">
				<ele>2542.000000</ele>
				<time>1970-01-01T00:00:00Z</time>
			</trkpt>
			<trkpt lat="33.268887" lon="103.816185">
				<ele>2542.000000</ele>
				<time>1970-01-01T00:00:00Z</time>
			</trkpt>
			<trkpt lat="33.268887" lon="103.816193">
				<ele>2542.000000</ele>
				<time>1970-01-01T00:00:00Z</time>
			</trkpt>
			<trkpt lat="33.268890" lon="103.816193">
				<ele>2542.000000</ele>
				<time>1970-01-01T00:00:00Z</time>
			</trkpt>
			<trkpt lat="33.268890" lon="103.816200">
				<ele>2542.000000</ele>
				<time>1970-01-01T00:00:00Z</time>
			</trkpt>
			<trkpt lat="33.268894" lon="103.816200">
				<ele>2542.000000</ele>
				<time>1970-01-01T00:00:00Z</time>
			</trkpt>
			<trkpt lat="33.268894" lon="103.816200">
				<ele>2542.000000</ele>
				<time>1970-01-01T00:00:00Z</time>
			</trkpt>
			<trkpt lat="33.268898" lon="103.816200">
				<ele>2542.000000</ele>
				<time>1970-01-01T00:00:00Z</time>
			</trkpt>
			<trkpt lat="33.268906" lon="103.816200">
				<ele>2542.000000</ele>
				<time>1970-01-01T00:00:00Z</time>
			</trkpt>
			<trkpt lat="33.268906" lon="103.816208">
				<ele>2542.000000</ele>
				<time>1970-01-01T00:00:00Z</time>
			</trkpt>
			<trkpt lat="33.268906" lon="103.816216">
				<ele>2542.000000</ele>
				<time>1970-01-01T00:00:00Z</time>
			</trkpt>
			<trkpt lat="33.268909" lon="103.816216">
				<ele>2542.000000</ele>
				<time>1970-01-01T00:00:00Z</time>
			</trkpt>
			<trkpt lat="33.268913" lon="103.816216">
				<ele>2542.000000</ele>
				<time>1970-01-01T00:00:00Z</time>
			</trkpt>
			<trkpt lat="33.268913" lon="103.816216">
				<ele>2542.000000</ele>
				<time>1970-01-01T00:00:00Z</time>
			</trkpt>
			<trkpt lat="33.268917" lon="103.816216">
				<ele>2542.000000</ele>
				<time>1970-01-01T00:00:00Z</time>
			</trkpt>
			<trkpt lat="33.268921" lon="103.816216">
				<ele>2542.000000</ele>
				<time>1970-01-01T00:00:00Z</time>
			</trkpt>
			<trkpt lat="33.268921" lon="103.816223">
				<ele>2542.000000</ele>
				<time>1970-01-01T00:00:00Z</time>
			</trkpt>
			<trkpt lat="33.268925" lon="103.816223">
				<ele>2542.000000</ele>
				<time>1970-01-01T00:00:00Z</time>
			</trkpt>
			<trkpt lat="33.268932" lon="103.816231">
				<ele>2542.000000</ele>
				<time>1970-01-01T00:00:00Z</time>
			</trkpt>
			<trkpt lat="33.268932" lon="103.816231">
				<ele>2542.000000</ele>
				<time>1970-01-01T00:00:00Z</time>
			</trkpt>
			<trkpt lat="33.268936" lon="103.816231">
				<ele>2542.000000</ele>
				<time>1970-01-01T00:00:00Z</time>
			</trkpt>
			<trkpt lat="33.268936" lon="103.816238">
				<ele>2542.000000</ele>
				<time>1970-01-01T00:00:00Z</time>
			</trkpt>
			<trkpt lat="33.268940" lon="103.816238">
				<ele>2542.000000</ele>
				<time>1970-01-01T00:00:00Z</time>
			</trkpt>
			<trkpt lat="33.268940" lon="103.816246">
				<ele>2542.000000</ele>
				<time>1970-01-01T00:00:00Z</time>
			</trkpt>
			<trkpt lat="33.268944" lon="103.816246">
				<ele>2542.000000</ele>
				<time>1970-01-01T00:00:00Z</time>
			</trkpt>
			<trkpt lat="33.268948" lon="103.816254">
				<ele>2540.000000</ele>
				<time>1970-01-01T00:00:00Z</time>
			</trkpt>
			<trkpt lat="33.268948" lon="103.816254">
				<ele>2540.000000</ele>
				<time>1970-01-01T00:00:00Z</time>
			</trkpt>
			<trkpt lat="33.268955" lon="103.816254">
				<ele>2540.000000</ele>
				<time>1970-01-01T00:00:00Z</time>
			</trkpt>
			<trkpt lat="33.268959" lon="103.816254">
				<ele>2540.000000</ele>
				<time>1970-01-01T00:00:00Z</time>
			</trkpt>
			<trkpt lat="33.268959" lon="103.816261">
				<ele>2540.000000</ele>
				<time>1970-01-01T00:00:00Z</time>
			</trkpt>
			<trkpt lat="33.268963" lon="103.816261">
				<ele>2540.000000</ele>
				<time>1970-01-01T00:00:00Z</time>
			</trkpt>
			<trkpt lat="33.268963" lon="103.816269">
				<ele>2540.000000</ele>
				<time>1970-01-01T00:00:00Z</time>
			</trkpt>
			<trkpt lat="33.268967" lon="103.816269">
				<ele>2540.000000</ele>
				<time>1970-01-01T00:00:00Z</time>
			</trkpt>
			<trkpt lat="33.268967" lon="103.816269">
				<ele>2540.000000</ele>
				<time>1970-01-01T00:00:00Z</time>
			</trkpt>
			<trkpt lat="33.268970" lon="103.816269">
				<ele>2540.000000</ele>
				<time>1970-01-01T00:00:00Z</time>
			</trkpt>
			<trkpt lat="33.268970" lon="103.816277">
				<ele>2540.000000</ele>
				<time>1970-01-01T00:00:00Z</time>
			</trkpt>
			<trkpt lat="33.268974" lon="103.816277">
				<ele>2540.000000</ele>
				<time>1970-01-01T00:00:00Z</time>
			</trkpt>
			<trkpt lat="33.268982" lon="103.816284">
				<ele>2540.000000</ele>
				<time>1970-01-01T00:00:00Z</time>
			</trkpt>
			<trkpt lat="33.268982" lon="103.816284">
				<ele>2540.000000</ele>
				<time>1970-01-01T00:00:00Z</time>
			</trkpt>
			<trkpt lat="33.268986" lon="103.816284">
				<ele>2540.000000</ele>
				<time>1970-01-01T00:00:00Z</time>
			</trkpt>
			<trkpt lat="33.268986" lon="103.816292">
				<ele>2540.000000</ele>
				<time>1970-01-01T00:00:00Z</time>
			</trkpt>
			<trkpt lat="33.268990" lon="103.816292">
				<ele>2540.000000</ele>
				<time>1970-01-01T00:00:00Z</time>
			</trkpt>
			<trkpt lat="33.268990" lon="103.816299">
				<ele>2540.000000</ele>
				<time>1970-01-01T00:00:00Z</time>
			</trkpt>
			<trkpt lat="33.268990" lon="103.816307">
				<ele>2540.000000</ele>
				<time>1970-01-01T00:00:00Z</time>
			</trkpt>
			<trkpt lat="33.268993" lon="103.816307">
				<ele>2540.000000</ele>
				<time>1970-01-01T00:00:00Z</time>
			</trkpt>
			<trkpt lat="33.268997" lon="103.816307">
				<ele>2540.000000</ele>
				<time>1970-01-01T00:00:00Z</time>
			</trkpt>
			<trkpt lat="33.268997" lon="103.816307">
				<ele>2540.000000</ele>
				<time>1970-01-01T00:00:00Z</time>
			</trkpt>
			<trkpt lat="33.268997" lon="103.816315">
				<ele>2540.000000</ele>
				<time>1970-01-01T00:00:00Z</time>
			</trkpt>
			<trkpt lat="33.269001" lon="103.816315">
				<ele>2540.000000</ele>
				<time>1970-01-01T00:00:00Z</time>
			</trkpt>
			<trkpt lat="33.269009" lon="103.816315">
				<ele>2540.000000</ele>
				<time>1970-01-01T00:00:00Z</time>
			</trkpt>
			<trkpt lat="33.269009" lon="103.816322">
				<ele>2540.000000</ele>
				<time>1970-01-01T00:00:00Z</time>
			</trkpt>
			<trkpt lat="33.269009" lon="103.816322">
				<ele>2540.000000</ele>
				<time>1970-01-01T00:00:00Z</time>
			</trkpt>
			<trkpt lat="33.269012" lon="103.816322">
				<ele>2540.000000</ele>
				<time>1970-01-01T00:00:00Z</time>
			</trkpt>
			<trkpt lat="33.269012" lon="103.816330">
				<ele>2540.000000</ele>
				<time>1970-01-01T00:00:00Z</time>
			</trkpt>
			<trkpt lat="33.269016" lon="103.816330">
				<ele>2540.000000</ele>
				<time>1970-01-01T00:00:00Z</time>
			</trkpt>
			<trkpt lat="33.269020" lon="103.816338">
				<ele>2540.000000</ele>
				<time>1970-01-01T00:00:00Z</time>
			</trkpt>
			<trkpt lat="33.269024" lon="103.816345">
				<ele>2540.000000</ele>
				<time>1970-01-01T00:00:00Z</time>
			</trkpt>
			<trkpt lat="33.269024" lon="103.816345">
				<ele>2540.000000</ele>
				<time>1970-01-01T00:00:00Z</time>
			</trkpt>
			<trkpt lat="33.269032" lon="103.816345">
				<ele>2535.000000</ele>
				<time>1970-01-01T00:00:00Z</time>
			</trkpt>
			<trkpt lat="33.269032" lon="103.816353">
				<ele>2535.000000</ele>
				<time>1970-01-01T00:00:00Z</time>
			</trkpt>
			<trkpt lat="33.269035" lon="103.816353">
				<ele>2535.000000</ele>
				<time>1970-01-01T00:00:00Z</time>
			</trkpt>
			<trkpt lat="33.269035" lon="103.816360">
				<ele>2535.000000</ele>
				<time>1970-01-01T00:00:00Z</time>
			</trkpt>
			<trkpt lat="33.269039" lon="103.816360">
				<ele>2535.000000</ele>
				<time>1970-01-01T00:00:00Z</time>
			</trkpt>
			<trkpt lat="33.269039" lon="103.816360">
				<ele>2535.000000</ele>
				<time>1970-01-01T00:00:00Z</time>
			</trkpt>
			<trkpt lat="33.269043" lon="103.816360">
				<ele>2535.000000</ele>
				<time>1970-01-01T00:00:00Z</time>
			</trkpt>
			<trkpt lat="33.269043" lon="103.816368">
				<ele>2535.000000</ele>
				<time>1970-01-01T00:00:00Z</time>
			</trkpt>
			<trkpt lat="33.269047" lon="103.816368">
				<ele>2535.000000</ele>
				<time>1970-01-01T00:00:00Z</time>
			</trkpt>
			<trkpt lat="33.269047" lon="103.816376">
				<ele>2535.000000</ele>
				<time>1970-01-01T00:00:00Z</time>
			</trkpt>
			<trkpt lat="33.269051" lon="103.816376">
				<ele>2535.000000</ele>
				<time>1970-01-01T00:00:00Z</time>
			</trkpt>
			<trkpt lat="33.269051" lon="103.816376">
				<ele>2535.000000</ele>
				<time>1970-01-01T00:00:00Z</time>
			</trkpt>
			<trkpt lat="33.269058" lon="103.816376">
				<ele>2535.000000</ele>
				<time>1970-01-01T00:00:00Z</time>
			</trkpt>
			<trkpt lat="33.269058" lon="103.816383">
				<ele>2535.000000</ele>
				<time>1970-01-01T00:00:00Z</time>
			</trkpt>
			<trkpt lat="33.269058" lon="103.816391">
				<ele>2535.000000</ele>
				<time>1970-01-01T00:00:00Z</time>
			</trkpt>
			<trkpt lat="33.269062" lon="103.816391">
				<ele>2535.000000</ele>
				<time>1970-01-01T00:00:00Z</time>
			</trkpt>
			<trkpt lat="33.269062" lon="103.816399">
				<ele>2535.000000</ele>
				<time>1970-01-01T00:00:00Z</time>
			</trkpt>
			<trkpt lat="33.269066" lon="103.816399">
				<ele>2535.000000</ele>
				<time>1970-01-01T00:00:00Z</time>
			</trkpt>
			<trkpt lat="33.269070" lon="103.816399">
				<ele>2535.000000</ele>
				<time>1970-01-01T00:00:00Z</time>
			</trkpt>
			<trkpt lat="33.269070" lon="103.816399">
				<ele>2535.000000</ele>
				<time>1970-01-01T00:00:00Z</time>
			</trkpt>
			<trkpt lat="33.269073" lon="103.816399">
				<ele>2535.000000</ele>
				<time>1970-01-01T00:00:00Z</time>
			</trkpt>
			<trkpt lat="33.269073" lon="103.816406">
				<ele>2535.000000</ele>
				<time>1970-01-01T00:00:00Z</time>
			</trkpt>
			<trkpt lat="33.269077" lon="103.816414">
				<ele>2535.000000</ele>
				<time>1970-01-01T00:00:00Z</time>
			</trkpt>
			<trkpt lat="33.269085" lon="103.816414">
				<ele>2535.000000</ele>
				<time>1970-01-01T00:00:00Z</time>
			</trkpt>
			<trkpt lat="33.269085" lon="103.816414">
				<ele>2535.000000</ele>
				<time>1970-01-01T00:00:00Z</time>
			</trkpt>
			<trkpt lat="33.269089" lon="103.816414">
				<ele>2535.000000</ele>
				<time>1970-01-01T00:00:00Z</time>
			</trkpt>
			<trkpt lat="33.269089" lon="103.816422">
				<ele>2535.000000</ele>
				<time>1970-01-01T00:00:00Z</time>
			</trkpt>
			<trkpt lat="33.269093" lon="103.816422">
				<ele>2535.000000</ele>
				<time>1970-01-01T00:00:00Z</time>
			</trkpt>
			<trkpt lat="33.269093" lon="103.816429">
				<ele>2535.000000</ele>
				<time>1970-01-01T00:00:00Z</time>
			</trkpt>
			<trkpt lat="33.269096" lon="103.816429">
				<ele>2535.000000</ele>
				<time>1970-01-01T00:00:00Z</time>
			</trkpt>
			<trkpt lat="33.269096" lon="103.816429">
				<ele>2535.000000</ele>
				<time>1970-01-01T00:00:00Z</time>
			</trkpt>
			<trkpt lat="33.269100" lon="103.816429">
				<ele>2535.000000</ele>
				<time>1970-01-01T00:00:00Z</time>
			</trkpt>
			<trkpt lat="33.269104" lon="103.816429">
				<ele>2535.000000</ele>
				<time>1970-01-01T00:00:00Z</time>
			</trkpt>
			<trkpt lat="33.269104" lon="103.816437">
				<ele>2535.000000</ele>
				<time>1970-01-01T00:00:00Z</time>
			</trkpt>
			<trkpt lat="33.269112" lon="103.816437">
				<ele>2535.000000</ele>
				<time>1970-01-01T00:00:00Z</time>
			</trkpt>
			<trkpt lat="33.269112" lon="103.816444">
				<ele>2535.000000</ele>
				<time>1970-01-01T00:00:00Z</time>
			</trkpt>
			<trkpt lat="33.269115" lon="103.816444">
				<ele>2535.000000</ele>
				<time>1970-01-01T00:00:00Z</time>
			</trkpt>
			<trkpt lat="33.269115" lon="103.816452">
				<ele>2535.000000</ele>
				<time>1970-01-01T00:00:00Z</time>
			</trkpt>
			<trkpt lat="33.269119" lon="103.816452">
				<ele>2535.000000</ele>
				<time>1970-01-01T00:00:00Z</time>
			</trkpt>
			<trkpt lat="33.269119" lon="103.816452">
				<ele>2535.000000</ele>
				<time>1970-01-01T00:00:00Z</time>
			</trkpt>
			<trkpt lat="33.269123" lon="103.816452">
				<ele>2535.000000</ele>
				<time>1970-01-01T00:00:00Z</time>
			</trkpt>
			<trkpt lat="33.269123" lon="103.816460">
				<ele>2535.000000</ele>
				<time>1970-01-01T00:00:00Z</time>
			</trkpt>
			<trkpt lat="33.269127" lon="103.816460">
				<ele>2535.000000</ele>
				<time>1970-01-01T00:00:00Z</time>
			</trkpt>
			<trkpt lat="33.269135" lon="103.816460">
				<ele>2535.000000</ele>
				<time>1970-01-01T00:00:00Z</time>
			</trkpt>
			<trkpt lat="33.269135" lon="103.816467">
				<ele>2535.000000</ele>
				<time>1970-01-01T00:00:00Z</time>
			</trkpt>
			<trkpt lat="33.269138" lon="103.816467">
				<ele>2535.000000</ele>
				<time>1970-01-01T00:00:00Z</time>
			</trkpt>
			<trkpt lat="33.269138" lon="103.816467">
				<ele>2535.000000</ele>
				<time>1970-01-01T00:00:00Z</time>
			</trkpt>
			<trkpt lat="33.269142" lon="103.816467">
				<ele>2535.000000</ele>
				<time>1970-01-01T00:00:00Z</time>
			</trkpt>
			<trkpt lat="33.269146" lon="103.816467">
				<ele>2535.000000</ele>
				<time>1970-01-01T00:00:00Z</time>
			</trkpt>
			<trkpt lat="33.269146" lon="103.816475">
				<ele>2535.000000</ele>
				<time>1970-01-01T00:00:00Z</time>
			</trkpt>
			<trkpt lat="33.269146" lon="103.816483">
				<ele>2535.000000</ele>
				<time>1970-01-01T00:00:00Z</time>
			</trkpt>
			<trkpt lat="33.269150" lon="103.816483">
				<ele>2535.000000</ele>
				<time>1970-01-01T00:00:00Z</time>
			</trkpt>
			<trkpt lat="33.269154" lon="103.816483">
				<ele>2535.000000</ele>
				<time>1970-01-01T00:00:00Z</time>
			</trkpt>
			<trkpt lat="33.269154" lon="103.816490">
				<ele>2535.000000</ele>
				<time>1970-01-01T00:00:00Z</time>
			</trkpt>
			<trkpt lat="33.269161" lon="103.816490">
				<ele>2535.000000</ele>
				<time>1970-01-01T00:00:00Z</time>
			</trkpt>
			<trkpt lat="33.269161" lon="103.816490">
				<ele>2535.000000</ele>
				<time>1970-01-01T00:00:00Z</time>
			</trkpt>
			<trkpt lat="33.269165" lon="103.816490">
				<ele>2535.000000</ele>
				<time>1970-01-01T00:00:00Z</time>
			</trkpt>
			<trkpt lat="33.269169" lon="103.816490">
				<ele>2535.000000</ele>
				<time>1970-01-01T00:00:00Z</time>
			</trkpt>
			<trkpt lat="33.269169" lon="103.816498">
				<ele>2535.000000</ele>
				<time>1970-01-01T00:00:00Z</time>
			</trkpt>
			<trkpt lat="33.269173" lon="103.816498">
				<ele>2535.000000</ele>
				<time>1970-01-01T00:00:00Z</time>
			</trkpt>
			<trkpt lat="33.269173" lon="103.816505">
				<ele>2535.000000</ele>
				<time>1970-01-01T00:00:00Z</time>
			</trkpt>
			<trkpt lat="33.269176" lon="103.816505">
				<ele>2535.000000</ele>
				<time>1970-01-01T00:00:00Z</time>
			</trkpt>
			<trkpt lat="33.269176" lon="103.816505">
				<ele>2535.000000</ele>
				<time>1970-01-01T00:00:00Z</time>
			</trkpt>
			<trkpt lat="33.269180" lon="103.816505">
				<ele>2535.000000</ele>
				<time>1970-01-01T00:00:00Z</time>
			</trkpt>
			<trkpt lat="33.269188" lon="103.816505">
				<ele>2535.000000</ele>
				<time>1970-01-01T00:00:00Z</time>
			</trkpt>
			<trkpt lat="33.269188" lon="103.816513">
				<ele>2535.000000</ele>
				<time>1970-01-01T00:00:00Z</time>
			</trkpt>
			<trkpt lat="33.269192" lon="103.816513">
				<ele>2535.000000</ele>
				<time>1970-01-01T00:00:00Z</time>
			</trkpt>
			<trkpt lat="33.269192" lon="103.816521">
				<ele>2535.000000</ele>
				<time>1970-01-01T00:00:00Z</time>
			</trkpt>
			<trkpt lat="33.269196" lon="103.816521">
				<ele>2535.000000</ele>
				<time>1970-01-01T00:00:00Z</time>
			</trkpt>
			<trkpt lat="33.269196" lon="103.816521">
				<ele>2535.000000</ele>
				<time>1970-01-01T00:00:00Z</time>
			</trkpt>
			<trkpt lat="33.269199" lon="103.816521">
				<ele>2535.000000</ele>
				<time>1970-01-01T00:00:00Z</time>
			</trkpt>
			<trkpt lat="33.269203" lon="103.816521">
				<ele>2535.000000</ele>
				<time>1970-01-01T00:00:00Z</time>
			</trkpt>
			<trkpt lat="33.269203" lon="103.816528">
				<ele>2538.000000</ele>
				<time>1970-01-01T00:00:00Z</time>
			</trkpt>
			<trkpt lat="33.269211" lon="103.816528">
				<ele>2538.000000</ele>
				<time>1970-01-01T00:00:00Z</time>
			</trkpt>
			<trkpt lat="33.269211" lon="103.816536">
				<ele>2538.000000</ele>
				<time>1970-01-01T00:00:00Z</time>
			</trkpt>
			<trkpt lat="33.269215" lon="103.816536">
				<ele>2538.000000</ele>
				<time>1970-01-01T00:00:00Z</time>
			</trkpt>
			<trkpt lat="33.269218" lon="103.816536">
				<ele>2538.000000</ele>
				<time>1970-01-01T00:00:00Z</time>
			</trkpt>
			<trkpt lat="33.269218" lon="103.816544">
				<ele>2538.000000</ele>
				<time>1970-01-01T00:00:00Z</time>
			</trkpt>
			<trkpt lat="33.269222" lon="103.816544">
				<ele>2538.000000</ele>
				<time>1970-01-01T00:00:00Z</time>
			</trkpt>
			<trkpt lat="33.269222" lon="103.816544">
				<ele>2538.000000</ele>
				<time>1970-01-01T00:00:00Z</time>
			</trkpt>
			<trkpt lat="33.269226" lon="103.816544">
				<ele>2538.000000</ele>
				<time>1970-01-01T00:00:00Z</time>
			</trkpt>
			<trkpt lat="33.269230" lon="103.816544">
				<ele>2538.000000</ele>
				<time>1970-01-01T00:00:00Z</time>
			</trkpt>
			<trkpt lat="33.269238" lon="103.816544">
				<ele>2538.000000</ele>
				<time>1970-01-01T00:00:00Z</time>
			</trkpt>
			<trkpt lat="33.269238" lon="103.816551">
				<ele>2538.000000</ele>
				<time>1970-01-01T00:00:00Z</time>
			</trkpt>
			<trkpt lat="33.269241" lon="103.816551">
				<ele>2538.000000</ele>
				<time>1970-01-01T00:00:00Z</time>
			</trkpt>
			<trkpt lat="33.269241" lon="103.816559">
				<ele>2538.000000</ele>
				<time>1970-01-01T00:00:00Z</time>
			</trkpt>
			<trkpt lat="33.269245" lon="103.816559">
				<ele>2538.000000</ele>
				<time>1970-01-01T00:00:00Z</time>
			</trkpt>
			<trkpt lat="33.269249" lon="103.816559">
				<ele>2538.000000</ele>
				<time>1970-01-01T00:00:00Z</time>
			</trkpt>
			<trkpt lat="33.269249" lon="103.816559">
				<ele>2538.000000</ele>
				<time>1970-01-01T00:00:00Z</time>
			</trkpt>
			<trkpt lat="33.269249" lon="103.816566">
				<ele>2538.000000</ele>
				<time>1970-01-01T00:00:00Z</time>
			</trkpt>
			<trkpt lat="33.269253" lon="103.816566">
				<ele>2538.000000</ele>
				<time>1970-01-01T00:00:00Z</time>
			</trkpt>
			<trkpt lat="33.269257" lon="103.816566">
				<ele>2538.000000</ele>
				<time>1970-01-01T00:00:00Z</time>
			</trkpt>
			<trkpt lat="33.269257" lon="103.816574">
				<ele>2538.000000</ele>
				<time>1970-01-01T00:00:00Z</time>
			</trkpt>
			<trkpt lat="33.269264" lon="103.816574">
				<ele>2538.000000</ele>
				<time>1970-01-01T00:00:00Z</time>
			</trkpt>
			<trkpt lat="33.269268" lon="103.816574">
				<ele>2538.000000</ele>
				<time>1970-01-01T00:00:00Z</time>
			</trkpt>
			<trkpt lat="33.269272" lon="103.816574">
				<ele>2538.000000</ele>
				<time>1970-01-01T00:00:00Z</time>
			</trkpt>
			<trkpt lat="33.269276" lon="103.816574">
				<ele>2538.000000</ele>
				<time>1970-01-01T00:00:00Z</time>
			</trkpt>
			<trkpt lat="33.269276" lon="103.816582">
				<ele>2538.000000</ele>
				<time>1970-01-01T00:00:00Z</time>
			</trkpt>
			<trkpt lat="33.269279" lon="103.816582">
				<ele>2538.000000</ele>
				<time>1970-01-01T00:00:00Z</time>
			</trkpt>
			<trkpt lat="33.269279" lon="103.816589">
				<ele>2538.000000</ele>
				<time>1970-01-01T00:00:00Z</time>
			</trkpt>
			<trkpt lat="33.269287" lon="103.816589">
				<ele>2538.000000</ele>
				<time>1970-01-01T00:00:00Z</time>
			</trkpt>
			<trkpt lat="33.269291" lon="103.816589">
				<ele>2538.000000</ele>
				<time>1970-01-01T00:00:00Z</time>
			</trkpt>
			<trkpt lat="33.269295" lon="103.816589">
				<ele>2538.000000</ele>
				<time>1970-01-01T00:00:00Z</time>
			</trkpt>
			<trkpt lat="33.269295" lon="103.816597">
				<ele>2538.000000</ele>
				<time>1970-01-01T00:00:00Z</time>
			</trkpt>
			<trkpt lat="33.269299" lon="103.816597">
				<ele>2538.000000</ele>
				<time>1970-01-01T00:00:00Z</time>
			</trkpt>
			<trkpt lat="33.269302" lon="103.816597">
				<ele>2538.000000</ele>
				<time>1970-01-01T00:00:00Z</time>
			</trkpt>
			<trkpt lat="33.269302" lon="103.816597">
				<ele>2538.000000</ele>
				<time>1970-01-01T00:00:00Z</time>
			</trkpt>
			<trkpt lat="33.269306" lon="103.816597">
				<ele>2534.000000</ele>
				<time>1970-01-01T00:00:00Z</time>
			</trkpt>
			<trkpt lat="33.269314" lon="103.816597">
				<ele>2534.000000</ele>
				<time>1970-01-01T00:00:00Z</time>
			</trkpt>
			<trkpt lat="33.269318" lon="103.816597">
				<ele>2534.000000</ele>
				<time>1970-01-01T00:00:00Z</time>
			</trkpt>
			<trkpt lat="33.269318" lon="103.816605">
				<ele>2534.000000</ele>
				<time>1970-01-01T00:00:00Z</time>
			</trkpt>
			<trkpt lat="33.269321" lon="103.816612">
				<ele>2534.000000</ele>
				<time>1970-01-01T00:00:00Z</time>
			</trkpt>
			<trkpt lat="33.269325" lon="103.816612">
				<ele>2534.000000</ele>
				<time>1970-01-01T00:00:00Z</time>
			</trkpt>
			<trkpt lat="33.269329" lon="103.816612">
				<ele>2534.000000</ele>
				<time>1970-01-01T00:00:00Z</time>
			</trkpt>
			<trkpt lat="33.269329" lon="103.816612">
				<ele>2534.000000</ele>
				<time>1970-01-01T00:00:00Z</time>
			</trkpt>
			<trkpt lat="33.269333" lon="103.816612">
				<ele>2534.000000</ele>
				<time>1970-01-01T00:00:00Z</time>
			</trkpt>
			<trkpt lat="33.269341" lon="103.816612">
				<ele>2534.000000</ele>
				<time>1970-01-01T00:00:00Z</time>
			</trkpt>
			<trkpt lat="33.269341" lon="103.816620">
				<ele>2534.000000</ele>
				<time>1970-01-01T00:00:00Z</time>
			</trkpt>
			<trkpt lat="33.269344" lon="103.816620">
				<ele>2534.000000</ele>
				<time>1970-01-01T00:00:00Z</time>
			</trkpt>
			<trkpt lat="33.269348" lon="103.816620">
				<ele>2534.000000</ele>
				<time>1970-01-01T00:00:00Z</time>
			</trkpt>
			<trkpt lat="33.269352" lon="103.816620">
				<ele>2534.000000</ele>
				<time>1970-01-01T00:00:00Z</time>
			</trkpt>
			<trkpt lat="33.269352" lon="103.816628">
				<ele>2534.000000</ele>
				<time>1970-01-01T00:00:00Z</time>
			</trkpt>
			<trkpt lat="33.269356" lon="103.816628">
				<ele>2534.000000</ele>
				<time>1970-01-01T00:00:00Z</time>
			</trkpt>
			<trkpt lat="33.269356" lon="103.816628">
				<ele>2534.000000</ele>
				<time>1970-01-01T00:00:00Z</time>
			</trkpt>
			<trkpt lat="33.269363" lon="103.816628">
				<ele>2534.000000</ele>
				<time>1970-01-01T00:00:00Z</time>
			</trkpt>
			<trkpt lat="33.269367" lon="103.816628">
				<ele>2534.000000</ele>
				<time>1970-01-01T00:00:00Z</time>
			</trkpt>
			<trkpt lat="33.269371" lon="103.816628">
				<ele>2534.000000</ele>
				<time>1970-01-01T00:00:00Z</time>
			</trkpt>
			<trkpt lat="33.269371" lon="103.816635">
				<ele>2534.000000</ele>
				<time>1970-01-01T00:00:00Z</time>
			</trkpt>
			<trkpt lat="33.269375" lon="103.816635">
				<ele>2534.000000</ele>
				<time>1970-01-01T00:00:00Z</time>
			</trkpt>
			<trkpt lat="33.269379" lon="103.816635">
				<ele>2534.000000</ele>
				<time>1970-01-01T00:00:00Z</time>
			</trkpt>
			<trkpt lat="33.269382" lon="103.816635">
				<ele>2534.000000</ele>
				<time>1970-01-01T00:00:00Z</time>
			</trkpt>
			<trkpt lat="33.269382" lon="103.816643">
				<ele>2534.000000</ele>
				<time>1970-01-01T00:00:00Z</time>
			</trkpt>
			<trkpt lat="33.269390" lon="103.816643">
				<ele>2534.000000</ele>
				<time>1970-01-01T00:00:00Z</time>
			</trkpt>
			<trkpt lat="33.269394" lon="103.816643">
				<ele>2534.000000</ele>
				<time>1970-01-01T00:00:00Z</time>
			</trkpt>
			<trkpt lat="33.269394" lon="103.816650">
				<ele>2534.000000</ele>
				<time>1970-01-01T00:00:00Z</time>
			</trkpt>
			<trkpt lat="33.269398" lon="103.816650">
				<ele>2534.000000</ele>
				<time>1970-01-01T00:00:00Z</time>
			</trkpt>
			<trkpt lat="33.269402" lon="103.816650">
				<ele>2534.000000</ele>
				<time>1970-01-01T00:00:00Z</time>
			</trkpt>
			<trkpt lat="33.269405" lon="103.816650">
				<ele>2534.000000</ele>
				<time>1970-01-01T00:00:00Z</time>
			</trkpt>
			<trkpt lat="33.269409" lon="103.816650">
				<ele>2534.000000</ele>
				<time>1970-01-01T00:00:00Z</time>
			</trkpt>
			<trkpt lat="33.269409" lon="103.816650">
				<ele>2534.000000</ele>
				<time>1970-01-01T00:00:00Z</time>
			</trkpt>
			<trkpt lat="33.269417" lon="103.816650">
				<ele>2534.000000</ele>
				<time>1970-01-01T00:00:00Z</time>
			</trkpt>
			<trkpt lat="33.269421" lon="103.816650">
				<ele>2534.000000</ele>
				<time>1970-01-01T00:00:00Z</time>
			</trkpt>
			<trkpt lat="33.269424" lon="103.816650">
				<ele>2534.000000</ele>
				<time>1970-01-01T00:00:00Z</time>
			</trkpt>
			<trkpt lat="33.269424" lon="103.816658">
				<ele>2534.000000</ele>
				<time>1970-01-01T00:00:00Z</time>
			</trkpt>
			<trkpt lat="33.269428" lon="103.816658">
				<ele>2534.000000</ele>
				<time>1970-01-01T00:00:00Z</time>
			</trkpt>
			<trkpt lat="33.269432" lon="103.816658">
				<ele>2534.000000</ele>
				<time>1970-01-01T00:00:00Z</time>
			</trkpt>
			<trkpt lat="33.269440" lon="103.816658">
				<ele>2534.000000</ele>
				<time>1970-01-01T00:00:00Z</time>
			</trkpt>
			<trkpt lat="33.269444" lon="103.816658">
				<ele>2534.000000</ele>
				<time>1970-01-01T00:00:00Z</time>
			</trkpt>
			<trkpt lat="33.269447" lon="103.816658">
				<ele>2534.000000</ele>
				<time>1970-01-01T00:00:00Z</time>
			</trkpt>
			<trkpt lat="33.269447" lon="103.816666">
				<ele>2534.000000</ele>
				<time>1970-01-01T00:00:00Z</time>
			</trkpt>
			<trkpt lat="33.269451" lon="103.816666">
				<ele>2534.000000</ele>
				<time>1970-01-01T00:00:00Z</time>
			</trkpt>
			<trkpt lat="33.269455" lon="103.816666">
				<ele>2534.000000</ele>
				<time>1970-01-01T00:00:00Z</time>
			</trkpt>
			<trkpt lat="33.269459" lon="103.816666">
				<ele>2534.000000</ele>
				<time>1970-01-01T00:00:00Z</time>
			</trkpt>
			<trkpt lat="33.269466" lon="103.816666">
				<ele>2534.000000</ele>
				<time>1970-01-01T00:00:00Z</time>
			</trkpt>
			<trkpt lat="33.269470" lon="103.816666">
				<ele>2534.000000</ele>
				<time>1970-01-01T00:00:00Z</time>
			</trkpt>
			<trkpt lat="33.269470" lon="103.816666">
				<ele>2534.000000</ele>
				<time>1970-01-01T00:00:00Z</time>
			</trkpt>
			<trkpt lat="33.269474" lon="103.816666">
				<ele>2534.000000</ele>
				<time>1970-01-01T00:00:00Z</time>
			</trkpt>
			<trkpt lat="33.269478" lon="103.816666">
				<ele>2534.000000</ele>
				<time>1970-01-01T00:00:00Z</time>
			</trkpt>
			<trkpt lat="33.269482" lon="103.816666">
				<ele>2534.000000</ele>
				<time>1970-01-01T00:00:00Z</time>
			</trkpt>
			<trkpt lat="33.269485" lon="103.816666">
				<ele>2534.000000</ele>
				<time>1970-01-01T00:00:00Z</time>
			</trkpt>
			<trkpt lat="33.269485" lon="103.816673">
				<ele>2534.000000</ele>
				<time>1970-01-01T00:00:00Z</time>
			</trkpt>
			<trkpt lat="33.269493" lon="103.816673">
				<ele>2534.000000</ele>
				<time>1970-01-01T00:00:00Z</time>
			</trkpt>
			<trkpt lat="33.269497" lon="103.816673">
				<ele>2534.000000</ele>
				<time>1970-01-01T00:00:00Z</time>
			</trkpt>
			<trkpt lat="33.269497" lon="103.816681">
				<ele>2534.000000</ele>
				<time>1970-01-01T00:00:00Z</time>
			</trkpt>
			<trkpt lat="33.269501" lon="103.816681">
				<ele>2534.000000</ele>
				<time>1970-01-01T00:00:00Z</time>
			</trkpt>
			<trkpt lat="33.269505" lon="103.816681">
				<ele>2534.000000</ele>
				<time>1970-01-01T00:00:00Z</time>
			</trkpt>
			<trkpt lat="33.269508" lon="103.816681">
				<ele>2534.000000</ele>
				<time>1970-01-01T00:00:00Z</time>
			</trkpt>
			<trkpt lat="33.269512" lon="103.816681">
				<ele>2534.000000</ele>
				<time>1970-01-01T00:00:00Z</time>
			</trkpt>
			<trkpt lat="33.269512" lon="103.816689">
				<ele>2534.000000</ele>
				<time>1970-01-01T00:00:00Z</time>
			</trkpt>
			<trkpt lat="33.269520" lon="103.816689">
				<ele>2534.000000</ele>
				<time>1970-01-01T00:00:00Z</time>
			</trkpt>
			<trkpt lat="33.269524" lon="103.816689">
				<ele>2534.000000</ele>
				<time>1970-01-01T00:00:00Z</time>
			</trkpt>
			<trkpt lat="33.269527" lon="103.816689">
				<ele>2534.000000</ele>
				<time>1970-01-01T00:00:00Z</time>
			</trkpt>
			<trkpt lat="33.269531" lon="103.816689">
				<ele>2534.000000</ele>
				<time>1970-01-01T00:00:00Z</time>
			</trkpt>
			<trkpt lat="33.269531" lon="103.816689">
				<ele>2534.000000</ele>
				<time>1970-01-01T00:00:00Z</time>
			</trkpt>
			<trkpt lat="33.269535" lon="103.816689">
				<ele>2534.000000</ele>
				<time>1970-01-01T00:00:00Z</time>
			</trkpt>
			<trkpt lat="33.269543" lon="103.816689">
				<ele>2534.000000</ele>
				<time>1970-01-01T00:00:00Z</time>
			</trkpt>
			<trkpt lat="33.269547" lon="103.816689">
				<ele>2534.000000</ele>
				<time>1970-01-01T00:00:00Z</time>
			</trkpt>
			<trkpt lat="33.269550" lon="103.816689">
				<ele>2534.000000</ele>
				<time>1970-01-01T00:00:00Z</time>
			</trkpt>
			<trkpt lat="33.269550" lon="103.816696">
				<ele>2534.000000</ele>
				<time>1970-01-01T00:00:00Z</time>
			</trkpt>
			<trkpt lat="33.269554" lon="103.816696">
				<ele>2534.000000</ele>
				<time>1970-01-01T00:00:00Z</time>
			</trkpt>
			<trkpt lat="33.269558" lon="103.816696">
				<ele>2534.000000</ele>
				<time>1970-01-01T00:00:00Z</time>
			</trkpt>
			<trkpt lat="33.269562" lon="103.816696">
				<ele>2534.000000</ele>
				<time>1970-01-01T00:00:00Z</time>
			</trkpt>
			<trkpt lat="33.269562" lon="103.816704">
				<ele>2534.000000</ele>
				<time>1970-01-01T00:00:00Z</time>
			</trkpt>
			<trkpt lat="33.269569" lon="103.816704">
				<ele>2534.000000</ele>
				<time>1970-01-01T00:00:00Z</time>
			</trkpt>
			<trkpt lat="33.269573" lon="103.816704">
				<ele>2534.000000</ele>
				<time>1970-01-01T00:00:00Z</time>
			</trkpt>
			<trkpt lat="33.269577" lon="103.816704">
				<ele>2534.000000</ele>
				<time>1970-01-01T00:00:00Z</time>
			</trkpt>
			<trkpt lat="33.269581" lon="103.816704">
				<ele>2534.000000</ele>
				<time>1970-01-01T00:00:00Z</time>
			</trkpt>
			<trkpt lat="33.269585" lon="103.816704">
				<ele>2532.000000</ele>
				<time>1970-01-01T00:00:00Z</time>
			</trkpt>
			<trkpt lat="33.269588" lon="103.816704">
				<ele>2532.000000</ele>
				<time>1970-01-01T00:00:00Z</time>
			</trkpt>
			<trkpt lat="33.269596" lon="103.816704">
				<ele>2532.000000</ele>
				<time>1970-01-01T00:00:00Z</time>
			</trkpt>
			<trkpt lat="33.269600" lon="103.816704">
				<ele>2532.000000</ele>
				<time>1970-01-01T00:00:00Z</time>
			</trkpt>
			<trkpt lat="33.269604" lon="103.816704">
				<ele>2532.000000</ele>
				<time>1970-01-01T00:00:00Z</time>
			</trkpt>
			<trkpt lat="33.269608" lon="103.816704">
				<ele>2532.000000</ele>
				<time>1970-01-01T00:00:00Z</time>
			</trkpt>
			<trkpt lat="33.269608" lon="103.816704">
				<ele>2532.000000</ele>
				<time>1970-01-01T00:00:00Z</time>
			</trkpt>
			<trkpt lat="33.269611" lon="103.816704">
				<ele>2532.000000</ele>
				<time>1970-01-01T00:00:00Z</time>
			</trkpt>
			<trkpt lat="33.269619" lon="103.816704">
				<ele>2532.000000</ele>
				<time>1970-01-01T00:00:00Z</time>
			</trkpt>
			<trkpt lat="33.269623" lon="103.816704">
				<ele>2532.000000</ele>
				<time>1970-01-01T00:00:00Z</time>
			</trkpt>
			<trkpt lat="33.269627" lon="103.816704">
				<ele>2532.000000</ele>
				<time>1970-01-01T00:00:00Z</time>
			</trkpt>
			<trkpt lat="33.269630" lon="103.816704">
				<ele>2532.000000</ele>
				<time>1970-01-01T00:00:00Z</time>
			</trkpt>
			<trkpt lat="33.269634" lon="103.816704">
				<ele>2532.000000</ele>
				<time>1970-01-01T00:00:00Z</time>
			</trkpt>
			<trkpt lat="33.269646" lon="103.816711">
				<ele>2532.000000</ele>
				<time>1970-01-01T00:00:00Z</time>
			</trkpt>
			<trkpt lat="33.269650" lon="103.816711">
				<ele>2532.000000</ele>
				<time>1970-01-01T00:00:00Z</time>
			</trkpt>
			<trkpt lat="33.269653" lon="103.816711">
				<ele>2532.000000</ele>
				<time>1970-01-01T00:00:00Z</time>
			</trkpt>
			<trkpt lat="33.269657" lon="103.816711">
				<ele>2532.000000</ele>
				<time>1970-01-01T00:00:00Z</time>
			</trkpt>
			<trkpt lat="33.269661" lon="103.816711">
				<ele>2532.000000</ele>
				<time>1970-01-01T00:00:00Z</time>
			</trkpt>
			<trkpt lat="33.269665" lon="103.816711">
				<ele>2532.000000</ele>
				<time>1970-01-01T00:00:00Z</time>
			</trkpt>
			<trkpt lat="33.269665" lon="103.816719">
				<ele>2532.000000</ele>
				<time>1970-01-01T00:00:00Z</time>
			</trkpt>
			<trkpt lat="33.269672" lon="103.816719">
				<ele>2532.000000</ele>
				<time>1970-01-01T00:00:00Z</time>
			</trkpt>
			<trkpt lat="33.269676" lon="103.816719">
				<ele>2532.000000</ele>
				<time>1970-01-01T00:00:00Z</time>
			</trkpt>
			<trkpt lat="33.269680" lon="103.816719">
				<ele>2532.000000</ele>
				<time>1970-01-01T00:00:00Z</time>
			</trkpt>
			<trkpt lat="33.269684" lon="103.816719">
				<ele>2532.000000</ele>
				<time>1970-01-01T00:00:00Z</time>
			</trkpt>
			<trkpt lat="33.269684" lon="103.816719">
				<ele>2532.000000</ele>
				<time>1970-01-01T00:00:00Z</time>
			</trkpt>
			<trkpt lat="33.269688" lon="103.816719">
				<ele>2532.000000</ele>
				<time>1970-01-01T00:00:00Z</time>
			</trkpt>
			<trkpt lat="33.269695" lon="103.816719">
				<ele>2532.000000</ele>
				<time>1970-01-01T00:00:00Z</time>
			</trkpt>
			<trkpt lat="33.269699" lon="103.816719">
				<ele>2532.000000</ele>
				<time>1970-01-01T00:00:00Z</time>
			</trkpt>
			<trkpt lat="33.269703" lon="103.816719">
				<ele>2532.000000</ele>
				<time>1970-01-01T00:00:00Z</time>
			</trkpt>
			<trkpt lat="33.269707" lon="103.816719">
				<ele>2532.000000</ele>
				<time>1970-01-01T00:00:00Z</time>
			</trkpt>
			<trkpt lat="33.269707" lon="103.816727">
				<ele>2532.000000</ele>
				<time>1970-01-01T00:00:00Z</time>
			</trkpt>
			<trkpt lat="33.269711" lon="103.816727">
				<ele>2532.000000</ele>
				<time>1970-01-01T00:00:00Z</time>
			</trkpt>
			<trkpt lat="33.269714" lon="103.816727">
				<ele>2532.000000</ele>
				<time>1970-01-01T00:00:00Z</time>
			</trkpt>
			<trkpt lat="33.269722" lon="103.816727">
				<ele>2532.000000</ele>
				<time>1970-01-01T00:00:00Z</time>
			</trkpt>
			<trkpt lat="33.269726" lon="103.816727">
				<ele>2532.000000</ele>
				<time>1970-01-01T00:00:00Z</time>
			</trkpt>
			<trkpt lat="33.269726" lon="103.816734">
				<ele>2532.000000</ele>
				<time>1970-01-01T00:00:00Z</time>
			</trkpt>
			<trkpt lat="33.269730" lon="103.816734">
				<ele>2532.000000</ele>
				<time>1970-01-01T00:00:00Z</time>
			</trkpt>
			<trkpt lat="33.269733" lon="103.816734">
				<ele>2532.000000</ele>
				<time>1970-01-01T00:00:00Z</time>
			</trkpt>
			<trkpt lat="33.269737" lon="103.816734">
				<ele>2532.000000</ele>
				<time>1970-01-01T00:00:00Z</time>
			</trkpt>
			<trkpt lat="33.269741" lon="103.816734">
				<ele>2532.000000</ele>
				<time>1970-01-01T00:00:00Z</time>
			</trkpt>
			<trkpt lat="33.269749" lon="103.816734">
				<ele>2532.000000</ele>
				<time>1970-01-01T00:00:00Z</time>
			</trkpt>
			<trkpt lat="33.269749" lon="103.816742">
				<ele>2532.000000</ele>
				<time>1970-01-01T00:00:00Z</time>
			</trkpt>
			<trkpt lat="33.269753" lon="103.816742">
				<ele>2532.000000</ele>
				<time>1970-01-01T00:00:00Z</time>
			</trkpt>
			<trkpt lat="33.269756" lon="103.816742">
				<ele>2532.000000</ele>
				<time>1970-01-01T00:00:00Z</time>
			</trkpt>
			<trkpt lat="33.269760" lon="103.816742">
				<ele>2532.000000</ele>
				<time>1970-01-01T00:00:00Z</time>
			</trkpt>
			<trkpt lat="33.269760" lon="103.816742">
				<ele>2532.000000</ele>
				<time>1970-01-01T00:00:00Z</time>
			</trkpt>
			<trkpt lat="33.269764" lon="103.816742">
				<ele>2532.000000</ele>
				<time>1970-01-01T00:00:00Z</time>
			</trkpt>
			<trkpt lat="33.269772" lon="103.816742">
				<ele>2532.000000</ele>
				<time>1970-01-01T00:00:00Z</time>
			</trkpt>
			<trkpt lat="33.269775" lon="103.816742">
				<ele>2532.000000</ele>
				<time>1970-01-01T00:00:00Z</time>
			</trkpt>
			<trkpt lat="33.269779" lon="103.816742">
				<ele>2532.000000</ele>
				<time>1970-01-01T00:00:00Z</time>
			</trkpt>
			<trkpt lat="33.269779" lon="103.816750">
				<ele>2532.000000</ele>
				<time>1970-01-01T00:00:00Z</time>
			</trkpt>
			<trkpt lat="33.269783" lon="103.816750">
				<ele>2532.000000</ele>
				<time>1970-01-01T00:00:00Z</time>
			</trkpt>
			<trkpt lat="33.269787" lon="103.816750">
				<ele>2532.000000</ele>
				<time>1970-01-01T00:00:00Z</time>
			</trkpt>
			<trkpt lat="33.269791" lon="103.816750">
				<ele>2532.000000</ele>
				<time>1970-01-01T00:00:00Z</time>
			</trkpt>
			<trkpt lat="33.269798" lon="103.816750">
				<ele>2532.000000</ele>
				<time>1970-01-01T00:00:00Z</time>
			</trkpt>
			<trkpt lat="33.269802" lon="103.816750">
				<ele>2532.000000</ele>
				<time>1970-01-01T00:00:00Z</time>
			</trkpt>
			<trkpt lat="33.269806" lon="103.816750">
				<ele>2532.000000</ele>
				<time>1970-01-01T00:00:00Z</time>
			</trkpt>
			<trkpt lat="33.269810" lon="103.816750">
				<ele>2532.000000</ele>
				<time>1970-01-01T00:00:00Z</time>
			</trkpt>
			<trkpt lat="33.269814" lon="103.816750">
				<ele>2532.000000</ele>
				<time>1970-01-01T00:00:00Z</time>
			</trkpt>
			<trkpt lat="33.269814" lon="103.816757">
				<ele>2532.000000</ele>
				<time>1970-01-01T00:00:00Z</time>
			</trkpt>
			<trkpt lat="33.269817" lon="103.816757">
				<ele>2532.000000</ele>
				<time>1970-01-01T00:00:00Z</time>
			</trkpt>
			<trkpt lat="33.269825" lon="103.816757">
				<ele>2532.000000</ele>
				<time>1970-01-01T00:00:00Z</time>
			</trkpt>
			<trkpt lat="33.269829" lon="103.816757">
				<ele>2532.000000</ele>
				<time>1970-01-01T00:00:00Z</time>
			</trkpt>
			<trkpt lat="33.269833" lon="103.816757">
				<ele>2532.000000</ele>
				<time>1970-01-01T00:00:00Z</time>
			</trkpt>
			<trkpt lat="33.269836" lon="103.816757">
				<ele>2532.000000</ele>
				<time>1970-01-01T00:00:00Z</time>
			</trkpt>
			<trkpt lat="33.269840" lon="103.816757">
				<ele>2532.000000</ele>
				<time>1970-01-01T00:00:00Z</time>
			</trkpt>
			<trkpt lat="33.269844" lon="103.816757">
				<ele>2532.000000</ele>
				<time>1970-01-01T00:00:00Z</time>
			</trkpt>
			<trkpt lat="33.269844" lon="103.816757">
				<ele>2532.000000</ele>
				<time>1970-01-01T00:00:00Z</time>
			</trkpt>
			<trkpt lat="33.269852" lon="103.816757">
				<ele>2532.000000</ele>
				<time>1970-01-01T00:00:00Z</time>
			</trkpt>
			<trkpt lat="33.269855" lon="103.816757">
				<ele>2532.000000</ele>
				<time>1970-01-01T00:00:00Z</time>
			</trkpt>
			<trkpt lat="33.269859" lon="103.816757">
				<ele>2532.000000</ele>
				<time>1970-01-01T00:00:00Z</time>
			</trkpt>
			<trkpt lat="33.269863" lon="103.816757">
				<ele>2535.000000</ele>
				<time>1970-01-01T00:00:00Z</time>
			</trkpt>
			<trkpt lat="33.269867" lon="103.816757">
				<ele>2535.000000</ele>
				<time>1970-01-01T00:00:00Z</time>
			</trkpt>
			<trkpt lat="33.269875" lon="103.816757">
				<ele>2535.000000</ele>
				<time>1970-01-01T00:00:00Z</time>
			</trkpt>
			<trkpt lat="33.269878" lon="103.816757">
				<ele>2535.000000</ele>
				<time>1970-01-01T00:00:00Z</time>
			</trkpt>
			<trkpt lat="33.269882" lon="103.816757">
				<ele>2535.000000</ele>
				<time>1970-01-01T00:00:00Z</time>
			</trkpt>
			<trkpt lat="33.269886" lon="103.816757">
				<ele>2535.000000</ele>
				<time>1970-01-01T00:00:00Z</time>
			</trkpt>
			<trkpt lat="33.269890" lon="103.816757">
				<ele>2535.000000</ele>
				<time>1970-01-01T00:00:00Z</time>
			</trkpt>
			<trkpt lat="33.269890" lon="103.816765">
				<ele>2535.000000</ele>
				<time>1970-01-01T00:00:00Z</time>
			</trkpt>
			<trkpt lat="33.269894" lon="103.816765">
				<ele>2535.000000</ele>
				<time>1970-01-01T00:00:00Z</time>
			</trkpt>
			<trkpt lat="33.269901" lon="103.816765">
				<ele>2535.000000</ele>
				<time>1970-01-01T00:00:00Z</time>
			</trkpt>
			<trkpt lat="33.269905" lon="103.816765">
				<ele>2535.000000</ele>
				<time>1970-01-01T00:00:00Z</time>
			</trkpt>
			<trkpt lat="33.269909" lon="103.816765">
				<ele>2535.000000</ele>
				<time>1970-01-01T00:00:00Z</time>
			</trkpt>
			<trkpt lat="33.269913" lon="103.816765">
				<ele>2535.000000</ele>
				<time>1970-01-01T00:00:00Z</time>
			</trkpt>
			<trkpt lat="33.269917" lon="103.816765">
				<ele>2535.000000</ele>
				<time>1970-01-01T00:00:00Z</time>
			</trkpt>
			<trkpt lat="33.269920" lon="103.816765">
				<ele>2535.000000</ele>
				<time>1970-01-01T00:00:00Z</time>
			</trkpt>
			<trkpt lat="33.269928" lon="103.816765">
				<ele>2535.000000</ele>
				<time>1970-01-01T00:00:00Z</time>
			</trkpt>
			<trkpt lat="33.269932" lon="103.816765">
				<ele>2535.000000</ele>
				<time>1970-01-01T00:00:00Z</time>
			</trkpt>
			<trkpt lat="33.269936" lon="103.816765">
				<ele>2535.000000</ele>
				<time>1970-01-01T00:00:00Z</time>
			</trkpt>
			<trkpt lat="33.269939" lon="103.816765">
				<ele>2535.000000</ele>
				<time>1970-01-01T00:00:00Z</time>
			</trkpt>
			<trkpt lat="33.269943" lon="103.816765">
				<ele>2535.000000</ele>
				<time>1970-01-01T00:00:00Z</time>
			</trkpt>
			<trkpt lat="33.269951" lon="103.816765">
				<ele>2535.000000</ele>
				<time>1970-01-01T00:00:00Z</time>
			</trkpt>
			<trkpt lat="33.269955" lon="103.816765">
				<ele>2535.000000</ele>
				<time>1970-01-01T00:00:00Z</time>
			</trkpt>
			<trkpt lat="33.269958" lon="103.816765">
				<ele>2535.000000</ele>
				<time>1970-01-01T00:00:00Z</time>
			</trkpt>
			<trkpt lat="33.269962" lon="103.816765">
				<ele>2535.000000</ele>
				<time>1970-01-01T00:00:00Z</time>
			</trkpt>
			<trkpt lat="33.269966" lon="103.816765">
				<ele>2535.000000</ele>
				<time>1970-01-01T00:00:00Z</time>
			</trkpt>
			<trkpt lat="33.269970" lon="103.816765">
				<ele>2535.000000</ele>
				<time>1970-01-01T00:00:00Z</time>
			</trkpt>
			<trkpt lat="33.269978" lon="103.816765">
				<ele>2535.000000</ele>
				<time>1970-01-01T00:00:00Z</time>
			</trkpt>
			<trkpt lat="33.269978" lon="103.816772">
				<ele>2535.000000</ele>
				<time>1970-01-01T00:00:00Z</time>
			</trkpt>
			<trkpt lat="33.269981" lon="103.816772">
				<ele>2535.000000</ele>
				<time>1970-01-01T00:00:00Z</time>
			</trkpt>
			<trkpt lat="33.269985" lon="103.816772">
				<ele>2535.000000</ele>
				<time>1970-01-01T00:00:00Z</time>
			</trkpt>
			<trkpt lat="33.269989" lon="103.816772">
				<ele>2535.000000</ele>
				<time>1970-01-01T00:00:00Z</time>
			</trkpt>
			<trkpt lat="33.269993" lon="103.816772">
				<ele>2535.000000</ele>
				<time>1970-01-01T00:00:00Z</time>
			</trkpt>
			<trkpt lat="33.269997" lon="103.816772">
				<ele>2535.000000</ele>
				<time>1970-01-01T00:00:00Z</time>
			</trkpt>
			<trkpt lat="33.270004" lon="103.816772">
				<ele>2535.000000</ele>
				<time>1970-01-01T00:00:00Z</time>
			</trkpt>
			<trkpt lat="33.270008" lon="103.816772">
				<ele>2535.000000</ele>
				<time>1970-01-01T00:00:00Z</time>
			</trkpt>
			<trkpt lat="33.270012" lon="103.816772">
				<ele>2535.000000</ele>
				<time>1970-01-01T00:00:00Z</time>
			</trkpt>
			<trkpt lat="33.270016" lon="103.816772">
				<ele>2535.000000</ele>
				<time>1970-01-01T00:00:00Z</time>
			</trkpt>
			<trkpt lat="33.270020" lon="103.816772">
				<ele>2535.000000</ele>
				<time>1970-01-01T00:00:00Z</time>
			</trkpt>
			<trkpt lat="33.270027" lon="103.816772">
				<ele>2535.000000</ele>
				<time>1970-01-01T00:00:00Z</time>
			</trkpt>
			<trkpt lat="33.270031" lon="103.816772">
				<ele>2535.000000</ele>
				<time>1970-01-01T00:00:00Z</time>
			</trkpt>
			<trkpt lat="33.270035" lon="103.816772">
				<ele>2535.000000</ele>
				<time>1970-01-01T00:00:00Z</time>
			</trkpt>
			<trkpt lat="33.270035" lon="103.816765">
				<ele>2535.000000</ele>
				<time>1970-01-01T00:00:00Z</time>
			</trkpt>
			<trkpt lat="33.270039" lon="103.816765">
				<ele>2535.000000</ele>
				<time>1970-01-01T00:00:00Z</time>
			</trkpt>
			<trkpt lat="33.270042" lon="103.816765">
				<ele>2535.000000</ele>
				<time>1970-01-01T00:00:00Z</time>
			</trkpt>
			<trkpt lat="33.270042" lon="103.816757">
				<ele>2535.000000</ele>
				<time>1970-01-01T00:00:00Z</time>
			</trkpt>
			<trkpt lat="33.270046" lon="103.816757">
				<ele>2535.000000</ele>
				<time>1970-01-01T00:00:00Z</time>
			</trkpt>
			<trkpt lat="33.270054" lon="103.816757">
				<ele>2535.000000</ele>
				<time>1970-01-01T00:00:00Z</time>
			</trkpt>
			<trkpt lat="33.270058" lon="103.816757">
				<ele>2535.000000</ele>
				<time>1970-01-01T00:00:00Z</time>
			</trkpt>
			<trkpt lat="33.270058" lon="103.816757">
				<ele>2535.000000</ele>
				<time>1970-01-01T00:00:00Z</time>
			</trkpt>
			<trkpt lat="33.270061" lon="103.816757">
				<ele>2535.000000</ele>
				<time>1970-01-01T00:00:00Z</time>
			</trkpt>
			<trkpt lat="33.270065" lon="103.816757">
				<ele>2535.000000</ele>
				<time>1970-01-01T00:00:00Z</time>
			</trkpt>
			<trkpt lat="33.270069" lon="103.816757">
				<ele>2535.000000</ele>
				<time>1970-01-01T00:00:00Z</time>
			</trkpt>
			<trkpt lat="33.270073" lon="103.816757">
				<ele>2535.000000</ele>
				<time>1970-01-01T00:00:00Z</time>
			</trkpt>
			<trkpt lat="33.270073" lon="103.816750">
				<ele>2535.000000</ele>
				<time>1970-01-01T00:00:00Z</time>
			</trkpt>
			<trkpt lat="33.270081" lon="103.816750">
				<ele>2535.000000</ele>
				<time>1970-01-01T00:00:00Z</time>
			</trkpt>
			<trkpt lat="33.270084" lon="103.816750">
				<ele>2535.000000</ele>
				<time>1970-01-01T00:00:00Z</time>
			</trkpt>
			<trkpt lat="33.270088" lon="103.816750">
				<ele>2535.000000</ele>
				<time>1970-01-01T00:00:00Z</time>
			</trkpt>
			<trkpt lat="33.270092" lon="103.816750">
				<ele>2535.000000</ele>
				<time>1970-01-01T00:00:00Z</time>
			</trkpt>
			<trkpt lat="33.270092" lon="103.816742">
				<ele>2535.000000</ele>
				<time>1970-01-01T00:00:00Z</time>
			</trkpt>
			<trkpt lat="33.270096" lon="103.816742">
				<ele>2535.000000</ele>
				<time>1970-01-01T00:00:00Z</time>
			</trkpt>
			<trkpt lat="33.270103" lon="103.816742">
				<ele>2535.000000</ele>
				<time>1970-01-01T00:00:00Z</time>
			</trkpt>
			<trkpt lat="33.270107" lon="103.816742">
				<ele>2535.000000</ele>
				<time>1970-01-01T00:00:00Z</time>
			</trkpt>
			<trkpt lat="33.270107" lon="103.816742">
				<ele>2535.000000</ele>
				<time>1970-01-01T00:00:00Z</time>
			</trkpt>
			<trkpt lat="33.270111" lon="103.816742">
				<ele>2535.000000</ele>
				<time>1970-01-01T00:00:00Z</time>
			</trkpt>
			<trkpt lat="33.270115" lon="103.816742">
				<ele>2535.000000</ele>
				<time>1970-01-01T00:00:00Z</time>
			</trkpt>
			<trkpt lat="33.270119" lon="103.816742">
				<ele>2535.000000</ele>
				<time>1970-01-01T00:00:00Z</time>
			</trkpt>
			<trkpt lat="33.270123" lon="103.816742">
				<ele>2535.000000</ele>
				<time>1970-01-01T00:00:00Z</time>
			</trkpt>
			<trkpt lat="33.270123" lon="103.816734">
				<ele>2535.000000</ele>
				<time>1970-01-01T00:00:00Z</time>
			</trkpt>
			<trkpt lat="33.270130" lon="103.816734">
				<ele>2535.000000</ele>
				<time>1970-01-01T00:00:00Z</time>
			</trkpt>
			<trkpt lat="33.270134" lon="103.816734">
				<ele>2535.000000</ele>
				<time>1970-01-01T00:00:00Z</time>
			</trkpt>
			<trkpt lat="33.270138" lon="103.816734">
				<ele>2535.000000</ele>
				<time>1970-01-01T00:00:00Z</time>
			</trkpt>
			<trkpt lat="33.270142" lon="103.816734">
				<ele>2532.000000</ele>
				<time>1970-01-01T00:00:00Z</time>
			</trkpt>
			<trkpt lat="33.270145" lon="103.816734">
				<ele>2532.000000</ele>
				<time>1970-01-01T00:00:00Z</time>
			</trkpt>
			<trkpt lat="33.270149" lon="103.816734">
				<ele>2532.000000</ele>
				<time>1970-01-01T00:00:00Z</time>
			</trkpt>
			<trkpt lat="33.270157" lon="103.816734">
				<ele>2532.000000</ele>
				<time>1970-01-01T00:00:00Z</time>
			</trkpt>
			<trkpt lat="33.270161" lon="103.816734">
				<ele>2532.000000</ele>
				<time>1970-01-01T00:00:00Z</time>
			</trkpt>
			<trkpt lat="33.270164" lon="103.816734">
				<ele>2532.000000</ele>
				<time>1970-01-01T00:00:00Z</time>
			</trkpt>
			<trkpt lat="33.270164" lon="103.816727">
				<ele>2532.000000</ele>
				<time>1970-01-01T00:00:00Z</time>
			</trkpt>
			<trkpt lat="33.270168" lon="103.816727">
				<ele>2532.000000</ele>
				<time>1970-01-01T00:00:00Z</time>
			</trkpt>
			<trkpt lat="33.270172" lon="103.816727">
				<ele>2532.000000</ele>
				<time>1970-01-01T00:00:00Z</time>
			</trkpt>
			<trkpt lat="33.270180" lon="103.816727">
				<ele>2532.000000</ele>
				<time>1970-01-01T00:00:00Z</time>
			</trkpt>
			<trkpt lat="33.270184" lon="103.816727">
				<ele>2532.000000</ele>
				<time>1970-01-01T00:00:00Z</time>
			</trkpt>
			<trkpt lat="33.270187" lon="103.816719">
				<ele>2532.000000</ele>
				<time>1970-01-01T00:00:00Z</time>
			</trkpt>
			<trkpt lat="33.270191" lon="103.816719">
				<ele>2532.000000</ele>
				<time>1970-01-01T00:00:00Z</time>
			</trkpt>
			<trkpt lat="33.270195" lon="103.816719">
				<ele>2532.000000</ele>
				<time>1970-01-01T00:00:00Z</time>
			</trkpt>
			<trkpt lat="33.270199" lon="103.816719">
				<ele>2532.000000</ele>
				<time>1970-01-01T00:00:00Z</time>
			</trkpt>
			<trkpt lat="33.270199" lon="103.816719">
				<ele>2532.000000</ele>
				<time>1970-01-01T00:00:00Z</time>
			</trkpt>
			<trkpt lat="33.270206" lon="103.816719">
				<ele>2532.000000</ele>
				<time>1970-01-01T00:00:00Z</time>
			</trkpt>
			<trkpt lat="33.270210" lon="103.816719">
				<ele>2532.000000</ele>
				<time>1970-01-01T00:00:00Z</time>
			</trkpt>
			<trkpt lat="33.270214" lon="103.816719">
				<ele>2532.000000</ele>
				<time>1970-01-01T00:00:00Z</time>
			</trkpt>
			<trkpt lat="33.270218" lon="103.816719">
				<ele>2532.000000</ele>
				<time>1970-01-01T00:00:00Z</time>
			</trkpt>
			<trkpt lat="33.270222" lon="103.816719">
				<ele>2532.000000</ele>
				<time>1970-01-01T00:00:00Z</time>
			</trkpt>
			<trkpt lat="33.270222" lon="103.816711">
				<ele>2532.000000</ele>
				<time>1970-01-01T00:00:00Z</time>
			</trkpt>
			<trkpt lat="33.270226" lon="103.816711">
				<ele>2532.000000</ele>
				<time>1970-01-01T00:00:00Z</time>
			</trkpt>
			<trkpt lat="33.270233" lon="103.816711">
				<ele>2532.000000</ele>
				<time>1970-01-01T00:00:00Z</time>
			</trkpt>
			<trkpt lat="33.270237" lon="103.816711">
				<ele>2532.000000</ele>
				<time>1970-01-01T00:00:00Z</time>
			</trkpt>
			<trkpt lat="33.270241" lon="103.816711">
				<ele>2532.000000</ele>
				<time>1970-01-01T00:00:00Z</time>
			</trkpt>
			<trkpt lat="33.270241" lon="103.816704">
				<ele>2532.000000</ele>
				<time>1970-01-01T00:00:00Z</time>
			</trkpt>
			<trkpt lat="33.270245" lon="103.816704">
				<ele>2532.000000</ele>
				<time>1970-01-01T00:00:00Z</time>
			</trkpt>
			<trkpt lat="33.270248" lon="103.816704">
				<ele>2532.000000</ele>
				<time>1970-01-01T00:00:00Z</time>
			</trkpt>
			<trkpt lat="33.270252" lon="103.816704">
				<ele>2532.000000</ele>
				<time>1970-01-01T00:00:00Z</time>
			</trkpt>
			<trkpt lat="33.270260" lon="103.816704">
				<ele>2532.000000</ele>
				<time>1970-01-01T00:00:00Z</time>
			</trkpt>
			<trkpt lat="33.270260" lon="103.816704">
				<ele>2532.000000</ele>
				<time>1970-01-01T00:00:00Z</time>
			</trkpt>
			<trkpt lat="33.270264" lon="103.816704">
				<ele>2532.000000</ele>
				<time>1970-01-01T00:00:00Z</time>
			</trkpt>
			<trkpt lat="33.270267" lon="103.816704">
				<ele>2532.000000</ele>
				<time>1970-01-01T00:00:00Z</time>
			</trkpt>
			<trkpt lat="33.270271" lon="103.816704">
				<ele>2532.000000</ele>
				<time>1970-01-01T00:00:00Z</time>
			</trkpt>
			<trkpt lat="33.270275" lon="103.816704">
				<ele>2532.000000</ele>
				<time>1970-01-01T00:00:00Z</time>
			</trkpt>
			<trkpt lat="33.270275" lon="103.816696">
				<ele>2532.000000</ele>
				<time>1970-01-01T00:00:00Z</time>
			</trkpt>
			<trkpt lat="33.270283" lon="103.816696">
				<ele>2532.000000</ele>
				<time>1970-01-01T00:00:00Z</time>
			</trkpt>
			<trkpt lat="33.270287" lon="103.816696">
				<ele>2532.000000</ele>
				<time>1970-01-01T00:00:00Z</time>
			</trkpt>
			<trkpt lat="33.270290" lon="103.816696">
				<ele>2532.000000</ele>
				<time>1970-01-01T00:00:00Z</time>
			</trkpt>
			<trkpt lat="33.270294" lon="103.816689">
				<ele>2532.000000</ele>
				<time>1970-01-01T00:00:00Z</time>
			</trkpt>
			<trkpt lat="33.270298" lon="103.816689">
				<ele>2532.000000</ele>
				<time>1970-01-01T00:00:00Z</time>
			</trkpt>
			<trkpt lat="33.270302" lon="103.816689">
				<ele>2532.000000</ele>
				<time>1970-01-01T00:00:00Z</time>
			</trkpt>
			<trkpt lat="33.270309" lon="103.816689">
				<ele>2532.000000</ele>
				<time>1970-01-01T00:00:00Z</time>
			</trkpt>
			<trkpt lat="33.270313" lon="103.816689">
				<ele>2532.000000</ele>
				<time>1970-01-01T00:00:00Z</time>
			</trkpt>
			<trkpt lat="33.270317" lon="103.816689">
				<ele>2532.000000</ele>
				<time>1970-01-01T00:00:00Z</time>
			</trkpt>
			<trkpt lat="33.270317" lon="103.816689">
				<ele>2532.000000</ele>
				<time>1970-01-01T00:00:00Z</time>
			</trkpt>
			<trkpt lat="33.270321" lon="103.816689">
				<ele>2532.000000</ele>
				<time>1970-01-01T00:00:00Z</time>
			</trkpt>
			<trkpt lat="33.270325" lon="103.816689">
				<ele>2532.000000</ele>
				<time>1970-01-01T00:00:00Z</time>
			</trkpt>
			<trkpt lat="33.270329" lon="103.816689">
				<ele>2532.000000</ele>
				<time>1970-01-01T00:00:00Z</time>
			</trkpt>
			<trkpt lat="33.270336" lon="103.816689">
				<ele>2532.000000</ele>
				<time>1970-01-01T00:00:00Z</time>
			</trkpt>
			<trkpt lat="33.270340" lon="103.816689">
				<ele>2532.000000</ele>
				<time>1970-01-01T00:00:00Z</time>
			</trkpt>
			<trkpt lat="33.270344" lon="103.816689">
				<ele>2532.000000</ele>
				<time>1970-01-01T00:00:00Z</time>
			</trkpt>
			<trkpt lat="33.270348" lon="103.816689">
				<ele>2532.000000</ele>
				<time>1970-01-01T00:00:00Z</time>
			</trkpt>
			<trkpt lat="33.270351" lon="103.816689">
				<ele>2532.000000</ele>
				<time>1970-01-01T00:00:00Z</time>
			</trkpt>
			<trkpt lat="33.270359" lon="103.816689">
				<ele>2532.000000</ele>
				<time>1970-01-01T00:00:00Z</time>
			</trkpt>
			<trkpt lat="33.270359" lon="103.816681">
				<ele>2532.000000</ele>
				<time>1970-01-01T00:00:00Z</time>
			</trkpt>
			<trkpt lat="33.270363" lon="103.816681">
				<ele>2532.000000</ele>
				<time>1970-01-01T00:00:00Z</time>
			</trkpt>
			<trkpt lat="33.270367" lon="103.816681">
				<ele>2532.000000</ele>
				<time>1970-01-01T00:00:00Z</time>
			</trkpt>
			<trkpt lat="33.270370" lon="103.816681">
				<ele>2532.000000</ele>
				<time>1970-01-01T00:00:00Z</time>
			</trkpt>
			<trkpt lat="33.270374" lon="103.816681">
				<ele>2532.000000</ele>
				<time>1970-01-01T00:00:00Z</time>
			</trkpt>
			<trkpt lat="33.270378" lon="103.816681">
				<ele>2532.000000</ele>
				<time>1970-01-01T00:00:00Z</time>
			</trkpt>
			<trkpt lat="33.270386" lon="103.816681">
				<ele>2532.000000</ele>
				<time>1970-01-01T00:00:00Z</time>
			</trkpt>
			<trkpt lat="33.270386" lon="103.816673">
				<ele>2532.000000</ele>
				<time>1970-01-01T00:00:00Z</time>
			</trkpt>
			<trkpt lat="33.270390" lon="103.816673">
				<ele>2532.000000</ele>
				<time>1970-01-01T00:00:00Z</time>
			</trkpt>
			<trkpt lat="33.270393" lon="103.816673">
				<ele>2532.000000</ele>
				<time>1970-01-01T00:00:00Z</time>
			</trkpt>
			<trkpt lat="33.270397" lon="103.816673">
				<ele>2532.000000</ele>
				<time>1970-01-01T00:00:00Z</time>
			</trkpt>
			<trkpt lat="33.270401" lon="103.816673">
				<ele>2532.000000</ele>
				<time>1970-01-01T00:00:00Z</time>
			</trkpt>
			<trkpt lat="33.270401" lon="103.816666">
				<ele>2532.000000</ele>
				<time>1970-01-01T00:00:00Z</time>
			</trkpt>
			<trkpt lat="33.270405" lon="103.816666">
				<ele>2532.000000</ele>
				<time>1970-01-01T00:00:00Z</time>
			</trkpt>
			<trkpt lat="33.270412" lon="103.816666">
				<ele>2532.000000</ele>
				<time>1970-01-01T00:00:00Z</time>
			</trkpt>
			<trkpt lat="33.270416" lon="103.816666">
				<ele>2532.000000</ele>
				<time>1970-01-01T00:00:00Z</time>
			</trkpt>
			<trkpt lat="33.270420" lon="103.816666">
				<ele>2523.000000</ele>
				<time>1970-01-01T00:00:00Z</time>
			</trkpt>
			<trkpt lat="33.270424" lon="103.816666">
				<ele>2523.000000</ele>
				<time>1970-01-01T00:00:00Z</time>
			</trkpt>
			<trkpt lat="33.270428" lon="103.816666">
				<ele>2523.000000</ele>
				<time>1970-01-01T00:00:00Z</time>
			</trkpt>
			<trkpt lat="33.270435" lon="103.816666">
				<ele>2523.000000</ele>
				<time>1970-01-01T00:00:00Z</time>
			</trkpt>
			<trkpt lat="33.270439" lon="103.816666">
				<ele>2523.000000</ele>
				<time>1970-01-01T00:00:00Z</time>
			</trkpt>
			<trkpt lat="33.270443" lon="103.816666">
				<ele>2523.000000</ele>
				<time>1970-01-01T00:00:00Z</time>
			</trkpt>
			<trkpt lat="33.270443" lon="103.816658">
				<ele>2523.000000</ele>
				<time>1970-01-01T00:00:00Z</time>
			</trkpt>
			<trkpt lat="33.270447" lon="103.816658">
				<ele>2523.000000</ele>
				<time>1970-01-01T00:00:00Z</time>
			</trkpt>
			<trkpt lat="33.270451" lon="103.816658">
				<ele>2523.000000</ele>
				<time>1970-01-01T00:00:00Z</time>
			</trkpt>
			<trkpt lat="33.270454" lon="103.816658">
				<ele>2523.000000</ele>
				<time>1970-01-01T00:00:00Z</time>
			</trkpt>
			<trkpt lat="33.270462" lon="103.816658">
				<ele>2523.000000</ele>
				<time>1970-01-01T00:00:00Z</time>
			</trkpt>
			<trkpt lat="33.270462" lon="103.816650">
				<ele>2523.000000</ele>
				<time>1970-01-01T00:00:00Z</time>
			</trkpt>
			<trkpt lat="33.270466" lon="103.816650">
				<ele>2523.000000</ele>
				<time>1970-01-01T00:00:00Z</time>
			</trkpt>
			<trkpt lat="33.270470" lon="103.816650">
				<ele>2523.000000</ele>
				<time>1970-01-01T00:00:00Z</time>
			</trkpt>
			<trkpt lat="33.270470" lon="103.816650">
				<ele>2523.000000</ele>
				<time>1970-01-01T00:00:00Z</time>
			</trkpt>
			<trkpt lat="33.270473" lon="103.816650">
				<ele>2523.000000</ele>
				<time>1970-01-01T00:00:00Z</time>
			</trkpt>
			<trkpt lat="33.270477" lon="103.816650">
				<ele>2523.000000</ele>
				<time>1970-01-01T00:00:00Z</time>
			</trkpt>
			<trkpt lat="33.270481" lon="103.816650">
				<ele>2523.000000</ele>
				<time>1970-01-01T00:00:00Z</time>
			</trkpt>
			<trkpt lat="33.270489" lon="103.816650">
				<ele>2523.000000</ele>
				<time>1970-01-01T00:00:00Z</time>
			</trkpt>
			<trkpt lat="33.270531" lon="103.816658">
				<ele>2523.000000</ele>
				<time>1970-01-01T00:00:00Z</time>
			</trkpt>
			<trkpt lat="33.270538" lon="103.816658">
				<ele>2523.000000</ele>
				<time>1970-01-01T00:00:00Z</time>
			</trkpt>
			<trkpt lat="33.270542" lon="103.816658">
				<ele>2523.000000</ele>
				<time>1970-01-01T00:00:00Z</time>
			</trkpt>
			<trkpt lat="33.270542" lon="103.816666">
				<ele>2523.000000</ele>
				<time>1970-01-01T00:00:00Z</time>
			</trkpt>
			<trkpt lat="33.270546" lon="103.816666">
				<ele>2523.000000</ele>
				<time>1970-01-01T00:00:00Z</time>
			</trkpt>
			<trkpt lat="33.270546" lon="103.816666">
				<ele>2523.000000</ele>
				<time>1970-01-01T00:00:00Z</time>
			</trkpt>
			<trkpt lat="33.270550" lon="103.816666">
				<ele>2523.000000</ele>
				<time>1970-01-01T00:00:00Z</time>
			</trkpt>
			<trkpt lat="33.270554" lon="103.816666">
				<ele>2523.000000</ele>
				<time>1970-01-01T00:00:00Z</time>
			</trkpt>
			<trkpt lat="33.270557" lon="103.816666">
				<ele>2523.000000</ele>
				<time>1970-01-01T00:00:00Z</time>
			</trkpt>
			<trkpt lat="33.270565" lon="103.816666">
				<ele>2523.000000</ele>
				<time>1970-01-01T00:00:00Z</time>
			</trkpt>
			<trkpt lat="33.270565" lon="103.816673">
				<ele>2523.000000</ele>
				<time>1970-01-01T00:00:00Z</time>
			</trkpt>
			<trkpt lat="33.270569" lon="103.816673">
				<ele>2523.000000</ele>
				<time>1970-01-01T00:00:00Z</time>
			</trkpt>
			<trkpt lat="33.270573" lon="103.816673">
				<ele>2523.000000</ele>
				<time>1970-01-01T00:00:00Z</time>
			</trkpt>
			<trkpt lat="33.270576" lon="103.816673">
				<ele>2523.000000</ele>
				<time>1970-01-01T00:00:00Z</time>
			</trkpt>
			<trkpt lat="33.270580" lon="103.816673">
				<ele>2523.000000</ele>
				<time>1970-01-01T00:00:00Z</time>
			</trkpt>
			<trkpt lat="33.270584" lon="103.816673">
				<ele>2523.000000</ele>
				<time>1970-01-01T00:00:00Z</time>
			</trkpt>
			<trkpt lat="33.270592" lon="103.816673">
				<ele>2523.000000</ele>
				<time>1970-01-01T00:00:00Z</time>
			</trkpt>
			<trkpt lat="33.270596" lon="103.816673">
				<ele>2523.000000</ele>
				<time>1970-01-01T00:00:00Z</time>
			</trkpt>
			<trkpt lat="33.270599" lon="103.816681">
				<ele>2523.000000</ele>
				<time>1970-01-01T00:00:00Z</time>
			</trkpt>
			<trkpt lat="33.270603" lon="103.816681">
				<ele>2523.000000</ele>
				<time>1970-01-01T00:00:00Z</time>
			</trkpt>
			<trkpt lat="33.270607" lon="103.816681">
				<ele>2523.000000</ele>
				<time>1970-01-01T00:00:00Z</time>
			</trkpt>
			<trkpt lat="33.270615" lon="103.816681">
				<ele>2523.000000</ele>
				<time>1970-01-01T00:00:00Z</time>
			</trkpt>
			<trkpt lat="33.270618" lon="103.816681">
				<ele>2523.000000</ele>
				<time>1970-01-01T00:00:00Z</time>
			</trkpt>
			<trkpt lat="33.270622" lon="103.816681">
				<ele>2523.000000</ele>
				<time>1970-01-01T00:00:00Z</time>
			</trkpt>
			<trkpt lat="33.270626" lon="103.816681">
				<ele>2523.000000</ele>
				<time>1970-01-01T00:00:00Z</time>
			</trkpt>
			<trkpt lat="33.270630" lon="103.816681">
				<ele>2523.000000</ele>
				<time>1970-01-01T00:00:00Z</time>
			</trkpt>
			<trkpt lat="33.270634" lon="103.816681">
				<ele>2523.000000</ele>
				<time>1970-01-01T00:00:00Z</time>
			</trkpt>
			<trkpt lat="33.270641" lon="103.816681">
				<ele>2523.000000</ele>
				<time>1970-01-01T00:00:00Z</time>
			</trkpt>
			<trkpt lat="33.270641" lon="103.816689">
				<ele>2523.000000</ele>
				<time>1970-01-01T00:00:00Z</time>
			</trkpt>
			<trkpt lat="33.270645" lon="103.816689">
				<ele>2523.000000</ele>
				<time>1970-01-01T00:00:00Z</time>
			</trkpt>
			<trkpt lat="33.270649" lon="103.816689">
				<ele>2523.000000</ele>
				<time>1970-01-01T00:00:00Z</time>
			</trkpt>
			<trkpt lat="33.270653" lon="103.816689">
				<ele>2523.000000</ele>
				<time>1970-01-01T00:00:00Z</time>
			</trkpt>
			<trkpt lat="33.270657" lon="103.816689">
				<ele>2523.000000</ele>
				<time>1970-01-01T00:00:00Z</time>
			</trkpt>
			<trkpt lat="33.270660" lon="103.816689">
				<ele>2523.000000</ele>
				<time>1970-01-01T00:00:00Z</time>
			</trkpt>
			<trkpt lat="33.270668" lon="103.816689">
				<ele>2523.000000</ele>
				<time>1970-01-01T00:00:00Z</time>
			</trkpt>
			<trkpt lat="33.270672" lon="103.816689">
				<ele>2523.000000</ele>
				<time>1970-01-01T00:00:00Z</time>
			</trkpt>
			<trkpt lat="33.270676" lon="103.816689">
				<ele>2523.000000</ele>
				<time>1970-01-01T00:00:00Z</time>
			</trkpt>
			<trkpt lat="33.270679" lon="103.816689">
				<ele>2523.000000</ele>
				<time>1970-01-01T00:00:00Z</time>
			</trkpt>
			<trkpt lat="33.270683" lon="103.816689">
				<ele>2523.000000</ele>
				<time>1970-01-01T00:00:00Z</time>
			</trkpt>
			<trkpt lat="33.270691" lon="103.816689">
				<ele>2523.000000</ele>
				<time>1970-01-01T00:00:00Z</time>
			</trkpt>
			<trkpt lat="33.270695" lon="103.816689">
				<ele>2522.000000</ele>
				<time>1970-01-01T00:00:00Z</time>
			</trkpt>
			<trkpt lat="33.270699" lon="103.816689">
				<ele>2522.000000</ele>
				<time>1970-01-01T00:00:00Z</time>
			</trkpt>
			<trkpt lat="33.270702" lon="103.816689">
				<ele>2522.000000</ele>
				<time>1970-01-01T00:00:00Z</time>
			</trkpt>
			<trkpt lat="33.270706" lon="103.816689">
				<ele>2522.000000</ele>
				<time>1970-01-01T00:00:00Z</time>
			</trkpt>
			<trkpt lat="33.270710" lon="103.816689">
				<ele>2522.000000</ele>
				<time>1970-01-01T00:00:00Z</time>
			</trkpt>
			<trkpt lat="33.270718" lon="103.816689">
				<ele>2522.000000</ele>
				<time>1970-01-01T00:00:00Z</time>
			</trkpt>
			<trkpt lat="33.270721" lon="103.816689">
				<ele>2522.000000</ele>
				<time>1970-01-01T00:00:00Z</time>
			</trkpt>
			<trkpt lat="33.270725" lon="103.816689">
				<ele>2522.000000</ele>
				<time>1970-01-01T00:00:00Z</time>
			</trkpt>
			<trkpt lat="33.270729" lon="103.816689">
				<ele>2522.000000</ele>
				<time>1970-01-01T00:00:00Z</time>
			</trkpt>
			<trkpt lat="33.270733" lon="103.816689">
				<ele>2522.000000</ele>
				<time>1970-01-01T00:00:00Z</time>
			</trkpt>
			<trkpt lat="33.270737" lon="103.816689">
				<ele>2522.000000</ele>
				<time>1970-01-01T00:00:00Z</time>
			</trkpt>
			<trkpt lat="33.270744" lon="103.816689">
				<ele>2522.000000</ele>
				<time>1970-01-01T00:00:00Z</time>
			</trkpt>
			<trkpt lat="33.270748" lon="103.816689">
				<ele>2522.000000</ele>
				<time>1970-01-01T00:00:00Z</time>
			</trkpt>
			<trkpt lat="33.270752" lon="103.816689">
				<ele>2522.000000</ele>
				<time>1970-01-01T00:00:00Z</time>
			</trkpt>
			<trkpt lat="33.270756" lon="103.816689">
				<ele>2522.000000</ele>
				<time>1970-01-01T00:00:00Z</time>
			</trkpt>
			<trkpt lat="33.270760" lon="103.816689">
				<ele>2522.000000</ele>
				<time>1970-01-01T00:00:00Z</time>
			</trkpt>
			<trkpt lat="33.270760" lon="103.816681">
				<ele>2522.000000</ele>
				<time>1970-01-01T00:00:00Z</time>
			</trkpt>
			<trkpt lat="33.270767" lon="103.816681">
				<ele>2522.000000</ele>
				<time>1970-01-01T00:00:00Z</time>
			</trkpt>
			<trkpt lat="33.270771" lon="103.816681">
				<ele>2522.000000</ele>
				<time>1970-01-01T00:00:00Z</time>
			</trkpt>
			<trkpt lat="33.270775" lon="103.816681">
				<ele>2522.000000</ele>
				<time>1970-01-01T00:00:00Z</time>
			</trkpt>
			<trkpt lat="33.270779" lon="103.816681">
				<ele>2522.000000</ele>
				<time>1970-01-01T00:00:00Z</time>
			</trkpt>
			<trkpt lat="33.270779" lon="103.816673">
				<ele>2522.000000</ele>
				<time>1970-01-01T00:00:00Z</time>
			</trkpt>
			<trkpt lat="33.270782" lon="103.816673">
				<ele>2522.000000</ele>
				<time>1970-01-01T00:00:00Z</time>
			</trkpt>
			<trkpt lat="33.270786" lon="103.816673">
				<ele>2522.000000</ele>
				<time>1970-01-01T00:00:00Z</time>
			</trkpt>
			<trkpt lat="33.270794" lon="103.816673">
				<ele>2522.000000</ele>
				<time>1970-01-01T00:00:00Z</time>
			</trkpt>
			<trkpt lat="33.270798" lon="103.816673">
				<ele>2522.000000</ele>
				<time>1970-01-01T00:00:00Z</time>
			</trkpt>
			<trkpt lat="33.270798" lon="103.816666">
				<ele>2522.000000</ele>
				<time>1970-01-01T00:00:00Z</time>
			</trkpt>
			<trkpt lat="33.270802" lon="103.816666">
				<ele>2522.000000</ele>
				<time>1970-01-01T00:00:00Z</time>
			</trkpt>
			<trkpt lat="33.270802" lon="103.816666">
				<ele>2522.000000</ele>
				<time>1970-01-01T00:00:00Z</time>
			</trkpt>
			<trkpt lat="33.270805" lon="103.816666">
				<ele>2522.000000</ele>
				<time>1970-01-01T00:00:00Z</time>
			</trkpt>
			<trkpt lat="33.270809" lon="103.816666">
				<ele>2522.000000</ele>
				<time>1970-01-01T00:00:00Z</time>
			</trkpt>
			<trkpt lat="33.270813" lon="103.816666">
				<ele>2522.000000</ele>
				<time>1970-01-01T00:00:00Z</time>
			</trkpt>
			<trkpt lat="33.270813" lon="103.816658">
				<ele>2522.000000</ele>
				<time>1970-01-01T00:00:00Z</time>
			</trkpt>
			<trkpt lat="33.270821" lon="103.816658">
				<ele>2522.000000</ele>
				<time>1970-01-01T00:00:00Z</time>
			</trkpt>
			<trkpt lat="33.270824" lon="103.816658">
				<ele>2522.000000</ele>
				<time>1970-01-01T00:00:00Z</time>
			</trkpt>
			<trkpt lat="33.270824" lon="103.816650">
				<ele>2522.000000</ele>
				<time>1970-01-01T00:00:00Z</time>
			</trkpt>
			<trkpt lat="33.270828" lon="103.816650">
				<ele>2522.000000</ele>
				<time>1970-01-01T00:00:00Z</time>
			</trkpt>
			<trkpt lat="33.270832" lon="103.816650">
				<ele>2522.000000</ele>
				<time>1970-01-01T00:00:00Z</time>
			</trkpt>
			<trkpt lat="33.270836" lon="103.816650">
				<ele>2522.000000</ele>
				<time>1970-01-01T00:00:00Z</time>
			</trkpt>
			<trkpt lat="33.270836" lon="103.816650">
				<ele>2522.000000</ele>
				<time>1970-01-01T00:00:00Z</time>
			</trkpt>
			<trkpt lat="33.270844" lon="103.816650">
				<ele>2522.000000</ele>
				<time>1970-01-01T00:00:00Z</time>
			</trkpt>
			<trkpt lat="33.270847" lon="103.816650">
				<ele>2522.000000</ele>
				<time>1970-01-01T00:00:00Z</time>
			</trkpt>
			<trkpt lat="33.270851" lon="103.816650">
				<ele>2522.000000</ele>
				<time>1970-01-01T00:00:00Z</time>
			</trkpt>
			<trkpt lat="33.270855" lon="103.816650">
				<ele>2522.000000</ele>
				<time>1970-01-01T00:00:00Z</time>
			</trkpt>
			<trkpt lat="33.270859" lon="103.816643">
				<ele>2522.000000</ele>
				<time>1970-01-01T00:00:00Z</time>
			</trkpt>
			<trkpt lat="33.270863" lon="103.816643">
				<ele>2522.000000</ele>
				<time>1970-01-01T00:00:00Z</time>
			</trkpt>
			<trkpt lat="33.270870" lon="103.816643">
				<ele>2522.000000</ele>
				<time>1970-01-01T00:00:00Z</time>
			</trkpt>
			<trkpt lat="33.270874" lon="103.816643">
				<ele>2522.000000</ele>
				<time>1970-01-01T00:00:00Z</time>
			</trkpt>
			<trkpt lat="33.270874" lon="103.816635">
				<ele>2522.000000</ele>
				<time>1970-01-01T00:00:00Z</time>
			</trkpt>
			<trkpt lat="33.270878" lon="103.816635">
				<ele>2522.000000</ele>
				<time>1970-01-01T00:00:00Z</time>
			</trkpt>
			<trkpt lat="33.270882" lon="103.816635">
				<ele>2522.000000</ele>
				<time>1970-01-01T00:00:00Z</time>
			</trkpt>
			<trkpt lat="33.270885" lon="103.816635">
				<ele>2522.000000</ele>
				<time>1970-01-01T00:00:00Z</time>
			</trkpt>
			<trkpt lat="33.270889" lon="103.816635">
				<ele>2522.000000</ele>
				<time>1970-01-01T00:00:00Z</time>
			</trkpt>
			<trkpt lat="33.270897" lon="103.816635">
				<ele>2522.000000</ele>
				<time>1970-01-01T00:00:00Z</time>
			</trkpt>
			<trkpt lat="33.270901" lon="103.816635">
				<ele>2522.000000</ele>
				<time>1970-01-01T00:00:00Z</time>
			</trkpt>
			<trkpt lat="33.270905" lon="103.816635">
				<ele>2522.000000</ele>
				<time>1970-01-01T00:00:00Z</time>
			</trkpt>
			<trkpt lat="33.270905" lon="103.816628">
				<ele>2522.000000</ele>
				<time>1970-01-01T00:00:00Z</time>
			</trkpt>
			<trkpt lat="33.270908" lon="103.816628">
				<ele>2522.000000</ele>
				<time>1970-01-01T00:00:00Z</time>
			</trkpt>
			<trkpt lat="33.270912" lon="103.816628">
				<ele>2522.000000</ele>
				<time>1970-01-01T00:00:00Z</time>
			</trkpt>
			<trkpt lat="33.270920" lon="103.816628">
				<ele>2522.000000</ele>
				<time>1970-01-01T00:00:00Z</time>
			</trkpt>
			<trkpt lat="33.270924" lon="103.816628">
				<ele>2522.000000</ele>
				<time>1970-01-01T00:00:00Z</time>
			</trkpt>
			<trkpt lat="33.270927" lon="103.816628">
				<ele>2522.000000</ele>
				<time>1970-01-01T00:00:00Z</time>
			</trkpt>
			<trkpt lat="33.270931" lon="103.816628">
				<ele>2522.000000</ele>
				<time>1970-01-01T00:00:00Z</time>
			</trkpt>
			<trkpt lat="33.270935" lon="103.816628">
				<ele>2522.000000</ele>
				<time>1970-01-01T00:00:00Z</time>
			</trkpt>
			<trkpt lat="33.270939" lon="103.816628">
				<ele>2522.000000</ele>
				<time>1970-01-01T00:00:00Z</time>
			</trkpt>
			<trkpt lat="33.270947" lon="103.816628">
				<ele>2522.000000</ele>
				<time>1970-01-01T00:00:00Z</time>
			</trkpt>
			<trkpt lat="33.270950" lon="103.816628">
				<ele>2522.000000</ele>
				<time>1970-01-01T00:00:00Z</time>
			</trkpt>
			<trkpt lat="33.270950" lon="103.816628">
				<ele>2522.000000</ele>
				<time>1970-01-01T00:00:00Z</time>
			</trkpt>
			<trkpt lat="33.270954" lon="103.816628">
				<ele>2522.000000</ele>
				<time>1970-01-01T00:00:00Z</time>
			</trkpt>
			<trkpt lat="33.270958" lon="103.816628">
				<ele>2522.000000</ele>
				<time>1970-01-01T00:00:00Z</time>
			</trkpt>
			<trkpt lat="33.270962" lon="103.816628">
				<ele>2522.000000</ele>
				<time>1970-01-01T00:00:00Z</time>
			</trkpt>
			<trkpt lat="33.270966" lon="103.816628">
				<ele>2522.000000</ele>
				<time>1970-01-01T00:00:00Z</time>
			</trkpt>
			<trkpt lat="33.270973" lon="103.816628">
				<ele>2528.000000</ele>
				<time>1970-01-01T00:00:00Z</time>
			</trkpt>
			<trkpt lat="33.270977" lon="103.816628">
				<ele>2528.000000</ele>
				<time>1970-01-01T00:00:00Z</time>
			</trkpt>
			<trkpt lat="33.270981" lon="103.816628">
				<ele>2528.000000</ele>
				<time>1970-01-01T00:00:00Z</time>
			</trkpt>
			<trkpt lat="33.270985" lon="103.816628">
				<ele>2528.000000</ele>
				<time>1970-01-01T00:00:00Z</time>
			</trkpt>
			<trkpt lat="33.270988" lon="103.816628">
				<ele>2528.000000</ele>
				<time>1970-01-01T00:00:00Z</time>
			</trkpt>
			<trkpt lat="33.270992" lon="103.816628">
				<ele>2528.000000</ele>
				<time>1970-01-01T00:00:00Z</time>
			</trkpt>
			<trkpt lat="33.270992" lon="103.816620">
				<ele>2528.000000</ele>
				<time>1970-01-01T00:00:00Z</time>
			</trkpt>
			<trkpt lat="33.271000" lon="103.816620">
				<ele>2528.000000</ele>
				<time>1970-01-01T00:00:00Z</time>
			</trkpt>
			<trkpt lat="33.271004" lon="103.816620">
				<ele>2528.000000</ele>
				<time>1970-01-01T00:00:00Z</time>
			</trkpt>
			<trkpt lat="33.271008" lon="103.816620">
				<ele>2528.000000</ele>
				<time>1970-01-01T00:00:00Z</time>
			</trkpt>
			<trkpt lat="33.271011" lon="103.816620">
				<ele>2528.000000</ele>
				<time>1970-01-01T00:00:00Z</time>
			</trkpt>
			<trkpt lat="33.271011" lon="103.816612">
				<ele>2528.000000</ele>
				<time>1970-01-01T00:00:00Z</time>
			</trkpt>
			<trkpt lat="33.271015" lon="103.816612">
				<ele>2528.000000</ele>
				<time>1970-01-01T00:00:00Z</time>
			</trkpt>
			<trkpt lat="33.271023" lon="103.816612">
				<ele>2528.000000</ele>
				<time>1970-01-01T00:00:00Z</time>
			</trkpt>
			<trkpt lat="33.271027" lon="103.816612">
				<ele>2528.000000</ele>
				<time>1970-01-01T00:00:00Z</time>
			</trkpt>
			<trkpt lat="33.271030" lon="103.816612">
				<ele>2528.000000</ele>
				<time>1970-01-01T00:00:00Z</time>
			</trkpt>
			<trkpt lat="33.271034" lon="103.816612">
				<ele>2528.000000</ele>
				<time>1970-01-01T00:00:00Z</time>
			</trkpt>
			<trkpt lat="33.271038" lon="103.816612">
				<ele>2528.000000</ele>
				<time>1970-01-01T00:00:00Z</time>
			</trkpt>
			<trkpt lat="33.271042" lon="103.816612">
				<ele>2528.000000</ele>
				<time>1970-01-01T00:00:00Z</time>
			</trkpt>
			<trkpt lat="33.271049" lon="103.816612">
				<ele>2528.000000</ele>
				<time>1970-01-01T00:00:00Z</time>
			</trkpt>
			<trkpt lat="33.271053" lon="103.816612">
				<ele>2528.000000</ele>
				<time>1970-01-01T00:00:00Z</time>
			</trkpt>
			<trkpt lat="33.271057" lon="103.816612">
				<ele>2528.000000</ele>
				<time>1970-01-01T00:00:00Z</time>
			</trkpt>
			<trkpt lat="33.271061" lon="103.816612">
				<ele>2528.000000</ele>
				<time>1970-01-01T00:00:00Z</time>
			</trkpt>
			<trkpt lat="33.271065" lon="103.816612">
				<ele>2528.000000</ele>
				<time>1970-01-01T00:00:00Z</time>
			</trkpt>
			<trkpt lat="33.271069" lon="103.816612">
				<ele>2528.000000</ele>
				<time>1970-01-01T00:00:00Z</time>
			</trkpt>
			<trkpt lat="33.271076" lon="103.816612">
				<ele>2528.000000</ele>
				<time>1970-01-01T00:00:00Z</time>
			</trkpt>
			<trkpt lat="33.271080" lon="103.816612">
				<ele>2528.000000</ele>
				<time>1970-01-01T00:00:00Z</time>
			</trkpt>
			<trkpt lat="33.271084" lon="103.816612">
				<ele>2528.000000</ele>
				<time>1970-01-01T00:00:00Z</time>
			</trkpt>
			<trkpt lat="33.271088" lon="103.816612">
				<ele>2528.000000</ele>
				<time>1970-01-01T00:00:00Z</time>
			</trkpt>
			<trkpt lat="33.271091" lon="103.816612">
				<ele>2528.000000</ele>
				<time>1970-01-01T00:00:00Z</time>
			</trkpt>
			<trkpt lat="33.271099" lon="103.816612">
				<ele>2528.000000</ele>
				<time>1970-01-01T00:00:00Z</time>
			</trkpt>
			<trkpt lat="33.271103" lon="103.816612">
				<ele>2528.000000</ele>
				<time>1970-01-01T00:00:00Z</time>
			</trkpt>
			<trkpt lat="33.271107" lon="103.816612">
				<ele>2528.000000</ele>
				<time>1970-01-01T00:00:00Z</time>
			</trkpt>
			<trkpt lat="33.271111" lon="103.816612">
				<ele>2528.000000</ele>
				<time>1970-01-01T00:00:00Z</time>
			</trkpt>
			<trkpt lat="33.271114" lon="103.816612">
				<ele>2528.000000</ele>
				<time>1970-01-01T00:00:00Z</time>
			</trkpt>
			<trkpt lat="33.271118" lon="103.816612">
				<ele>2528.000000</ele>
				<time>1970-01-01T00:00:00Z</time>
			</trkpt>
			<trkpt lat="33.271126" lon="103.816612">
				<ele>2528.000000</ele>
				<time>1970-01-01T00:00:00Z</time>
			</trkpt>
			<trkpt lat="33.271130" lon="103.816612">
				<ele>2528.000000</ele>
				<time>1970-01-01T00:00:00Z</time>
			</trkpt>
			<trkpt lat="33.271133" lon="103.816612">
				<ele>2528.000000</ele>
				<time>1970-01-01T00:00:00Z</time>
			</trkpt>
			<trkpt lat="33.271137" lon="103.816612">
				<ele>2528.000000</ele>
				<time>1970-01-01T00:00:00Z</time>
			</trkpt>
			<trkpt lat="33.271141" lon="103.816612">
				<ele>2528.000000</ele>
				<time>1970-01-01T00:00:00Z</time>
			</trkpt>
			<trkpt lat="33.271145" lon="103.816612">
				<ele>2528.000000</ele>
				<time>1970-01-01T00:00:00Z</time>
			</trkpt>
			<trkpt lat="33.271152" lon="103.816612">
				<ele>2528.000000</ele>
				<time>1970-01-01T00:00:00Z</time>
			</trkpt>
			<trkpt lat="33.271156" lon="103.816612">
				<ele>2528.000000</ele>
				<time>1970-01-01T00:00:00Z</time>
			</trkpt>
			<trkpt lat="33.271160" lon="103.816612">
				<ele>2528.000000</ele>
				<time>1970-01-01T00:00:00Z</time>
			</trkpt>
			<trkpt lat="33.271164" lon="103.816612">
				<ele>2528.000000</ele>
				<time>1970-01-01T00:00:00Z</time>
			</trkpt>
			<trkpt lat="33.271168" lon="103.816612">
				<ele>2528.000000</ele>
				<time>1970-01-01T00:00:00Z</time>
			</trkpt>
			<trkpt lat="33.271175" lon="103.816612">
				<ele>2528.000000</ele>
				<time>1970-01-01T00:00:00Z</time>
			</trkpt>
			<trkpt lat="33.271179" lon="103.816612">
				<ele>2528.000000</ele>
				<time>1970-01-01T00:00:00Z</time>
			</trkpt>
			<trkpt lat="33.271183" lon="103.816612">
				<ele>2528.000000</ele>
				<time>1970-01-01T00:00:00Z</time>
			</trkpt>
			<trkpt lat="33.271187" lon="103.816612">
				<ele>2528.000000</ele>
				<time>1970-01-01T00:00:00Z</time>
			</trkpt>
			<trkpt lat="33.271191" lon="103.816612">
				<ele>2528.000000</ele>
				<time>1970-01-01T00:00:00Z</time>
			</trkpt>
			<trkpt lat="33.271194" lon="103.816612">
				<ele>2528.000000</ele>
				<time>1970-01-01T00:00:00Z</time>
			</trkpt>
			<trkpt lat="33.271202" lon="103.816612">
				<ele>2528.000000</ele>
				<time>1970-01-01T00:00:00Z</time>
			</trkpt>
			<trkpt lat="33.271206" lon="103.816612">
				<ele>2528.000000</ele>
				<time>1970-01-01T00:00:00Z</time>
			</trkpt>
			<trkpt lat="33.271210" lon="103.816620">
				<ele>2528.000000</ele>
				<time>1970-01-01T00:00:00Z</time>
			</trkpt>
			<trkpt lat="33.271214" lon="103.816620">
				<ele>2528.000000</ele>
				<time>1970-01-01T00:00:00Z</time>
			</trkpt>
			<trkpt lat="33.271217" lon="103.816620">
				<ele>2528.000000</ele>
				<time>1970-01-01T00:00:00Z</time>
			</trkpt>
			<trkpt lat="33.271221" lon="103.816620">
				<ele>2528.000000</ele>
				<time>1970-01-01T00:00:00Z</time>
			</trkpt>
			<trkpt lat="33.271229" lon="103.816620">
				<ele>2528.000000</ele>
				<time>1970-01-01T00:00:00Z</time>
			</trkpt>
			<trkpt lat="33.271233" lon="103.816620">
				<ele>2528.000000</ele>
				<time>1970-01-01T00:00:00Z</time>
			</trkpt>
			<trkpt lat="33.271233" lon="103.816628">
				<ele>2528.000000</ele>
				<time>1970-01-01T00:00:00Z</time>
			</trkpt>
			<trkpt lat="33.271236" lon="103.816628">
				<ele>2528.000000</ele>
				<time>1970-01-01T00:00:00Z</time>
			</trkpt>
			<trkpt lat="33.271240" lon="103.816628">
				<ele>2528.000000</ele>
				<time>1970-01-01T00:00:00Z</time>
			</trkpt>
			<trkpt lat="33.271244" lon="103.816628">
				<ele>2528.000000</ele>
				<time>1970-01-01T00:00:00Z</time>
			</trkpt>
			<trkpt lat="33.271252" lon="103.816628">
				<ele>2525.000000</ele>
				<time>1970-01-01T00:00:00Z</time>
			</trkpt>
			<trkpt lat="33.271255" lon="103.816628">
				<ele>2525.000000</ele>
				<time>1970-01-01T00:00:00Z</time>
			</trkpt>
			<trkpt lat="33.271255" lon="103.816628">
				<ele>2525.000000</ele>
				<time>1970-01-01T00:00:00Z</time>
			</trkpt>
			<trkpt lat="33.271259" lon="103.816628">
				<ele>2525.000000</ele>
				<time>1970-01-01T00:00:00Z</time>
			</trkpt>
			<trkpt lat="33.271263" lon="103.816628">
				<ele>2525.000000</ele>
				<time>1970-01-01T00:00:00Z</time>
			</trkpt>
			<trkpt lat="33.271267" lon="103.816628">
				<ele>2525.000000</ele>
				<time>1970-01-01T00:00:00Z</time>
			</trkpt>
			<trkpt lat="33.271271" lon="103.816635">
				<ele>2525.000000</ele>
				<time>1970-01-01T00:00:00Z</time>
			</trkpt>
			<trkpt lat="33.271278" lon="103.816635">
				<ele>2525.000000</ele>
				<time>1970-01-01T00:00:00Z</time>
			</trkpt>
			<trkpt lat="33.271282" lon="103.816643">
				<ele>2525.000000</ele>
				<time>1970-01-01T00:00:00Z</time>
			</trkpt>
			<trkpt lat="33.271286" lon="103.816643">
				<ele>2525.000000</ele>
				<time>1970-01-01T00:00:00Z</time>
			</trkpt>
			<trkpt lat="33.271290" lon="103.816643">
				<ele>2525.000000</ele>
				<time>1970-01-01T00:00:00Z</time>
			</trkpt>
			<trkpt lat="33.271294" lon="103.816643">
				<ele>2525.000000</ele>
				<time>1970-01-01T00:00:00Z</time>
			</trkpt>
			<trkpt lat="33.271294" lon="103.816650">
				<ele>2525.000000</ele>
				<time>1970-01-01T00:00:00Z</time>
			</trkpt>
			<trkpt lat="33.271297" lon="103.816650">
				<ele>2525.000000</ele>
				<time>1970-01-01T00:00:00Z</time>
			</trkpt>
			<trkpt lat="33.271305" lon="103.816650">
				<ele>2525.000000</ele>
				<time>1970-01-01T00:00:00Z</time>
			</trkpt>
			<trkpt lat="33.271309" lon="103.816650">
				<ele>2525.000000</ele>
				<time>1970-01-01T00:00:00Z</time>
			</trkpt>
			<trkpt lat="33.271313" lon="103.816650">
				<ele>2525.000000</ele>
				<time>1970-01-01T00:00:00Z</time>
			</trkpt>
			<trkpt lat="33.271313" lon="103.816650">
				<ele>2525.000000</ele>
				<time>1970-01-01T00:00:00Z</time>
			</trkpt>
			<trkpt lat="33.271317" lon="103.816650">
				<ele>2525.000000</ele>
				<time>1970-01-01T00:00:00Z</time>
			</trkpt>
			<trkpt lat="33.271320" lon="103.816650">
				<ele>2525.000000</ele>
				<time>1970-01-01T00:00:00Z</time>
			</trkpt>
			<trkpt lat="33.271320" lon="103.816658">
				<ele>2525.000000</ele>
				<time>1970-01-01T00:00:00Z</time>
			</trkpt>
			<trkpt lat="33.271324" lon="103.816658">
				<ele>2525.000000</ele>
				<time>1970-01-01T00:00:00Z</time>
			</trkpt>
			<trkpt lat="33.271332" lon="103.816658">
				<ele>2525.000000</ele>
				<time>1970-01-01T00:00:00Z</time>
			</trkpt>
			<trkpt lat="33.271336" lon="103.816658">
				<ele>2525.000000</ele>
				<time>1970-01-01T00:00:00Z</time>
			</trkpt>
			<trkpt lat="33.271336" lon="103.816666">
				<ele>2525.000000</ele>
				<time>1970-01-01T00:00:00Z</time>
			</trkpt>
			<trkpt lat="33.271339" lon="103.816666">
				<ele>2525.000000</ele>
				<time>1970-01-01T00:00:00Z</time>
			</trkpt>
			<trkpt lat="33.271343" lon="103.816666">
				<ele>2525.000000</ele>
				<time>1970-01-01T00:00:00Z</time>
			</trkpt>
			<trkpt lat="33.271347" lon="103.816666">
				<ele>2525.000000</ele>
				<time>1970-01-01T00:00:00Z</time>
			</trkpt>
			<trkpt lat="33.271355" lon="103.816666">
				<ele>2525.000000</ele>
				<time>1970-01-01T00:00:00Z</time>
			</trkpt>
			<trkpt lat="33.271358" lon="103.816666">
				<ele>2525.000000</ele>
				<time>1970-01-01T00:00:00Z</time>
			</trkpt>
			<trkpt lat="33.271358" lon="103.816673">
				<ele>2525.000000</ele>
				<time>1970-01-01T00:00:00Z</time>
			</trkpt>
			<trkpt lat="33.271362" lon="103.816673">
				<ele>2525.000000</ele>
				<time>1970-01-01T00:00:00Z</time>
			</trkpt>
			<trkpt lat="33.271366" lon="103.816673">
				<ele>2525.000000</ele>
				<time>1970-01-01T00:00:00Z</time>
			</trkpt>
			<trkpt lat="33.271370" lon="103.816673">
				<ele>2525.000000</ele>
				<time>1970-01-01T00:00:00Z</time>
			</trkpt>
			<trkpt lat="33.271370" lon="103.816681">
				<ele>2525.000000</ele>
				<time>1970-01-01T00:00:00Z</time>
			</trkpt>
			<trkpt lat="33.271374" lon="103.816681">
				<ele>2525.000000</ele>
				<time>1970-01-01T00:00:00Z</time>
			</trkpt>
			<trkpt lat="33.271381" lon="103.816681">
				<ele>2525.000000</ele>
				<time>1970-01-01T00:00:00Z</time>
			</trkpt>
			<trkpt lat="33.271385" lon="103.816681">
				<ele>2525.000000</ele>
				<time>1970-01-01T00:00:00Z</time>
			</trkpt>
			<trkpt lat="33.271389" lon="103.816681">
				<ele>2525.000000</ele>
				<time>1970-01-01T00:00:00Z</time>
			</trkpt>
			<trkpt lat="33.271389" lon="103.816689">
				<ele>2525.000000</ele>
				<time>1970-01-01T00:00:00Z</time>
			</trkpt>
			<trkpt lat="33.271393" lon="103.816689">
				<ele>2525.000000</ele>
				<time>1970-01-01T00:00:00Z</time>
			</trkpt>
			<trkpt lat="33.271393" lon="103.816689">
				<ele>2525.000000</ele>
				<time>1970-01-01T00:00:00Z</time>
			</trkpt>
			<trkpt lat="33.271397" lon="103.816689">
				<ele>2525.000000</ele>
				<time>1970-01-01T00:00:00Z</time>
			</trkpt>
			<trkpt lat="33.271400" lon="103.816689">
				<ele>2525.000000</ele>
				<time>1970-01-01T00:00:00Z</time>
			</trkpt>
			<trkpt lat="33.271408" lon="103.816689">
				<ele>2525.000000</ele>
				<time>1970-01-01T00:00:00Z</time>
			</trkpt>
			<trkpt lat="33.271412" lon="103.816689">
				<ele>2525.000000</ele>
				<time>1970-01-01T00:00:00Z</time>
			</trkpt>
			<trkpt lat="33.271412" lon="103.816696">
				<ele>2525.000000</ele>
				<time>1970-01-01T00:00:00Z</time>
			</trkpt>
			<trkpt lat="33.271416" lon="103.816696">
				<ele>2525.000000</ele>
				<time>1970-01-01T00:00:00Z</time>
			</trkpt>
			<trkpt lat="33.271420" lon="103.816696">
				<ele>2525.000000</ele>
				<time>1970-01-01T00:00:00Z</time>
			</trkpt>
			<trkpt lat="33.271423" lon="103.816696">
				<ele>2525.000000</ele>
				<time>1970-01-01T00:00:00Z</time>
			</trkpt>
			<trkpt lat="33.271423" lon="103.816704">
				<ele>2525.000000</ele>
				<time>1970-01-01T00:00:00Z</time>
			</trkpt>
			<trkpt lat="33.271431" lon="103.816704">
				<ele>2525.000000</ele>
				<time>1970-01-01T00:00:00Z</time>
			</trkpt>
			<trkpt lat="33.271435" lon="103.816704">
				<ele>2525.000000</ele>
				<time>1970-01-01T00:00:00Z</time>
			</trkpt>
			<trkpt lat="33.271439" lon="103.816704">
				<ele>2525.000000</ele>
				<time>1970-01-01T00:00:00Z</time>
			</trkpt>
			<trkpt lat="33.271439" lon="103.816704">
				<ele>2525.000000</ele>
				<time>1970-01-01T00:00:00Z</time>
			</trkpt>
			<trkpt lat="33.271442" lon="103.816704">
				<ele>2525.000000</ele>
				<time>1970-01-01T00:00:00Z</time>
			</trkpt>
			<trkpt lat="33.271446" lon="103.816704">
				<ele>2525.000000</ele>
				<time>1970-01-01T00:00:00Z</time>
			</trkpt>
			<trkpt lat="33.271446" lon="103.816711">
				<ele>2525.000000</ele>
				<time>1970-01-01T00:00:00Z</time>
			</trkpt>
			<trkpt lat="33.271450" lon="103.816711">
				<ele>2525.000000</ele>
				<time>1970-01-01T00:00:00Z</time>
			</trkpt>
			<trkpt lat="33.271458" lon="103.816711">
				<ele>2525.000000</ele>
				<time>1970-01-01T00:00:00Z</time>
			</trkpt>
			<trkpt lat="33.271458" lon="103.816719">
				<ele>2525.000000</ele>
				<time>1970-01-01T00:00:00Z</time>
			</trkpt>
			<trkpt lat="33.271461" lon="103.816719">
				<ele>2525.000000</ele>
				<time>1970-01-01T00:00:00Z</time>
			</trkpt>
			<trkpt lat="33.271465" lon="103.816719">
				<ele>2525.000000</ele>
				<time>1970-01-01T00:00:00Z</time>
			</trkpt>
			<trkpt lat="33.271469" lon="103.816719">
				<ele>2525.000000</ele>
				<time>1970-01-01T00:00:00Z</time>
			</trkpt>
			<trkpt lat="33.271469" lon="103.816719">
				<ele>2525.000000</ele>
				<time>1970-01-01T00:00:00Z</time>
			</trkpt>
			<trkpt lat="33.271473" lon="103.816719">
				<ele>2525.000000</ele>
				<time>1970-01-01T00:00:00Z</time>
			</trkpt>
			<trkpt lat="33.271477" lon="103.816719">
				<ele>2525.000000</ele>
				<time>1970-01-01T00:00:00Z</time>
			</trkpt>
			<trkpt lat="33.271477" lon="103.816727">
				<ele>2525.000000</ele>
				<time>1970-01-01T00:00:00Z</time>
			</trkpt>
			<trkpt lat="33.271484" lon="103.816727">
				<ele>2525.000000</ele>
				<time>1970-01-01T00:00:00Z</time>
			</trkpt>
			<trkpt lat="33.271484" lon="103.816734">
				<ele>2525.000000</ele>
				<time>1970-01-01T00:00:00Z</time>
			</trkpt>
			<trkpt lat="33.271488" lon="103.816734">
				<ele>2525.000000</ele>
				<time>1970-01-01T00:00:00Z</time>
			</trkpt>
			<trkpt lat="33.271492" lon="103.816734">
				<ele>2525.000000</ele>
				<time>1970-01-01T00:00:00Z</time>
			</trkpt>
			<trkpt lat="33.271496" lon="103.816734">
				<ele>2525.000000</ele>
				<time>1970-01-01T00:00:00Z</time>
			</trkpt>
			<trkpt lat="33.271496" lon="103.816742">
				<ele>2525.000000</ele>
				<time>1970-01-01T00:00:00Z</time>
			</trkpt>
			<trkpt lat="33.271500" lon="103.816742">
				<ele>2525.000000</ele>
				<time>1970-01-01T00:00:00Z</time>
			</trkpt>
			<trkpt lat="33.271507" lon="103.816742">
				<ele>2525.000000</ele>
				<time>1970-01-01T00:00:00Z</time>
			</trkpt>
			<trkpt lat="33.271507" lon="103.816742">
				<ele>2525.000000</ele>
				<time>1970-01-01T00:00:00Z</time>
			</trkpt>
			<trkpt lat="33.271511" lon="103.816742">
				<ele>2525.000000</ele>
				<time>1970-01-01T00:00:00Z</time>
			</trkpt>
			<trkpt lat="33.271515" lon="103.816742">
				<ele>2525.000000</ele>
				<time>1970-01-01T00:00:00Z</time>
			</trkpt>
			<trkpt lat="33.271515" lon="103.816750">
				<ele>2525.000000</ele>
				<time>1970-01-01T00:00:00Z</time>
			</trkpt>
			<trkpt lat="33.271519" lon="103.816750">
				<ele>2525.000000</ele>
				<time>1970-01-01T00:00:00Z</time>
			</trkpt>
			<trkpt lat="33.271519" lon="103.816757">
				<ele>2525.000000</ele>
				<time>1970-01-01T00:00:00Z</time>
			</trkpt>
			<trkpt lat="33.271523" lon="103.816757">
				<ele>2525.000000</ele>
				<time>1970-01-01T00:00:00Z</time>
			</trkpt>
			<trkpt lat="33.271526" lon="103.816757">
				<ele>2525.000000</ele>
				<time>1970-01-01T00:00:00Z</time>
			</trkpt>
			<trkpt lat="33.271526" lon="103.816757">
				<ele>2525.000000</ele>
				<time>1970-01-01T00:00:00Z</time>
			</trkpt>
			<trkpt lat="33.271534" lon="103.816757">
				<ele>2521.000000</ele>
				<time>1970-01-01T00:00:00Z</time>
			</trkpt>
			<trkpt lat="33.271538" lon="103.816757">
				<ele>2521.000000</ele>
				<time>1970-01-01T00:00:00Z</time>
			</trkpt>
			<trkpt lat="33.271542" lon="103.816757">
				<ele>2521.000000</ele>
				<time>1970-01-01T00:00:00Z</time>
			</trkpt>
			<trkpt lat="33.271542" lon="103.816765">
				<ele>2521.000000</ele>
				<time>1970-01-01T00:00:00Z</time>
			</trkpt>
			<trkpt lat="33.271545" lon="103.816765">
				<ele>2521.000000</ele>
				<time>1970-01-01T00:00:00Z</time>
			</trkpt>
			<trkpt lat="33.271549" lon="103.816765">
				<ele>2521.000000</ele>
				<time>1970-01-01T00:00:00Z</time>
			</trkpt>
			<trkpt lat="33.271553" lon="103.816772">
				<ele>2521.000000</ele>
				<time>1970-01-01T00:00:00Z</time>
			</trkpt>
			<trkpt lat="33.271553" lon="103.816772">
				<ele>2521.000000</ele>
				<time>1970-01-01T00:00:00Z</time>
			</trkpt>
			<trkpt lat="33.271561" lon="103.816772">
				<ele>2521.000000</ele>
				<time>1970-01-01T00:00:00Z</time>
			</trkpt>
			<trkpt lat="33.271564" lon="103.816772">
				<ele>2521.000000</ele>
				<time>1970-01-01T00:00:00Z</time>
			</trkpt>
			<trkpt lat="33.271564" lon="103.816780">
				<ele>2521.000000</ele>
				<time>1970-01-01T00:00:00Z</time>
			</trkpt>
			<trkpt lat="33.271568" lon="103.816780">
				<ele>2521.000000</ele>
				<time>1970-01-01T00:00:00Z</time>
			</trkpt>
			<trkpt lat="33.271572" lon="103.816780">
				<ele>2521.000000</ele>
				<time>1970-01-01T00:00:00Z</time>
			</trkpt>
			<trkpt lat="33.271576" lon="103.816788">
				<ele>2521.000000</ele>
				<time>1970-01-01T00:00:00Z</time>
			</trkpt>
			<trkpt lat="33.271584" lon="103.816788">
				<ele>2521.000000</ele>
				<time>1970-01-01T00:00:00Z</time>
			</trkpt>
			<trkpt lat="33.271587" lon="103.816795">
				<ele>2521.000000</ele>
				<time>1970-01-01T00:00:00Z</time>
			</trkpt>
			<trkpt lat="33.271591" lon="103.816795">
				<ele>2521.000000</ele>
				<time>1970-01-01T00:00:00Z</time>
			</trkpt>
			<trkpt lat="33.271591" lon="103.816795">
				<ele>2521.000000</ele>
				<time>1970-01-01T00:00:00Z</time>
			</trkpt>
			<trkpt lat="33.271595" lon="103.816795">
				<ele>2521.000000</ele>
				<time>1970-01-01T00:00:00Z</time>
			</trkpt>
			<trkpt lat="33.271599" lon="103.816795">
				<ele>2521.000000</ele>
				<time>1970-01-01T00:00:00Z</time>
			</trkpt>
			<trkpt lat="33.271603" lon="103.816795">
				<ele>2521.000000</ele>
				<time>1970-01-01T00:00:00Z</time>
			</trkpt>
			<trkpt lat="33.271603" lon="103.816803">
				<ele>2521.000000</ele>
				<time>1970-01-01T00:00:00Z</time>
			</trkpt>
			<trkpt lat="33.271610" lon="103.816803">
				<ele>2521.000000</ele>
				<time>1970-01-01T00:00:00Z</time>
			</trkpt>
			<trkpt lat="33.271614" lon="103.816803">
				<ele>2521.000000</ele>
				<time>1970-01-01T00:00:00Z</time>
			</trkpt>
			<trkpt lat="33.271614" lon="103.816811">
				<ele>2526.000000</ele>
				<time>1970-01-01T00:00:00Z</time>
			</trkpt>
			<trkpt lat="33.271618" lon="103.816811">
				<ele>2526.000000</ele>
				<time>1970-01-01T00:00:00Z</time>
			</trkpt>
			<trkpt lat="33.271622" lon="103.816811">
				<ele>2526.000000</ele>
				<time>1970-01-01T00:00:00Z</time>
			</trkpt>
			<trkpt lat="33.271626" lon="103.816811">
				<ele>2526.000000</ele>
				<time>1970-01-01T00:00:00Z</time>
			</trkpt>
			<trkpt lat="33.271629" lon="103.816811">
				<ele>2526.000000</ele>
				<time>1970-01-01T00:00:00Z</time>
			</trkpt>
			<trkpt lat="33.271629" lon="103.816818">
				<ele>2526.000000</ele>
				<time>1970-01-01T00:00:00Z</time>
			</trkpt>
			<trkpt lat="33.271637" lon="103.816818">
				<ele>2526.000000</ele>
				<time>1970-01-01T00:00:00Z</time>
			</trkpt>
			<trkpt lat="33.271641" lon="103.816826">
				<ele>2526.000000</ele>
				<time>1970-01-01T00:00:00Z</time>
			</trkpt>
			<trkpt lat="33.271645" lon="103.816826">
				<ele>2526.000000</ele>
				<time>1970-01-01T00:00:00Z</time>
			</trkpt>
			<trkpt lat="33.271648" lon="103.816833">
				<ele>2526.000000</ele>
				<time>1970-01-01T00:00:00Z</time>
			</trkpt>
			<trkpt lat="33.271652" lon="103.816833">
				<ele>2526.000000</ele>
				<time>1970-01-01T00:00:00Z</time>
			</trkpt>
			<trkpt lat="33.271656" lon="103.816833">
				<ele>2526.000000</ele>
				<time>1970-01-01T00:00:00Z</time>
			</trkpt>
			<trkpt lat="33.271664" lon="103.816833">
				<ele>2526.000000</ele>
				<time>1970-01-01T00:00:00Z</time>
			</trkpt>
			<trkpt lat="33.271667" lon="103.816841">
				<ele>2526.000000</ele>
				<time>1970-01-01T00:00:00Z</time>
			</trkpt>
			<trkpt lat="33.271667" lon="103.816849">
				<ele>2526.000000</ele>
				<time>1970-01-01T00:00:00Z</time>
			</trkpt>
			<trkpt lat="33.271671" lon="103.816849">
				<ele>2526.000000</ele>
				<time>1970-01-01T00:00:00Z</time>
			</trkpt>
			<trkpt lat="33.271675" lon="103.816849">
				<ele>2526.000000</ele>
				<time>1970-01-01T00:00:00Z</time>
			</trkpt>
			<trkpt lat="33.271675" lon="103.816849">
				<ele>2526.000000</ele>
				<time>1970-01-01T00:00:00Z</time>
			</trkpt>
			<trkpt lat="33.271679" lon="103.816849">
				<ele>2526.000000</ele>
				<time>1970-01-01T00:00:00Z</time>
			</trkpt>
			<trkpt lat="33.271687" lon="103.816849">
				<ele>2526.000000</ele>
				<time>1970-01-01T00:00:00Z</time>
			</trkpt>
			<trkpt lat="33.271687" lon="103.816856">
				<ele>2526.000000</ele>
				<time>1970-01-01T00:00:00Z</time>
			</trkpt>
			<trkpt lat="33.271690" lon="103.816856">
				<ele>2526.000000</ele>
				<time>1970-01-01T00:00:00Z</time>
			</trkpt>
			<trkpt lat="33.271694" lon="103.816856">
				<ele>2526.000000</ele>
				<time>1970-01-01T00:00:00Z</time>
			</trkpt>
			<trkpt lat="33.271694" lon="103.816864">
				<ele>2526.000000</ele>
				<time>1970-01-01T00:00:00Z</time>
			</trkpt>
			<trkpt lat="33.271694" lon="103.816864">
				<ele>2526.000000</ele>
				<time>1970-01-01T00:00:00Z</time>
			</trkpt>
			<trkpt lat="33.271698" lon="103.816864">
				<ele>2526.000000</ele>
				<time>1970-01-01T00:00:00Z</time>
			</trkpt>
			<trkpt lat="33.271702" lon="103.816864">
				<ele>2526.000000</ele>
				<time>1970-01-01T00:00:00Z</time>
			</trkpt>
			<trkpt lat="33.271702" lon="103.816872">
				<ele>2526.000000</ele>
				<time>1970-01-01T00:00:00Z</time>
			</trkpt>
			<trkpt lat="33.271706" lon="103.816872">
				<ele>2526.000000</ele>
				<time>1970-01-01T00:00:00Z</time>
			</trkpt>
			<trkpt lat="33.271713" lon="103.816872">
				<ele>2526.000000</ele>
				<time>1970-01-01T00:00:00Z</time>
			</trkpt>
			<trkpt lat="33.271713" lon="103.816879">
				<ele>2526.000000</ele>
				<time>1970-01-01T00:00:00Z</time>
			</trkpt>
			<trkpt lat="33.271717" lon="103.816879">
				<ele>2526.000000</ele>
				<time>1970-01-01T00:00:00Z</time>
			</trkpt>
			<trkpt lat="33.271721" lon="103.816887">
				<ele>2526.000000</ele>
				<time>1970-01-01T00:00:00Z</time>
			</trkpt>
			<trkpt lat="33.271721" lon="103.816887">
				<ele>2526.000000</ele>
				<time>1970-01-01T00:00:00Z</time>
			</trkpt>
			<trkpt lat="33.271725" lon="103.816887">
				<ele>2526.000000</ele>
				<time>1970-01-01T00:00:00Z</time>
			</trkpt>
			<trkpt lat="33.271725" lon="103.816895">
				<ele>2526.000000</ele>
				<time>1970-01-01T00:00:00Z</time>
			</trkpt>
			<trkpt lat="33.271729" lon="103.816895">
				<ele>2526.000000</ele>
				<time>1970-01-01T00:00:00Z</time>
			</trkpt>
			<trkpt lat="33.271732" lon="103.816902">
				<ele>2526.000000</ele>
				<time>1970-01-01T00:00:00Z</time>
			</trkpt>
			<trkpt lat="33.271740" lon="103.816902">
				<ele>2526.000000</ele>
				<time>1970-01-01T00:00:00Z</time>
			</trkpt>
			<trkpt lat="33.271740" lon="103.816902">
				<ele>2526.000000</ele>
				<time>1970-01-01T00:00:00Z</time>
			</trkpt>
			<trkpt lat="33.271744" lon="103.816902">
				<ele>2526.000000</ele>
				<time>1970-01-01T00:00:00Z</time>
			</trkpt>
			<trkpt lat="33.271744" lon="103.816910">
				<ele>2526.000000</ele>
				<time>1970-01-01T00:00:00Z</time>
			</trkpt>
			<trkpt lat="33.271748" lon="103.816910">
				<ele>2526.000000</ele>
				<time>1970-01-01T00:00:00Z</time>
			</trkpt>
			<trkpt lat="33.271748" lon="103.816917">
				<ele>2526.000000</ele>
				<time>1970-01-01T00:00:00Z</time>
			</trkpt>
			<trkpt lat="33.271751" lon="103.816917">
				<ele>2526.000000</ele>
				<time>1970-01-01T00:00:00Z</time>
			</trkpt>
			<trkpt lat="33.271751" lon="103.816917">
				<ele>2526.000000</ele>
				<time>1970-01-01T00:00:00Z</time>
			</trkpt>
			<trkpt lat="33.271755" lon="103.816917">
				<ele>2526.000000</ele>
				<time>1970-01-01T00:00:00Z</time>
			</trkpt>
			<trkpt lat="33.271755" lon="103.816925">
				<ele>2526.000000</ele>
				<time>1970-01-01T00:00:00Z</time>
			</trkpt>
			<trkpt lat="33.271763" lon="103.816933">
				<ele>2526.000000</ele>
				<time>1970-01-01T00:00:00Z</time>
			</trkpt>
			<trkpt lat="33.271763" lon="103.816940">
				<ele>2526.000000</ele>
				<time>1970-01-01T00:00:00Z</time>
			</trkpt>
			<trkpt lat="33.271767" lon="103.816940">
				<ele>2526.000000</ele>
				<time>1970-01-01T00:00:00Z</time>
			</trkpt>
			<trkpt lat="33.271767" lon="103.816940">
				<ele>2526.000000</ele>
				<time>1970-01-01T00:00:00Z</time>
			</trkpt>
			<trkpt lat="33.271770" lon="103.816940">
				<ele>2526.000000</ele>
				<time>1970-01-01T00:00:00Z</time>
			</trkpt>
			<trkpt lat="33.271774" lon="103.816940">
				<ele>2526.000000</ele>
				<time>1970-01-01T00:00:00Z</time>
			</trkpt>
			<trkpt lat="33.271774" lon="103.816948">
				<ele>2526.000000</ele>
				<time>1970-01-01T00:00:00Z</time>
			</trkpt>
			<trkpt lat="33.271774" lon="103.816956">
				<ele>2526.000000</ele>
				<time>1970-01-01T00:00:00Z</time>
			</trkpt>
			<trkpt lat="33.271778" lon="103.816956">
				<ele>2526.000000</ele>
				<time>1970-01-01T00:00:00Z</time>
			</trkpt>
			<trkpt lat="33.271778" lon="103.816956">
				<ele>2526.000000</ele>
				<time>1970-01-01T00:00:00Z</time>
			</trkpt>
			<trkpt lat="33.271782" lon="103.816956">
				<ele>2526.000000</ele>
				<time>1970-01-01T00:00:00Z</time>
			</trkpt>
			<trkpt lat="33.271782" lon="103.816963">
				<ele>2526.000000</ele>
				<time>1970-01-01T00:00:00Z</time>
			</trkpt>
			<trkpt lat="33.271790" lon="103.816963">
				<ele>2526.000000</ele>
				<time>1970-01-01T00:00:00Z</time>
			</trkpt>
			<trkpt lat="33.271790" lon="103.816971">
				<ele>2526.000000</ele>
				<time>1970-01-01T00:00:00Z</time>
			</trkpt>
			<trkpt lat="33.271793" lon="103.816971">
				<ele>2526.000000</ele>
				<time>1970-01-01T00:00:00Z</time>
			</trkpt>
			<trkpt lat="33.271793" lon="103.816971">
				<ele>2526.000000</ele>
				<time>1970-01-01T00:00:00Z</time>
			</trkpt>
			<trkpt lat="33.271797" lon="103.816978">
				<ele>2526.000000</ele>
				<time>1970-01-01T00:00:00Z</time>
			</trkpt>
			<trkpt lat="33.271797" lon="103.816986">
				<ele>2526.000000</ele>
				<time>1970-01-01T00:00:00Z</time>
			</trkpt>
			<trkpt lat="33.271801" lon="103.816986">
				<ele>2526.000000</ele>
				<time>1970-01-01T00:00:00Z</time>
			</trkpt>
			<trkpt lat="33.271801" lon="103.816994">
				<ele>2526.000000</ele>
				<time>1970-01-01T00:00:00Z</time>
			</trkpt>
			<trkpt lat="33.271805" lon="103.816994">
				<ele>2526.000000</ele>
				<time>1970-01-01T00:00:00Z</time>
			</trkpt>
			<trkpt lat="33.271805" lon="103.816994">
				<ele>2526.000000</ele>
				<time>1970-01-01T00:00:00Z</time>
			</trkpt>
			<trkpt lat="33.271809" lon="103.816994">
				<ele>2521.000000</ele>
				<time>1970-01-01T00:00:00Z</time>
			</trkpt>
			<trkpt lat="33.271809" lon="103.817001">
				<ele>2521.000000</ele>
				<time>1970-01-01T00:00:00Z</time>
			</trkpt>
			<trkpt lat="33.271816" lon="103.817001">
				<ele>2521.000000</ele>
				<time>1970-01-01T00:00:00Z</time>
			</trkpt>
			<trkpt lat="33.271816" lon="103.817009">
				<ele>2521.000000</ele>
				<time>1970-01-01T00:00:00Z</time>
			</trkpt>
			<trkpt lat="33.271820" lon="103.817009">
				<ele>2521.000000</ele>
				<time>1970-01-01T00:00:00Z</time>
			</trkpt>
			<trkpt lat="33.271820" lon="103.817017">
				<ele>2521.000000</ele>
				<time>1970-01-01T00:00:00Z</time>
			</trkpt>
			<trkpt lat="33.271820" lon="103.817024">
				<ele>2521.000000</ele>
				<time>1970-01-01T00:00:00Z</time>
			</trkpt>
			<trkpt lat="33.271824" lon="103.817024">
				<ele>2521.000000</ele>
				<time>1970-01-01T00:00:00Z</time>
			</trkpt>
			<trkpt lat="33.271824" lon="103.817032">
				<ele>2521.000000</ele>
				<time>1970-01-01T00:00:00Z</time>
			</trkpt>
			<trkpt lat="33.271828" lon="103.817032">
				<ele>2521.000000</ele>
				<time>1970-01-01T00:00:00Z</time>
			</trkpt>
			<trkpt lat="33.271828" lon="103.817032">
				<ele>2521.000000</ele>
				<time>1970-01-01T00:00:00Z</time>
			</trkpt>
			<trkpt lat="33.271832" lon="103.817032">
				<ele>2521.000000</ele>
				<time>1970-01-01T00:00:00Z</time>
			</trkpt>
			<trkpt lat="33.271832" lon="103.817039">
				<ele>2521.000000</ele>
				<time>1970-01-01T00:00:00Z</time>
			</trkpt>
			<trkpt lat="33.271832" lon="103.817047">
				<ele>2521.000000</ele>
				<time>1970-01-01T00:00:00Z</time>
			</trkpt>
			<trkpt lat="33.271839" lon="103.817047">
				<ele>2521.000000</ele>
				<time>1970-01-01T00:00:00Z</time>
			</trkpt>
			<trkpt lat="33.271839" lon="103.817047">
				<ele>2521.000000</ele>
				<time>1970-01-01T00:00:00Z</time>
			</trkpt>
			<trkpt lat="33.271843" lon="103.817047">
				<ele>2521.000000</ele>
				<time>1970-01-01T00:00:00Z</time>
			</trkpt>
			<trkpt lat="33.271843" lon="103.817055">
				<ele>2521.000000</ele>
				<time>1970-01-01T00:00:00Z</time>
			</trkpt>
			<trkpt lat="33.271843" lon="103.817062">
				<ele>2521.000000</ele>
				<time>1970-01-01T00:00:00Z</time>
			</trkpt>
			<trkpt lat="33.271847" lon="103.817062">
				<ele>2521.000000</ele>
				<time>1970-01-01T00:00:00Z</time>
			</trkpt>
			<trkpt lat="33.271847" lon="103.817062">
				<ele>2521.000000</ele>
				<time>1970-01-01T00:00:00Z</time>
			</trkpt>
			<trkpt lat="33.271851" lon="103.817062">
				<ele>2521.000000</ele>
				<time>1970-01-01T00:00:00Z</time>
			</trkpt>
			<trkpt lat="33.271851" lon="103.817070">
				<ele>2521.000000</ele>
				<time>1970-01-01T00:00:00Z</time>
			</trkpt>
			<trkpt lat="33.271851" lon="103.817078">
				<ele>2521.000000</ele>
				<time>1970-01-01T00:00:00Z</time>
			</trkpt>
			<trkpt lat="33.271854" lon="103.817078">
				<ele>2521.000000</ele>
				<time>1970-01-01T00:00:00Z</time>
			</trkpt>
			<trkpt lat="33.271854" lon="103.817085">
				<ele>2520.000000</ele>
				<time>1970-01-01T00:00:00Z</time>
			</trkpt>
			<trkpt lat="33.271854" lon="103.817085">
				<ele>2520.000000</ele>
				<time>1970-01-01T00:00:00Z</time>
			</trkpt>
			<trkpt lat="33.271858" lon="103.817085">
				<ele>2520.000000</ele>
				<time>1970-01-01T00:00:00Z</time>
			</trkpt>
			<trkpt lat="33.271858" lon="103.817093">
				<ele>2520.000000</ele>
				<time>1970-01-01T00:00:00Z</time>
			</trkpt>
			<trkpt lat="33.271858" lon="103.817101">
				<ele>2520.000000</ele>
				<time>1970-01-01T00:00:00Z</time>
			</trkpt>
			<trkpt lat="33.271866" lon="103.817101">
				<ele>2520.000000</ele>
				<time>1970-01-01T00:00:00Z</time>
			</trkpt>
			<trkpt lat="33.271866" lon="103.817101">
				<ele>2520.000000</ele>
				<time>1970-01-01T00:00:00Z</time>
			</trkpt>
			<trkpt lat="33.271866" lon="103.817108">
				<ele>2520.000000</ele>
				<time>1970-01-01T00:00:00Z</time>
			</trkpt>
			<trkpt lat="33.271870" lon="103.817108">
				<ele>2520.000000</ele>
				<time>1970-01-01T00:00:00Z</time>
			</trkpt>
			<trkpt lat="33.271870" lon="103.817116">
				<ele>2520.000000</ele>
				<time>1970-01-01T00:00:00Z</time>
			</trkpt>
			<trkpt lat="33.271870" lon="103.817116">
				<ele>2520.000000</ele>
				<time>1970-01-01T00:00:00Z</time>
			</trkpt>
			<trkpt lat="33.271873" lon="103.817116">
				<ele>2520.000000</ele>
				<time>1970-01-01T00:00:00Z</time>
			</trkpt>
			<trkpt lat="33.271873" lon="103.817123">
				<ele>2520.000000</ele>
				<time>1970-01-01T00:00:00Z</time>
			</trkpt>
			<trkpt lat="33.271873" lon="103.817131">
				<ele>2520.000000</ele>
				<time>1970-01-01T00:00:00Z</time>
			</trkpt>
			<trkpt lat="33.271877" lon="103.817139">
				<ele>2520.000000</ele>
				<time>1970-01-01T00:00:00Z</time>
			</trkpt>
			<trkpt lat="33.271877" lon="103.817139">
				<ele>2520.000000</ele>
				<time>1970-01-01T00:00:00Z</time>
			</trkpt>
			<trkpt lat="33.271877" lon="103.817146">
				<ele>2520.000000</ele>
				<time>1970-01-01T00:00:00Z</time>
			</trkpt>
			<trkpt lat="33.271881" lon="103.817146">
				<ele>2520.000000</ele>
				<time>1970-01-01T00:00:00Z</time>
			</trkpt>
			<trkpt lat="33.271881" lon="103.817154">
				<ele>2520.000000</ele>
				<time>1970-01-01T00:00:00Z</time>
			</trkpt>
			<trkpt lat="33.271885" lon="103.817154">
				<ele>2520.000000</ele>
				<time>1970-01-01T00:00:00Z</time>
			</trkpt>
			<trkpt lat="33.271885" lon="103.817154">
				<ele>2520.000000</ele>
				<time>1970-01-01T00:00:00Z</time>
			</trkpt>
			<trkpt lat="33.271885" lon="103.817162">
				<ele>2520.000000</ele>
				<time>1970-01-01T00:00:00Z</time>
			</trkpt>
			<trkpt lat="33.271893" lon="103.817162">
				<ele>2520.000000</ele>
				<time>1970-01-01T00:00:00Z</time>
			</trkpt>
			<trkpt lat="33.271893" lon="103.817169">
				<ele>2520.000000</ele>
				<time>1970-01-01T00:00:00Z</time>
			</trkpt>
			<trkpt lat="33.271893" lon="103.817177">
				<ele>2520.000000</ele>
				<time>1970-01-01T00:00:00Z</time>
			</trkpt>
			<trkpt lat="33.271896" lon="103.817177">
				<ele>2520.000000</ele>
				<time>1970-01-01T00:00:00Z</time>
			</trkpt>
			<trkpt lat="33.271896" lon="103.817177">
				<ele>2520.000000</ele>
				<time>1970-01-01T00:00:00Z</time>
			</trkpt>
			<trkpt lat="33.271896" lon="103.817184">
				<ele>2520.000000</ele>
				<time>1970-01-01T00:00:00Z</time>
			</trkpt>
			<trkpt lat="33.271900" lon="103.817192">
				<ele>2520.000000</ele>
				<time>1970-01-01T00:00:00Z</time>
			</trkpt>
			<trkpt lat="33.271900" lon="103.817192">
				<ele>2520.000000</ele>
				<time>1970-01-01T00:00:00Z</time>
			</trkpt>
			<trkpt lat="33.271900" lon="103.817200">
				<ele>2520.000000</ele>
				<time>1970-01-01T00:00:00Z</time>
			</trkpt>
			<trkpt lat="33.271904" lon="103.817200">
				<ele>2520.000000</ele>
				<time>1970-01-01T00:00:00Z</time>
			</trkpt>
			<trkpt lat="33.271904" lon="103.817207">
				<ele>2520.000000</ele>
				<time>1970-01-01T00:00:00Z</time>
			</trkpt>
			<trkpt lat="33.271904" lon="103.817207">
				<ele>2520.000000</ele>
				<time>1970-01-01T00:00:00Z</time>
			</trkpt>
			<trkpt lat="33.271908" lon="103.817207">
				<ele>2520.000000</ele>
				<time>1970-01-01T00:00:00Z</time>
			</trkpt>
			<trkpt lat="33.271908" lon="103.817215">
				<ele>2520.000000</ele>
				<time>1970-01-01T00:00:00Z</time>
			</trkpt>
			<trkpt lat="33.271908" lon="103.817223">
				<ele>2520.000000</ele>
				<time>1970-01-01T00:00:00Z</time>
			</trkpt>
			<trkpt lat="33.271908" lon="103.817230">
				<ele>2520.000000</ele>
				<time>1970-01-01T00:00:00Z</time>
			</trkpt>
			<trkpt lat="33.271915" lon="103.817230">
				<ele>2520.000000</ele>
				<time>1970-01-01T00:00:00Z</time>
			</trkpt>
			<trkpt lat="33.271915" lon="103.817230">
				<ele>2520.000000</ele>
				<time>1970-01-01T00:00:00Z</time>
			</trkpt>
			<trkpt lat="33.271915" lon="103.817238">
				<ele>2520.000000</ele>
				<time>1970-01-01T00:00:00Z</time>
			</trkpt>
			<trkpt lat="33.271915" lon="103.817245">
				<ele>2520.000000</ele>
				<time>1970-01-01T00:00:00Z</time>
			</trkpt>
			<trkpt lat="33.271919" lon="103.817245">
				<ele>2520.000000</ele>
				<time>1970-01-01T00:00:00Z</time>
			</trkpt>
			<trkpt lat="33.271919" lon="103.817245">
				<ele>2520.000000</ele>
				<time>1970-01-01T00:00:00Z</time>
			</trkpt>
			<trkpt lat="33.271923" lon="103.817245">
				<ele>2520.000000</ele>
				<time>1970-01-01T00:00:00Z</time>
			</trkpt>
			<trkpt lat="33.271923" lon="103.817253">
				<ele>2520.000000</ele>
				<time>1970-01-01T00:00:00Z</time>
			</trkpt>
			<trkpt lat="33.271923" lon="103.817261">
				<ele>2520.000000</ele>
				<time>1970-01-01T00:00:00Z</time>
			</trkpt>
			<trkpt lat="33.271923" lon="103.817261">
				<ele>2520.000000</ele>
				<time>1970-01-01T00:00:00Z</time>
			</trkpt>
			<trkpt lat="33.271927" lon="103.817261">
				<ele>2520.000000</ele>
				<time>1970-01-01T00:00:00Z</time>
			</trkpt>
			<trkpt lat="33.271927" lon="103.817268">
				<ele>2520.000000</ele>
				<time>1970-01-01T00:00:00Z</time>
			</trkpt>
			<trkpt lat="33.271927" lon="103.817276">
				<ele>2520.000000</ele>
				<time>1970-01-01T00:00:00Z</time>
			</trkpt>
			<trkpt lat="33.271931" lon="103.817276">
				<ele>2520.000000</ele>
				<time>1970-01-01T00:00:00Z</time>
			</trkpt>
			<trkpt lat="33.271931" lon="103.817284">
				<ele>2520.000000</ele>
				<time>1970-01-01T00:00:00Z</time>
			</trkpt>
			<trkpt lat="33.271931" lon="103.817284">
				<ele>2520.000000</ele>
				<time>1970-01-01T00:00:00Z</time>
			</trkpt>
			<trkpt lat="33.271935" lon="103.817284">
				<ele>2520.000000</ele>
				<time>1970-01-01T00:00:00Z</time>
			</trkpt>
			<trkpt lat="33.271935" lon="103.817291">
				<ele>2520.000000</ele>
				<time>1970-01-01T00:00:00Z</time>
			</trkpt>
			<trkpt lat="33.271942" lon="103.817291">
				<ele>2520.000000</ele>
				<time>1970-01-01T00:00:00Z</time>
			</trkpt>
			<trkpt lat="33.271942" lon="103.817299">
				<ele>2520.000000</ele>
				<time>1970-01-01T00:00:00Z</time>
			</trkpt>
			<trkpt lat="33.271942" lon="103.817299">
				<ele>2520.000000</ele>
				<time>1970-01-01T00:00:00Z</time>
			</trkpt>
			<trkpt lat="33.271946" lon="103.817307">
				<ele>2520.000000</ele>
				<time>1970-01-01T00:00:00Z</time>
			</trkpt>
			<trkpt lat="33.271946" lon="103.817314">
				<ele>2520.000000</ele>
				<time>1970-01-01T00:00:00Z</time>
			</trkpt>
			<trkpt lat="33.271950" lon="103.817314">
				<ele>2520.000000</ele>
				<time>1970-01-01T00:00:00Z</time>
			</trkpt>
			<trkpt lat="33.271950" lon="103.817322">
				<ele>2520.000000</ele>
				<time>1970-01-01T00:00:00Z</time>
			</trkpt>
			<trkpt lat="33.271950" lon="103.817329">
				<ele>2520.000000</ele>
				<time>1970-01-01T00:00:00Z</time>
			</trkpt>
			<trkpt lat="33.271954" lon="103.817329">
				<ele>2520.000000</ele>
				<time>1970-01-01T00:00:00Z</time>
			</trkpt>
			<trkpt lat="33.271954" lon="103.817337">
				<ele>2520.000000</ele>
				<time>1970-01-01T00:00:00Z</time>
			</trkpt>
			<trkpt lat="33.271957" lon="103.817337">
				<ele>2520.000000</ele>
				<time>1970-01-01T00:00:00Z</time>
			</trkpt>
			<trkpt lat="33.271957" lon="103.817337">
				<ele>2520.000000</ele>
				<time>1970-01-01T00:00:00Z</time>
			</trkpt>
			<trkpt lat="33.271961" lon="103.817345">
				<ele>2520.000000</ele>
				<time>1970-01-01T00:00:00Z</time>
			</trkpt>
			<trkpt lat="33.271961" lon="103.817352">
				<ele>2520.000000</ele>
				<time>1970-01-01T00:00:00Z</time>
			</trkpt>
			<trkpt lat="33.271961" lon="103.817352">
				<ele>2520.000000</ele>
				<time>1970-01-01T00:00:00Z</time>
			</trkpt>
			<trkpt lat="33.271969" lon="103.817352">
				<ele>2520.000000</ele>
				<time>1970-01-01T00:00:00Z</time>
			</trkpt>
			<trkpt lat="33.271969" lon="103.817360">
				<ele>2520.000000</ele>
				<time>1970-01-01T00:00:00Z</time>
			</trkpt>
			<trkpt lat="33.271973" lon="103.817360">
				<ele>2520.000000</ele>
				<time>1970-01-01T00:00:00Z</time>
			</trkpt>
			<trkpt lat="33.271973" lon="103.817368">
				<ele>2519.000000</ele>
				<time>1970-01-01T00:00:00Z</time>
			</trkpt>
			<trkpt lat="33.271973" lon="103.817375">
				<ele>2519.000000</ele>
				<time>1970-01-01T00:00:00Z</time>
			</trkpt>
			<trkpt lat="33.271976" lon="103.817375">
				<ele>2519.000000</ele>
				<time>1970-01-01T00:00:00Z</time>
			</trkpt>
			<trkpt lat="33.271976" lon="103.817375">
				<ele>2519.000000</ele>
				<time>1970-01-01T00:00:00Z</time>
			</trkpt>
			<trkpt lat="33.271980" lon="103.817383">
				<ele>2519.000000</ele>
				<time>1970-01-01T00:00:00Z</time>
			</trkpt>
			<trkpt lat="33.271980" lon="103.817390">
				<ele>2519.000000</ele>
				<time>1970-01-01T00:00:00Z</time>
			</trkpt>
			<trkpt lat="33.271984" lon="103.817390">
				<ele>2519.000000</ele>
				<time>1970-01-01T00:00:00Z</time>
			</trkpt>
			<trkpt lat="33.271984" lon="103.817390">
				<ele>2519.000000</ele>
				<time>1970-01-01T00:00:00Z</time>
			</trkpt>
			<trkpt lat="33.271984" lon="103.817398">
				<ele>2519.000000</ele>
				<time>1970-01-01T00:00:00Z</time>
			</trkpt>
			<trkpt lat="33.271992" lon="103.817406">
				<ele>2519.000000</ele>
				<time>1970-01-01T00:00:00Z</time>
			</trkpt>
			<trkpt lat="33.271992" lon="103.817406">
				<ele>2519.000000</ele>
				<time>1970-01-01T00:00:00Z</time>
			</trkpt>
			<trkpt lat="33.271992" lon="103.817413">
				<ele>2519.000000</ele>
				<time>1970-01-01T00:00:00Z</time>
			</trkpt>
			<trkpt lat="33.271996" lon="103.817413">
				<ele>2519.000000</ele>
				<time>1970-01-01T00:00:00Z</time>
			</trkpt>
			<trkpt lat="33.271996" lon="103.817421">
				<ele>2519.000000</ele>
				<time>1970-01-01T00:00:00Z</time>
			</trkpt>
			<trkpt lat="33.271999" lon="103.817421">
				<ele>2519.000000</ele>
				<time>1970-01-01T00:00:00Z</time>
			</trkpt>
			<trkpt lat="33.271999" lon="103.817429">
				<ele>2519.000000</ele>
				<time>1970-01-01T00:00:00Z</time>
			</trkpt>
			<trkpt lat="33.271999" lon="103.817429">
				<ele>2519.000000</ele>
				<time>1970-01-01T00:00:00Z</time>
			</trkpt>
			<trkpt lat="33.272003" lon="103.817429">
				<ele>2519.000000</ele>
				<time>1970-01-01T00:00:00Z</time>
			</trkpt>
			<trkpt lat="33.272003" lon="103.817436">
				<ele>2519.000000</ele>
				<time>1970-01-01T00:00:00Z</time>
			</trkpt>
			<trkpt lat="33.272003" lon="103.817444">
				<ele>2519.000000</ele>
				<time>1970-01-01T00:00:00Z</time>
			</trkpt>
			<trkpt lat="33.272003" lon="103.817444">
				<ele>2519.000000</ele>
				<time>1970-01-01T00:00:00Z</time>
			</trkpt>
			<trkpt lat="33.272007" lon="103.817444">
				<ele>2519.000000</ele>
				<time>1970-01-01T00:00:00Z</time>
			</trkpt>
			<trkpt lat="33.272007" lon="103.817451">
				<ele>2519.000000</ele>
				<time>1970-01-01T00:00:00Z</time>
			</trkpt>
			<trkpt lat="33.272011" lon="103.817459">
				<ele>2519.000000</ele>
				<time>1970-01-01T00:00:00Z</time>
			</trkpt>
			<trkpt lat="33.272011" lon="103.817459">
				<ele>2519.000000</ele>
				<time>1970-01-01T00:00:00Z</time>
			</trkpt>
			<trkpt lat="33.272018" lon="103.817459">
				<ele>2519.000000</ele>
				<time>1970-01-01T00:00:00Z</time>
			</trkpt>
			<trkpt lat="33.272018" lon="103.817467">
				<ele>2519.000000</ele>
				<time>1970-01-01T00:00:00Z</time>
			</trkpt>
			<trkpt lat="33.272018" lon="103.817474">
				<ele>2519.000000</ele>
				<time>1970-01-01T00:00:00Z</time>
			</trkpt>
			<trkpt lat="33.272018" lon="103.817482">
				<ele>2519.000000</ele>
				<time>1970-01-01T00:00:00Z</time>
			</trkpt>
			<trkpt lat="33.272022" lon="103.817482">
				<ele>2519.000000</ele>
				<time>1970-01-01T00:00:00Z</time>
			</trkpt>
			<trkpt lat="33.272022" lon="103.817482">
				<ele>2519.000000</ele>
				<time>1970-01-01T00:00:00Z</time>
			</trkpt>
			<trkpt lat="33.272022" lon="103.817490">
				<ele>2519.000000</ele>
				<time>1970-01-01T00:00:00Z</time>
			</trkpt>
			<trkpt lat="33.272022" lon="103.817497">
				<ele>2519.000000</ele>
				<time>1970-01-01T00:00:00Z</time>
			</trkpt>
			<trkpt lat="33.272026" lon="103.817497">
				<ele>2519.000000</ele>
				<time>1970-01-01T00:00:00Z</time>
			</trkpt>
			<trkpt lat="33.272026" lon="103.817497">
				<ele>2519.000000</ele>
				<time>1970-01-01T00:00:00Z</time>
			</trkpt>
			<trkpt lat="33.272026" lon="103.817505">
				<ele>2519.000000</ele>
				<time>1970-01-01T00:00:00Z</time>
			</trkpt>
			<trkpt lat="33.272026" lon="103.817513">
				<ele>2519.000000</ele>
				<time>1970-01-01T00:00:00Z</time>
			</trkpt>
			<trkpt lat="33.272030" lon="103.817513">
				<ele>2519.000000</ele>
				<time>1970-01-01T00:00:00Z</time>
			</trkpt>
			<trkpt lat="33.272030" lon="103.817520">
				<ele>2519.000000</ele>
				<time>1970-01-01T00:00:00Z</time>
			</trkpt>
			<trkpt lat="33.272034" lon="103.817520">
				<ele>2519.000000</ele>
				<time>1970-01-01T00:00:00Z</time>
			</trkpt>
			<trkpt lat="33.272034" lon="103.817520">
				<ele>2519.000000</ele>
				<time>1970-01-01T00:00:00Z</time>
			</trkpt>
			<trkpt lat="33.272034" lon="103.817528">
				<ele>2519.000000</ele>
				<time>1970-01-01T00:00:00Z</time>
			</trkpt>
			<trkpt lat="33.272034" lon="103.817535">
				<ele>2519.000000</ele>
				<time>1970-01-01T00:00:00Z</time>
			</trkpt>
			<trkpt lat="33.272034" lon="103.817535">
				<ele>2519.000000</ele>
				<time>1970-01-01T00:00:00Z</time>
			</trkpt>
			<trkpt lat="33.272034" lon="103.817543">
				<ele>2519.000000</ele>
				<time>1970-01-01T00:00:00Z</time>
			</trkpt>
			<trkpt lat="33.272038" lon="103.817551">
				<ele>2519.000000</ele>
				<time>1970-01-01T00:00:00Z</time>
			</trkpt>
			<trkpt lat="33.272038" lon="103.817551">
				<ele>2519.000000</ele>
				<time>1970-01-01T00:00:00Z</time>
			</trkpt>
			<trkpt lat="33.272038" lon="103.817558">
				<ele>2519.000000</ele>
				<time>1970-01-01T00:00:00Z</time>
			</trkpt>
			<trkpt lat="33.272038" lon="103.817566">
				<ele>2519.000000</ele>
				<time>1970-01-01T00:00:00Z</time>
			</trkpt>
			<trkpt lat="33.272038" lon="103.817574">
				<ele>2519.000000</ele>
				<time>1970-01-01T00:00:00Z</time>
			</trkpt>
			<trkpt lat="33.272038" lon="103.817574">
				<ele>2519.000000</ele>
				<time>1970-01-01T00:00:00Z</time>
			</trkpt>
			<trkpt lat="33.272038" lon="103.817581">
				<ele>2519.000000</ele>
				<time>1970-01-01T00:00:00Z</time>
			</trkpt>
			<trkpt lat="33.272038" lon="103.817589">
				<ele>2519.000000</ele>
				<time>1970-01-01T00:00:00Z</time>
			</trkpt>
			<trkpt lat="33.272038" lon="103.817589">
				<ele>2519.000000</ele>
				<time>1970-01-01T00:00:00Z</time>
			</trkpt>
			<trkpt lat="33.272038" lon="103.817596">
				<ele>2519.000000</ele>
				<time>1970-01-01T00:00:00Z</time>
			</trkpt>
			<trkpt lat="33.272045" lon="103.817596">
				<ele>2519.000000</ele>
				<time>1970-01-01T00:00:00Z</time>
			</trkpt>
			<trkpt lat="33.272045" lon="103.817604">
				<ele>2519.000000</ele>
				<time>1970-01-01T00:00:00Z</time>
			</trkpt>
			<trkpt lat="33.272045" lon="103.817604">
				<ele>2519.000000</ele>
				<time>1970-01-01T00:00:00Z</time>
			</trkpt>
			<trkpt lat="33.272045" lon="103.817612">
				<ele>2519.000000</ele>
				<time>1970-01-01T00:00:00Z</time>
			</trkpt>
			<trkpt lat="33.272045" lon="103.817619">
				<ele>2519.000000</ele>
				<time>1970-01-01T00:00:00Z</time>
			</trkpt>
			<trkpt lat="33.272045" lon="103.817627">
				<ele>2519.000000</ele>
				<time>1970-01-01T00:00:00Z</time>
			</trkpt>
			<trkpt lat="33.272045" lon="103.817627">
				<ele>2519.000000</ele>
				<time>1970-01-01T00:00:00Z</time>
			</trkpt>
			<trkpt lat="33.272045" lon="103.817635">
				<ele>2519.000000</ele>
				<time>1970-01-01T00:00:00Z</time>
			</trkpt>
			<trkpt lat="33.272045" lon="103.817642">
				<ele>2518.000000</ele>
				<time>1970-01-01T00:00:00Z</time>
			</trkpt>
			<trkpt lat="33.272045" lon="103.817642">
				<ele>2518.000000</ele>
				<time>1970-01-01T00:00:00Z</time>
			</trkpt>
			<trkpt lat="33.272045" lon="103.817650">
				<ele>2518.000000</ele>
				<time>1970-01-01T00:00:00Z</time>
			</trkpt>
			<trkpt lat="33.272045" lon="103.817657">
				<ele>2518.000000</ele>
				<time>1970-01-01T00:00:00Z</time>
			</trkpt>
			<trkpt lat="33.272045" lon="103.817657">
				<ele>2518.000000</ele>
				<time>1970-01-01T00:00:00Z</time>
			</trkpt>
			<trkpt lat="33.272045" lon="103.817665">
				<ele>2518.000000</ele>
				<time>1970-01-01T00:00:00Z</time>
			</trkpt>
			<trkpt lat="33.272045" lon="103.817673">
				<ele>2518.000000</ele>
				<time>1970-01-01T00:00:00Z</time>
			</trkpt>
			<trkpt lat="33.272045" lon="103.817680">
				<ele>2518.000000</ele>
				<time>1970-01-01T00:00:00Z</time>
			</trkpt>
			<trkpt lat="33.272045" lon="103.817680">
				<ele>2518.000000</ele>
				<time>1970-01-01T00:00:00Z</time>
			</trkpt>
			<trkpt lat="33.272045" lon="103.817688">
				<ele>2518.000000</ele>
				<time>1970-01-01T00:00:00Z</time>
			</trkpt>
			<trkpt lat="33.272045" lon="103.817696">
				<ele>2518.000000</ele>
				<time>1970-01-01T00:00:00Z</time>
			</trkpt>
			<trkpt lat="33.272049" lon="103.817696">
				<ele>2518.000000</ele>
				<time>1970-01-01T00:00:00Z</time>
			</trkpt>
			<trkpt lat="33.272049" lon="103.817696">
				<ele>2518.000000</ele>
				<time>1970-01-01T00:00:00Z</time>
			</trkpt>
			<trkpt lat="33.272049" lon="103.817703">
				<ele>2518.000000</ele>
				<time>1970-01-01T00:00:00Z</time>
			</trkpt>
			<trkpt lat="33.272049" lon="103.817711">
				<ele>2518.000000</ele>
				<time>1970-01-01T00:00:00Z</time>
			</trkpt>
			<trkpt lat="33.272049" lon="103.817719">
				<ele>2518.000000</ele>
				<time>1970-01-01T00:00:00Z</time>
			</trkpt>
			<trkpt lat="33.272053" lon="103.817719">
				<ele>2518.000000</ele>
				<time>1970-01-01T00:00:00Z</time>
			</trkpt>
			<trkpt lat="33.272053" lon="103.817719">
				<ele>2518.000000</ele>
				<time>1970-01-01T00:00:00Z</time>
			</trkpt>
			<trkpt lat="33.272053" lon="103.817726">
				<ele>2518.000000</ele>
				<time>1970-01-01T00:00:00Z</time>
			</trkpt>
			<trkpt lat="33.272053" lon="103.817734">
				<ele>2518.000000</ele>
				<time>1970-01-01T00:00:00Z</time>
			</trkpt>
			<trkpt lat="33.272053" lon="103.817734">
				<ele>2518.000000</ele>
				<time>1970-01-01T00:00:00Z</time>
			</trkpt>
			<trkpt lat="33.272053" lon="103.817741">
				<ele>2518.000000</ele>
				<time>1970-01-01T00:00:00Z</time>
			</trkpt>
			<trkpt lat="33.272053" lon="103.817749">
				<ele>2518.000000</ele>
				<time>1970-01-01T00:00:00Z</time>
			</trkpt>
			<trkpt lat="33.272053" lon="103.817749">
				<ele>2518.000000</ele>
				<time>1970-01-01T00:00:00Z</time>
			</trkpt>
			<trkpt lat="33.272053" lon="103.817757">
				<ele>2518.000000</ele>
				<time>1970-01-01T00:00:00Z</time>
			</trkpt>
			<trkpt lat="33.272053" lon="103.817764">
				<ele>2518.000000</ele>
				<time>1970-01-01T00:00:00Z</time>
			</trkpt>
			<trkpt lat="33.272053" lon="103.817772">
				<ele>2518.000000</ele>
				<time>1970-01-01T00:00:00Z</time>
			</trkpt>
			<trkpt lat="33.272053" lon="103.817772">
				<ele>2518.000000</ele>
				<time>1970-01-01T00:00:00Z</time>
			</trkpt>
			<trkpt lat="33.272053" lon="103.817780">
				<ele>2518.000000</ele>
				<time>1970-01-01T00:00:00Z</time>
			</trkpt>
			<trkpt lat="33.272053" lon="103.817787">
				<ele>2518.000000</ele>
				<time>1970-01-01T00:00:00Z</time>
			</trkpt>
			<trkpt lat="33.272053" lon="103.817787">
				<ele>2518.000000</ele>
				<time>1970-01-01T00:00:00Z</time>
			</trkpt>
			<trkpt lat="33.272053" lon="103.817795">
				<ele>2518.000000</ele>
				<time>1970-01-01T00:00:00Z</time>
			</trkpt>
			<trkpt lat="33.272053" lon="103.817802">
				<ele>2518.000000</ele>
				<time>1970-01-01T00:00:00Z</time>
			</trkpt>
			<trkpt lat="33.272053" lon="103.817802">
				<ele>2518.000000</ele>
				<time>1970-01-01T00:00:00Z</time>
			</trkpt>
			<trkpt lat="33.272053" lon="103.817810">
				<ele>2518.000000</ele>
				<time>1970-01-01T00:00:00Z</time>
			</trkpt>
			<trkpt lat="33.272053" lon="103.817818">
				<ele>2518.000000</ele>
				<time>1970-01-01T00:00:00Z</time>
			</trkpt>
			<trkpt lat="33.272053" lon="103.817825">
				<ele>2518.000000</ele>
				<time>1970-01-01T00:00:00Z</time>
			</trkpt>
			<trkpt lat="33.272053" lon="103.817825">
				<ele>2518.000000</ele>
				<time>1970-01-01T00:00:00Z</time>
			</trkpt>
			<trkpt lat="33.272053" lon="103.817833">
				<ele>2518.000000</ele>
				<time>1970-01-01T00:00:00Z</time>
			</trkpt>
			<trkpt lat="33.272053" lon="103.817841">
				<ele>2518.000000</ele>
				<time>1970-01-01T00:00:00Z</time>
			</trkpt>
			<trkpt lat="33.272053" lon="103.817841">
				<ele>2518.000000</ele>
				<time>1970-01-01T00:00:00Z</time>
			</trkpt>
			<trkpt lat="33.272053" lon="103.817848">
				<ele>2518.000000</ele>
				<time>1970-01-01T00:00:00Z</time>
			</trkpt>
			<trkpt lat="33.272053" lon="103.817856">
				<ele>2518.000000</ele>
				<time>1970-01-01T00:00:00Z</time>
			</trkpt>
			<trkpt lat="33.272053" lon="103.817863">
				<ele>2518.000000</ele>
				<time>1970-01-01T00:00:00Z</time>
			</trkpt>
			<trkpt lat="33.272053" lon="103.817863">
				<ele>2518.000000</ele>
				<time>1970-01-01T00:00:00Z</time>
			</trkpt>
			<trkpt lat="33.272053" lon="103.817871">
				<ele>2518.000000</ele>
				<time>1970-01-01T00:00:00Z</time>
			</trkpt>
			<trkpt lat="33.272053" lon="103.817879">
				<ele>2518.000000</ele>
				<time>1970-01-01T00:00:00Z</time>
			</trkpt>
			<trkpt lat="33.272049" lon="103.817879">
				<ele>2518.000000</ele>
				<time>1970-01-01T00:00:00Z</time>
			</trkpt>
			<trkpt lat="33.272049" lon="103.817886">
				<ele>2518.000000</ele>
				<time>1970-01-01T00:00:00Z</time>
			</trkpt>
			<trkpt lat="33.272049" lon="103.817894">
				<ele>2518.000000</ele>
				<time>1970-01-01T00:00:00Z</time>
			</trkpt>
			<trkpt lat="33.272049" lon="103.817894">
				<ele>2518.000000</ele>
				<time>1970-01-01T00:00:00Z</time>
			</trkpt>
			<trkpt lat="33.272049" lon="103.817902">
				<ele>2518.000000</ele>
				<time>1970-01-01T00:00:00Z</time>
			</trkpt>
			<trkpt lat="33.272049" lon="103.817909">
				<ele>2518.000000</ele>
				<time>1970-01-01T00:00:00Z</time>
			</trkpt>
			<trkpt lat="33.272049" lon="103.817917">
				<ele>2517.000000</ele>
				<time>1970-01-01T00:00:00Z</time>
			</trkpt>
			<trkpt lat="33.272045" lon="103.817917">
				<ele>2517.000000</ele>
				<time>1970-01-01T00:00:00Z</time>
			</trkpt>
			<trkpt lat="33.272045" lon="103.817917">
				<ele>2517.000000</ele>
				<time>1970-01-01T00:00:00Z</time>
			</trkpt>
			<trkpt lat="33.272045" lon="103.817924">
				<ele>2517.000000</ele>
				<time>1970-01-01T00:00:00Z</time>
			</trkpt>
			<trkpt lat="33.272045" lon="103.817932">
				<ele>2517.000000</ele>
				<time>1970-01-01T00:00:00Z</time>
			</trkpt>
			<trkpt lat="33.272045" lon="103.817932">
				<ele>2517.000000</ele>
				<time>1970-01-01T00:00:00Z</time>
			</trkpt>
			<trkpt lat="33.272045" lon="103.817940">
				<ele>2517.000000</ele>
				<time>1970-01-01T00:00:00Z</time>
			</trkpt>
			<trkpt lat="33.272038" lon="103.817940">
				<ele>2517.000000</ele>
				<time>1970-01-01T00:00:00Z</time>
			</trkpt>
			<trkpt lat="33.272038" lon="103.817947">
				<ele>2517.000000</ele>
				<time>1970-01-01T00:00:00Z</time>
			</trkpt>
			<trkpt lat="33.272038" lon="103.817947">
				<ele>2517.000000</ele>
				<time>1970-01-01T00:00:00Z</time>
			</trkpt>
			<trkpt lat="33.272038" lon="103.817955">
				<ele>2517.000000</ele>
				<time>1970-01-01T00:00:00Z</time>
			</trkpt>
			<trkpt lat="33.272038" lon="103.817963">
				<ele>2517.000000</ele>
				<time>1970-01-01T00:00:00Z</time>
			</trkpt>
			<trkpt lat="33.272034" lon="103.817963">
				<ele>2517.000000</ele>
				<time>1970-01-01T00:00:00Z</time>
			</trkpt>
			<trkpt lat="33.272034" lon="103.817970">
				<ele>2517.000000</ele>
				<time>1970-01-01T00:00:00Z</time>
			</trkpt>
			<trkpt lat="33.272034" lon="103.817970">
				<ele>2517.000000</ele>
				<time>1970-01-01T00:00:00Z</time>
			</trkpt>
			<trkpt lat="33.272034" lon="103.817978">
				<ele>2517.000000</ele>
				<time>1970-01-01T00:00:00Z</time>
			</trkpt>
			<trkpt lat="33.272030" lon="103.817978">
				<ele>2517.000000</ele>
				<time>1970-01-01T00:00:00Z</time>
			</trkpt>
			<trkpt lat="33.272030" lon="103.817986">
				<ele>2517.000000</ele>
				<time>1970-01-01T00:00:00Z</time>
			</trkpt>
			<trkpt lat="33.272030" lon="103.817986">
				<ele>2517.000000</ele>
				<time>1970-01-01T00:00:00Z</time>
			</trkpt>
			<trkpt lat="33.272030" lon="103.817993">
				<ele>2517.000000</ele>
				<time>1970-01-01T00:00:00Z</time>
			</trkpt>
			<trkpt lat="33.272030" lon="103.818001">
				<ele>2517.000000</ele>
				<time>1970-01-01T00:00:00Z</time>
			</trkpt>
			<trkpt lat="33.272026" lon="103.818001">
				<ele>2517.000000</ele>
				<time>1970-01-01T00:00:00Z</time>
			</trkpt>
			<trkpt lat="33.272026" lon="103.818001">
				<ele>2517.000000</ele>
				<time>1970-01-01T00:00:00Z</time>
			</trkpt>
			<trkpt lat="33.272026" lon="103.818008">
				<ele>2517.000000</ele>
				<time>1970-01-01T00:00:00Z</time>
			</trkpt>
			<trkpt lat="33.272026" lon="103.818016">
				<ele>2517.000000</ele>
				<time>1970-01-01T00:00:00Z</time>
			</trkpt>
			<trkpt lat="33.272026" lon="103.818024">
				<ele>2517.000000</ele>
				<time>1970-01-01T00:00:00Z</time>
			</trkpt>
			<trkpt lat="33.272022" lon="103.818024">
				<ele>2517.000000</ele>
				<time>1970-01-01T00:00:00Z</time>
			</trkpt>
			<trkpt lat="33.272022" lon="103.818024">
				<ele>2517.000000</ele>
				<time>1970-01-01T00:00:00Z</time>
			</trkpt>
			<trkpt lat="33.272022" lon="103.818031">
				<ele>2517.000000</ele>
				<time>1970-01-01T00:00:00Z</time>
			</trkpt>
			<trkpt lat="33.272022" lon="103.818039">
				<ele>2517.000000</ele>
				<time>1970-01-01T00:00:00Z</time>
			</trkpt>
			<trkpt lat="33.272022" lon="103.818039">
				<ele>2517.000000</ele>
				<time>1970-01-01T00:00:00Z</time>
			</trkpt>
			<trkpt lat="33.272022" lon="103.818047">
				<ele>2517.000000</ele>
				<time>1970-01-01T00:00:00Z</time>
			</trkpt>
			<trkpt lat="33.272018" lon="103.818047">
				<ele>2517.000000</ele>
				<time>1970-01-01T00:00:00Z</time>
			</trkpt>
			<trkpt lat="33.272018" lon="103.818054">
				<ele>2517.000000</ele>
				<time>1970-01-01T00:00:00Z</time>
			</trkpt>
			<trkpt lat="33.272018" lon="103.818062">
				<ele>2517.000000</ele>
				<time>1970-01-01T00:00:00Z</time>
			</trkpt>
			<trkpt lat="33.272018" lon="103.818062">
				<ele>2517.000000</ele>
				<time>1970-01-01T00:00:00Z</time>
			</trkpt>
			<trkpt lat="33.272011" lon="103.818069">
				<ele>2517.000000</ele>
				<time>1970-01-01T00:00:00Z</time>
			</trkpt>
			<trkpt lat="33.272011" lon="103.818077">
				<ele>2517.000000</ele>
				<time>1970-01-01T00:00:00Z</time>
			</trkpt>
			<trkpt lat="33.272011" lon="103.818077">
				<ele>2517.000000</ele>
				<time>1970-01-01T00:00:00Z</time>
			</trkpt>
			<trkpt lat="33.272011" lon="103.818085">
				<ele>2517.000000</ele>
				<time>1970-01-01T00:00:00Z</time>
			</trkpt>
			<trkpt lat="33.272011" lon="103.818092">
				<ele>2517.000000</ele>
				<time>1970-01-01T00:00:00Z</time>
			</trkpt>
			<trkpt lat="33.272011" lon="103.818092">
				<ele>2517.000000</ele>
				<time>1970-01-01T00:00:00Z</time>
			</trkpt>
			<trkpt lat="33.272011" lon="103.818100">
				<ele>2517.000000</ele>
				<time>1970-01-01T00:00:00Z</time>
			</trkpt>
			<trkpt lat="33.272011" lon="103.818108">
				<ele>2517.000000</ele>
				<time>1970-01-01T00:00:00Z</time>
			</trkpt>
			<trkpt lat="33.272011" lon="103.818115">
				<ele>2517.000000</ele>
				<time>1970-01-01T00:00:00Z</time>
			</trkpt>
			<trkpt lat="33.272011" lon="103.818115">
				<ele>2517.000000</ele>
				<time>1970-01-01T00:00:00Z</time>
			</trkpt>
			<trkpt lat="33.272011" lon="103.818123">
				<ele>2517.000000</ele>
				<time>1970-01-01T00:00:00Z</time>
			</trkpt>
			<trkpt lat="33.272011" lon="103.818130">
				<ele>2517.000000</ele>
				<time>1970-01-01T00:00:00Z</time>
			</trkpt>
			<trkpt lat="33.272007" lon="103.818130">
				<ele>2517.000000</ele>
				<time>1970-01-01T00:00:00Z</time>
			</trkpt>
			<trkpt lat="33.272007" lon="103.818130">
				<ele>2517.000000</ele>
				<time>1970-01-01T00:00:00Z</time>
			</trkpt>
			<trkpt lat="33.272007" lon="103.818138">
				<ele>2517.000000</ele>
				<time>1970-01-01T00:00:00Z</time>
			</trkpt>
			<trkpt lat="33.272007" lon="103.818146">
				<ele>2517.000000</ele>
				<time>1970-01-01T00:00:00Z</time>
			</trkpt>
			<trkpt lat="33.272007" lon="103.818146">
				<ele>2517.000000</ele>
				<time>1970-01-01T00:00:00Z</time>
			</trkpt>
			<trkpt lat="33.272007" lon="103.818153">
				<ele>2517.000000</ele>
				<time>1970-01-01T00:00:00Z</time>
			</trkpt>
			<trkpt lat="33.272007" lon="103.818161">
				<ele>2517.000000</ele>
				<time>1970-01-01T00:00:00Z</time>
			</trkpt>
			<trkpt lat="33.272007" lon="103.818169">
				<ele>2517.000000</ele>
				<time>1970-01-01T00:00:00Z</time>
			</trkpt>
			<trkpt lat="33.272007" lon="103.818169">
				<ele>2517.000000</ele>
				<time>1970-01-01T00:00:00Z</time>
			</trkpt>
			<trkpt lat="33.272007" lon="103.818176">
				<ele>2517.000000</ele>
				<time>1970-01-01T00:00:00Z</time>
			</trkpt>
			<trkpt lat="33.272007" lon="103.818184">
				<ele>2517.000000</ele>
				<time>1970-01-01T00:00:00Z</time>
			</trkpt>
			<trkpt lat="33.272007" lon="103.818184">
				<ele>2517.000000</ele>
				<time>1970-01-01T00:00:00Z</time>
			</trkpt>
			<trkpt lat="33.272007" lon="103.818192">
				<ele>2517.000000</ele>
				<time>1970-01-01T00:00:00Z</time>
			</trkpt>
			<trkpt lat="33.272007" lon="103.818199">
				<ele>2519.000000</ele>
				<time>1970-01-01T00:00:00Z</time>
			</trkpt>
			<trkpt lat="33.272007" lon="103.818207">
				<ele>2519.000000</ele>
				<time>1970-01-01T00:00:00Z</time>
			</trkpt>
			<trkpt lat="33.272007" lon="103.818207">
				<ele>2519.000000</ele>
				<time>1970-01-01T00:00:00Z</time>
			</trkpt>
			<trkpt lat="33.272007" lon="103.818214">
				<ele>2519.000000</ele>
				<time>1970-01-01T00:00:00Z</time>
			</trkpt>
			<trkpt lat="33.272007" lon="103.818222">
				<ele>2519.000000</ele>
				<time>1970-01-01T00:00:00Z</time>
			</trkpt>
			<trkpt lat="33.272007" lon="103.818222">
				<ele>2519.000000</ele>
				<time>1970-01-01T00:00:00Z</time>
			</trkpt>
			<trkpt lat="33.272007" lon="103.818230">
				<ele>2519.000000</ele>
				<time>1970-01-01T00:00:00Z</time>
			</trkpt>
			<trkpt lat="33.272007" lon="103.818237">
				<ele>2519.000000</ele>
				<time>1970-01-01T00:00:00Z</time>
			</trkpt>
			<trkpt lat="33.272007" lon="103.818237">
				<ele>2519.000000</ele>
				<time>1970-01-01T00:00:00Z</time>
			</trkpt>
			<trkpt lat="33.272007" lon="103.818245">
				<ele>2519.000000</ele>
				<time>1970-01-01T00:00:00Z</time>
			</trkpt>
			<trkpt lat="33.272007" lon="103.818253">
				<ele>2519.000000</ele>
				<time>1970-01-01T00:00:00Z</time>
			</trkpt>
			<trkpt lat="33.272007" lon="103.818260">
				<ele>2519.000000</ele>
				<time>1970-01-01T00:00:00Z</time>
			</trkpt>
			<trkpt lat="33.272007" lon="103.818260">
				<ele>2519.000000</ele>
				<time>1970-01-01T00:00:00Z</time>
			</trkpt>
			<trkpt lat="33.272007" lon="103.818268">
				<ele>2519.000000</ele>
				<time>1970-01-01T00:00:00Z</time>
			</trkpt>
			<trkpt lat="33.272007" lon="103.818275">
				<ele>2519.000000</ele>
				<time>1970-01-01T00:00:00Z</time>
			</trkpt>
			<trkpt lat="33.272007" lon="103.818275">
				<ele>2519.000000</ele>
				<time>1970-01-01T00:00:00Z</time>
			</trkpt>
			<trkpt lat="33.272007" lon="103.818283">
				<ele>2519.000000</ele>
				<time>1970-01-01T00:00:00Z</time>
			</trkpt>
			<trkpt lat="33.272007" lon="103.818291">
				<ele>2519.000000</ele>
				<time>1970-01-01T00:00:00Z</time>
			</trkpt>
			<trkpt lat="33.272007" lon="103.818291">
				<ele>2519.000000</ele>
				<time>1970-01-01T00:00:00Z</time>
			</trkpt>
			<trkpt lat="33.272007" lon="103.818298">
				<ele>2519.000000</ele>
				<time>1970-01-01T00:00:00Z</time>
			</trkpt>
			<trkpt lat="33.272007" lon="103.818306">
				<ele>2519.000000</ele>
				<time>1970-01-01T00:00:00Z</time>
			</trkpt>
			<trkpt lat="33.272011" lon="103.818306">
				<ele>2519.000000</ele>
				<time>1970-01-01T00:00:00Z</time>
			</trkpt>
			<trkpt lat="33.272011" lon="103.818314">
				<ele>2519.000000</ele>
				<time>1970-01-01T00:00:00Z</time>
			</trkpt>
			<trkpt lat="33.272011" lon="103.818314">
				<ele>2519.000000</ele>
				<time>1970-01-01T00:00:00Z</time>
			</trkpt>
			<trkpt lat="33.272011" lon="103.818321">
				<ele>2519.000000</ele>
				<time>1970-01-01T00:00:00Z</time>
			</trkpt>
			<trkpt lat="33.272018" lon="103.818321">
				<ele>2519.000000</ele>
				<time>1970-01-01T00:00:00Z</time>
			</trkpt>
			<trkpt lat="33.272018" lon="103.818329">
				<ele>2519.000000</ele>
				<time>1970-01-01T00:00:00Z</time>
			</trkpt>
			<trkpt lat="33.272018" lon="103.818329">
				<ele>2519.000000</ele>
				<time>1970-01-01T00:00:00Z</time>
			</trkpt>
			<trkpt lat="33.272018" lon="103.818336">
				<ele>2519.000000</ele>
				<time>1970-01-01T00:00:00Z</time>
			</trkpt>
			<trkpt lat="33.272018" lon="103.818344">
				<ele>2519.000000</ele>
				<time>1970-01-01T00:00:00Z</time>
			</trkpt>
			<trkpt lat="33.272018" lon="103.818344">
				<ele>2519.000000</ele>
				<time>1970-01-01T00:00:00Z</time>
			</trkpt>
			<trkpt lat="33.272018" lon="103.818352">
				<ele>2519.000000</ele>
				<time>1970-01-01T00:00:00Z</time>
			</trkpt>
			<trkpt lat="33.272018" lon="103.818359">
				<ele>2519.000000</ele>
				<time>1970-01-01T00:00:00Z</time>
			</trkpt>
			<trkpt lat="33.272022" lon="103.818359">
				<ele>2519.000000</ele>
				<time>1970-01-01T00:00:00Z</time>
			</trkpt>
			<trkpt lat="33.272022" lon="103.818367">
				<ele>2519.000000</ele>
				<time>1970-01-01T00:00:00Z</time>
			</trkpt>
			<trkpt lat="33.272022" lon="103.818367">
				<ele>2519.000000</ele>
				<time>1970-01-01T00:00:00Z</time>
			</trkpt>
			<trkpt lat="33.272022" lon="103.818375">
				<ele>2519.000000</ele>
				<time>1970-01-01T00:00:00Z</time>
			</trkpt>
			<trkpt lat="33.272022" lon="103.818382">
				<ele>2519.000000</ele>
				<time>1970-01-01T00:00:00Z</time>
			</trkpt>
			<trkpt lat="33.272026" lon="103.818382">
				<ele>2519.000000</ele>
				<time>1970-01-01T00:00:00Z</time>
			</trkpt>
			<trkpt lat="33.272026" lon="103.818382">
				<ele>2519.000000</ele>
				<time>1970-01-01T00:00:00Z</time>
			</trkpt>
			<trkpt lat="33.272026" lon="103.818390">
				<ele>2519.000000</ele>
				<time>1970-01-01T00:00:00Z</time>
			</trkpt>
			<trkpt lat="33.272026" lon="103.818398">
				<ele>2519.000000</ele>
				<time>1970-01-01T00:00:00Z</time>
			</trkpt>
			<trkpt lat="33.272026" lon="103.818405">
				<ele>2519.000000</ele>
				<time>1970-01-01T00:00:00Z</time>
			</trkpt>
			<trkpt lat="33.272026" lon="103.818405">
				<ele>2519.000000</ele>
				<time>1970-01-01T00:00:00Z</time>
			</trkpt>
			<trkpt lat="33.272030" lon="103.818405">
				<ele>2519.000000</ele>
				<time>1970-01-01T00:00:00Z</time>
			</trkpt>
			<trkpt lat="33.272030" lon="103.818413">
				<ele>2519.000000</ele>
				<time>1970-01-01T00:00:00Z</time>
			</trkpt>
			<trkpt lat="33.272030" lon="103.818420">
				<ele>2519.000000</ele>
				<time>1970-01-01T00:00:00Z</time>
			</trkpt>
			<trkpt lat="33.272034" lon="103.818420">
				<ele>2519.000000</ele>
				<time>1970-01-01T00:00:00Z</time>
			</trkpt>
			<trkpt lat="33.272034" lon="103.818420">
				<ele>2519.000000</ele>
				<time>1970-01-01T00:00:00Z</time>
			</trkpt>
			<trkpt lat="33.272034" lon="103.818428">
				<ele>2519.000000</ele>
				<time>1970-01-01T00:00:00Z</time>
			</trkpt>
			<trkpt lat="33.272034" lon="103.818436">
				<ele>2519.000000</ele>
				<time>1970-01-01T00:00:00Z</time>
			</trkpt>
			<trkpt lat="33.272034" lon="103.818436">
				<ele>2519.000000</ele>
				<time>1970-01-01T00:00:00Z</time>
			</trkpt>
			<trkpt lat="33.272038" lon="103.818436">
				<ele>2519.000000</ele>
				<time>1970-01-01T00:00:00Z</time>
			</trkpt>
			<trkpt lat="33.272038" lon="103.818443">
				<ele>2519.000000</ele>
				<time>1970-01-01T00:00:00Z</time>
			</trkpt>
			<trkpt lat="33.272038" lon="103.818451">
				<ele>2519.000000</ele>
				<time>1970-01-01T00:00:00Z</time>
			</trkpt>
			<trkpt lat="33.272038" lon="103.818459">
				<ele>2519.000000</ele>
				<time>1970-01-01T00:00:00Z</time>
			</trkpt>
			<trkpt lat="33.272038" lon="103.818459">
				<ele>2519.000000</ele>
				<time>1970-01-01T00:00:00Z</time>
			</trkpt>
			<trkpt lat="33.272045" lon="103.818459">
				<ele>2519.000000</ele>
				<time>1970-01-01T00:00:00Z</time>
			</trkpt>
			<trkpt lat="33.272045" lon="103.818466">
				<ele>2519.000000</ele>
				<time>1970-01-01T00:00:00Z</time>
			</trkpt>
			<trkpt lat="33.272045" lon="103.818474">
				<ele>2517.000000</ele>
				<time>1970-01-01T00:00:00Z</time>
			</trkpt>
			<trkpt lat="33.272045" lon="103.818474">
				<ele>2517.000000</ele>
				<time>1970-01-01T00:00:00Z</time>
			</trkpt>
			<trkpt lat="33.272045" lon="103.818481">
				<ele>2517.000000</ele>
				<time>1970-01-01T00:00:00Z</time>
			</trkpt>
			<trkpt lat="33.272049" lon="103.818481">
				<ele>2517.000000</ele>
				<time>1970-01-01T00:00:00Z</time>
			</trkpt>
			<trkpt lat="33.272049" lon="103.818489">
				<ele>2517.000000</ele>
				<time>1970-01-01T00:00:00Z</time>
			</trkpt>
			<trkpt lat="33.272049" lon="103.818489">
				<ele>2517.000000</ele>
				<time>1970-01-01T00:00:00Z</time>
			</trkpt>
			<trkpt lat="33.272053" lon="103.818489">
				<ele>2517.000000</ele>
				<time>1970-01-01T00:00:00Z</time>
			</trkpt>
			<trkpt lat="33.272053" lon="103.818497">
				<ele>2517.000000</ele>
				<time>1970-01-01T00:00:00Z</time>
			</trkpt>
			<trkpt lat="33.272053" lon="103.818504">
				<ele>2517.000000</ele>
				<time>1970-01-01T00:00:00Z</time>
			</trkpt>
			<trkpt lat="33.272053" lon="103.818512">
				<ele>2517.000000</ele>
				<time>1970-01-01T00:00:00Z</time>
			</trkpt>
			<trkpt lat="33.272057" lon="103.818512">
				<ele>2517.000000</ele>
				<time>1970-01-01T00:00:00Z</time>
			</trkpt>
			<trkpt lat="33.272057" lon="103.818512">
				<ele>2517.000000</ele>
				<time>1970-01-01T00:00:00Z</time>
			</trkpt>
			<trkpt lat="33.272057" lon="103.818520">
				<ele>2517.000000</ele>
				<time>1970-01-01T00:00:00Z</time>
			</trkpt>
			<trkpt lat="33.272057" lon="103.818527">
				<ele>2517.000000</ele>
				<time>1970-01-01T00:00:00Z</time>
			</trkpt>
			<trkpt lat="33.272060" lon="103.818527">
				<ele>2517.000000</ele>
				<time>1970-01-01T00:00:00Z</time>
			</trkpt>
			<trkpt lat="33.272060" lon="103.818535">
				<ele>2517.000000</ele>
				<time>1970-01-01T00:00:00Z</time>
			</trkpt>
			<trkpt lat="33.272060" lon="103.818542">
				<ele>2517.000000</ele>
				<time>1970-01-01T00:00:00Z</time>
			</trkpt>
			<trkpt lat="33.272064" lon="103.818542">
				<ele>2517.000000</ele>
				<time>1970-01-01T00:00:00Z</time>
			</trkpt>
			<trkpt lat="33.272064" lon="103.818550">
				<ele>2517.000000</ele>
				<time>1970-01-01T00:00:00Z</time>
			</trkpt>
			<trkpt lat="33.272072" lon="103.818550">
				<ele>2517.000000</ele>
				<time>1970-01-01T00:00:00Z</time>
			</trkpt>
			<trkpt lat="33.272072" lon="103.818550">
				<ele>2517.000000</ele>
				<time>1970-01-01T00:00:00Z</time>
			</trkpt>
			<trkpt lat="33.272072" lon="103.818558">
				<ele>2517.000000</ele>
				<time>1970-01-01T00:00:00Z</time>
			</trkpt>
			<trkpt lat="33.272076" lon="103.818558">
				<ele>2517.000000</ele>
				<time>1970-01-01T00:00:00Z</time>
			</trkpt>
			<trkpt lat="33.272076" lon="103.818565">
				<ele>2517.000000</ele>
				<time>1970-01-01T00:00:00Z</time>
			</trkpt>
			<trkpt lat="33.272076" lon="103.818565">
				<ele>2517.000000</ele>
				<time>1970-01-01T00:00:00Z</time>
			</trkpt>
			<trkpt lat="33.272076" lon="103.818573">
				<ele>2517.000000</ele>
				<time>1970-01-01T00:00:00Z</time>
			</trkpt>
			<trkpt lat="33.272079" lon="103.818573">
				<ele>2517.000000</ele>
				<time>1970-01-01T00:00:00Z</time>
			</trkpt>
			<trkpt lat="33.272079" lon="103.818581">
				<ele>2517.000000</ele>
				<time>1970-01-01T00:00:00Z</time>
			</trkpt>
			<trkpt lat="33.272079" lon="103.818581">
				<ele>2517.000000</ele>
				<time>1970-01-01T00:00:00Z</time>
			</trkpt>
			<trkpt lat="33.272083" lon="103.818581">
				<ele>2517.000000</ele>
				<time>1970-01-01T00:00:00Z</time>
			</trkpt>
			<trkpt lat="33.272087" lon="103.818581">
				<ele>2509.000000</ele>
				<time>1970-01-01T00:00:00Z</time>
			</trkpt>
			<trkpt lat="33.272087" lon="103.818588">
				<ele>2509.000000</ele>
				<time>1970-01-01T00:00:00Z</time>
			</trkpt>
			<trkpt lat="33.272087" lon="103.818596">
				<ele>2509.000000</ele>
				<time>1970-01-01T00:00:00Z</time>
			</trkpt>
			<trkpt lat="33.272095" lon="103.818596">
				<ele>2509.000000</ele>
				<time>1970-01-01T00:00:00Z</time>
			</trkpt>
			<trkpt lat="33.272095" lon="103.818604">
				<ele>2509.000000</ele>
				<time>1970-01-01T00:00:00Z</time>
			</trkpt>
			<trkpt lat="33.272099" lon="103.818604">
				<ele>2509.000000</ele>
				<time>1970-01-01T00:00:00Z</time>
			</trkpt>
			<trkpt lat="33.272099" lon="103.818604">
				<ele>2509.000000</ele>
				<time>1970-01-01T00:00:00Z</time>
			</trkpt>
			<trkpt lat="33.272099" lon="103.818611">
				<ele>2509.000000</ele>
				<time>1970-01-01T00:00:00Z</time>
			</trkpt>
			<trkpt lat="33.272102" lon="103.818619">
				<ele>2509.000000</ele>
				<time>1970-01-01T00:00:00Z</time>
			</trkpt>
			<trkpt lat="33.272102" lon="103.818619">
				<ele>2509.000000</ele>
				<time>1970-01-01T00:00:00Z</time>
			</trkpt>
			<trkpt lat="33.272106" lon="103.818619">
				<ele>2509.000000</ele>
				<time>1970-01-01T00:00:00Z</time>
			</trkpt>
			<trkpt lat="33.272106" lon="103.818626">
				<ele>2509.000000</ele>
				<time>1970-01-01T00:00:00Z</time>
			</trkpt>
			<trkpt lat="33.272110" lon="103.818626">
				<ele>2509.000000</ele>
				<time>1970-01-01T00:00:00Z</time>
			</trkpt>
			<trkpt lat="33.272110" lon="103.818634">
				<ele>2509.000000</ele>
				<time>1970-01-01T00:00:00Z</time>
			</trkpt>
			<trkpt lat="33.272110" lon="103.818634">
				<ele>2509.000000</ele>
				<time>1970-01-01T00:00:00Z</time>
			</trkpt>
			<trkpt lat="33.272114" lon="103.818634">
				<ele>2509.000000</ele>
				<time>1970-01-01T00:00:00Z</time>
			</trkpt>
			<trkpt lat="33.272114" lon="103.818642">
				<ele>2509.000000</ele>
				<time>1970-01-01T00:00:00Z</time>
			</trkpt>
			<trkpt lat="33.272121" lon="103.818642">
				<ele>2509.000000</ele>
				<time>1970-01-01T00:00:00Z</time>
			</trkpt>
			<trkpt lat="33.272121" lon="103.818649">
				<ele>2509.000000</ele>
				<time>1970-01-01T00:00:00Z</time>
			</trkpt>
			<trkpt lat="33.272121" lon="103.818657">
				<ele>2509.000000</ele>
				<time>1970-01-01T00:00:00Z</time>
			</trkpt>
			<trkpt lat="33.272125" lon="103.818657">
				<ele>2509.000000</ele>
				<time>1970-01-01T00:00:00Z</time>
			</trkpt>
			<trkpt lat="33.272125" lon="103.818657">
				<ele>2509.000000</ele>
				<time>1970-01-01T00:00:00Z</time>
			</trkpt>
			<trkpt lat="33.272129" lon="103.818657">
				<ele>2509.000000</ele>
				<time>1970-01-01T00:00:00Z</time>
			</trkpt>
			<trkpt lat="33.272129" lon="103.818665">
				<ele>2509.000000</ele>
				<time>1970-01-01T00:00:00Z</time>
			</trkpt>
			<trkpt lat="33.272133" lon="103.818665">
				<ele>2509.000000</ele>
				<time>1970-01-01T00:00:00Z</time>
			</trkpt>
			<trkpt lat="33.272133" lon="103.818672">
				<ele>2509.000000</ele>
				<time>1970-01-01T00:00:00Z</time>
			</trkpt>
			<trkpt lat="33.272137" lon="103.818672">
				<ele>2509.000000</ele>
				<time>1970-01-01T00:00:00Z</time>
			</trkpt>
			<trkpt lat="33.272137" lon="103.818672">
				<ele>2509.000000</ele>
				<time>1970-01-01T00:00:00Z</time>
			</trkpt>
			<trkpt lat="33.272137" lon="103.818680">
				<ele>2509.000000</ele>
				<time>1970-01-01T00:00:00Z</time>
			</trkpt>
			<trkpt lat="33.272141" lon="103.818680">
				<ele>2509.000000</ele>
				<time>1970-01-01T00:00:00Z</time>
			</trkpt>
			<trkpt lat="33.272148" lon="103.818680">
				<ele>2509.000000</ele>
				<time>1970-01-01T00:00:00Z</time>
			</trkpt>
			<trkpt lat="33.272148" lon="103.818687">
				<ele>2509.000000</ele>
				<time>1970-01-01T00:00:00Z</time>
			</trkpt>
			<trkpt lat="33.272152" lon="103.818687">
				<ele>2509.000000</ele>
				<time>1970-01-01T00:00:00Z</time>
			</trkpt>
			<trkpt lat="33.272152" lon="103.818687">
				<ele>2509.000000</ele>
				<time>1970-01-01T00:00:00Z</time>
			</trkpt>
			<trkpt lat="33.272156" lon="103.818687">
				<ele>2509.000000</ele>
				<time>1970-01-01T00:00:00Z</time>
			</trkpt>
			<trkpt lat="33.272156" lon="103.818695">
				<ele>2509.000000</ele>
				<time>1970-01-01T00:00:00Z</time>
			</trkpt>
			<trkpt lat="33.272160" lon="103.818703">
				<ele>2509.000000</ele>
				<time>1970-01-01T00:00:00Z</time>
			</trkpt>
			<trkpt lat="33.272163" lon="103.818703">
				<ele>2509.000000</ele>
				<time>1970-01-01T00:00:00Z</time>
			</trkpt>
			<trkpt lat="33.272163" lon="103.818710">
				<ele>2509.000000</ele>
				<time>1970-01-01T00:00:00Z</time>
			</trkpt>
			<trkpt lat="33.272171" lon="103.818710">
				<ele>2509.000000</ele>
				<time>1970-01-01T00:00:00Z</time>
			</trkpt>
			<trkpt lat="33.272175" lon="103.818710">
				<ele>2509.000000</ele>
				<time>1970-01-01T00:00:00Z</time>
			</trkpt>
			<trkpt lat="33.272175" lon="103.818710">
				<ele>2509.000000</ele>
				<time>1970-01-01T00:00:00Z</time>
			</trkpt>
			<trkpt lat="33.272179" lon="103.818710">
				<ele>2509.000000</ele>
				<time>1970-01-01T00:00:00Z</time>
			</trkpt>
			<trkpt lat="33.272179" lon="103.818718">
				<ele>2509.000000</ele>
				<time>1970-01-01T00:00:00Z</time>
			</trkpt>
			<trkpt lat="33.272182" lon="103.818718">
				<ele>2509.000000</ele>
				<time>1970-01-01T00:00:00Z</time>
			</trkpt>
			<trkpt lat="33.272186" lon="103.818726">
				<ele>2509.000000</ele>
				<time>1970-01-01T00:00:00Z</time>
			</trkpt>
			<trkpt lat="33.272186" lon="103.818726">
				<ele>2509.000000</ele>
				<time>1970-01-01T00:00:00Z</time>
			</trkpt>
			<trkpt lat="33.272190" lon="103.818726">
				<ele>2509.000000</ele>
				<time>1970-01-01T00:00:00Z</time>
			</trkpt>
			<trkpt lat="33.272190" lon="103.818733">
				<ele>2509.000000</ele>
				<time>1970-01-01T00:00:00Z</time>
			</trkpt>
			<trkpt lat="33.272198" lon="103.818733">
				<ele>2509.000000</ele>
				<time>1970-01-01T00:00:00Z</time>
			</trkpt>
			<trkpt lat="33.272202" lon="103.818733">
				<ele>2509.000000</ele>
				<time>1970-01-01T00:00:00Z</time>
			</trkpt>
			<trkpt lat="33.272202" lon="103.818741">
				<ele>2509.000000</ele>
				<time>1970-01-01T00:00:00Z</time>
			</trkpt>
			<trkpt lat="33.272205" lon="103.818741">
				<ele>2509.000000</ele>
				<time>1970-01-01T00:00:00Z</time>
			</trkpt>
			<trkpt lat="33.272209" lon="103.818741">
				<ele>2509.000000</ele>
				<time>1970-01-01T00:00:00Z</time>
			</trkpt>
			<trkpt lat="33.272209" lon="103.818748">
				<ele>2509.000000</ele>
				<time>1970-01-01T00:00:00Z</time>
			</trkpt>
			<trkpt lat="33.272213" lon="103.818748">
				<ele>2509.000000</ele>
				<time>1970-01-01T00:00:00Z</time>
			</trkpt>
			<trkpt lat="33.272217" lon="103.818748">
				<ele>2509.000000</ele>
				<time>1970-01-01T00:00:00Z</time>
			</trkpt>
			<trkpt lat="33.272217" lon="103.818748">
				<ele>2509.000000</ele>
				<time>1970-01-01T00:00:00Z</time>
			</trkpt>
			<trkpt lat="33.272224" lon="103.818748">
				<ele>2509.000000</ele>
				<time>1970-01-01T00:00:00Z</time>
			</trkpt>
			<trkpt lat="33.272224" lon="103.818756">
				<ele>2510.000000</ele>
				<time>1970-01-01T00:00:00Z</time>
			</trkpt>
			<trkpt lat="33.272228" lon="103.818756">
				<ele>2510.000000</ele>
				<time>1970-01-01T00:00:00Z</time>
			</trkpt>
			<trkpt lat="33.272232" lon="103.818764">
				<ele>2510.000000</ele>
				<time>1970-01-01T00:00:00Z</time>
			</trkpt>
			<trkpt lat="33.272236" lon="103.818764">
				<ele>2510.000000</ele>
				<time>1970-01-01T00:00:00Z</time>
			</trkpt>
			<trkpt lat="33.272240" lon="103.818764">
				<ele>2510.000000</ele>
				<time>1970-01-01T00:00:00Z</time>
			</trkpt>
			<trkpt lat="33.272240" lon="103.818764">
				<ele>2510.000000</ele>
				<time>1970-01-01T00:00:00Z</time>
			</trkpt>
			<trkpt lat="33.272247" lon="103.818764">
				<ele>2510.000000</ele>
				<time>1970-01-01T00:00:00Z</time>
			</trkpt>
			<trkpt lat="33.272247" lon="103.818771">
				<ele>2510.000000</ele>
				<time>1970-01-01T00:00:00Z</time>
			</trkpt>
			<trkpt lat="33.272251" lon="103.818771">
				<ele>2510.000000</ele>
				<time>1970-01-01T00:00:00Z</time>
			</trkpt>
			<trkpt lat="33.272255" lon="103.818771">
				<ele>2510.000000</ele>
				<time>1970-01-01T00:00:00Z</time>
			</trkpt>
			<trkpt lat="33.272259" lon="103.818771">
				<ele>2510.000000</ele>
				<time>1970-01-01T00:00:00Z</time>
			</trkpt>
			<trkpt lat="33.272259" lon="103.818779">
				<ele>2510.000000</ele>
				<time>1970-01-01T00:00:00Z</time>
			</trkpt>
			<trkpt lat="33.272263" lon="103.818779">
				<ele>2510.000000</ele>
				<time>1970-01-01T00:00:00Z</time>
			</trkpt>
			<trkpt lat="33.272266" lon="103.818779">
				<ele>2510.000000</ele>
				<time>1970-01-01T00:00:00Z</time>
			</trkpt>
			<trkpt lat="33.272266" lon="103.818779">
				<ele>2510.000000</ele>
				<time>1970-01-01T00:00:00Z</time>
			</trkpt>
			<trkpt lat="33.272274" lon="103.818779">
				<ele>2510.000000</ele>
				<time>1970-01-01T00:00:00Z</time>
			</trkpt>
			<trkpt lat="33.272278" lon="103.818779">
				<ele>2510.000000</ele>
				<time>1970-01-01T00:00:00Z</time>
			</trkpt>
			<trkpt lat="33.272312" lon="103.818817">
				<ele>2510.000000</ele>
				<time>1970-01-01T00:00:00Z</time>
			</trkpt>
			<trkpt lat="33.272316" lon="103.818817">
				<ele>2510.000000</ele>
				<time>1970-01-01T00:00:00Z</time>
			</trkpt>
			<trkpt lat="33.272324" lon="103.818817">
				<ele>2510.000000</ele>
				<time>1970-01-01T00:00:00Z</time>
			</trkpt>
			<trkpt lat="33.272327" lon="103.818817">
				<ele>2510.000000</ele>
				<time>1970-01-01T00:00:00Z</time>
			</trkpt>
			<trkpt lat="33.272331" lon="103.818817">
				<ele>2510.000000</ele>
				<time>1970-01-01T00:00:00Z</time>
			</trkpt>
			<trkpt lat="33.272335" lon="103.818817">
				<ele>2510.000000</ele>
				<time>1970-01-01T00:00:00Z</time>
			</trkpt>
			<trkpt lat="33.272339" lon="103.818817">
				<ele>2510.000000</ele>
				<time>1970-01-01T00:00:00Z</time>
			</trkpt>
			<trkpt lat="33.272343" lon="103.818817">
				<ele>2510.000000</ele>
				<time>1970-01-01T00:00:00Z</time>
			</trkpt>
			<trkpt lat="33.272343" lon="103.818817">
				<ele>2510.000000</ele>
				<time>1970-01-01T00:00:00Z</time>
			</trkpt>
			<trkpt lat="33.272350" lon="103.818817">
				<ele>2510.000000</ele>
				<time>1970-01-01T00:00:00Z</time>
			</trkpt>
			<trkpt lat="33.272354" lon="103.818817">
				<ele>2510.000000</ele>
				<time>1970-01-01T00:00:00Z</time>
			</trkpt>
			<trkpt lat="33.272358" lon="103.818817">
				<ele>2510.000000</ele>
				<time>1970-01-01T00:00:00Z</time>
			</trkpt>
			<trkpt lat="33.272362" lon="103.818817">
				<ele>2508.000000</ele>
				<time>1970-01-01T00:00:00Z</time>
			</trkpt>
			<trkpt lat="33.272366" lon="103.818817">
				<ele>2508.000000</ele>
				<time>1970-01-01T00:00:00Z</time>
			</trkpt>
			<trkpt lat="33.272369" lon="103.818817">
				<ele>2508.000000</ele>
				<time>1970-01-01T00:00:00Z</time>
			</trkpt>
			<trkpt lat="33.272377" lon="103.818817">
				<ele>2508.000000</ele>
				<time>1970-01-01T00:00:00Z</time>
			</trkpt>
			<trkpt lat="33.272381" lon="103.818817">
				<ele>2508.000000</ele>
				<time>1970-01-01T00:00:00Z</time>
			</trkpt>
			<trkpt lat="33.272381" lon="103.818825">
				<ele>2508.000000</ele>
				<time>1970-01-01T00:00:00Z</time>
			</trkpt>
			<trkpt lat="33.272388" lon="103.818825">
				<ele>2508.000000</ele>
				<time>1970-01-01T00:00:00Z</time>
			</trkpt>
			<trkpt lat="33.272392" lon="103.818825">
				<ele>2508.000000</ele>
				<time>1970-01-01T00:00:00Z</time>
			</trkpt>
			<trkpt lat="33.272396" lon="103.818825">
				<ele>2508.000000</ele>
				<time>1970-01-01T00:00:00Z</time>
			</trkpt>
			<trkpt lat="33.272404" lon="103.818825">
				<ele>2508.000000</ele>
				<time>1970-01-01T00:00:00Z</time>
			</trkpt>
			<trkpt lat="33.272408" lon="103.818825">
				<ele>2508.000000</ele>
				<time>1970-01-01T00:00:00Z</time>
			</trkpt>
			<trkpt lat="33.272411" lon="103.818825">
				<ele>2508.000000</ele>
				<time>1970-01-01T00:00:00Z</time>
			</trkpt>
			<trkpt lat="33.272415" lon="103.818825">
				<ele>2508.000000</ele>
				<time>1970-01-01T00:00:00Z</time>
			</trkpt>
			<trkpt lat="33.272419" lon="103.818825">
				<ele>2508.000000</ele>
				<time>1970-01-01T00:00:00Z</time>
			</trkpt>
			<trkpt lat="33.272427" lon="103.818825">
				<ele>2508.000000</ele>
				<time>1970-01-01T00:00:00Z</time>
			</trkpt>
			<trkpt lat="33.272430" lon="103.818825">
				<ele>2508.000000</ele>
				<time>1970-01-01T00:00:00Z</time>
			</trkpt>
			<trkpt lat="33.272430" lon="103.818832">
				<ele>2508.000000</ele>
				<time>1970-01-01T00:00:00Z</time>
			</trkpt>
			<trkpt lat="33.272434" lon="103.818832">
				<ele>2508.000000</ele>
				<time>1970-01-01T00:00:00Z</time>
			</trkpt>
			<trkpt lat="33.272438" lon="103.818832">
				<ele>2508.000000</ele>
				<time>1970-01-01T00:00:00Z</time>
			</trkpt>
			<trkpt lat="33.272442" lon="103.818832">
				<ele>2508.000000</ele>
				<time>1970-01-01T00:00:00Z</time>
			</trkpt>
			<trkpt lat="33.272446" lon="103.818832">
				<ele>2508.000000</ele>
				<time>1970-01-01T00:00:00Z</time>
			</trkpt>
			<trkpt lat="33.272453" lon="103.818832">
				<ele>2508.000000</ele>
				<time>1970-01-01T00:00:00Z</time>
			</trkpt>
			<trkpt lat="33.272457" lon="103.818832">
				<ele>2508.000000</ele>
				<time>1970-01-01T00:00:00Z</time>
			</trkpt>
			<trkpt lat="33.272461" lon="103.818832">
				<ele>2508.000000</ele>
				<time>1970-01-01T00:00:00Z</time>
			</trkpt>
			<trkpt lat="33.272465" lon="103.818832">
				<ele>2508.000000</ele>
				<time>1970-01-01T00:00:00Z</time>
			</trkpt>
			<trkpt lat="33.272469" lon="103.818832">
				<ele>2508.000000</ele>
				<time>1970-01-01T00:00:00Z</time>
			</trkpt>
			<trkpt lat="33.272472" lon="103.818832">
				<ele>2508.000000</ele>
				<time>1970-01-01T00:00:00Z</time>
			</trkpt>
			<trkpt lat="33.272480" lon="103.818832">
				<ele>2508.000000</ele>
				<time>1970-01-01T00:00:00Z</time>
			</trkpt>
			<trkpt lat="33.272484" lon="103.818832">
				<ele>2508.000000</ele>
				<time>1970-01-01T00:00:00Z</time>
			</trkpt>
			<trkpt lat="33.272488" lon="103.818832">
				<ele>2508.000000</ele>
				<time>1970-01-01T00:00:00Z</time>
			</trkpt>
			<trkpt lat="33.272491" lon="103.818832">
				<ele>2508.000000</ele>
				<time>1970-01-01T00:00:00Z</time>
			</trkpt>
			<trkpt lat="33.272495" lon="103.818832">
				<ele>2508.000000</ele>
				<time>1970-01-01T00:00:00Z</time>
			</trkpt>
			<trkpt lat="33.272503" lon="103.818832">
				<ele>2508.000000</ele>
				<time>1970-01-01T00:00:00Z</time>
			</trkpt>
			<trkpt lat="33.272507" lon="103.818832">
				<ele>2508.000000</ele>
				<time>1970-01-01T00:00:00Z</time>
			</trkpt>
			<trkpt lat="33.272507" lon="103.818825">
				<ele>2508.000000</ele>
				<time>1970-01-01T00:00:00Z</time>
			</trkpt>
			<trkpt lat="33.272511" lon="103.818825">
				<ele>2508.000000</ele>
				<time>1970-01-01T00:00:00Z</time>
			</trkpt>
			<trkpt lat="33.272514" lon="103.818825">
				<ele>2508.000000</ele>
				<time>1970-01-01T00:00:00Z</time>
			</trkpt>
			<trkpt lat="33.272518" lon="103.818825">
				<ele>2508.000000</ele>
				<time>1970-01-01T00:00:00Z</time>
			</trkpt>
			<trkpt lat="33.272522" lon="103.818825">
				<ele>2508.000000</ele>
				<time>1970-01-01T00:00:00Z</time>
			</trkpt>
			<trkpt lat="33.272530" lon="103.818825">
				<ele>2508.000000</ele>
				<time>1970-01-01T00:00:00Z</time>
			</trkpt>
			<trkpt lat="33.272530" lon="103.818817">
				<ele>2508.000000</ele>
				<time>1970-01-01T00:00:00Z</time>
			</trkpt>
			<trkpt lat="33.272533" lon="103.818817">
				<ele>2508.000000</ele>
				<time>1970-01-01T00:00:00Z</time>
			</trkpt>
			<trkpt lat="33.272537" lon="103.818817">
				<ele>2508.000000</ele>
				<time>1970-01-01T00:00:00Z</time>
			</trkpt>
			<trkpt lat="33.272541" lon="103.818817">
				<ele>2508.000000</ele>
				<time>1970-01-01T00:00:00Z</time>
			</trkpt>
			<trkpt lat="33.272545" lon="103.818817">
				<ele>2508.000000</ele>
				<time>1970-01-01T00:00:00Z</time>
			</trkpt>
			<trkpt lat="33.272549" lon="103.818817">
				<ele>2508.000000</ele>
				<time>1970-01-01T00:00:00Z</time>
			</trkpt>
			<trkpt lat="33.272556" lon="103.818817">
				<ele>2508.000000</ele>
				<time>1970-01-01T00:00:00Z</time>
			</trkpt>
			<trkpt lat="33.272560" lon="103.818817">
				<ele>2508.000000</ele>
				<time>1970-01-01T00:00:00Z</time>
			</trkpt>
			<trkpt lat="33.272564" lon="103.818817">
				<ele>2508.000000</ele>
				<time>1970-01-01T00:00:00Z</time>
			</trkpt>
			<trkpt lat="33.272568" lon="103.818817">
				<ele>2508.000000</ele>
				<time>1970-01-01T00:00:00Z</time>
			</trkpt>
			<trkpt lat="33.272568" lon="103.818817">
				<ele>2508.000000</ele>
				<time>1970-01-01T00:00:00Z</time>
			</trkpt>
			<trkpt lat="33.272572" lon="103.818817">
				<ele>2508.000000</ele>
				<time>1970-01-01T00:00:00Z</time>
			</trkpt>
			<trkpt lat="33.272579" lon="103.818817">
				<ele>2508.000000</ele>
				<time>1970-01-01T00:00:00Z</time>
			</trkpt>
			<trkpt lat="33.272583" lon="103.818817">
				<ele>2508.000000</ele>
				<time>1970-01-01T00:00:00Z</time>
			</trkpt>
			<trkpt lat="33.272587" lon="103.818817">
				<ele>2508.000000</ele>
				<time>1970-01-01T00:00:00Z</time>
			</trkpt>
			<trkpt lat="33.272591" lon="103.818817">
				<ele>2508.000000</ele>
				<time>1970-01-01T00:00:00Z</time>
			</trkpt>
			<trkpt lat="33.272594" lon="103.818817">
				<ele>2508.000000</ele>
				<time>1970-01-01T00:00:00Z</time>
			</trkpt>
			<trkpt lat="33.272598" lon="103.818817">
				<ele>2508.000000</ele>
				<time>1970-01-01T00:00:00Z</time>
			</trkpt>
			<trkpt lat="33.272606" lon="103.818817">
				<ele>2508.000000</ele>
				<time>1970-01-01T00:00:00Z</time>
			</trkpt>
			<trkpt lat="33.272610" lon="103.818817">
				<ele>2508.000000</ele>
				<time>1970-01-01T00:00:00Z</time>
			</trkpt>
			<trkpt lat="33.272614" lon="103.818817">
				<ele>2508.000000</ele>
				<time>1970-01-01T00:00:00Z</time>
			</trkpt>
			<trkpt lat="33.272617" lon="103.818817">
				<ele>2508.000000</ele>
				<time>1970-01-01T00:00:00Z</time>
			</trkpt>
			<trkpt lat="33.272621" lon="103.818817">
				<ele>2508.000000</ele>
				<time>1970-01-01T00:00:00Z</time>
			</trkpt>
			<trkpt lat="33.272625" lon="103.818817">
				<ele>2508.000000</ele>
				<time>1970-01-01T00:00:00Z</time>
			</trkpt>
			<trkpt lat="33.272633" lon="103.818817">
				<ele>2508.000000</ele>
				<time>1970-01-01T00:00:00Z</time>
			</trkpt>
			<trkpt lat="33.272636" lon="103.818817">
				<ele>2508.000000</ele>
				<time>1970-01-01T00:00:00Z</time>
			</trkpt>
			<trkpt lat="33.272640" lon="103.818817">
				<ele>2501.000000</ele>
				<time>1970-01-01T00:00:00Z</time>
			</trkpt>
			<trkpt lat="33.272644" lon="103.818817">
				<ele>2501.000000</ele>
				<time>1970-01-01T00:00:00Z</time>
			</trkpt>
			<trkpt lat="33.272648" lon="103.818817">
				<ele>2501.000000</ele>
				<time>1970-01-01T00:00:00Z</time>
			</trkpt>
			<trkpt lat="33.272655" lon="103.818817">
				<ele>2501.000000</ele>
				<time>1970-01-01T00:00:00Z</time>
			</trkpt>
			<trkpt lat="33.272659" lon="103.818817">
				<ele>2501.000000</ele>
				<time>1970-01-01T00:00:00Z</time>
			</trkpt>
			<trkpt lat="33.272663" lon="103.818817">
				<ele>2501.000000</ele>
				<time>1970-01-01T00:00:00Z</time>
			</trkpt>
			<trkpt lat="33.272667" lon="103.818817">
				<ele>2501.000000</ele>
				<time>1970-01-01T00:00:00Z</time>
			</trkpt>
			<trkpt lat="33.272671" lon="103.818817">
				<ele>2501.000000</ele>
				<time>1970-01-01T00:00:00Z</time>
			</trkpt>
			<trkpt lat="33.272675" lon="103.818817">
				<ele>2501.000000</ele>
				<time>1970-01-01T00:00:00Z</time>
			</trkpt>
			<trkpt lat="33.272675" lon="103.818817">
				<ele>2501.000000</ele>
				<time>1970-01-01T00:00:00Z</time>
			</trkpt>
			<trkpt lat="33.272682" lon="103.818817">
				<ele>2501.000000</ele>
				<time>1970-01-01T00:00:00Z</time>
			</trkpt>
			<trkpt lat="33.272686" lon="103.818817">
				<ele>2501.000000</ele>
				<time>1970-01-01T00:00:00Z</time>
			</trkpt>
			<trkpt lat="33.272690" lon="103.818817">
				<ele>2501.000000</ele>
				<time>1970-01-01T00:00:00Z</time>
			</trkpt>
			<trkpt lat="33.272694" lon="103.818817">
				<ele>2501.000000</ele>
				<time>1970-01-01T00:00:00Z</time>
			</trkpt>
			<trkpt lat="33.272694" lon="103.818825">
				<ele>2501.000000</ele>
				<time>1970-01-01T00:00:00Z</time>
			</trkpt>
			<trkpt lat="33.272697" lon="103.818825">
				<ele>2501.000000</ele>
				<time>1970-01-01T00:00:00Z</time>
			</trkpt>
			<trkpt lat="33.272701" lon="103.818825">
				<ele>2501.000000</ele>
				<time>1970-01-01T00:00:00Z</time>
			</trkpt>
			<trkpt lat="33.272709" lon="103.818825">
				<ele>2501.000000</ele>
				<time>1970-01-01T00:00:00Z</time>
			</trkpt>
			<trkpt lat="33.272709" lon="103.818832">
				<ele>2501.000000</ele>
				<time>1970-01-01T00:00:00Z</time>
			</trkpt>
			<trkpt lat="33.272713" lon="103.818832">
				<ele>2501.000000</ele>
				<time>1970-01-01T00:00:00Z</time>
			</trkpt>
			<trkpt lat="33.272713" lon="103.818832">
				<ele>2501.000000</ele>
				<time>1970-01-01T00:00:00Z</time>
			</trkpt>
			<trkpt lat="33.272717" lon="103.818832">
				<ele>2501.000000</ele>
				<time>1970-01-01T00:00:00Z</time>
			</trkpt>
			<trkpt lat="33.272720" lon="103.818832">
				<ele>2501.000000</ele>
				<time>1970-01-01T00:00:00Z</time>
			</trkpt>
			<trkpt lat="33.272724" lon="103.818832">
				<ele>2501.000000</ele>
				<time>1970-01-01T00:00:00Z</time>
			</trkpt>
			<trkpt lat="33.272724" lon="103.818840">
				<ele>2501.000000</ele>
				<time>1970-01-01T00:00:00Z</time>
			</trkpt>
			<trkpt lat="33.272728" lon="103.818840">
				<ele>2501.000000</ele>
				<time>1970-01-01T00:00:00Z</time>
			</trkpt>
			<trkpt lat="33.272736" lon="103.818840">
				<ele>2501.000000</ele>
				<time>1970-01-01T00:00:00Z</time>
			</trkpt>
			<trkpt lat="33.272736" lon="103.818848">
				<ele>2501.000000</ele>
				<time>1970-01-01T00:00:00Z</time>
			</trkpt>
			<trkpt lat="33.272739" lon="103.818848">
				<ele>2501.000000</ele>
				<time>1970-01-01T00:00:00Z</time>
			</trkpt>
			<trkpt lat="33.272743" lon="103.818848">
				<ele>2501.000000</ele>
				<time>1970-01-01T00:00:00Z</time>
			</trkpt>
			<trkpt lat="33.272747" lon="103.818848">
				<ele>2501.000000</ele>
				<time>1970-01-01T00:00:00Z</time>
			</trkpt>
			<trkpt lat="33.272747" lon="103.818855">
				<ele>2501.000000</ele>
				<time>1970-01-01T00:00:00Z</time>
			</trkpt>
			<trkpt lat="33.272751" lon="103.818855">
				<ele>2501.000000</ele>
				<time>1970-01-01T00:00:00Z</time>
			</trkpt>
			<trkpt lat="33.272758" lon="103.818855">
				<ele>2501.000000</ele>
				<time>1970-01-01T00:00:00Z</time>
			</trkpt>
			<trkpt lat="33.272758" lon="103.818855">
				<ele>2501.000000</ele>
				<time>1970-01-01T00:00:00Z</time>
			</trkpt>
			<trkpt lat="33.272762" lon="103.818855">
				<ele>2501.000000</ele>
				<time>1970-01-01T00:00:00Z</time>
			</trkpt>
			<trkpt lat="33.272766" lon="103.818855">
				<ele>2501.000000</ele>
				<time>1970-01-01T00:00:00Z</time>
			</trkpt>
			<trkpt lat="33.272770" lon="103.818855">
				<ele>2501.000000</ele>
				<time>1970-01-01T00:00:00Z</time>
			</trkpt>
			<trkpt lat="33.272770" lon="103.818863">
				<ele>2501.000000</ele>
				<time>1970-01-01T00:00:00Z</time>
			</trkpt>
			<trkpt lat="33.272774" lon="103.818863">
				<ele>2501.000000</ele>
				<time>1970-01-01T00:00:00Z</time>
			</trkpt>
			<trkpt lat="33.272778" lon="103.818863">
				<ele>2501.000000</ele>
				<time>1970-01-01T00:00:00Z</time>
			</trkpt>
			<trkpt lat="33.272785" lon="103.818863">
				<ele>2501.000000</ele>
				<time>1970-01-01T00:00:00Z</time>
			</trkpt>
			<trkpt lat="33.272785" lon="103.818871">
				<ele>2501.000000</ele>
				<time>1970-01-01T00:00:00Z</time>
			</trkpt>
			<trkpt lat="33.272789" lon="103.818871">
				<ele>2501.000000</ele>
				<time>1970-01-01T00:00:00Z</time>
			</trkpt>
			<trkpt lat="33.272793" lon="103.818871">
				<ele>2501.000000</ele>
				<time>1970-01-01T00:00:00Z</time>
			</trkpt>
			<trkpt lat="33.272797" lon="103.818871">
				<ele>2501.000000</ele>
				<time>1970-01-01T00:00:00Z</time>
			</trkpt>
			<trkpt lat="33.272797" lon="103.818871">
				<ele>2501.000000</ele>
				<time>1970-01-01T00:00:00Z</time>
			</trkpt>
			<trkpt lat="33.272800" lon="103.818871">
				<ele>2501.000000</ele>
				<time>1970-01-01T00:00:00Z</time>
			</trkpt>
			<trkpt lat="33.272800" lon="103.818878">
				<ele>2501.000000</ele>
				<time>1970-01-01T00:00:00Z</time>
			</trkpt>
			<trkpt lat="33.272804" lon="103.818878">
				<ele>2501.000000</ele>
				<time>1970-01-01T00:00:00Z</time>
			</trkpt>
			<trkpt lat="33.272812" lon="103.818878">
				<ele>2501.000000</ele>
				<time>1970-01-01T00:00:00Z</time>
			</trkpt>
			<trkpt lat="33.272816" lon="103.818878">
				<ele>2501.000000</ele>
				<time>1970-01-01T00:00:00Z</time>
			</trkpt>
			<trkpt lat="33.272820" lon="103.818878">
				<ele>2501.000000</ele>
				<time>1970-01-01T00:00:00Z</time>
			</trkpt>
			<trkpt lat="33.272820" lon="103.818886">
				<ele>2501.000000</ele>
				<time>1970-01-01T00:00:00Z</time>
			</trkpt>
			<trkpt lat="33.272823" lon="103.818886">
				<ele>2501.000000</ele>
				<time>1970-01-01T00:00:00Z</time>
			</trkpt>
			<trkpt lat="33.272827" lon="103.818886">
				<ele>2501.000000</ele>
				<time>1970-01-01T00:00:00Z</time>
			</trkpt>
			<trkpt lat="33.272827" lon="103.818893">
				<ele>2501.000000</ele>
				<time>1970-01-01T00:00:00Z</time>
			</trkpt>
			<trkpt lat="33.272835" lon="103.818893">
				<ele>2501.000000</ele>
				<time>1970-01-01T00:00:00Z</time>
			</trkpt>
			<trkpt lat="33.272839" lon="103.818893">
				<ele>2501.000000</ele>
				<time>1970-01-01T00:00:00Z</time>
			</trkpt>
			<trkpt lat="33.272839" lon="103.818893">
				<ele>2501.000000</ele>
				<time>1970-01-01T00:00:00Z</time>
			</trkpt>
			<trkpt lat="33.272842" lon="103.818893">
				<ele>2501.000000</ele>
				<time>1970-01-01T00:00:00Z</time>
			</trkpt>
			<trkpt lat="33.272846" lon="103.818893">
				<ele>2501.000000</ele>
				<time>1970-01-01T00:00:00Z</time>
			</trkpt>
			<trkpt lat="33.272846" lon="103.818901">
				<ele>2501.000000</ele>
				<time>1970-01-01T00:00:00Z</time>
			</trkpt>
			<trkpt lat="33.272850" lon="103.818901">
				<ele>2501.000000</ele>
				<time>1970-01-01T00:00:00Z</time>
			</trkpt>
			<trkpt lat="33.272854" lon="103.818909">
				<ele>2501.000000</ele>
				<time>1970-01-01T00:00:00Z</time>
			</trkpt>
			<trkpt lat="33.272861" lon="103.818909">
				<ele>2501.000000</ele>
				<time>1970-01-01T00:00:00Z</time>
			</trkpt>
			<trkpt lat="33.272861" lon="103.818909">
				<ele>2501.000000</ele>
				<time>1970-01-01T00:00:00Z</time>
			</trkpt>
			<trkpt lat="33.272865" lon="103.818909">
				<ele>2501.000000</ele>
				<time>1970-01-01T00:00:00Z</time>
			</trkpt>
			<trkpt lat="33.272869" lon="103.818916">
				<ele>2501.000000</ele>
				<time>1970-01-01T00:00:00Z</time>
			</trkpt>
			<trkpt lat="33.272873" lon="103.818916">
				<ele>2501.000000</ele>
				<time>1970-01-01T00:00:00Z</time>
			</trkpt>
			<trkpt lat="33.272873" lon="103.818924">
				<ele>2501.000000</ele>
				<time>1970-01-01T00:00:00Z</time>
			</trkpt>
			<trkpt lat="33.272877" lon="103.818924">
				<ele>2501.000000</ele>
				<time>1970-01-01T00:00:00Z</time>
			</trkpt>
			<trkpt lat="33.272877" lon="103.818924">
				<ele>2501.000000</ele>
				<time>1970-01-01T00:00:00Z</time>
			</trkpt>
			<trkpt lat="33.272881" lon="103.818924">
				<ele>2501.000000</ele>
				<time>1970-01-01T00:00:00Z</time>
			</trkpt>
			<trkpt lat="33.272881" lon="103.818932">
				<ele>2501.000000</ele>
				<time>1970-01-01T00:00:00Z</time>
			</trkpt>
			<trkpt lat="33.272888" lon="103.818932">
				<ele>2501.000000</ele>
				<time>1970-01-01T00:00:00Z</time>
			</trkpt>
			<trkpt lat="33.272888" lon="103.818939">
				<ele>2501.000000</ele>
				<time>1970-01-01T00:00:00Z</time>
			</trkpt>
			<trkpt lat="33.272892" lon="103.818939">
				<ele>2501.000000</ele>
				<time>1970-01-01T00:00:00Z</time>
			</trkpt>
			<trkpt lat="33.272892" lon="103.818947">
				<ele>2501.000000</ele>
				<time>1970-01-01T00:00:00Z</time>
			</trkpt>
			<trkpt lat="33.272896" lon="103.818947">
				<ele>2501.000000</ele>
				<time>1970-01-01T00:00:00Z</time>
			</trkpt>
			<trkpt lat="33.272896" lon="103.818947">
				<ele>2501.000000</ele>
				<time>1970-01-01T00:00:00Z</time>
			</trkpt>
			<trkpt lat="33.272900" lon="103.818947">
				<ele>2501.000000</ele>
				<time>1970-01-01T00:00:00Z</time>
			</trkpt>
			<trkpt lat="33.272900" lon="103.818954">
				<ele>2501.000000</ele>
				<time>1970-01-01T00:00:00Z</time>
			</trkpt>
			<trkpt lat="33.272903" lon="103.818954">
				<ele>2501.000000</ele>
				<time>1970-01-01T00:00:00Z</time>
			</trkpt>
			<trkpt lat="33.272911" lon="103.818954">
				<ele>2501.000000</ele>
				<time>1970-01-01T00:00:00Z</time>
			</trkpt>
			<trkpt lat="33.272911" lon="103.818962">
				<ele>2501.000000</ele>
				<time>1970-01-01T00:00:00Z</time>
			</trkpt>
			<trkpt lat="33.272911" lon="103.818962">
				<ele>2501.000000</ele>
				<time>1970-01-01T00:00:00Z</time>
			</trkpt>
			<trkpt lat="33.272915" lon="103.818962">
				<ele>2501.000000</ele>
				<time>1970-01-01T00:00:00Z</time>
			</trkpt>
			<trkpt lat="33.272915" lon="103.818970">
				<ele>2501.000000</ele>
				<time>1970-01-01T00:00:00Z</time>
			</trkpt>
			<trkpt lat="33.272919" lon="103.818970">
				<ele>2495.000000</ele>
				<time>1970-01-01T00:00:00Z</time>
			</trkpt>
			<trkpt lat="33.272919" lon="103.818977">
				<ele>2495.000000</ele>
				<time>1970-01-01T00:00:00Z</time>
			</trkpt>
			<trkpt lat="33.272923" lon="103.818977">
				<ele>2495.000000</ele>
				<time>1970-01-01T00:00:00Z</time>
			</trkpt>
			<trkpt lat="33.272923" lon="103.818977">
				<ele>2495.000000</ele>
				<time>1970-01-01T00:00:00Z</time>
			</trkpt>
			<trkpt lat="33.272926" lon="103.818977">
				<ele>2495.000000</ele>
				<time>1970-01-01T00:00:00Z</time>
			</trkpt>
			<trkpt lat="33.272926" lon="103.818985">
				<ele>2495.000000</ele>
				<time>1970-01-01T00:00:00Z</time>
			</trkpt>
			<trkpt lat="33.272926" lon="103.818993">
				<ele>2495.000000</ele>
				<time>1970-01-01T00:00:00Z</time>
			</trkpt>
			<trkpt lat="33.272930" lon="103.818993">
				<ele>2495.000000</ele>
				<time>1970-01-01T00:00:00Z</time>
			</trkpt>
			<trkpt lat="33.272930" lon="103.819000">
				<ele>2495.000000</ele>
				<time>1970-01-01T00:00:00Z</time>
			</trkpt>
			<trkpt lat="33.272938" lon="103.819000">
				<ele>2495.000000</ele>
				<time>1970-01-01T00:00:00Z</time>
			</trkpt>
			<trkpt lat="33.272938" lon="103.819000">
				<ele>2495.000000</ele>
				<time>1970-01-01T00:00:00Z</time>
			</trkpt>
			<trkpt lat="33.272938" lon="103.819008">
				<ele>2495.000000</ele>
				<time>1970-01-01T00:00:00Z</time>
			</trkpt>
			<trkpt lat="33.272942" lon="103.819008">
				<ele>2495.000000</ele>
				<time>1970-01-01T00:00:00Z</time>
			</trkpt>
			<trkpt lat="33.272942" lon="103.819016">
				<ele>2495.000000</ele>
				<time>1970-01-01T00:00:00Z</time>
			</trkpt>
			<trkpt lat="33.272945" lon="103.819016">
				<ele>2495.000000</ele>
				<time>1970-01-01T00:00:00Z</time>
			</trkpt>
			<trkpt lat="33.272945" lon="103.819016">
				<ele>2495.000000</ele>
				<time>1970-01-01T00:00:00Z</time>
			</trkpt>
			<trkpt lat="33.272945" lon="103.819023">
				<ele>2495.000000</ele>
				<time>1970-01-01T00:00:00Z</time>
			</trkpt>
			<trkpt lat="33.272949" lon="103.819023">
				<ele>2495.000000</ele>
				<time>1970-01-01T00:00:00Z</time>
			</trkpt>
			<trkpt lat="33.272949" lon="103.819031">
				<ele>2495.000000</ele>
				<time>1970-01-01T00:00:00Z</time>
			</trkpt>
			<trkpt lat="33.272949" lon="103.819031">
				<ele>2495.000000</ele>
				<time>1970-01-01T00:00:00Z</time>
			</trkpt>
			<trkpt lat="33.272949" lon="103.819038">
				<ele>2495.000000</ele>
				<time>1970-01-01T00:00:00Z</time>
			</trkpt>
			<trkpt lat="33.272953" lon="103.819038">
				<ele>2495.000000</ele>
				<time>1970-01-01T00:00:00Z</time>
			</trkpt>
			<trkpt lat="33.272953" lon="103.819046">
				<ele>2495.000000</ele>
				<time>1970-01-01T00:00:00Z</time>
			</trkpt>
			<trkpt lat="33.272953" lon="103.819054">
				<ele>2495.000000</ele>
				<time>1970-01-01T00:00:00Z</time>
			</trkpt>
			<trkpt lat="33.272953" lon="103.819054">
				<ele>2495.000000</ele>
				<time>1970-01-01T00:00:00Z</time>
			</trkpt>
			<trkpt lat="33.272953" lon="103.819061">
				<ele>2495.000000</ele>
				<time>1970-01-01T00:00:00Z</time>
			</trkpt>
			<trkpt lat="33.272957" lon="103.819061">
				<ele>2495.000000</ele>
				<time>1970-01-01T00:00:00Z</time>
			</trkpt>
			<trkpt lat="33.272957" lon="103.819069">
				<ele>2495.000000</ele>
				<time>1970-01-01T00:00:00Z</time>
			</trkpt>
			<trkpt lat="33.272957" lon="103.819069">
				<ele>2495.000000</ele>
				<time>1970-01-01T00:00:00Z</time>
			</trkpt>
			<trkpt lat="33.272964" lon="103.819069">
				<ele>2495.000000</ele>
				<time>1970-01-01T00:00:00Z</time>
			</trkpt>
			<trkpt lat="33.272964" lon="103.819077">
				<ele>2495.000000</ele>
				<time>1970-01-01T00:00:00Z</time>
			</trkpt>
			<trkpt lat="33.272964" lon="103.819084">
				<ele>2495.000000</ele>
				<time>1970-01-01T00:00:00Z</time>
			</trkpt>
			<trkpt lat="33.272964" lon="103.819092">
				<ele>2495.000000</ele>
				<time>1970-01-01T00:00:00Z</time>
			</trkpt>
			<trkpt lat="33.272964" lon="103.819092">
				<ele>2495.000000</ele>
				<time>1970-01-01T00:00:00Z</time>
			</trkpt>
			<trkpt lat="33.272964" lon="103.819099">
				<ele>2495.000000</ele>
				<time>1970-01-01T00:00:00Z</time>
			</trkpt>
			<trkpt lat="33.272964" lon="103.819107">
				<ele>2495.000000</ele>
				<time>1970-01-01T00:00:00Z</time>
			</trkpt>
			<trkpt lat="33.272964" lon="103.819107">
				<ele>2495.000000</ele>
				<time>1970-01-01T00:00:00Z</time>
			</trkpt>
			<trkpt lat="33.272964" lon="103.819115">
				<ele>2495.000000</ele>
				<time>1970-01-01T00:00:00Z</time>
			</trkpt>
			<trkpt lat="33.272964" lon="103.819122">
				<ele>2495.000000</ele>
				<time>1970-01-01T00:00:00Z</time>
			</trkpt>
			<trkpt lat="33.272964" lon="103.819122">
				<ele>2495.000000</ele>
				<time>1970-01-01T00:00:00Z</time>
			</trkpt>
			<trkpt lat="33.272964" lon="103.819130">
				<ele>2495.000000</ele>
				<time>1970-01-01T00:00:00Z</time>
			</trkpt>
			<trkpt lat="33.272964" lon="103.819138">
				<ele>2495.000000</ele>
				<time>1970-01-01T00:00:00Z</time>
			</trkpt>
			<trkpt lat="33.272964" lon="103.819145">
				<ele>2495.000000</ele>
				<time>1970-01-01T00:00:00Z</time>
			</trkpt>
			<trkpt lat="33.272964" lon="103.819145">
				<ele>2495.000000</ele>
				<time>1970-01-01T00:00:00Z</time>
			</trkpt>
			<trkpt lat="33.272964" lon="103.819153">
				<ele>2495.000000</ele>
				<time>1970-01-01T00:00:00Z</time>
			</trkpt>
			<trkpt lat="33.272964" lon="103.819160">
				<ele>2495.000000</ele>
				<time>1970-01-01T00:00:00Z</time>
			</trkpt>
			<trkpt lat="33.272964" lon="103.819160">
				<ele>2495.000000</ele>
				<time>1970-01-01T00:00:00Z</time>
			</trkpt>
			<trkpt lat="33.272964" lon="103.819168">
				<ele>2495.000000</ele>
				<time>1970-01-01T00:00:00Z</time>
			</trkpt>
			<trkpt lat="33.272964" lon="103.819176">
				<ele>2495.000000</ele>
				<time>1970-01-01T00:00:00Z</time>
			</trkpt>
			<trkpt lat="33.272964" lon="103.819176">
				<ele>2495.000000</ele>
				<time>1970-01-01T00:00:00Z</time>
			</trkpt>
			<trkpt lat="33.272968" lon="103.819176">
				<ele>2495.000000</ele>
				<time>1970-01-01T00:00:00Z</time>
			</trkpt>
			<trkpt lat="33.272968" lon="103.819183">
				<ele>2495.000000</ele>
				<time>1970-01-01T00:00:00Z</time>
			</trkpt>
			<trkpt lat="33.272968" lon="103.819191">
				<ele>2495.000000</ele>
				<time>1970-01-01T00:00:00Z</time>
			</trkpt>
			<trkpt lat="33.272968" lon="103.819199">
				<ele>2495.000000</ele>
				<time>1970-01-01T00:00:00Z</time>
			</trkpt>
			<trkpt lat="33.272968" lon="103.819199">
				<ele>2495.000000</ele>
				<time>1970-01-01T00:00:00Z</time>
			</trkpt>
			<trkpt lat="33.272968" lon="103.819206">
				<ele>2495.000000</ele>
				<time>1970-01-01T00:00:00Z</time>
			</trkpt>
			<trkpt lat="33.272968" lon="103.819214">
				<ele>2495.000000</ele>
				<time>1970-01-01T00:00:00Z</time>
			</trkpt>
			<trkpt lat="33.272968" lon="103.819214">
				<ele>2495.000000</ele>
				<time>1970-01-01T00:00:00Z</time>
			</trkpt>
			<trkpt lat="33.272968" lon="103.819221">
				<ele>2495.000000</ele>
				<time>1970-01-01T00:00:00Z</time>
			</trkpt>
			<trkpt lat="33.272968" lon="103.819229">
				<ele>2495.000000</ele>
				<time>1970-01-01T00:00:00Z</time>
			</trkpt>
			<trkpt lat="33.272968" lon="103.819237">
				<ele>2495.000000</ele>
				<time>1970-01-01T00:00:00Z</time>
			</trkpt>
			<trkpt lat="33.272968" lon="103.819237">
				<ele>2495.000000</ele>
				<time>1970-01-01T00:00:00Z</time>
			</trkpt>
			<trkpt lat="33.272968" lon="103.819244">
				<ele>2495.000000</ele>
				<time>1970-01-01T00:00:00Z</time>
			</trkpt>
			<trkpt lat="33.272972" lon="103.819244">
				<ele>2495.000000</ele>
				<time>1970-01-01T00:00:00Z</time>
			</trkpt>
			<trkpt lat="33.272972" lon="103.819252">
				<ele>2495.000000</ele>
				<time>1970-01-01T00:00:00Z</time>
			</trkpt>
			<trkpt lat="33.272972" lon="103.819252">
				<ele>2495.000000</ele>
				<time>1970-01-01T00:00:00Z</time>
			</trkpt>
			<trkpt lat="33.272972" lon="103.819260">
				<ele>2495.000000</ele>
				<time>1970-01-01T00:00:00Z</time>
			</trkpt>
			<trkpt lat="33.272972" lon="103.819267">
				<ele>2495.000000</ele>
				<time>1970-01-01T00:00:00Z</time>
			</trkpt>
			<trkpt lat="33.272972" lon="103.819267">
				<ele>2495.000000</ele>
				<time>1970-01-01T00:00:00Z</time>
			</trkpt>
			<trkpt lat="33.272972" lon="103.819275">
				<ele>2495.000000</ele>
				<time>1970-01-01T00:00:00Z</time>
			</trkpt>
			<trkpt lat="33.272972" lon="103.819283">
				<ele>2495.000000</ele>
				<time>1970-01-01T00:00:00Z</time>
			</trkpt>
			<trkpt lat="33.272972" lon="103.819290">
				<ele>2495.000000</ele>
				<time>1970-01-01T00:00:00Z</time>
			</trkpt>
			<trkpt lat="33.272972" lon="103.819290">
				<ele>2495.000000</ele>
				<time>1970-01-01T00:00:00Z</time>
			</trkpt>
			<trkpt lat="33.272972" lon="103.819298">
				<ele>2495.000000</ele>
				<time>1970-01-01T00:00:00Z</time>
			</trkpt>
			<trkpt lat="33.272972" lon="103.819305">
				<ele>2495.000000</ele>
				<time>1970-01-01T00:00:00Z</time>
			</trkpt>
			<trkpt lat="33.272972" lon="103.819305">
				<ele>2495.000000</ele>
				<time>1970-01-01T00:00:00Z</time>
			</trkpt>
			<trkpt lat="33.272972" lon="103.819313">
				<ele>2498.000000</ele>
				<time>1970-01-01T00:00:00Z</time>
			</trkpt>
			<trkpt lat="33.272972" lon="103.819321">
				<ele>2498.000000</ele>
				<time>1970-01-01T00:00:00Z</time>
			</trkpt>
			<trkpt lat="33.272972" lon="103.819321">
				<ele>2498.000000</ele>
				<time>1970-01-01T00:00:00Z</time>
			</trkpt>
			<trkpt lat="33.272972" lon="103.819328">
				<ele>2498.000000</ele>
				<time>1970-01-01T00:00:00Z</time>
			</trkpt>
			<trkpt lat="33.272972" lon="103.819336">
				<ele>2498.000000</ele>
				<time>1970-01-01T00:00:00Z</time>
			</trkpt>
			<trkpt lat="33.272972" lon="103.819344">
				<ele>2498.000000</ele>
				<time>1970-01-01T00:00:00Z</time>
			</trkpt>
			<trkpt lat="33.272972" lon="103.819344">
				<ele>2498.000000</ele>
				<time>1970-01-01T00:00:00Z</time>
			</trkpt>
			<trkpt lat="33.272972" lon="103.819351">
				<ele>2498.000000</ele>
				<time>1970-01-01T00:00:00Z</time>
			</trkpt>
			<trkpt lat="33.272972" lon="103.819359">
				<ele>2498.000000</ele>
				<time>1970-01-01T00:00:00Z</time>
			</trkpt>
			<trkpt lat="33.272972" lon="103.819359">
				<ele>2498.000000</ele>
				<time>1970-01-01T00:00:00Z</time>
			</trkpt>
			<trkpt lat="33.272972" lon="103.819366">
				<ele>2498.000000</ele>
				<time>1970-01-01T00:00:00Z</time>
			</trkpt>
			<trkpt lat="33.272972" lon="103.819374">
				<ele>2498.000000</ele>
				<time>1970-01-01T00:00:00Z</time>
			</trkpt>
			<trkpt lat="33.272972" lon="103.819374">
				<ele>2498.000000</ele>
				<time>1970-01-01T00:00:00Z</time>
			</trkpt>
			<trkpt lat="33.272972" lon="103.819382">
				<ele>2498.000000</ele>
				<time>1970-01-01T00:00:00Z</time>
			</trkpt>
			<trkpt lat="33.272972" lon="103.819389">
				<ele>2498.000000</ele>
				<time>1970-01-01T00:00:00Z</time>
			</trkpt>
			<trkpt lat="33.272972" lon="103.819397">
				<ele>2498.000000</ele>
				<time>1970-01-01T00:00:00Z</time>
			</trkpt>
			<trkpt lat="33.272972" lon="103.819397">
				<ele>2498.000000</ele>
				<time>1970-01-01T00:00:00Z</time>
			</trkpt>
			<trkpt lat="33.272968" lon="103.819397">
				<ele>2498.000000</ele>
				<time>1970-01-01T00:00:00Z</time>
			</trkpt>
			<trkpt lat="33.272968" lon="103.819405">
				<ele>2498.000000</ele>
				<time>1970-01-01T00:00:00Z</time>
			</trkpt>
			<trkpt lat="33.272968" lon="103.819412">
				<ele>2498.000000</ele>
				<time>1970-01-01T00:00:00Z</time>
			</trkpt>
			<trkpt lat="33.272964" lon="103.819412">
				<ele>2498.000000</ele>
				<time>1970-01-01T00:00:00Z</time>
			</trkpt>
			<trkpt lat="33.272964" lon="103.819420">
				<ele>2498.000000</ele>
				<time>1970-01-01T00:00:00Z</time>
			</trkpt>
			<trkpt lat="33.272957" lon="103.819420">
				<ele>2498.000000</ele>
				<time>1970-01-01T00:00:00Z</time>
			</trkpt>
			<trkpt lat="33.272957" lon="103.819427">
				<ele>2498.000000</ele>
				<time>1970-01-01T00:00:00Z</time>
			</trkpt>
			<trkpt lat="33.272957" lon="103.819435">
				<ele>2498.000000</ele>
				<time>1970-01-01T00:00:00Z</time>
			</trkpt>
			<trkpt lat="33.272953" lon="103.819435">
				<ele>2498.000000</ele>
				<time>1970-01-01T00:00:00Z</time>
			</trkpt>
			<trkpt lat="33.272953" lon="103.819443">
				<ele>2498.000000</ele>
				<time>1970-01-01T00:00:00Z</time>
			</trkpt>
			<trkpt lat="33.272953" lon="103.819450">
				<ele>2498.000000</ele>
				<time>1970-01-01T00:00:00Z</time>
			</trkpt>
			<trkpt lat="33.272949" lon="103.819450">
				<ele>2498.000000</ele>
				<time>1970-01-01T00:00:00Z</time>
			</trkpt>
			<trkpt lat="33.272949" lon="103.819458">
				<ele>2498.000000</ele>
				<time>1970-01-01T00:00:00Z</time>
			</trkpt>
			<trkpt lat="33.272949" lon="103.819466">
				<ele>2498.000000</ele>
				<time>1970-01-01T00:00:00Z</time>
			</trkpt>
			<trkpt lat="33.272945" lon="103.819466">
				<ele>2498.000000</ele>
				<time>1970-01-01T00:00:00Z</time>
			</trkpt>
			<trkpt lat="33.272942" lon="103.819466">
				<ele>2498.000000</ele>
				<time>1970-01-01T00:00:00Z</time>
			</trkpt>
			<trkpt lat="33.272942" lon="103.819466">
				<ele>2498.000000</ele>
				<time>1970-01-01T00:00:00Z</time>
			</trkpt>
			<trkpt lat="33.272942" lon="103.819473">
				<ele>2498.000000</ele>
				<time>1970-01-01T00:00:00Z</time>
			</trkpt>
			<trkpt lat="33.272942" lon="103.819481">
				<ele>2498.000000</ele>
				<time>1970-01-01T00:00:00Z</time>
			</trkpt>
			<trkpt lat="33.272938" lon="103.819489">
				<ele>2498.000000</ele>
				<time>1970-01-01T00:00:00Z</time>
			</trkpt>
			<trkpt lat="33.272938" lon="103.819489">
				<ele>2498.000000</ele>
				<time>1970-01-01T00:00:00Z</time>
			</trkpt>
			<trkpt lat="33.272930" lon="103.819489">
				<ele>2498.000000</ele>
				<time>1970-01-01T00:00:00Z</time>
			</trkpt>
			<trkpt lat="33.272930" lon="103.819496">
				<ele>2498.000000</ele>
				<time>1970-01-01T00:00:00Z</time>
			</trkpt>
			<trkpt lat="33.272930" lon="103.819504">
				<ele>2498.000000</ele>
				<time>1970-01-01T00:00:00Z</time>
			</trkpt>
			<trkpt lat="33.272930" lon="103.819504">
				<ele>2498.000000</ele>
				<time>1970-01-01T00:00:00Z</time>
			</trkpt>
			<trkpt lat="33.272926" lon="103.819504">
				<ele>2498.000000</ele>
				<time>1970-01-01T00:00:00Z</time>
			</trkpt>
			<trkpt lat="33.272926" lon="103.819511">
				<ele>2498.000000</ele>
				<time>1970-01-01T00:00:00Z</time>
			</trkpt>
			<trkpt lat="33.272923" lon="103.819511">
				<ele>2498.000000</ele>
				<time>1970-01-01T00:00:00Z</time>
			</trkpt>
			<trkpt lat="33.272923" lon="103.819519">
				<ele>2498.000000</ele>
				<time>1970-01-01T00:00:00Z</time>
			</trkpt>
			<trkpt lat="33.272923" lon="103.819519">
				<ele>2498.000000</ele>
				<time>1970-01-01T00:00:00Z</time>
			</trkpt>
			<trkpt lat="33.272923" lon="103.819527">
				<ele>2498.000000</ele>
				<time>1970-01-01T00:00:00Z</time>
			</trkpt>
			<trkpt lat="33.272919" lon="103.819527">
				<ele>2498.000000</ele>
				<time>1970-01-01T00:00:00Z</time>
			</trkpt>
			<trkpt lat="33.272919" lon="103.819534">
				<ele>2498.000000</ele>
				<time>1970-01-01T00:00:00Z</time>
			</trkpt>
			<trkpt lat="33.272919" lon="103.819542">
				<ele>2498.000000</ele>
				<time>1970-01-01T00:00:00Z</time>
			</trkpt>
			<trkpt lat="33.272919" lon="103.819542">
				<ele>2498.000000</ele>
				<time>1970-01-01T00:00:00Z</time>
			</trkpt>
			<trkpt lat="33.272915" lon="103.819542">
				<ele>2509.000000</ele>
				<time>1970-01-01T00:00:00Z</time>
			</trkpt>
			<trkpt lat="33.272915" lon="103.819550">
				<ele>2509.000000</ele>
				<time>1970-01-01T00:00:00Z</time>
			</trkpt>
			<trkpt lat="33.272915" lon="103.819557">
				<ele>2509.000000</ele>
				<time>1970-01-01T00:00:00Z</time>
			</trkpt>
			<trkpt lat="33.272915" lon="103.819557">
				<ele>2509.000000</ele>
				<time>1970-01-01T00:00:00Z</time>
			</trkpt>
			<trkpt lat="33.272915" lon="103.819565">
				<ele>2509.000000</ele>
				<time>1970-01-01T00:00:00Z</time>
			</trkpt>
			<trkpt lat="33.272915" lon="103.819572">
				<ele>2509.000000</ele>
				<time>1970-01-01T00:00:00Z</time>
			</trkpt>
			<trkpt lat="33.272911" lon="103.819580">
				<ele>2509.000000</ele>
				<time>1970-01-01T00:00:00Z</time>
			</trkpt>
			<trkpt lat="33.272911" lon="103.819580">
				<ele>2509.000000</ele>
				<time>1970-01-01T00:00:00Z</time>
			</trkpt>
			<trkpt lat="33.272911" lon="103.819588">
				<ele>2508.000000</ele>
				<time>1970-01-01T00:00:00Z</time>
			</trkpt>
			<trkpt lat="33.272911" lon="103.819595">
				<ele>2508.000000</ele>
				<time>1970-01-01T00:00:00Z</time>
			</trkpt>
			<trkpt lat="33.272911" lon="103.819595">
				<ele>2508.000000</ele>
				<time>1970-01-01T00:00:00Z</time>
			</trkpt>
			<trkpt lat="33.272911" lon="103.819603">
				<ele>2508.000000</ele>
				<time>1970-01-01T00:00:00Z</time>
			</trkpt>
			<trkpt lat="33.272911" lon="103.819611">
				<ele>2508.000000</ele>
				<time>1970-01-01T00:00:00Z</time>
			</trkpt>
			<trkpt lat="33.272911" lon="103.819611">
				<ele>2508.000000</ele>
				<time>1970-01-01T00:00:00Z</time>
			</trkpt>
			<trkpt lat="33.272911" lon="103.819618">
				<ele>2508.000000</ele>
				<time>1970-01-01T00:00:00Z</time>
			</trkpt>
			<trkpt lat="33.272911" lon="103.819626">
				<ele>2508.000000</ele>
				<time>1970-01-01T00:00:00Z</time>
			</trkpt>
			<trkpt lat="33.272911" lon="103.819633">
				<ele>2508.000000</ele>
				<time>1970-01-01T00:00:00Z</time>
			</trkpt>
			<trkpt lat="33.272911" lon="103.819633">
				<ele>2508.000000</ele>
				<time>1970-01-01T00:00:00Z</time>
			</trkpt>
			<trkpt lat="33.272915" lon="103.819633">
				<ele>2508.000000</ele>
				<time>1970-01-01T00:00:00Z</time>
			</trkpt>
			<trkpt lat="33.272915" lon="103.819641">
				<ele>2508.000000</ele>
				<time>1970-01-01T00:00:00Z</time>
			</trkpt>
			<trkpt lat="33.272915" lon="103.819649">
				<ele>2508.000000</ele>
				<time>1970-01-01T00:00:00Z</time>
			</trkpt>
			<trkpt lat="33.272919" lon="103.819649">
				<ele>2499.000000</ele>
				<time>1970-01-01T00:00:00Z</time>
			</trkpt>
			<trkpt lat="33.272919" lon="103.819649">
				<ele>2499.000000</ele>
				<time>1970-01-01T00:00:00Z</time>
			</trkpt>
			<trkpt lat="33.272923" lon="103.819649">
				<ele>2499.000000</ele>
				<time>1970-01-01T00:00:00Z</time>
			</trkpt>
			<trkpt lat="33.272926" lon="103.819656">
				<ele>2499.000000</ele>
				<time>1970-01-01T00:00:00Z</time>
			</trkpt>
			<trkpt lat="33.272938" lon="103.819664">
				<ele>2499.000000</ele>
				<time>1970-01-01T00:00:00Z</time>
			</trkpt>
			<trkpt lat="33.272938" lon="103.819672">
				<ele>2499.000000</ele>
				<time>1970-01-01T00:00:00Z</time>
			</trkpt>
			<trkpt lat="33.272942" lon="103.819672">
				<ele>2499.000000</ele>
				<time>1970-01-01T00:00:00Z</time>
			</trkpt>
			<trkpt lat="33.272945" lon="103.819672">
				<ele>2499.000000</ele>
				<time>1970-01-01T00:00:00Z</time>
			</trkpt>
			<trkpt lat="33.272949" lon="103.819679">
				<ele>2499.000000</ele>
				<time>1970-01-01T00:00:00Z</time>
			</trkpt>
			<trkpt lat="33.272953" lon="103.819679">
				<ele>2499.000000</ele>
				<time>1970-01-01T00:00:00Z</time>
			</trkpt>
			<trkpt lat="33.272957" lon="103.819687">
				<ele>2499.000000</ele>
				<time>1970-01-01T00:00:00Z</time>
			</trkpt>
			<trkpt lat="33.272964" lon="103.819687">
				<ele>2499.000000</ele>
				<time>1970-01-01T00:00:00Z</time>
			</trkpt>
			<trkpt lat="33.272968" lon="103.819687">
				<ele>2499.000000</ele>
				<time>1970-01-01T00:00:00Z</time>
			</trkpt>
			<trkpt lat="33.272968" lon="103.819687">
				<ele>2499.000000</ele>
				<time>1970-01-01T00:00:00Z</time>
			</trkpt>
			<trkpt lat="33.272972" lon="103.819687">
				<ele>2499.000000</ele>
				<time>1970-01-01T00:00:00Z</time>
			</trkpt>
			<trkpt lat="33.272976" lon="103.819687">
				<ele>2499.000000</ele>
				<time>1970-01-01T00:00:00Z</time>
			</trkpt>
			<trkpt lat="33.272976" lon="103.819695">
				<ele>2499.000000</ele>
				<time>1970-01-01T00:00:00Z</time>
			</trkpt>
			<trkpt lat="33.272980" lon="103.819702">
				<ele>2499.000000</ele>
				<time>1970-01-01T00:00:00Z</time>
			</trkpt>
			<trkpt lat="33.272987" lon="103.819702">
				<ele>2499.000000</ele>
				<time>1970-01-01T00:00:00Z</time>
			</trkpt>
			<trkpt lat="33.272991" lon="103.819702">
				<ele>2499.000000</ele>
				<time>1970-01-01T00:00:00Z</time>
			</trkpt>
			<trkpt lat="33.272995" lon="103.819702">
				<ele>2499.000000</ele>
				<time>1970-01-01T00:00:00Z</time>
			</trkpt>
			<trkpt lat="33.272995" lon="103.819702">
				<ele>2499.000000</ele>
				<time>1970-01-01T00:00:00Z</time>
			</trkpt>
			<trkpt lat="33.272999" lon="103.819702">
				<ele>2499.000000</ele>
				<time>1970-01-01T00:00:00Z</time>
			</trkpt>
			<trkpt lat="33.273003" lon="103.819702">
				<ele>2499.000000</ele>
				<time>1970-01-01T00:00:00Z</time>
			</trkpt>
			<trkpt lat="33.273006" lon="103.819702">
				<ele>2499.000000</ele>
				<time>1970-01-01T00:00:00Z</time>
			</trkpt>
			<trkpt lat="33.273006" lon="103.819710">
				<ele>2499.000000</ele>
				<time>1970-01-01T00:00:00Z</time>
			</trkpt>
			<trkpt lat="33.273014" lon="103.819710">
				<ele>2499.000000</ele>
				<time>1970-01-01T00:00:00Z</time>
			</trkpt>
			<trkpt lat="33.273018" lon="103.819710">
				<ele>2499.000000</ele>
				<time>1970-01-01T00:00:00Z</time>
			</trkpt>
			<trkpt lat="33.273022" lon="103.819710">
				<ele>2499.000000</ele>
				<time>1970-01-01T00:00:00Z</time>
			</trkpt>
			<trkpt lat="33.273022" lon="103.819717">
				<ele>2499.000000</ele>
				<time>1970-01-01T00:00:00Z</time>
			</trkpt>
			<trkpt lat="33.273026" lon="103.819717">
				<ele>2499.000000</ele>
				<time>1970-01-01T00:00:00Z</time>
			</trkpt>
			<trkpt lat="33.273029" lon="103.819717">
				<ele>2499.000000</ele>
				<time>1970-01-01T00:00:00Z</time>
			</trkpt>
			<trkpt lat="33.273029" lon="103.819717">
				<ele>2499.000000</ele>
				<time>1970-01-01T00:00:00Z</time>
			</trkpt>
			<trkpt lat="33.273033" lon="103.819717">
				<ele>2499.000000</ele>
				<time>1970-01-01T00:00:00Z</time>
			</trkpt>
			<trkpt lat="33.273041" lon="103.819717">
				<ele>2499.000000</ele>
				<time>1970-01-01T00:00:00Z</time>
			</trkpt>
			<trkpt lat="33.273045" lon="103.819717">
				<ele>2499.000000</ele>
				<time>1970-01-01T00:00:00Z</time>
			</trkpt>
			<trkpt lat="33.273045" lon="103.819725">
				<ele>2499.000000</ele>
				<time>1970-01-01T00:00:00Z</time>
			</trkpt>
			<trkpt lat="33.273048" lon="103.819725">
				<ele>2499.000000</ele>
				<time>1970-01-01T00:00:00Z</time>
			</trkpt>
			<trkpt lat="33.273052" lon="103.819725">
				<ele>2499.000000</ele>
				<time>1970-01-01T00:00:00Z</time>
			</trkpt>
			<trkpt lat="33.273056" lon="103.819725">
				<ele>2499.000000</ele>
				<time>1970-01-01T00:00:00Z</time>
			</trkpt>
			<trkpt lat="33.273056" lon="103.819733">
				<ele>2499.000000</ele>
				<time>1970-01-01T00:00:00Z</time>
			</trkpt>
			<trkpt lat="33.273064" lon="103.819733">
				<ele>2499.000000</ele>
				<time>1970-01-01T00:00:00Z</time>
			</trkpt>
			<trkpt lat="33.273067" lon="103.819733">
				<ele>2499.000000</ele>
				<time>1970-01-01T00:00:00Z</time>
			</trkpt>
			<trkpt lat="33.273067" lon="103.819740">
				<ele>2499.000000</ele>
				<time>1970-01-01T00:00:00Z</time>
			</trkpt>
			<trkpt lat="33.273071" lon="103.819740">
				<ele>2499.000000</ele>
				<time>1970-01-01T00:00:00Z</time>
			</trkpt>
			<trkpt lat="33.273075" lon="103.819740">
				<ele>2499.000000</ele>
				<time>1970-01-01T00:00:00Z</time>
			</trkpt>
			<trkpt lat="33.273075" lon="103.819740">
				<ele>2499.000000</ele>
				<time>1970-01-01T00:00:00Z</time>
			</trkpt>
			<trkpt lat="33.273079" lon="103.819740">
				<ele>2499.000000</ele>
				<time>1970-01-01T00:00:00Z</time>
			</trkpt>
			<trkpt lat="33.273083" lon="103.819740">
				<ele>2499.000000</ele>
				<time>1970-01-01T00:00:00Z</time>
			</trkpt>
			<trkpt lat="33.273090" lon="103.819740">
				<ele>2499.000000</ele>
				<time>1970-01-01T00:00:00Z</time>
			</trkpt>
			<trkpt lat="33.273090" lon="103.819748">
				<ele>2499.000000</ele>
				<time>1970-01-01T00:00:00Z</time>
			</trkpt>
			<trkpt lat="33.273094" lon="103.819748">
				<ele>2499.000000</ele>
				<time>1970-01-01T00:00:00Z</time>
			</trkpt>
			<trkpt lat="33.273098" lon="103.819748">
				<ele>2499.000000</ele>
				<time>1970-01-01T00:00:00Z</time>
			</trkpt>
			<trkpt lat="33.273098" lon="103.819756">
				<ele>2499.000000</ele>
				<time>1970-01-01T00:00:00Z</time>
			</trkpt>
			<trkpt lat="33.273102" lon="103.819756">
				<ele>2499.000000</ele>
				<time>1970-01-01T00:00:00Z</time>
			</trkpt>
			<trkpt lat="33.273106" lon="103.819756">
				<ele>2499.000000</ele>
				<time>1970-01-01T00:00:00Z</time>
			</trkpt>
			<trkpt lat="33.273109" lon="103.819756">
				<ele>2499.000000</ele>
				<time>1970-01-01T00:00:00Z</time>
			</trkpt>
			<trkpt lat="33.273109" lon="103.819756">
				<ele>2499.000000</ele>
				<time>1970-01-01T00:00:00Z</time>
			</trkpt>
			<trkpt lat="33.273117" lon="103.819756">
				<ele>2499.000000</ele>
				<time>1970-01-01T00:00:00Z</time>
			</trkpt>
			<trkpt lat="33.273117" lon="103.819763">
				<ele>2499.000000</ele>
				<time>1970-01-01T00:00:00Z</time>
			</trkpt>
			<trkpt lat="33.273121" lon="103.819763">
				<ele>2499.000000</ele>
				<time>1970-01-01T00:00:00Z</time>
			</trkpt>
			<trkpt lat="33.273125" lon="103.819763">
				<ele>2499.000000</ele>
				<time>1970-01-01T00:00:00Z</time>
			</trkpt>
			<trkpt lat="33.273125" lon="103.819771">
				<ele>2499.000000</ele>
				<time>1970-01-01T00:00:00Z</time>
			</trkpt>
			<trkpt lat="33.273129" lon="103.819771">
				<ele>2499.000000</ele>
				<time>1970-01-01T00:00:00Z</time>
			</trkpt>
			<trkpt lat="33.273132" lon="103.819771">
				<ele>2499.000000</ele>
				<time>1970-01-01T00:00:00Z</time>
			</trkpt>
			<trkpt lat="33.273132" lon="103.819778">
				<ele>2499.000000</ele>
				<time>1970-01-01T00:00:00Z</time>
			</trkpt>
			<trkpt lat="33.273136" lon="103.819778">
				<ele>2499.000000</ele>
				<time>1970-01-01T00:00:00Z</time>
			</trkpt>
			<trkpt lat="33.273136" lon="103.819778">
				<ele>2499.000000</ele>
				<time>1970-01-01T00:00:00Z</time>
			</trkpt>
			<trkpt lat="33.273144" lon="103.819778">
				<ele>2499.000000</ele>
				<time>1970-01-01T00:00:00Z</time>
			</trkpt>
			<trkpt lat="33.273144" lon="103.819786">
				<ele>2499.000000</ele>
				<time>1970-01-01T00:00:00Z</time>
			</trkpt>
			<trkpt lat="33.273148" lon="103.819786">
				<ele>2499.000000</ele>
				<time>1970-01-01T00:00:00Z</time>
			</trkpt>
			<trkpt lat="33.273151" lon="103.819786">
				<ele>2499.000000</ele>
				<time>1970-01-01T00:00:00Z</time>
			</trkpt>
			<trkpt lat="33.273151" lon="103.819794">
				<ele>2499.000000</ele>
				<time>1970-01-01T00:00:00Z</time>
			</trkpt>
			<trkpt lat="33.273155" lon="103.819794">
				<ele>2499.000000</ele>
				<time>1970-01-01T00:00:00Z</time>
			</trkpt>
			<trkpt lat="33.273159" lon="103.819794">
				<ele>2499.000000</ele>
				<time>1970-01-01T00:00:00Z</time>
			</trkpt>
			<trkpt lat="33.273159" lon="103.819794">
				<ele>2499.000000</ele>
				<time>1970-01-01T00:00:00Z</time>
			</trkpt>
			<trkpt lat="33.273167" lon="103.819794">
				<ele>2499.000000</ele>
				<time>1970-01-01T00:00:00Z</time>
			</trkpt>
			<trkpt lat="33.273170" lon="103.819794">
				<ele>2499.000000</ele>
				<time>1970-01-01T00:00:00Z</time>
			</trkpt>
			<trkpt lat="33.273170" lon="103.819801">
				<ele>2499.000000</ele>
				<time>1970-01-01T00:00:00Z</time>
			</trkpt>
			<trkpt lat="33.273174" lon="103.819801">
				<ele>2499.000000</ele>
				<time>1970-01-01T00:00:00Z</time>
			</trkpt>
			<trkpt lat="33.273174" lon="103.819809">
				<ele>2499.000000</ele>
				<time>1970-01-01T00:00:00Z</time>
			</trkpt>
			<trkpt lat="33.273178" lon="103.819809">
				<ele>2499.000000</ele>
				<time>1970-01-01T00:00:00Z</time>
			</trkpt>
			<trkpt lat="33.273182" lon="103.819809">
				<ele>2499.000000</ele>
				<time>1970-01-01T00:00:00Z</time>
			</trkpt>
			<trkpt lat="33.273186" lon="103.819809">
				<ele>2499.000000</ele>
				<time>1970-01-01T00:00:00Z</time>
			</trkpt>
			<trkpt lat="33.273186" lon="103.819809">
				<ele>2499.000000</ele>
				<time>1970-01-01T00:00:00Z</time>
			</trkpt>
			<trkpt lat="33.273193" lon="103.819809">
				<ele>2499.000000</ele>
				<time>1970-01-01T00:00:00Z</time>
			</trkpt>
			<trkpt lat="33.273197" lon="103.819809">
				<ele>2497.000000</ele>
				<time>1970-01-01T00:00:00Z</time>
			</trkpt>
			<trkpt lat="33.273197" lon="103.819817">
				<ele>2497.000000</ele>
				<time>1970-01-01T00:00:00Z</time>
			</trkpt>
			<trkpt lat="33.273201" lon="103.819817">
				<ele>2497.000000</ele>
				<time>1970-01-01T00:00:00Z</time>
			</trkpt>
			<trkpt lat="33.273205" lon="103.819817">
				<ele>2497.000000</ele>
				<time>1970-01-01T00:00:00Z</time>
			</trkpt>
			<trkpt lat="33.273209" lon="103.819817">
				<ele>2497.000000</ele>
				<time>1970-01-01T00:00:00Z</time>
			</trkpt>
			<trkpt lat="33.273209" lon="103.819824">
				<ele>2497.000000</ele>
				<time>1970-01-01T00:00:00Z</time>
			</trkpt>
			<trkpt lat="33.273212" lon="103.819824">
				<ele>2497.000000</ele>
				<time>1970-01-01T00:00:00Z</time>
			</trkpt>
			<trkpt lat="33.273212" lon="103.819832">
				<ele>2497.000000</ele>
				<time>1970-01-01T00:00:00Z</time>
			</trkpt>
			<trkpt lat="33.273220" lon="103.819832">
				<ele>2497.000000</ele>
				<time>1970-01-01T00:00:00Z</time>
			</trkpt>
			<trkpt lat="33.273224" lon="103.819832">
				<ele>2497.000000</ele>
				<time>1970-01-01T00:00:00Z</time>
			</trkpt>
			<trkpt lat="33.273228" lon="103.819832">
				<ele>2497.000000</ele>
				<time>1970-01-01T00:00:00Z</time>
			</trkpt>
			<trkpt lat="33.273228" lon="103.819832">
				<ele>2497.000000</ele>
				<time>1970-01-01T00:00:00Z</time>
			</trkpt>
			<trkpt lat="33.273232" lon="103.819832">
				<ele>2497.000000</ele>
				<time>1970-01-01T00:00:00Z</time>
			</trkpt>
			<trkpt lat="33.273235" lon="103.819832">
				<ele>2497.000000</ele>
				<time>1970-01-01T00:00:00Z</time>
			</trkpt>
			<trkpt lat="33.273243" lon="103.819832">
				<ele>2497.000000</ele>
				<time>1970-01-01T00:00:00Z</time>
			</trkpt>
			<trkpt lat="33.273243" lon="103.819839">
				<ele>2497.000000</ele>
				<time>1970-01-01T00:00:00Z</time>
			</trkpt>
			<trkpt lat="33.273247" lon="103.819839">
				<ele>2497.000000</ele>
				<time>1970-01-01T00:00:00Z</time>
			</trkpt>
			<trkpt lat="33.273251" lon="103.819839">
				<ele>2497.000000</ele>
				<time>1970-01-01T00:00:00Z</time>
			</trkpt>
			<trkpt lat="33.273254" lon="103.819839">
				<ele>2497.000000</ele>
				<time>1970-01-01T00:00:00Z</time>
			</trkpt>
			<trkpt lat="33.273254" lon="103.819847">
				<ele>2497.000000</ele>
				<time>1970-01-01T00:00:00Z</time>
			</trkpt>
			<trkpt lat="33.273258" lon="103.819847">
				<ele>2497.000000</ele>
				<time>1970-01-01T00:00:00Z</time>
			</trkpt>
			<trkpt lat="33.273262" lon="103.819847">
				<ele>2497.000000</ele>
				<time>1970-01-01T00:00:00Z</time>
			</trkpt>
			<trkpt lat="33.273270" lon="103.819847">
				<ele>2497.000000</ele>
				<time>1970-01-01T00:00:00Z</time>
			</trkpt>
			<trkpt lat="33.273273" lon="103.819847">
				<ele>2497.000000</ele>
				<time>1970-01-01T00:00:00Z</time>
			</trkpt>
			<trkpt lat="33.273273" lon="103.819847">
				<ele>2497.000000</ele>
				<time>1970-01-01T00:00:00Z</time>
			</trkpt>
			<trkpt lat="33.273277" lon="103.819847">
				<ele>2497.000000</ele>
				<time>1970-01-01T00:00:00Z</time>
			</trkpt>
			<trkpt lat="33.273281" lon="103.819847">
				<ele>2497.000000</ele>
				<time>1970-01-01T00:00:00Z</time>
			</trkpt>
			<trkpt lat="33.273281" lon="103.819855">
				<ele>2497.000000</ele>
				<time>1970-01-01T00:00:00Z</time>
			</trkpt>
			<trkpt lat="33.273285" lon="103.819855">
				<ele>2497.000000</ele>
				<time>1970-01-01T00:00:00Z</time>
			</trkpt>
			<trkpt lat="33.273289" lon="103.819855">
				<ele>2497.000000</ele>
				<time>1970-01-01T00:00:00Z</time>
			</trkpt>
			<trkpt lat="33.273289" lon="103.819862">
				<ele>2501.000000</ele>
				<time>1970-01-01T00:00:00Z</time>
			</trkpt>
			<trkpt lat="33.273296" lon="103.819862">
				<ele>2501.000000</ele>
				<time>1970-01-01T00:00:00Z</time>
			</trkpt>
			<trkpt lat="33.273300" lon="103.819862">
				<ele>2501.000000</ele>
				<time>1970-01-01T00:00:00Z</time>
			</trkpt>
			<trkpt lat="33.273304" lon="103.819862">
				<ele>2501.000000</ele>
				<time>1970-01-01T00:00:00Z</time>
			</trkpt>
			<trkpt lat="33.273308" lon="103.819862">
				<ele>2501.000000</ele>
				<time>1970-01-01T00:00:00Z</time>
			</trkpt>
			<trkpt lat="33.273312" lon="103.819862">
				<ele>2501.000000</ele>
				<time>1970-01-01T00:00:00Z</time>
			</trkpt>
			<trkpt lat="33.273319" lon="103.819862">
				<ele>2501.000000</ele>
				<time>1970-01-01T00:00:00Z</time>
			</trkpt>
			<trkpt lat="33.273323" lon="103.819862">
				<ele>2501.000000</ele>
				<time>1970-01-01T00:00:00Z</time>
			</trkpt>
			<trkpt lat="33.273327" lon="103.819862">
				<ele>2501.000000</ele>
				<time>1970-01-01T00:00:00Z</time>
			</trkpt>
			<trkpt lat="33.273331" lon="103.819862">
				<ele>2501.000000</ele>
				<time>1970-01-01T00:00:00Z</time>
			</trkpt>
			<trkpt lat="33.273335" lon="103.819862">
				<ele>2501.000000</ele>
				<time>1970-01-01T00:00:00Z</time>
			</trkpt>
			<trkpt lat="33.273335" lon="103.819870">
				<ele>2501.000000</ele>
				<time>1970-01-01T00:00:00Z</time>
			</trkpt>
			<trkpt lat="33.273338" lon="103.819870">
				<ele>2501.000000</ele>
				<time>1970-01-01T00:00:00Z</time>
			</trkpt>
			<trkpt lat="33.273346" lon="103.819870">
				<ele>2501.000000</ele>
				<time>1970-01-01T00:00:00Z</time>
			</trkpt>
			<trkpt lat="33.273350" lon="103.819870">
				<ele>2501.000000</ele>
				<time>1970-01-01T00:00:00Z</time>
			</trkpt>
			<trkpt lat="33.273354" lon="103.819870">
				<ele>2501.000000</ele>
				<time>1970-01-01T00:00:00Z</time>
			</trkpt>
			<trkpt lat="33.273357" lon="103.819878">
				<ele>2501.000000</ele>
				<time>1970-01-01T00:00:00Z</time>
			</trkpt>
			<trkpt lat="33.273361" lon="103.819878">
				<ele>2501.000000</ele>
				<time>1970-01-01T00:00:00Z</time>
			</trkpt>
			<trkpt lat="33.273365" lon="103.819878">
				<ele>2501.000000</ele>
				<time>1970-01-01T00:00:00Z</time>
			</trkpt>
			<trkpt lat="33.273373" lon="103.819878">
				<ele>2501.000000</ele>
				<time>1970-01-01T00:00:00Z</time>
			</trkpt>
			<trkpt lat="33.273376" lon="103.819878">
				<ele>2501.000000</ele>
				<time>1970-01-01T00:00:00Z</time>
			</trkpt>
			<trkpt lat="33.273380" lon="103.819878">
				<ele>2501.000000</ele>
				<time>1970-01-01T00:00:00Z</time>
			</trkpt>
			<trkpt lat="33.273384" lon="103.819878">
				<ele>2501.000000</ele>
				<time>1970-01-01T00:00:00Z</time>
			</trkpt>
			<trkpt lat="33.273388" lon="103.819878">
				<ele>2501.000000</ele>
				<time>1970-01-01T00:00:00Z</time>
			</trkpt>
			<trkpt lat="33.273396" lon="103.819878">
				<ele>2501.000000</ele>
				<time>1970-01-01T00:00:00Z</time>
			</trkpt>
			<trkpt lat="33.273399" lon="103.819878">
				<ele>2501.000000</ele>
				<time>1970-01-01T00:00:00Z</time>
			</trkpt>
			<trkpt lat="33.273399" lon="103.819870">
				<ele>2501.000000</ele>
				<time>1970-01-01T00:00:00Z</time>
			</trkpt>
			<trkpt lat="33.273403" lon="103.819870">
				<ele>2501.000000</ele>
				<time>1970-01-01T00:00:00Z</time>
			</trkpt>
			<trkpt lat="33.273407" lon="103.819870">
				<ele>2501.000000</ele>
				<time>1970-01-01T00:00:00Z</time>
			</trkpt>
			<trkpt lat="33.273411" lon="103.819870">
				<ele>2501.000000</ele>
				<time>1970-01-01T00:00:00Z</time>
			</trkpt>
			<trkpt lat="33.273415" lon="103.819870">
				<ele>2501.000000</ele>
				<time>1970-01-01T00:00:00Z</time>
			</trkpt>
			<trkpt lat="33.273415" lon="103.819862">
				<ele>2501.000000</ele>
				<time>1970-01-01T00:00:00Z</time>
			</trkpt>
			<trkpt lat="33.273422" lon="103.819862">
				<ele>2501.000000</ele>
				<time>1970-01-01T00:00:00Z</time>
			</trkpt>
			<trkpt lat="33.273426" lon="103.819862">
				<ele>2501.000000</ele>
				<time>1970-01-01T00:00:00Z</time>
			</trkpt>
			<trkpt lat="33.273430" lon="103.819862">
				<ele>2501.000000</ele>
				<time>1970-01-01T00:00:00Z</time>
			</trkpt>
			<trkpt lat="33.273434" lon="103.819862">
				<ele>2501.000000</ele>
				<time>1970-01-01T00:00:00Z</time>
			</trkpt>
			<trkpt lat="33.273434" lon="103.819862">
				<ele>2501.000000</ele>
				<time>1970-01-01T00:00:00Z</time>
			</trkpt>
			<trkpt lat="33.273438" lon="103.819862">
				<ele>2501.000000</ele>
				<time>1970-01-01T00:00:00Z</time>
			</trkpt>
			<trkpt lat="33.273441" lon="103.819862">
				<ele>2501.000000</ele>
				<time>1970-01-01T00:00:00Z</time>
			</trkpt>
			<trkpt lat="33.273441" lon="103.819855">
				<ele>2497.000000</ele>
				<time>1970-01-01T00:00:00Z</time>
			</trkpt>
			<trkpt lat="33.273449" lon="103.819855">
				<ele>2497.000000</ele>
				<time>1970-01-01T00:00:00Z</time>
			</trkpt>
			<trkpt lat="33.273449" lon="103.819847">
				<ele>2497.000000</ele>
				<time>1970-01-01T00:00:00Z</time>
			</trkpt>
			<trkpt lat="33.273453" lon="103.819847">
				<ele>2497.000000</ele>
				<time>1970-01-01T00:00:00Z</time>
			</trkpt>
			<trkpt lat="33.273453" lon="103.819847">
				<ele>2497.000000</ele>
				<time>1970-01-01T00:00:00Z</time>
			</trkpt>
			<trkpt lat="33.273457" lon="103.819847">
				<ele>2497.000000</ele>
				<time>1970-01-01T00:00:00Z</time>
			</trkpt>
			<trkpt lat="33.273460" lon="103.819847">
				<ele>2497.000000</ele>
				<time>1970-01-01T00:00:00Z</time>
			</trkpt>
			<trkpt lat="33.273464" lon="103.819847">
				<ele>2497.000000</ele>
				<time>1970-01-01T00:00:00Z</time>
			</trkpt>
			<trkpt lat="33.273464" lon="103.819839">
				<ele>2497.000000</ele>
				<time>1970-01-01T00:00:00Z</time>
			</trkpt>
			<trkpt lat="33.273468" lon="103.819839">
				<ele>2497.000000</ele>
				<time>1970-01-01T00:00:00Z</time>
			</trkpt>
			<trkpt lat="33.273468" lon="103.819832">
				<ele>2497.000000</ele>
				<time>1970-01-01T00:00:00Z</time>
			</trkpt>
			<trkpt lat="33.273476" lon="103.819832">
				<ele>2498.000000</ele>
				<time>1970-01-01T00:00:00Z</time>
			</trkpt>
			<trkpt lat="33.273476" lon="103.819832">
				<ele>2498.000000</ele>
				<time>1970-01-01T00:00:00Z</time>
			</trkpt>
			<trkpt lat="33.273479" lon="103.819832">
				<ele>2498.000000</ele>
				<time>1970-01-01T00:00:00Z</time>
			</trkpt>
			<trkpt lat="33.273483" lon="103.819824">
				<ele>2498.000000</ele>
				<time>1970-01-01T00:00:00Z</time>
			</trkpt>
			<trkpt lat="33.273487" lon="103.819824">
				<ele>2498.000000</ele>
				<time>1970-01-01T00:00:00Z</time>
			</trkpt>
			<trkpt lat="33.273487" lon="103.819817">
				<ele>2498.000000</ele>
				<time>1970-01-01T00:00:00Z</time>
			</trkpt>
			<trkpt lat="33.273491" lon="103.819817">
				<ele>2498.000000</ele>
				<time>1970-01-01T00:00:00Z</time>
			</trkpt>
			<trkpt lat="33.273491" lon="103.819809">
				<ele>2498.000000</ele>
				<time>1970-01-01T00:00:00Z</time>
			</trkpt>
			<trkpt lat="33.273499" lon="103.819809">
				<ele>2498.000000</ele>
				<time>1970-01-01T00:00:00Z</time>
			</trkpt>
			<trkpt lat="33.273502" lon="103.819809">
				<ele>2498.000000</ele>
				<time>1970-01-01T00:00:00Z</time>
			</trkpt>
			<trkpt lat="33.273502" lon="103.819801">
				<ele>2498.000000</ele>
				<time>1970-01-01T00:00:00Z</time>
			</trkpt>
			<trkpt lat="33.273506" lon="103.819801">
				<ele>2498.000000</ele>
				<time>1970-01-01T00:00:00Z</time>
			</trkpt>
			<trkpt lat="33.273506" lon="103.819794">
				<ele>2498.000000</ele>
				<time>1970-01-01T00:00:00Z</time>
			</trkpt>
			<trkpt lat="33.273510" lon="103.819794">
				<ele>2498.000000</ele>
				<time>1970-01-01T00:00:00Z</time>
			</trkpt>
			<trkpt lat="33.273510" lon="103.819794">
				<ele>2498.000000</ele>
				<time>1970-01-01T00:00:00Z</time>
			</trkpt>
			<trkpt lat="33.273514" lon="103.819794">
				<ele>2498.000000</ele>
				<time>1970-01-01T00:00:00Z</time>
			</trkpt>
			<trkpt lat="33.273518" lon="103.819794">
				<ele>2498.000000</ele>
				<time>1970-01-01T00:00:00Z</time>
			</trkpt>
			<trkpt lat="33.273518" lon="103.819786">
				<ele>2498.000000</ele>
				<time>1970-01-01T00:00:00Z</time>
			</trkpt>
			<trkpt lat="33.273518" lon="103.819778">
				<ele>2498.000000</ele>
				<time>1970-01-01T00:00:00Z</time>
			</trkpt>
			<trkpt lat="33.273525" lon="103.819778">
				<ele>2498.000000</ele>
				<time>1970-01-01T00:00:00Z</time>
			</trkpt>
			<trkpt lat="33.273525" lon="103.819778">
				<ele>2498.000000</ele>
				<time>1970-01-01T00:00:00Z</time>
			</trkpt>
			<trkpt lat="33.273529" lon="103.819778">
				<ele>2498.000000</ele>
				<time>1970-01-01T00:00:00Z</time>
			</trkpt>
			<trkpt lat="33.273529" lon="103.819771">
				<ele>2498.000000</ele>
				<time>1970-01-01T00:00:00Z</time>
			</trkpt>
			<trkpt lat="33.273533" lon="103.819771">
				<ele>2498.000000</ele>
				<time>1970-01-01T00:00:00Z</time>
			</trkpt>
			<trkpt lat="33.273537" lon="103.819771">
				<ele>2498.000000</ele>
				<time>1970-01-01T00:00:00Z</time>
			</trkpt>
			<trkpt lat="33.273537" lon="103.819763">
				<ele>2498.000000</ele>
				<time>1970-01-01T00:00:00Z</time>
			</trkpt>
			<trkpt lat="33.273537" lon="103.819756">
				<ele>2498.000000</ele>
				<time>1970-01-01T00:00:00Z</time>
			</trkpt>
			<trkpt lat="33.273540" lon="103.819756">
				<ele>2498.000000</ele>
				<time>1970-01-01T00:00:00Z</time>
			</trkpt>
			<trkpt lat="33.273540" lon="103.819756">
				<ele>2498.000000</ele>
				<time>1970-01-01T00:00:00Z</time>
			</trkpt>
			<trkpt lat="33.273544" lon="103.819756">
				<ele>2498.000000</ele>
				<time>1970-01-01T00:00:00Z</time>
			</trkpt>
			<trkpt lat="33.273552" lon="103.819748">
				<ele>2498.000000</ele>
				<time>1970-01-01T00:00:00Z</time>
			</trkpt>
			<trkpt lat="33.273556" lon="103.819740">
				<ele>2498.000000</ele>
				<time>1970-01-01T00:00:00Z</time>
			</trkpt>
			<trkpt lat="33.273556" lon="103.819740">
				<ele>2498.000000</ele>
				<time>1970-01-01T00:00:00Z</time>
			</trkpt>
			<trkpt lat="33.273560" lon="103.819740">
				<ele>2498.000000</ele>
				<time>1970-01-01T00:00:00Z</time>
			</trkpt>
			<trkpt lat="33.273563" lon="103.819740">
				<ele>2498.000000</ele>
				<time>1970-01-01T00:00:00Z</time>
			</trkpt>
			<trkpt lat="33.273563" lon="103.819733">
				<ele>2498.000000</ele>
				<time>1970-01-01T00:00:00Z</time>
			</trkpt>
			<trkpt lat="33.273567" lon="103.819733">
				<ele>2498.000000</ele>
				<time>1970-01-01T00:00:00Z</time>
			</trkpt>
			<trkpt lat="33.273567" lon="103.819725">
				<ele>2498.000000</ele>
				<time>1970-01-01T00:00:00Z</time>
			</trkpt>
			<trkpt lat="33.273575" lon="103.819725">
				<ele>2498.000000</ele>
				<time>1970-01-01T00:00:00Z</time>
			</trkpt>
			<trkpt lat="33.273575" lon="103.819717">
				<ele>2498.000000</ele>
				<time>1970-01-01T00:00:00Z</time>
			</trkpt>
			<trkpt lat="33.273579" lon="103.819717">
				<ele>2498.000000</ele>
				<time>1970-01-01T00:00:00Z</time>
			</trkpt>
			<trkpt lat="33.273579" lon="103.819717">
				<ele>2498.000000</ele>
				<time>1970-01-01T00:00:00Z</time>
			</trkpt>
			<trkpt lat="33.273582" lon="103.819717">
				<ele>2498.000000</ele>
				<time>1970-01-01T00:00:00Z</time>
			</trkpt>
			<trkpt lat="33.273582" lon="103.819710">
				<ele>2498.000000</ele>
				<time>1970-01-01T00:00:00Z</time>
			</trkpt>
			<trkpt lat="33.273586" lon="103.819710">
				<ele>2498.000000</ele>
				<time>1970-01-01T00:00:00Z</time>
			</trkpt>
			<trkpt lat="33.273586" lon="103.819702">
				<ele>2498.000000</ele>
				<time>1970-01-01T00:00:00Z</time>
			</trkpt>
			<trkpt lat="33.273590" lon="103.819702">
				<ele>2498.000000</ele>
				<time>1970-01-01T00:00:00Z</time>
			</trkpt>
			<trkpt lat="33.273594" lon="103.819702">
				<ele>2498.000000</ele>
				<time>1970-01-01T00:00:00Z</time>
			</trkpt>
			<trkpt lat="33.273594" lon="103.819695">
				<ele>2498.000000</ele>
				<time>1970-01-01T00:00:00Z</time>
			</trkpt>
			<trkpt lat="33.273602" lon="103.819687">
				<ele>2498.000000</ele>
				<time>1970-01-01T00:00:00Z</time>
			</trkpt>
			<trkpt lat="33.273602" lon="103.819687">
				<ele>2498.000000</ele>
				<time>1970-01-01T00:00:00Z</time>
			</trkpt>
			<trkpt lat="33.273605" lon="103.819687">
				<ele>2498.000000</ele>
				<time>1970-01-01T00:00:00Z</time>
			</trkpt>
			<trkpt lat="33.273609" lon="103.819679">
				<ele>2498.000000</ele>
				<time>1970-01-01T00:00:00Z</time>
			</trkpt>
			<trkpt lat="33.273613" lon="103.819679">
				<ele>2498.000000</ele>
				<time>1970-01-01T00:00:00Z</time>
			</trkpt>
			<trkpt lat="33.273613" lon="103.819672">
				<ele>2498.000000</ele>
				<time>1970-01-01T00:00:00Z</time>
			</trkpt>
			<trkpt lat="33.273613" lon="103.819664">
				<ele>2498.000000</ele>
				<time>1970-01-01T00:00:00Z</time>
			</trkpt>
			<trkpt lat="33.273617" lon="103.819664">
				<ele>2498.000000</ele>
				<time>1970-01-01T00:00:00Z</time>
			</trkpt>
			<trkpt lat="33.273617" lon="103.819664">
				<ele>2498.000000</ele>
				<time>1970-01-01T00:00:00Z</time>
			</trkpt>
			<trkpt lat="33.273621" lon="103.819664">
				<ele>2498.000000</ele>
				<time>1970-01-01T00:00:00Z</time>
			</trkpt>
			<trkpt lat="33.273621" lon="103.819656">
				<ele>2498.000000</ele>
				<time>1970-01-01T00:00:00Z</time>
			</trkpt>
			<trkpt lat="33.273628" lon="103.819656">
				<ele>2498.000000</ele>
				<time>1970-01-01T00:00:00Z</time>
			</trkpt>
			<trkpt lat="33.273628" lon="103.819649">
				<ele>2498.000000</ele>
				<time>1970-01-01T00:00:00Z</time>
			</trkpt>
			<trkpt lat="33.273632" lon="103.819649">
				<ele>2498.000000</ele>
				<time>1970-01-01T00:00:00Z</time>
			</trkpt>
			<trkpt lat="33.273632" lon="103.819649">
				<ele>2498.000000</ele>
				<time>1970-01-01T00:00:00Z</time>
			</trkpt>
			<trkpt lat="33.273632" lon="103.819641">
				<ele>2498.000000</ele>
				<time>1970-01-01T00:00:00Z</time>
			</trkpt>
			<trkpt lat="33.273636" lon="103.819641">
				<ele>2498.000000</ele>
				<time>1970-01-01T00:00:00Z</time>
			</trkpt>
			<trkpt lat="33.273636" lon="103.819633">
				<ele>2498.000000</ele>
				<time>1970-01-01T00:00:00Z</time>
			</trkpt>
			<trkpt lat="33.273640" lon="103.819633">
				<ele>2498.000000</ele>
				<time>1970-01-01T00:00:00Z</time>
			</trkpt>
			<trkpt lat="33.273640" lon="103.819633">
				<ele>2498.000000</ele>
				<time>1970-01-01T00:00:00Z</time>
			</trkpt>
			<trkpt lat="33.273643" lon="103.819633">
				<ele>2498.000000</ele>
				<time>1970-01-01T00:00:00Z</time>
			</trkpt>
			<trkpt lat="33.273643" lon="103.819626">
				<ele>2498.000000</ele>
				<time>1970-01-01T00:00:00Z</time>
			</trkpt>
			<trkpt lat="33.273651" lon="103.819626">
				<ele>2498.000000</ele>
				<time>1970-01-01T00:00:00Z</time>
			</trkpt>
			<trkpt lat="33.273651" lon="103.819618">
				<ele>2498.000000</ele>
				<time>1970-01-01T00:00:00Z</time>
			</trkpt>
			<trkpt lat="33.273655" lon="103.819618">
				<ele>2498.000000</ele>
				<time>1970-01-01T00:00:00Z</time>
			</trkpt>
			<trkpt lat="33.273655" lon="103.819611">
				<ele>2498.000000</ele>
				<time>1970-01-01T00:00:00Z</time>
			</trkpt>
			<trkpt lat="33.273659" lon="103.819611">
				<ele>2498.000000</ele>
				<time>1970-01-01T00:00:00Z</time>
			</trkpt>
			<trkpt lat="33.273659" lon="103.819611">
				<ele>2498.000000</ele>
				<time>1970-01-01T00:00:00Z</time>
			</trkpt>
			<trkpt lat="33.273659" lon="103.819603">
				<ele>2498.000000</ele>
				<time>1970-01-01T00:00:00Z</time>
			</trkpt>
			<trkpt lat="33.273663" lon="103.819603">
				<ele>2498.000000</ele>
				<time>1970-01-01T00:00:00Z</time>
			</trkpt>
			<trkpt lat="33.273663" lon="103.819595">
				<ele>2498.000000</ele>
				<time>1970-01-01T00:00:00Z</time>
			</trkpt>
			<trkpt lat="33.273666" lon="103.819595">
				<ele>2498.000000</ele>
				<time>1970-01-01T00:00:00Z</time>
			</trkpt>
			<trkpt lat="33.273666" lon="103.819595">
				<ele>2498.000000</ele>
				<time>1970-01-01T00:00:00Z</time>
			</trkpt>
			<trkpt lat="33.273670" lon="103.819595">
				<ele>2498.000000</ele>
				<time>1970-01-01T00:00:00Z</time>
			</trkpt>
			<trkpt lat="33.273670" lon="103.819588">
				<ele>2498.000000</ele>
				<time>1970-01-01T00:00:00Z</time>
			</trkpt>
			<trkpt lat="33.273678" lon="103.819588">
				<ele>2498.000000</ele>
				<time>1970-01-01T00:00:00Z</time>
			</trkpt>
			<trkpt lat="33.273678" lon="103.819580">
				<ele>2489.000000</ele>
				<time>1970-01-01T00:00:00Z</time>
			</trkpt>
			<trkpt lat="33.273682" lon="103.819580">
				<ele>2489.000000</ele>
				<time>1970-01-01T00:00:00Z</time>
			</trkpt>
			<trkpt lat="33.273685" lon="103.819580">
				<ele>2489.000000</ele>
				<time>1970-01-01T00:00:00Z</time>
			</trkpt>
			<trkpt lat="33.273685" lon="103.819572">
				<ele>2489.000000</ele>
				<time>1970-01-01T00:00:00Z</time>
			</trkpt>
			<trkpt lat="33.273689" lon="103.819572">
				<ele>2489.000000</ele>
				<time>1970-01-01T00:00:00Z</time>
			</trkpt>
			<trkpt lat="33.273689" lon="103.819565">
				<ele>2489.000000</ele>
				<time>1970-01-01T00:00:00Z</time>
			</trkpt>
			<trkpt lat="33.273689" lon="103.819557">
				<ele>2489.000000</ele>
				<time>1970-01-01T00:00:00Z</time>
			</trkpt>
			<trkpt lat="33.273693" lon="103.819557">
				<ele>2489.000000</ele>
				<time>1970-01-01T00:00:00Z</time>
			</trkpt>
			<trkpt lat="33.273693" lon="103.819557">
				<ele>2489.000000</ele>
				<time>1970-01-01T00:00:00Z</time>
			</trkpt>
			<trkpt lat="33.273697" lon="103.819557">
				<ele>2489.000000</ele>
				<time>1970-01-01T00:00:00Z</time>
			</trkpt>
			<trkpt lat="33.273697" lon="103.819550">
				<ele>2489.000000</ele>
				<time>1970-01-01T00:00:00Z</time>
			</trkpt>
			<trkpt lat="33.273705" lon="103.819550">
				<ele>2489.000000</ele>
				<time>1970-01-01T00:00:00Z</time>
			</trkpt>
			<trkpt lat="33.273705" lon="103.819542">
				<ele>2489.000000</ele>
				<time>1970-01-01T00:00:00Z</time>
			</trkpt>
			<trkpt lat="33.273708" lon="103.819542">
				<ele>2489.000000</ele>
				<time>1970-01-01T00:00:00Z</time>
			</trkpt>
			<trkpt lat="33.273708" lon="103.819534">
				<ele>2489.000000</ele>
				<time>1970-01-01T00:00:00Z</time>
			</trkpt>
			<trkpt lat="33.273712" lon="103.819534">
				<ele>2489.000000</ele>
				<time>1970-01-01T00:00:00Z</time>
			</trkpt>
			<trkpt lat="33.273712" lon="103.819527">
				<ele>2489.000000</ele>
				<time>1970-01-01T00:00:00Z</time>
			</trkpt>
			<trkpt lat="33.273716" lon="103.819527">
				<ele>2489.000000</ele>
				<time>1970-01-01T00:00:00Z</time>
			</trkpt>
			<trkpt lat="33.273716" lon="103.819519">
				<ele>2489.000000</ele>
				<time>1970-01-01T00:00:00Z</time>
			</trkpt>
			<trkpt lat="33.273716" lon="103.819519">
				<ele>2489.000000</ele>
				<time>1970-01-01T00:00:00Z</time>
			</trkpt>
			<trkpt lat="33.273720" lon="103.819519">
				<ele>2489.000000</ele>
				<time>1970-01-01T00:00:00Z</time>
			</trkpt>
			<trkpt lat="33.273727" lon="103.819511">
				<ele>2489.000000</ele>
				<time>1970-01-01T00:00:00Z</time>
			</trkpt>
			<trkpt lat="33.273731" lon="103.819511">
				<ele>2489.000000</ele>
				<time>1970-01-01T00:00:00Z</time>
			</trkpt>
			<trkpt lat="33.273731" lon="103.819504">
				<ele>2489.000000</ele>
				<time>1970-01-01T00:00:00Z</time>
			</trkpt>
			<trkpt lat="33.273735" lon="103.819504">
				<ele>2489.000000</ele>
				<time>1970-01-01T00:00:00Z</time>
			</trkpt>
			<trkpt lat="33.273735" lon="103.819504">
				<ele>2489.000000</ele>
				<time>1970-01-01T00:00:00Z</time>
			</trkpt>
			<trkpt lat="33.273739" lon="103.819504">
				<ele>2489.000000</ele>
				<time>1970-01-01T00:00:00Z</time>
			</trkpt>
			<trkpt lat="33.273739" lon="103.819496">
				<ele>2489.000000</ele>
				<time>1970-01-01T00:00:00Z</time>
			</trkpt>
			<trkpt lat="33.273739" lon="103.819489">
				<ele>2489.000000</ele>
				<time>1970-01-01T00:00:00Z</time>
			</trkpt>
			<trkpt lat="33.273743" lon="103.819489">
				<ele>2489.000000</ele>
				<time>1970-01-01T00:00:00Z</time>
			</trkpt>
			<trkpt lat="33.273743" lon="103.819489">
				<ele>2489.000000</ele>
				<time>1970-01-01T00:00:00Z</time>
			</trkpt>
			<trkpt lat="33.273746" lon="103.819489">
				<ele>2489.000000</ele>
				<time>1970-01-01T00:00:00Z</time>
			</trkpt>
			<trkpt lat="33.273746" lon="103.819481">
				<ele>2489.000000</ele>
				<time>1970-01-01T00:00:00Z</time>
			</trkpt>
			<trkpt lat="33.273754" lon="103.819481">
				<ele>2490.000000</ele>
				<time>1970-01-01T00:00:00Z</time>
			</trkpt>
			<trkpt lat="33.273754" lon="103.819473">
				<ele>2490.000000</ele>
				<time>1970-01-01T00:00:00Z</time>
			</trkpt>
			<trkpt lat="33.273758" lon="103.819473">
				<ele>2490.000000</ele>
				<time>1970-01-01T00:00:00Z</time>
			</trkpt>
			<trkpt lat="33.273758" lon="103.819466">
				<ele>2490.000000</ele>
				<time>1970-01-01T00:00:00Z</time>
			</trkpt>
			<trkpt lat="33.273762" lon="103.819466">
				<ele>2490.000000</ele>
				<time>1970-01-01T00:00:00Z</time>
			</trkpt>
			<trkpt lat="33.273762" lon="103.819466">
				<ele>2490.000000</ele>
				<time>1970-01-01T00:00:00Z</time>
			</trkpt>
			<trkpt lat="33.273766" lon="103.819466">
				<ele>2490.000000</ele>
				<time>1970-01-01T00:00:00Z</time>
			</trkpt>
			<trkpt lat="33.273766" lon="103.819458">
				<ele>2490.000000</ele>
				<time>1970-01-01T00:00:00Z</time>
			</trkpt>
			<trkpt lat="33.273769" lon="103.819458">
				<ele>2490.000000</ele>
				<time>1970-01-01T00:00:00Z</time>
			</trkpt>
			<trkpt lat="33.273769" lon="103.819450">
				<ele>2490.000000</ele>
				<time>1970-01-01T00:00:00Z</time>
			</trkpt>
			<trkpt lat="33.273769" lon="103.819450">
				<ele>2490.000000</ele>
				<time>1970-01-01T00:00:00Z</time>
			</trkpt>
			<trkpt lat="33.273773" lon="103.819450">
				<ele>2490.000000</ele>
				<time>1970-01-01T00:00:00Z</time>
			</trkpt>
			<trkpt lat="33.273773" lon="103.819443">
				<ele>2490.000000</ele>
				<time>1970-01-01T00:00:00Z</time>
			</trkpt>
			<trkpt lat="33.273781" lon="103.819443">
				<ele>2490.000000</ele>
				<time>1970-01-01T00:00:00Z</time>
			</trkpt>
			<trkpt lat="33.273781" lon="103.819435">
				<ele>2490.000000</ele>
				<time>1970-01-01T00:00:00Z</time>
			</trkpt>
			<trkpt lat="33.273785" lon="103.819435">
				<ele>2490.000000</ele>
				<time>1970-01-01T00:00:00Z</time>
			</trkpt>
			<trkpt lat="33.273785" lon="103.819435">
				<ele>2490.000000</ele>
				<time>1970-01-01T00:00:00Z</time>
			</trkpt>
			<trkpt lat="33.273785" lon="103.819427">
				<ele>2490.000000</ele>
				<time>1970-01-01T00:00:00Z</time>
			</trkpt>
			<trkpt lat="33.273788" lon="103.819427">
				<ele>2490.000000</ele>
				<time>1970-01-01T00:00:00Z</time>
			</trkpt>
			<trkpt lat="33.273788" lon="103.819420">
				<ele>2490.000000</ele>
				<time>1970-01-01T00:00:00Z</time>
			</trkpt>
			<trkpt lat="33.273792" lon="103.819420">
				<ele>2490.000000</ele>
				<time>1970-01-01T00:00:00Z</time>
			</trkpt>
			<trkpt lat="33.273796" lon="103.819412">
				<ele>2490.000000</ele>
				<time>1970-01-01T00:00:00Z</time>
			</trkpt>
			<trkpt lat="33.273796" lon="103.819412">
				<ele>2490.000000</ele>
				<time>1970-01-01T00:00:00Z</time>
			</trkpt>
			<trkpt lat="33.273800" lon="103.819412">
				<ele>2490.000000</ele>
				<time>1970-01-01T00:00:00Z</time>
			</trkpt>
			<trkpt lat="33.273800" lon="103.819405">
				<ele>2490.000000</ele>
				<time>1970-01-01T00:00:00Z</time>
			</trkpt>
			<trkpt lat="33.273800" lon="103.819397">
				<ele>2490.000000</ele>
				<time>1970-01-01T00:00:00Z</time>
			</trkpt>
			<trkpt lat="33.273808" lon="103.819397">
				<ele>2490.000000</ele>
				<time>1970-01-01T00:00:00Z</time>
			</trkpt>
			<trkpt lat="33.273808" lon="103.819397">
				<ele>2490.000000</ele>
				<time>1970-01-01T00:00:00Z</time>
			</trkpt>
			<trkpt lat="33.273811" lon="103.819397">
				<ele>2490.000000</ele>
				<time>1970-01-01T00:00:00Z</time>
			</trkpt>
			<trkpt lat="33.273811" lon="103.819389">
				<ele>2490.000000</ele>
				<time>1970-01-01T00:00:00Z</time>
			</trkpt>
			<trkpt lat="33.273815" lon="103.819389">
				<ele>2490.000000</ele>
				<time>1970-01-01T00:00:00Z</time>
			</trkpt>
			<trkpt lat="33.273815" lon="103.819382">
				<ele>2490.000000</ele>
				<time>1970-01-01T00:00:00Z</time>
			</trkpt>
			<trkpt lat="33.273819" lon="103.819382">
				<ele>2490.000000</ele>
				<time>1970-01-01T00:00:00Z</time>
			</trkpt>
			<trkpt lat="33.273819" lon="103.819374">
				<ele>2490.000000</ele>
				<time>1970-01-01T00:00:00Z</time>
			</trkpt>
			<trkpt lat="33.273823" lon="103.819374">
				<ele>2490.000000</ele>
				<time>1970-01-01T00:00:00Z</time>
			</trkpt>
			<trkpt lat="33.273823" lon="103.819366">
				<ele>2490.000000</ele>
				<time>1970-01-01T00:00:00Z</time>
			</trkpt>
			<trkpt lat="33.273830" lon="103.819366">
				<ele>2490.000000</ele>
				<time>1970-01-01T00:00:00Z</time>
			</trkpt>
			<trkpt lat="33.273830" lon="103.819359">
				<ele>2490.000000</ele>
				<time>1970-01-01T00:00:00Z</time>
			</trkpt>
			<trkpt lat="33.273834" lon="103.819359">
				<ele>2490.000000</ele>
				<time>1970-01-01T00:00:00Z</time>
			</trkpt>
			<trkpt lat="33.273834" lon="103.819359">
				<ele>2490.000000</ele>
				<time>1970-01-01T00:00:00Z</time>
			</trkpt>
			<trkpt lat="33.273838" lon="103.819359">
				<ele>2490.000000</ele>
				<time>1970-01-01T00:00:00Z</time>
			</trkpt>
			<trkpt lat="33.273838" lon="103.819351">
				<ele>2490.000000</ele>
				<time>1970-01-01T00:00:00Z</time>
			</trkpt>
			<trkpt lat="33.273842" lon="103.819351">
				<ele>2490.000000</ele>
				<time>1970-01-01T00:00:00Z</time>
			</trkpt>
			<trkpt lat="33.273842" lon="103.819344">
				<ele>2490.000000</ele>
				<time>1970-01-01T00:00:00Z</time>
			</trkpt>
			<trkpt lat="33.273846" lon="103.819344">
				<ele>2490.000000</ele>
				<time>1970-01-01T00:00:00Z</time>
			</trkpt>
			<trkpt lat="33.273846" lon="103.819344">
				<ele>2490.000000</ele>
				<time>1970-01-01T00:00:00Z</time>
			</trkpt>
			<trkpt lat="33.273849" lon="103.819344">
				<ele>2490.000000</ele>
				<time>1970-01-01T00:00:00Z</time>
			</trkpt>
			<trkpt lat="33.273849" lon="103.819336">
				<ele>2490.000000</ele>
				<time>1970-01-01T00:00:00Z</time>
			</trkpt>
			<trkpt lat="33.273849" lon="103.819328">
				<ele>2490.000000</ele>
				<time>1970-01-01T00:00:00Z</time>
			</trkpt>
			<trkpt lat="33.273857" lon="103.819328">
				<ele>2490.000000</ele>
				<time>1970-01-01T00:00:00Z</time>
			</trkpt>
			<trkpt lat="33.273857" lon="103.819321">
				<ele>2490.000000</ele>
				<time>1970-01-01T00:00:00Z</time>
			</trkpt>
			<trkpt lat="33.273861" lon="103.819321">
				<ele>2490.000000</ele>
				<time>1970-01-01T00:00:00Z</time>
			</trkpt>
			<trkpt lat="33.273861" lon="103.819321">
				<ele>2490.000000</ele>
				<time>1970-01-01T00:00:00Z</time>
			</trkpt>
			<trkpt lat="33.273861" lon="103.819313">
				<ele>2490.000000</ele>
				<time>1970-01-01T00:00:00Z</time>
			</trkpt>
			<trkpt lat="33.273865" lon="103.819313">
				<ele>2490.000000</ele>
				<time>1970-01-01T00:00:00Z</time>
			</trkpt>
			<trkpt lat="33.273865" lon="103.819305">
				<ele>2484.000000</ele>
				<time>1970-01-01T00:00:00Z</time>
			</trkpt>
			<trkpt lat="33.273869" lon="103.819305">
				<ele>2484.000000</ele>
				<time>1970-01-01T00:00:00Z</time>
			</trkpt>
			<trkpt lat="33.273872" lon="103.819305">
				<ele>2484.000000</ele>
				<time>1970-01-01T00:00:00Z</time>
			</trkpt>
			<trkpt lat="33.273872" lon="103.819298">
				<ele>2484.000000</ele>
				<time>1970-01-01T00:00:00Z</time>
			</trkpt>
			<trkpt lat="33.273876" lon="103.819298">
				<ele>2484.000000</ele>
				<time>1970-01-01T00:00:00Z</time>
			</trkpt>
			<trkpt lat="33.273876" lon="103.819290">
				<ele>2484.000000</ele>
				<time>1970-01-01T00:00:00Z</time>
			</trkpt>
			<trkpt lat="33.273876" lon="103.819290">
				<ele>2484.000000</ele>
				<time>1970-01-01T00:00:00Z</time>
			</trkpt>
			<trkpt lat="33.273884" lon="103.819290">
				<ele>2484.000000</ele>
				<time>1970-01-01T00:00:00Z</time>
			</trkpt>
			<trkpt lat="33.273884" lon="103.819283">
				<ele>2484.000000</ele>
				<time>1970-01-01T00:00:00Z</time>
			</trkpt>
			<trkpt lat="33.273888" lon="103.819283">
				<ele>2484.000000</ele>
				<time>1970-01-01T00:00:00Z</time>
			</trkpt>
			<trkpt lat="33.273891" lon="103.819275">
				<ele>2484.000000</ele>
				<time>1970-01-01T00:00:00Z</time>
			</trkpt>
			<trkpt lat="33.273891" lon="103.819267">
				<ele>2484.000000</ele>
				<time>1970-01-01T00:00:00Z</time>
			</trkpt>
			<trkpt lat="33.273895" lon="103.819267">
				<ele>2484.000000</ele>
				<time>1970-01-01T00:00:00Z</time>
			</trkpt>
			<trkpt lat="33.273895" lon="103.819260">
				<ele>2484.000000</ele>
				<time>1970-01-01T00:00:00Z</time>
			</trkpt>
			<trkpt lat="33.273899" lon="103.819260">
				<ele>2484.000000</ele>
				<time>1970-01-01T00:00:00Z</time>
			</trkpt>
			<trkpt lat="33.273899" lon="103.819252">
				<ele>2484.000000</ele>
				<time>1970-01-01T00:00:00Z</time>
			</trkpt>
			<trkpt lat="33.273899" lon="103.819252">
				<ele>2484.000000</ele>
				<time>1970-01-01T00:00:00Z</time>
			</trkpt>
			<trkpt lat="33.273907" lon="103.819252">
				<ele>2484.000000</ele>
				<time>1970-01-01T00:00:00Z</time>
			</trkpt>
			<trkpt lat="33.273907" lon="103.819244">
				<ele>2484.000000</ele>
				<time>1970-01-01T00:00:00Z</time>
			</trkpt>
			<trkpt lat="33.273911" lon="103.819244">
				<ele>2484.000000</ele>
				<time>1970-01-01T00:00:00Z</time>
			</trkpt>
			<trkpt lat="33.273911" lon="103.819237">
				<ele>2484.000000</ele>
				<time>1970-01-01T00:00:00Z</time>
			</trkpt>
			<trkpt lat="33.273914" lon="103.819237">
				<ele>2484.000000</ele>
				<time>1970-01-01T00:00:00Z</time>
			</trkpt>
			<trkpt lat="33.273914" lon="103.819237">
				<ele>2484.000000</ele>
				<time>1970-01-01T00:00:00Z</time>
			</trkpt>
			<trkpt lat="33.273914" lon="103.819229">
				<ele>2484.000000</ele>
				<time>1970-01-01T00:00:00Z</time>
			</trkpt>
			<trkpt lat="33.273918" lon="103.819229">
				<ele>2484.000000</ele>
				<time>1970-01-01T00:00:00Z</time>
			</trkpt>
			<trkpt lat="33.273918" lon="103.819221">
				<ele>2484.000000</ele>
				<time>1970-01-01T00:00:00Z</time>
			</trkpt>
			<trkpt lat="33.273922" lon="103.819221">
				<ele>2484.000000</ele>
				<time>1970-01-01T00:00:00Z</time>
			</trkpt>
			<trkpt lat="33.273922" lon="103.819214">
				<ele>2484.000000</ele>
				<time>1970-01-01T00:00:00Z</time>
			</trkpt>
			<trkpt lat="33.273926" lon="103.819214">
				<ele>2484.000000</ele>
				<time>1970-01-01T00:00:00Z</time>
			</trkpt>
			<trkpt lat="33.273926" lon="103.819214">
				<ele>2484.000000</ele>
				<time>1970-01-01T00:00:00Z</time>
			</trkpt>
			<trkpt lat="33.273926" lon="103.819206">
				<ele>2484.000000</ele>
				<time>1970-01-01T00:00:00Z</time>
			</trkpt>
			<trkpt lat="33.273933" lon="103.819206">
				<ele>2484.000000</ele>
				<time>1970-01-01T00:00:00Z</time>
			</trkpt>
			<trkpt lat="33.273933" lon="103.819199">
				<ele>2484.000000</ele>
				<time>1970-01-01T00:00:00Z</time>
			</trkpt>
			<trkpt lat="33.273937" lon="103.819199">
				<ele>2484.000000</ele>
				<time>1970-01-01T00:00:00Z</time>
			</trkpt>
			<trkpt lat="33.273937" lon="103.819191">
				<ele>2484.000000</ele>
				<time>1970-01-01T00:00:00Z</time>
			</trkpt>
			<trkpt lat="33.273941" lon="103.819191">
				<ele>2484.000000</ele>
				<time>1970-01-01T00:00:00Z</time>
			</trkpt>
			<trkpt lat="33.273941" lon="103.819183">
				<ele>2484.000000</ele>
				<time>1970-01-01T00:00:00Z</time>
			</trkpt>
			<trkpt lat="33.273945" lon="103.819176">
				<ele>2484.000000</ele>
				<time>1970-01-01T00:00:00Z</time>
			</trkpt>
			<trkpt lat="33.273945" lon="103.819176">
				<ele>2484.000000</ele>
				<time>1970-01-01T00:00:00Z</time>
			</trkpt>
			<trkpt lat="33.273949" lon="103.819176">
				<ele>2484.000000</ele>
				<time>1970-01-01T00:00:00Z</time>
			</trkpt>
			<trkpt lat="33.273949" lon="103.819168">
				<ele>2484.000000</ele>
				<time>1970-01-01T00:00:00Z</time>
			</trkpt>
			<trkpt lat="33.273952" lon="103.819168">
				<ele>2484.000000</ele>
				<time>1970-01-01T00:00:00Z</time>
			</trkpt>
			<trkpt lat="33.273952" lon="103.819160">
				<ele>2484.000000</ele>
				<time>1970-01-01T00:00:00Z</time>
			</trkpt>
			<trkpt lat="33.273952" lon="103.819160">
				<ele>2484.000000</ele>
				<time>1970-01-01T00:00:00Z</time>
			</trkpt>
			<trkpt lat="33.273960" lon="103.819160">
				<ele>2484.000000</ele>
				<time>1970-01-01T00:00:00Z</time>
			</trkpt>
			<trkpt lat="33.273964" lon="103.819153">
				<ele>2484.000000</ele>
				<time>1970-01-01T00:00:00Z</time>
			</trkpt>
			<trkpt lat="33.273964" lon="103.819145">
				<ele>2484.000000</ele>
				<time>1970-01-01T00:00:00Z</time>
			</trkpt>
			<trkpt lat="33.273968" lon="103.819145">
				<ele>2484.000000</ele>
				<time>1970-01-01T00:00:00Z</time>
			</trkpt>
			<trkpt lat="33.273968" lon="103.819145">
				<ele>2484.000000</ele>
				<time>1970-01-01T00:00:00Z</time>
			</trkpt>
			<trkpt lat="33.273968" lon="103.819138">
				<ele>2484.000000</ele>
				<time>1970-01-01T00:00:00Z</time>
			</trkpt>
			<trkpt lat="33.273972" lon="103.819138">
				<ele>2484.000000</ele>
				<time>1970-01-01T00:00:00Z</time>
			</trkpt>
			<trkpt lat="33.273972" lon="103.819130">
				<ele>2484.000000</ele>
				<time>1970-01-01T00:00:00Z</time>
			</trkpt>
			<trkpt lat="33.273975" lon="103.819122">
				<ele>2484.000000</ele>
				<time>1970-01-01T00:00:00Z</time>
			</trkpt>
			<trkpt lat="33.273975" lon="103.819122">
				<ele>2484.000000</ele>
				<time>1970-01-01T00:00:00Z</time>
			</trkpt>
			<trkpt lat="33.273975" lon="103.819115">
				<ele>2484.000000</ele>
				<time>1970-01-01T00:00:00Z</time>
			</trkpt>
			<trkpt lat="33.273983" lon="103.819115">
				<ele>2484.000000</ele>
				<time>1970-01-01T00:00:00Z</time>
			</trkpt>
			<trkpt lat="33.273983" lon="103.819107">
				<ele>2484.000000</ele>
				<time>1970-01-01T00:00:00Z</time>
			</trkpt>
			<trkpt lat="33.273987" lon="103.819107">
				<ele>2484.000000</ele>
				<time>1970-01-01T00:00:00Z</time>
			</trkpt>
			<trkpt lat="33.273987" lon="103.819107">
				<ele>2484.000000</ele>
				<time>1970-01-01T00:00:00Z</time>
			</trkpt>
			<trkpt lat="33.273991" lon="103.819107">
				<ele>2484.000000</ele>
				<time>1970-01-01T00:00:00Z</time>
			</trkpt>
			<trkpt lat="33.273991" lon="103.819099">
				<ele>2484.000000</ele>
				<time>1970-01-01T00:00:00Z</time>
			</trkpt>
			<trkpt lat="33.273991" lon="103.819092">
				<ele>2484.000000</ele>
				<time>1970-01-01T00:00:00Z</time>
			</trkpt>
			<trkpt lat="33.273994" lon="103.819092">
				<ele>2484.000000</ele>
				<time>1970-01-01T00:00:00Z</time>
			</trkpt>
			<trkpt lat="33.273994" lon="103.819092">
				<ele>2484.000000</ele>
				<time>1970-01-01T00:00:00Z</time>
			</trkpt>
			<trkpt lat="33.273994" lon="103.819084">
				<ele>2484.000000</ele>
				<time>1970-01-01T00:00:00Z</time>
			</trkpt>
			<trkpt lat="33.273998" lon="103.819084">
				<ele>2484.000000</ele>
				<time>1970-01-01T00:00:00Z</time>
			</trkpt>
			<trkpt lat="33.273998" lon="103.819077">
				<ele>2484.000000</ele>
				<time>1970-01-01T00:00:00Z</time>
			</trkpt>
			<trkpt lat="33.274002" lon="103.819077">
				<ele>2484.000000</ele>
				<time>1970-01-01T00:00:00Z</time>
			</trkpt>
			<trkpt lat="33.274002" lon="103.819069">
				<ele>2484.000000</ele>
				<time>1970-01-01T00:00:00Z</time>
			</trkpt>
			<trkpt lat="33.274010" lon="103.819069">
				<ele>2484.000000</ele>
				<time>1970-01-01T00:00:00Z</time>
			</trkpt>
			<trkpt lat="33.274010" lon="103.819069">
				<ele>2484.000000</ele>
				<time>1970-01-01T00:00:00Z</time>
			</trkpt>
			<trkpt lat="33.274010" lon="103.819061">
				<ele>2484.000000</ele>
				<time>1970-01-01T00:00:00Z</time>
			</trkpt>
			<trkpt lat="33.274014" lon="103.819061">
				<ele>2484.000000</ele>
				<time>1970-01-01T00:00:00Z</time>
			</trkpt>
			<trkpt lat="33.274014" lon="103.819054">
				<ele>2484.000000</ele>
				<time>1970-01-01T00:00:00Z</time>
			</trkpt>
			<trkpt lat="33.274014" lon="103.819054">
				<ele>2484.000000</ele>
				<time>1970-01-01T00:00:00Z</time>
			</trkpt>
			<trkpt lat="33.274017" lon="103.819054">
				<ele>2484.000000</ele>
				<time>1970-01-01T00:00:00Z</time>
			</trkpt>
			<trkpt lat="33.274021" lon="103.819046">
				<ele>2484.000000</ele>
				<time>1970-01-01T00:00:00Z</time>
			</trkpt>
			<trkpt lat="33.274021" lon="103.819038">
				<ele>2484.000000</ele>
				<time>1970-01-01T00:00:00Z</time>
			</trkpt>
			<trkpt lat="33.274025" lon="103.819038">
				<ele>2484.000000</ele>
				<time>1970-01-01T00:00:00Z</time>
			</trkpt>
			<trkpt lat="33.274025" lon="103.819031">
				<ele>2484.000000</ele>
				<time>1970-01-01T00:00:00Z</time>
			</trkpt>
			<trkpt lat="33.274025" lon="103.819031">
				<ele>2484.000000</ele>
				<time>1970-01-01T00:00:00Z</time>
			</trkpt>
			<trkpt lat="33.274029" lon="103.819031">
				<ele>2495.000000</ele>
				<time>1970-01-01T00:00:00Z</time>
			</trkpt>
			<trkpt lat="33.274029" lon="103.819023">
				<ele>2483.000000</ele>
				<time>1970-01-01T00:00:00Z</time>
			</trkpt>
			<trkpt lat="33.274036" lon="103.819023">
				<ele>2483.000000</ele>
				<time>1970-01-01T00:00:00Z</time>
			</trkpt>
			<trkpt lat="33.274036" lon="103.819016">
				<ele>2483.000000</ele>
				<time>1970-01-01T00:00:00Z</time>
			</trkpt>
			<trkpt lat="33.274036" lon="103.819016">
				<ele>2483.000000</ele>
				<time>1970-01-01T00:00:00Z</time>
			</trkpt>
			<trkpt lat="33.274040" lon="103.819016">
				<ele>2483.000000</ele>
				<time>1970-01-01T00:00:00Z</time>
			</trkpt>
			<trkpt lat="33.274040" lon="103.819008">
				<ele>2483.000000</ele>
				<time>1970-01-01T00:00:00Z</time>
			</trkpt>
			<trkpt lat="33.274044" lon="103.819008">
				<ele>2483.000000</ele>
				<time>1970-01-01T00:00:00Z</time>
			</trkpt>
			<trkpt lat="33.274044" lon="103.819000">
				<ele>2483.000000</ele>
				<time>1970-01-01T00:00:00Z</time>
			</trkpt>
			<trkpt lat="33.274044" lon="103.819000">
				<ele>2483.000000</ele>
				<time>1970-01-01T00:00:00Z</time>
			</trkpt>
			<trkpt lat="33.274048" lon="103.819000">
				<ele>2483.000000</ele>
				<time>1970-01-01T00:00:00Z</time>
			</trkpt>
			<trkpt lat="33.274048" lon="103.818993">
				<ele>2483.000000</ele>
				<time>1970-01-01T00:00:00Z</time>
			</trkpt>
			<trkpt lat="33.274052" lon="103.818985">
				<ele>2483.000000</ele>
				<time>1970-01-01T00:00:00Z</time>
			</trkpt>
			<trkpt lat="33.274052" lon="103.818977">
				<ele>2483.000000</ele>
				<time>1970-01-01T00:00:00Z</time>
			</trkpt>
			<trkpt lat="33.274059" lon="103.818977">
				<ele>2483.000000</ele>
				<time>1970-01-01T00:00:00Z</time>
			</trkpt>
			<trkpt lat="33.274059" lon="103.818977">
				<ele>2483.000000</ele>
				<time>1970-01-01T00:00:00Z</time>
			</trkpt>
			<trkpt lat="33.274059" lon="103.818970">
				<ele>2483.000000</ele>
				<time>1970-01-01T00:00:00Z</time>
			</trkpt>
			<trkpt lat="33.274063" lon="103.818970">
				<ele>2483.000000</ele>
				<time>1970-01-01T00:00:00Z</time>
			</trkpt>
			<trkpt lat="33.274063" lon="103.818962">
				<ele>2483.000000</ele>
				<time>1970-01-01T00:00:00Z</time>
			</trkpt>
			<trkpt lat="33.274063" lon="103.818962">
				<ele>2483.000000</ele>
				<time>1970-01-01T00:00:00Z</time>
			</trkpt>
			<trkpt lat="33.274067" lon="103.818962">
				<ele>2483.000000</ele>
				<time>1970-01-01T00:00:00Z</time>
			</trkpt>
			<trkpt lat="33.274067" lon="103.818954">
				<ele>2483.000000</ele>
				<time>1970-01-01T00:00:00Z</time>
			</trkpt>
			<trkpt lat="33.274071" lon="103.818954">
				<ele>2483.000000</ele>
				<time>1970-01-01T00:00:00Z</time>
			</trkpt>
			<trkpt lat="33.274071" lon="103.818947">
				<ele>2483.000000</ele>
				<time>1970-01-01T00:00:00Z</time>
			</trkpt>
			<trkpt lat="33.274075" lon="103.818947">
				<ele>2483.000000</ele>
				<time>1970-01-01T00:00:00Z</time>
			</trkpt>
			<trkpt lat="33.274075" lon="103.818947">
				<ele>2483.000000</ele>
				<time>1970-01-01T00:00:00Z</time>
			</trkpt>
			<trkpt lat="33.274075" lon="103.818939">
				<ele>2483.000000</ele>
				<time>1970-01-01T00:00:00Z</time>
			</trkpt>
			<trkpt lat="33.274078" lon="103.818939">
				<ele>2483.000000</ele>
				<time>1970-01-01T00:00:00Z</time>
			</trkpt>
			<trkpt lat="33.274078" lon="103.818932">
				<ele>2483.000000</ele>
				<time>1970-01-01T00:00:00Z</time>
			</trkpt>
			<trkpt lat="33.274078" lon="103.818924">
				<ele>2483.000000</ele>
				<time>1970-01-01T00:00:00Z</time>
			</trkpt>
			<trkpt lat="33.274086" lon="103.818924">
				<ele>2483.000000</ele>
				<time>1970-01-01T00:00:00Z</time>
			</trkpt>
			<trkpt lat="33.274086" lon="103.818924">
				<ele>2483.000000</ele>
				<time>1970-01-01T00:00:00Z</time>
			</trkpt>
			<trkpt lat="33.274086" lon="103.818916">
				<ele>2483.000000</ele>
				<time>1970-01-01T00:00:00Z</time>
			</trkpt>
			<trkpt lat="33.274090" lon="103.818916">
				<ele>2483.000000</ele>
				<time>1970-01-01T00:00:00Z</time>
			</trkpt>
			<trkpt lat="33.274094" lon="103.818916">
				<ele>2483.000000</ele>
				<time>1970-01-01T00:00:00Z</time>
			</trkpt>
			<trkpt lat="33.274094" lon="103.818909">
				<ele>2483.000000</ele>
				<time>1970-01-01T00:00:00Z</time>
			</trkpt>
			<trkpt lat="33.274094" lon="103.818909">
				<ele>2483.000000</ele>
				<time>1970-01-01T00:00:00Z</time>
			</trkpt>
			<trkpt lat="33.274097" lon="103.818909">
				<ele>2483.000000</ele>
				<time>1970-01-01T00:00:00Z</time>
			</trkpt>
			<trkpt lat="33.274097" lon="103.818901">
				<ele>2483.000000</ele>
				<time>1970-01-01T00:00:00Z</time>
			</trkpt>
			<trkpt lat="33.274097" lon="103.818893">
				<ele>2483.000000</ele>
				<time>1970-01-01T00:00:00Z</time>
			</trkpt>
			<trkpt lat="33.274101" lon="103.818893">
				<ele>2483.000000</ele>
				<time>1970-01-01T00:00:00Z</time>
			</trkpt>
			<trkpt lat="33.274101" lon="103.818893">
				<ele>2483.000000</ele>
				<time>1970-01-01T00:00:00Z</time>
			</trkpt>
			<trkpt lat="33.274105" lon="103.818893">
				<ele>2483.000000</ele>
				<time>1970-01-01T00:00:00Z</time>
			</trkpt>
			<trkpt lat="33.274105" lon="103.818886">
				<ele>2483.000000</ele>
				<time>1970-01-01T00:00:00Z</time>
			</trkpt>
			<trkpt lat="33.274113" lon="103.818886">
				<ele>2483.000000</ele>
				<time>1970-01-01T00:00:00Z</time>
			</trkpt>
			<trkpt lat="33.274113" lon="103.818878">
				<ele>2483.000000</ele>
				<time>1970-01-01T00:00:00Z</time>
			</trkpt>
			<trkpt lat="33.274113" lon="103.818871">
				<ele>2483.000000</ele>
				<time>1970-01-01T00:00:00Z</time>
			</trkpt>
			<trkpt lat="33.274113" lon="103.818871">
				<ele>2483.000000</ele>
				<time>1970-01-01T00:00:00Z</time>
			</trkpt>
			<trkpt lat="33.274117" lon="103.818871">
				<ele>2483.000000</ele>
				<time>1970-01-01T00:00:00Z</time>
			</trkpt>
			<trkpt lat="33.274117" lon="103.818863">
				<ele>2483.000000</ele>
				<time>1970-01-01T00:00:00Z</time>
			</trkpt>
			<trkpt lat="33.274120" lon="103.818855">
				<ele>2483.000000</ele>
				<time>1970-01-01T00:00:00Z</time>
			</trkpt>
			<trkpt lat="33.274120" lon="103.818855">
				<ele>2483.000000</ele>
				<time>1970-01-01T00:00:00Z</time>
			</trkpt>
			<trkpt lat="33.274120" lon="103.818848">
				<ele>2483.000000</ele>
				<time>1970-01-01T00:00:00Z</time>
			</trkpt>
			<trkpt lat="33.274124" lon="103.818848">
				<ele>2483.000000</ele>
				<time>1970-01-01T00:00:00Z</time>
			</trkpt>
			<trkpt lat="33.274124" lon="103.818840">
				<ele>2483.000000</ele>
				<time>1970-01-01T00:00:00Z</time>
			</trkpt>
			<trkpt lat="33.274128" lon="103.818840">
				<ele>2483.000000</ele>
				<time>1970-01-01T00:00:00Z</time>
			</trkpt>
			<trkpt lat="33.274128" lon="103.818832">
				<ele>2483.000000</ele>
				<time>1970-01-01T00:00:00Z</time>
			</trkpt>
			<trkpt lat="33.274132" lon="103.818832">
				<ele>2483.000000</ele>
				<time>1970-01-01T00:00:00Z</time>
			</trkpt>
			<trkpt lat="33.274132" lon="103.818825">
				<ele>2483.000000</ele>
				<time>1970-01-01T00:00:00Z</time>
			</trkpt>
			<trkpt lat="33.274139" lon="103.818825">
				<ele>2483.000000</ele>
				<time>1970-01-01T00:00:00Z</time>
			</trkpt>
			<trkpt lat="33.274139" lon="103.818817">
				<ele>2483.000000</ele>
				<time>1970-01-01T00:00:00Z</time>
			</trkpt>
			<trkpt lat="33.274139" lon="103.818817">
				<ele>2483.000000</ele>
				<time>1970-01-01T00:00:00Z</time>
			</trkpt>
			<trkpt lat="33.274143" lon="103.818817">
				<ele>2483.000000</ele>
				<time>1970-01-01T00:00:00Z</time>
			</trkpt>
			<trkpt lat="33.274143" lon="103.818810">
				<ele>2483.000000</ele>
				<time>1970-01-01T00:00:00Z</time>
			</trkpt>
			<trkpt lat="33.274143" lon="103.818802">
				<ele>2483.000000</ele>
				<time>1970-01-01T00:00:00Z</time>
			</trkpt>
			<trkpt lat="33.274147" lon="103.818802">
				<ele>2483.000000</ele>
				<time>1970-01-01T00:00:00Z</time>
			</trkpt>
			<trkpt lat="33.274151" lon="103.818802">
				<ele>2483.000000</ele>
				<time>1970-01-01T00:00:00Z</time>
			</trkpt>
			<trkpt lat="33.274151" lon="103.818802">
				<ele>2483.000000</ele>
				<time>1970-01-01T00:00:00Z</time>
			</trkpt>
			<trkpt lat="33.274151" lon="103.818794">
				<ele>2483.000000</ele>
				<time>1970-01-01T00:00:00Z</time>
			</trkpt>
			<trkpt lat="33.274151" lon="103.818787">
				<ele>2483.000000</ele>
				<time>1970-01-01T00:00:00Z</time>
			</trkpt>
			<trkpt lat="33.274155" lon="103.818787">
				<ele>2483.000000</ele>
				<time>1970-01-01T00:00:00Z</time>
			</trkpt>
			<trkpt lat="33.274155" lon="103.818779">
				<ele>2483.000000</ele>
				<time>1970-01-01T00:00:00Z</time>
			</trkpt>
			<trkpt lat="33.274162" lon="103.818779">
				<ele>2483.000000</ele>
				<time>1970-01-01T00:00:00Z</time>
			</trkpt>
			<trkpt lat="33.274162" lon="103.818779">
				<ele>2483.000000</ele>
				<time>1970-01-01T00:00:00Z</time>
			</trkpt>
			<trkpt lat="33.274162" lon="103.818771">
				<ele>2483.000000</ele>
				<time>1970-01-01T00:00:00Z</time>
			</trkpt>
			<trkpt lat="33.274166" lon="103.818771">
				<ele>2483.000000</ele>
				<time>1970-01-01T00:00:00Z</time>
			</trkpt>
			<trkpt lat="33.274166" lon="103.818764">
				<ele>2483.000000</ele>
				<time>1970-01-01T00:00:00Z</time>
			</trkpt>
			<trkpt lat="33.274170" lon="103.818764">
				<ele>2483.000000</ele>
				<time>1970-01-01T00:00:00Z</time>
			</trkpt>
			<trkpt lat="33.274170" lon="103.818764">
				<ele>2483.000000</ele>
				<time>1970-01-01T00:00:00Z</time>
			</trkpt>
			<trkpt lat="33.274170" lon="103.818756">
				<ele>2483.000000</ele>
				<time>1970-01-01T00:00:00Z</time>
			</trkpt>
			<trkpt lat="33.274174" lon="103.818756">
				<ele>2483.000000</ele>
				<time>1970-01-01T00:00:00Z</time>
			</trkpt>
			<trkpt lat="33.274174" lon="103.818748">
				<ele>2478.000000</ele>
				<time>1970-01-01T00:00:00Z</time>
			</trkpt>
			<trkpt lat="33.274178" lon="103.818748">
				<ele>2478.000000</ele>
				<time>1970-01-01T00:00:00Z</time>
			</trkpt>
			<trkpt lat="33.274178" lon="103.818748">
				<ele>2478.000000</ele>
				<time>1970-01-01T00:00:00Z</time>
			</trkpt>
			<trkpt lat="33.274178" lon="103.818741">
				<ele>2478.000000</ele>
				<time>1970-01-01T00:00:00Z</time>
			</trkpt>
			<trkpt lat="33.274181" lon="103.818741">
				<ele>2478.000000</ele>
				<time>1970-01-01T00:00:00Z</time>
			</trkpt>
			<trkpt lat="33.274181" lon="103.818733">
				<ele>2478.000000</ele>
				<time>1970-01-01T00:00:00Z</time>
			</trkpt>
			<trkpt lat="33.274189" lon="103.818733">
				<ele>2478.000000</ele>
				<time>1970-01-01T00:00:00Z</time>
			</trkpt>
			<trkpt lat="33.274189" lon="103.818726">
				<ele>2478.000000</ele>
				<time>1970-01-01T00:00:00Z</time>
			</trkpt>
			<trkpt lat="33.274193" lon="103.818726">
				<ele>2478.000000</ele>
				<time>1970-01-01T00:00:00Z</time>
			</trkpt>
			<trkpt lat="33.274193" lon="103.818718">
				<ele>2478.000000</ele>
				<time>1970-01-01T00:00:00Z</time>
			</trkpt>
			<trkpt lat="33.274197" lon="103.818718">
				<ele>2478.000000</ele>
				<time>1970-01-01T00:00:00Z</time>
			</trkpt>
			<trkpt lat="33.274197" lon="103.818710">
				<ele>2478.000000</ele>
				<time>1970-01-01T00:00:00Z</time>
			</trkpt>
			<trkpt lat="33.274197" lon="103.818710">
				<ele>2478.000000</ele>
				<time>1970-01-01T00:00:00Z</time>
			</trkpt>
			<trkpt lat="33.274200" lon="103.818710">
				<ele>2478.000000</ele>
				<time>1970-01-01T00:00:00Z</time>
			</trkpt>
			<trkpt lat="33.274204" lon="103.818710">
				<ele>2478.000000</ele>
				<time>1970-01-01T00:00:00Z</time>
			</trkpt>
			<trkpt lat="33.274204" lon="103.818703">
				<ele>2478.000000</ele>
				<time>1970-01-01T00:00:00Z</time>
			</trkpt>
			<trkpt lat="33.274204" lon="103.818695">
				<ele>2478.000000</ele>
				<time>1970-01-01T00:00:00Z</time>
			</trkpt>
			<trkpt lat="33.274208" lon="103.818695">
				<ele>2478.000000</ele>
				<time>1970-01-01T00:00:00Z</time>
			</trkpt>
			<trkpt lat="33.274208" lon="103.818687">
				<ele>2478.000000</ele>
				<time>1970-01-01T00:00:00Z</time>
			</trkpt>
			<trkpt lat="33.274216" lon="103.818687">
				<ele>2478.000000</ele>
				<time>1970-01-01T00:00:00Z</time>
			</trkpt>
			<trkpt lat="33.274216" lon="103.818687">
				<ele>2478.000000</ele>
				<time>1970-01-01T00:00:00Z</time>
			</trkpt>
			<trkpt lat="33.274220" lon="103.818687">
				<ele>2478.000000</ele>
				<time>1970-01-01T00:00:00Z</time>
			</trkpt>
			<trkpt lat="33.274220" lon="103.818680">
				<ele>2478.000000</ele>
				<time>1970-01-01T00:00:00Z</time>
			</trkpt>
			<trkpt lat="33.274220" lon="103.818672">
				<ele>2478.000000</ele>
				<time>1970-01-01T00:00:00Z</time>
			</trkpt>
			<trkpt lat="33.274223" lon="103.818672">
				<ele>2478.000000</ele>
				<time>1970-01-01T00:00:00Z</time>
			</trkpt>
			<trkpt lat="33.274223" lon="103.818672">
				<ele>2478.000000</ele>
				<time>1970-01-01T00:00:00Z</time>
			</trkpt>
			<trkpt lat="33.274227" lon="103.818672">
				<ele>2478.000000</ele>
				<time>1970-01-01T00:00:00Z</time>
			</trkpt>
			<trkpt lat="33.274227" lon="103.818665">
				<ele>2478.000000</ele>
				<time>1970-01-01T00:00:00Z</time>
			</trkpt>
			<trkpt lat="33.274231" lon="103.818665">
				<ele>2478.000000</ele>
				<time>1970-01-01T00:00:00Z</time>
			</trkpt>
			<trkpt lat="33.274231" lon="103.818657">
				<ele>2478.000000</ele>
				<time>1970-01-01T00:00:00Z</time>
			</trkpt>
			<trkpt lat="33.274239" lon="103.818657">
				<ele>2478.000000</ele>
				<time>1970-01-01T00:00:00Z</time>
			</trkpt>
			<trkpt lat="33.274239" lon="103.818649">
				<ele>2478.000000</ele>
				<time>1970-01-01T00:00:00Z</time>
			</trkpt>
			<trkpt lat="33.274242" lon="103.818649">
				<ele>2478.000000</ele>
				<time>1970-01-01T00:00:00Z</time>
			</trkpt>
			<trkpt lat="33.274242" lon="103.818642">
				<ele>2478.000000</ele>
				<time>1970-01-01T00:00:00Z</time>
			</trkpt>
			<trkpt lat="33.274246" lon="103.818642">
				<ele>2478.000000</ele>
				<time>1970-01-01T00:00:00Z</time>
			</trkpt>
			<trkpt lat="33.274246" lon="103.818634">
				<ele>2478.000000</ele>
				<time>1970-01-01T00:00:00Z</time>
			</trkpt>
			<trkpt lat="33.274246" lon="103.818634">
				<ele>2478.000000</ele>
				<time>1970-01-01T00:00:00Z</time>
			</trkpt>
			<trkpt lat="33.274250" lon="103.818634">
				<ele>2478.000000</ele>
				<time>1970-01-01T00:00:00Z</time>
			</trkpt>
			<trkpt lat="33.274250" lon="103.818626">
				<ele>2478.000000</ele>
				<time>1970-01-01T00:00:00Z</time>
			</trkpt>
			<trkpt lat="33.274254" lon="103.818626">
				<ele>2478.000000</ele>
				<time>1970-01-01T00:00:00Z</time>
			</trkpt>
			<trkpt lat="33.274254" lon="103.818619">
				<ele>2478.000000</ele>
				<time>1970-01-01T00:00:00Z</time>
			</trkpt>
			<trkpt lat="33.274258" lon="103.818619">
				<ele>2478.000000</ele>
				<time>1970-01-01T00:00:00Z</time>
			</trkpt>
			<trkpt lat="33.274258" lon="103.818619">
				<ele>2478.000000</ele>
				<time>1970-01-01T00:00:00Z</time>
			</trkpt>
			<trkpt lat="33.274265" lon="103.818619">
				<ele>2478.000000</ele>
				<time>1970-01-01T00:00:00Z</time>
			</trkpt>
			<trkpt lat="33.274265" lon="103.818611">
				<ele>2478.000000</ele>
				<time>1970-01-01T00:00:00Z</time>
			</trkpt>
			<trkpt lat="33.274265" lon="103.818604">
				<ele>2478.000000</ele>
				<time>1970-01-01T00:00:00Z</time>
			</trkpt>
			<trkpt lat="33.274269" lon="103.818604">
				<ele>2478.000000</ele>
				<time>1970-01-01T00:00:00Z</time>
			</trkpt>
			<trkpt lat="33.274269" lon="103.818604">
				<ele>2478.000000</ele>
				<time>1970-01-01T00:00:00Z</time>
			</trkpt>
			<trkpt lat="33.274273" lon="103.818604">
				<ele>2478.000000</ele>
				<time>1970-01-01T00:00:00Z</time>
			</trkpt>
			<trkpt lat="33.274273" lon="103.818596">
				<ele>2478.000000</ele>
				<time>1970-01-01T00:00:00Z</time>
			</trkpt>
			<trkpt lat="33.274277" lon="103.818596">
				<ele>2478.000000</ele>
				<time>1970-01-01T00:00:00Z</time>
			</trkpt>
			<trkpt lat="33.274277" lon="103.818588">
				<ele>2478.000000</ele>
				<time>1970-01-01T00:00:00Z</time>
			</trkpt>
			<trkpt lat="33.274281" lon="103.818581">
				<ele>2478.000000</ele>
				<time>1970-01-01T00:00:00Z</time>
			</trkpt>
			<trkpt lat="33.274281" lon="103.818581">
				<ele>2478.000000</ele>
				<time>1970-01-01T00:00:00Z</time>
			</trkpt>
			<trkpt lat="33.274284" lon="103.818581">
				<ele>2478.000000</ele>
				<time>1970-01-01T00:00:00Z</time>
			</trkpt>
			<trkpt lat="33.274284" lon="103.818573">
				<ele>2478.000000</ele>
				<time>1970-01-01T00:00:00Z</time>
			</trkpt>
			<trkpt lat="33.274292" lon="103.818573">
				<ele>2478.000000</ele>
				<time>1970-01-01T00:00:00Z</time>
			</trkpt>
			<trkpt lat="33.274292" lon="103.818565">
				<ele>2478.000000</ele>
				<time>1970-01-01T00:00:00Z</time>
			</trkpt>
			<trkpt lat="33.274292" lon="103.818565">
				<ele>2478.000000</ele>
				<time>1970-01-01T00:00:00Z</time>
			</trkpt>
			<trkpt lat="33.274296" lon="103.818565">
				<ele>2478.000000</ele>
				<time>1970-01-01T00:00:00Z</time>
			</trkpt>
			<trkpt lat="33.274300" lon="103.818565">
				<ele>2478.000000</ele>
				<time>1970-01-01T00:00:00Z</time>
			</trkpt>
			<trkpt lat="33.274300" lon="103.818558">
				<ele>2478.000000</ele>
				<time>1970-01-01T00:00:00Z</time>
			</trkpt>
			<trkpt lat="33.274300" lon="103.818550">
				<ele>2478.000000</ele>
				<time>1970-01-01T00:00:00Z</time>
			</trkpt>
			<trkpt lat="33.274303" lon="103.818550">
				<ele>2478.000000</ele>
				<time>1970-01-01T00:00:00Z</time>
			</trkpt>
			<trkpt lat="33.274303" lon="103.818550">
				<ele>2478.000000</ele>
				<time>1970-01-01T00:00:00Z</time>
			</trkpt>
			<trkpt lat="33.274307" lon="103.818542">
				<ele>2482.000000</ele>
				<time>1970-01-01T00:00:00Z</time>
			</trkpt>
			<trkpt lat="33.274307" lon="103.818535">
				<ele>2482.000000</ele>
				<time>1970-01-01T00:00:00Z</time>
			</trkpt>
			<trkpt lat="33.274315" lon="103.818535">
				<ele>2482.000000</ele>
				<time>1970-01-01T00:00:00Z</time>
			</trkpt>
			<trkpt lat="33.274319" lon="103.818535">
				<ele>2482.000000</ele>
				<time>1970-01-01T00:00:00Z</time>
			</trkpt>
			<trkpt lat="33.274319" lon="103.818527">
				<ele>2482.000000</ele>
				<time>1970-01-01T00:00:00Z</time>
			</trkpt>
			<trkpt lat="33.274319" lon="103.818527">
				<ele>2482.000000</ele>
				<time>1970-01-01T00:00:00Z</time>
			</trkpt>
			<trkpt lat="33.274323" lon="103.818527">
				<ele>2482.000000</ele>
				<time>1970-01-01T00:00:00Z</time>
			</trkpt>
			<trkpt lat="33.274323" lon="103.818520">
				<ele>2482.000000</ele>
				<time>1970-01-01T00:00:00Z</time>
			</trkpt>
			<trkpt lat="33.274323" lon="103.818512">
				<ele>2482.000000</ele>
				<time>1970-01-01T00:00:00Z</time>
			</trkpt>
			<trkpt lat="33.274326" lon="103.818512">
				<ele>2482.000000</ele>
				<time>1970-01-01T00:00:00Z</time>
			</trkpt>
			<trkpt lat="33.274326" lon="103.818512">
				<ele>2482.000000</ele>
				<time>1970-01-01T00:00:00Z</time>
			</trkpt>
			<trkpt lat="33.274330" lon="103.818512">
				<ele>2482.000000</ele>
				<time>1970-01-01T00:00:00Z</time>
			</trkpt>
			<trkpt lat="33.274330" lon="103.818504">
				<ele>2482.000000</ele>
				<time>1970-01-01T00:00:00Z</time>
			</trkpt>
			<trkpt lat="33.274334" lon="103.818504">
				<ele>2482.000000</ele>
				<time>1970-01-01T00:00:00Z</time>
			</trkpt>
			<trkpt lat="33.274334" lon="103.818497">
				<ele>2482.000000</ele>
				<time>1970-01-01T00:00:00Z</time>
			</trkpt>
			<trkpt lat="33.274342" lon="103.818497">
				<ele>2482.000000</ele>
				<time>1970-01-01T00:00:00Z</time>
			</trkpt>
			<trkpt lat="33.274342" lon="103.818489">
				<ele>2482.000000</ele>
				<time>1970-01-01T00:00:00Z</time>
			</trkpt>
			<trkpt lat="33.274345" lon="103.818489">
				<ele>2482.000000</ele>
				<time>1970-01-01T00:00:00Z</time>
			</trkpt>
			<trkpt lat="33.274345" lon="103.818489">
				<ele>2482.000000</ele>
				<time>1970-01-01T00:00:00Z</time>
			</trkpt>
			<trkpt lat="33.274349" lon="103.818489">
				<ele>2482.000000</ele>
				<time>1970-01-01T00:00:00Z</time>
			</trkpt>
			<trkpt lat="33.274349" lon="103.818481">
				<ele>2482.000000</ele>
				<time>1970-01-01T00:00:00Z</time>
			</trkpt>
			<trkpt lat="33.274353" lon="103.818481">
				<ele>2482.000000</ele>
				<time>1970-01-01T00:00:00Z</time>
			</trkpt>
			<trkpt lat="33.274353" lon="103.818474">
				<ele>2482.000000</ele>
				<time>1970-01-01T00:00:00Z</time>
			</trkpt>
			<trkpt lat="33.274353" lon="103.818474">
				<ele>2482.000000</ele>
				<time>1970-01-01T00:00:00Z</time>
			</trkpt>
			<trkpt lat="33.274357" lon="103.818474">
				<ele>2482.000000</ele>
				<time>1970-01-01T00:00:00Z</time>
			</trkpt>
			<trkpt lat="33.274357" lon="103.818466">
				<ele>2477.000000</ele>
				<time>1970-01-01T00:00:00Z</time>
			</trkpt>
			<trkpt lat="33.274361" lon="103.818466">
				<ele>2477.000000</ele>
				<time>1970-01-01T00:00:00Z</time>
			</trkpt>
			<trkpt lat="33.274361" lon="103.818459">
				<ele>2477.000000</ele>
				<time>1970-01-01T00:00:00Z</time>
			</trkpt>
			<trkpt lat="33.274368" lon="103.818459">
				<ele>2477.000000</ele>
				<time>1970-01-01T00:00:00Z</time>
			</trkpt>
			<trkpt lat="33.274368" lon="103.818459">
				<ele>2477.000000</ele>
				<time>1970-01-01T00:00:00Z</time>
			</trkpt>
			<trkpt lat="33.274372" lon="103.818459">
				<ele>2477.000000</ele>
				<time>1970-01-01T00:00:00Z</time>
			</trkpt>
			<trkpt lat="33.274372" lon="103.818451">
				<ele>2477.000000</ele>
				<time>1970-01-01T00:00:00Z</time>
			</trkpt>
			<trkpt lat="33.274376" lon="103.818451">
				<ele>2477.000000</ele>
				<time>1970-01-01T00:00:00Z</time>
			</trkpt>
			<trkpt lat="33.274376" lon="103.818443">
				<ele>2477.000000</ele>
				<time>1970-01-01T00:00:00Z</time>
			</trkpt>
			<trkpt lat="33.274380" lon="103.818436">
				<ele>2477.000000</ele>
				<time>1970-01-01T00:00:00Z</time>
			</trkpt>
			<trkpt lat="33.274380" lon="103.818436">
				<ele>2477.000000</ele>
				<time>1970-01-01T00:00:00Z</time>
			</trkpt>
			<trkpt lat="33.274384" lon="103.818436">
				<ele>2477.000000</ele>
				<time>1970-01-01T00:00:00Z</time>
			</trkpt>
			<trkpt lat="33.274384" lon="103.818428">
				<ele>2477.000000</ele>
				<time>1970-01-01T00:00:00Z</time>
			</trkpt>
			<trkpt lat="33.274391" lon="103.818428">
				<ele>2477.000000</ele>
				<time>1970-01-01T00:00:00Z</time>
			</trkpt>
			<trkpt lat="33.274391" lon="103.818420">
				<ele>2477.000000</ele>
				<time>1970-01-01T00:00:00Z</time>
			</trkpt>
			<trkpt lat="33.274395" lon="103.818420">
				<ele>2477.000000</ele>
				<time>1970-01-01T00:00:00Z</time>
			</trkpt>
			<trkpt lat="33.274395" lon="103.818420">
				<ele>2477.000000</ele>
				<time>1970-01-01T00:00:00Z</time>
			</trkpt>
			<trkpt lat="33.274399" lon="103.818420">
				<ele>2477.000000</ele>
				<time>1970-01-01T00:00:00Z</time>
			</trkpt>
			<trkpt lat="33.274399" lon="103.818413">
				<ele>2477.000000</ele>
				<time>1970-01-01T00:00:00Z</time>
			</trkpt>
			<trkpt lat="33.274399" lon="103.818405">
				<ele>2477.000000</ele>
				<time>1970-01-01T00:00:00Z</time>
			</trkpt>
			<trkpt lat="33.274403" lon="103.818405">
				<ele>2477.000000</ele>
				<time>1970-01-01T00:00:00Z</time>
			</trkpt>
			<trkpt lat="33.274406" lon="103.818405">
				<ele>2477.000000</ele>
				<time>1970-01-01T00:00:00Z</time>
			</trkpt>
			<trkpt lat="33.274406" lon="103.818405">
				<ele>2477.000000</ele>
				<time>1970-01-01T00:00:00Z</time>
			</trkpt>
			<trkpt lat="33.274410" lon="103.818405">
				<ele>2477.000000</ele>
				<time>1970-01-01T00:00:00Z</time>
			</trkpt>
			<trkpt lat="33.274410" lon="103.818398">
				<ele>2477.000000</ele>
				<time>1970-01-01T00:00:00Z</time>
			</trkpt>
			<trkpt lat="33.274418" lon="103.818390">
				<ele>2477.000000</ele>
				<time>1970-01-01T00:00:00Z</time>
			</trkpt>
			<trkpt lat="33.274418" lon="103.818382">
				<ele>2477.000000</ele>
				<time>1970-01-01T00:00:00Z</time>
			</trkpt>
			<trkpt lat="33.274422" lon="103.818382">
				<ele>2477.000000</ele>
				<time>1970-01-01T00:00:00Z</time>
			</trkpt>
			<trkpt lat="33.274422" lon="103.818382">
				<ele>2477.000000</ele>
				<time>1970-01-01T00:00:00Z</time>
			</trkpt>
			<trkpt lat="33.274426" lon="103.818382">
				<ele>2477.000000</ele>
				<time>1970-01-01T00:00:00Z</time>
			</trkpt>
			<trkpt lat="33.274426" lon="103.818375">
				<ele>2477.000000</ele>
				<time>1970-01-01T00:00:00Z</time>
			</trkpt>
			<trkpt lat="33.274429" lon="103.818375">
				<ele>2477.000000</ele>
				<time>1970-01-01T00:00:00Z</time>
			</trkpt>
			<trkpt lat="33.274429" lon="103.818367">
				<ele>2477.000000</ele>
				<time>1970-01-01T00:00:00Z</time>
			</trkpt>
			<trkpt lat="33.274433" lon="103.818367">
				<ele>2477.000000</ele>
				<time>1970-01-01T00:00:00Z</time>
			</trkpt>
			<trkpt lat="33.274433" lon="103.818359">
				<ele>2477.000000</ele>
				<time>1970-01-01T00:00:00Z</time>
			</trkpt>
			<trkpt lat="33.274437" lon="103.818359">
				<ele>2477.000000</ele>
				<time>1970-01-01T00:00:00Z</time>
			</trkpt>
			<trkpt lat="33.274437" lon="103.818352">
				<ele>2477.000000</ele>
				<time>1970-01-01T00:00:00Z</time>
			</trkpt>
			<trkpt lat="33.274445" lon="103.818352">
				<ele>2477.000000</ele>
				<time>1970-01-01T00:00:00Z</time>
			</trkpt>
			<trkpt lat="33.274445" lon="103.818344">
				<ele>2477.000000</ele>
				<time>1970-01-01T00:00:00Z</time>
			</trkpt>
			<trkpt lat="33.274445" lon="103.818344">
				<ele>2477.000000</ele>
				<time>1970-01-01T00:00:00Z</time>
			</trkpt>
			<trkpt lat="33.274448" lon="103.818344">
				<ele>2477.000000</ele>
				<time>1970-01-01T00:00:00Z</time>
			</trkpt>
			<trkpt lat="33.274448" lon="103.818336">
				<ele>2477.000000</ele>
				<time>1970-01-01T00:00:00Z</time>
			</trkpt>
			<trkpt lat="33.274452" lon="103.818336">
				<ele>2477.000000</ele>
				<time>1970-01-01T00:00:00Z</time>
			</trkpt>
			<trkpt lat="33.274452" lon="103.818329">
				<ele>2477.000000</ele>
				<time>1970-01-01T00:00:00Z</time>
			</trkpt>
			<trkpt lat="33.274452" lon="103.818329">
				<ele>2477.000000</ele>
				<time>1970-01-01T00:00:00Z</time>
			</trkpt>
			<trkpt lat="33.274456" lon="103.818329">
				<ele>2477.000000</ele>
				<time>1970-01-01T00:00:00Z</time>
			</trkpt>
			<trkpt lat="33.274456" lon="103.818321">
				<ele>2477.000000</ele>
				<time>1970-01-01T00:00:00Z</time>
			</trkpt>
			<trkpt lat="33.274456" lon="103.818314">
				<ele>2477.000000</ele>
				<time>1970-01-01T00:00:00Z</time>
			</trkpt>
			<trkpt lat="33.274460" lon="103.818314">
				<ele>2477.000000</ele>
				<time>1970-01-01T00:00:00Z</time>
			</trkpt>
			<trkpt lat="33.274464" lon="103.818314">
				<ele>2477.000000</ele>
				<time>1970-01-01T00:00:00Z</time>
			</trkpt>
			<trkpt lat="33.274464" lon="103.818314">
				<ele>2477.000000</ele>
				<time>1970-01-01T00:00:00Z</time>
			</trkpt>
			<trkpt lat="33.274464" lon="103.818306">
				<ele>2477.000000</ele>
				<time>1970-01-01T00:00:00Z</time>
			</trkpt>
			<trkpt lat="33.274471" lon="103.818306">
				<ele>2477.000000</ele>
				<time>1970-01-01T00:00:00Z</time>
			</trkpt>
			<trkpt lat="33.274471" lon="103.818298">
				<ele>2477.000000</ele>
				<time>1970-01-01T00:00:00Z</time>
			</trkpt>
			<trkpt lat="33.274471" lon="103.818291">
				<ele>2477.000000</ele>
				<time>1970-01-01T00:00:00Z</time>
			</trkpt>
			<trkpt lat="33.274475" lon="103.818291">
				<ele>2477.000000</ele>
				<time>1970-01-01T00:00:00Z</time>
			</trkpt>
			<trkpt lat="33.274475" lon="103.818291">
				<ele>2477.000000</ele>
				<time>1970-01-01T00:00:00Z</time>
			</trkpt>
			<trkpt lat="33.274479" lon="103.818291">
				<ele>2477.000000</ele>
				<time>1970-01-01T00:00:00Z</time>
			</trkpt>
			<trkpt lat="33.274479" lon="103.818283">
				<ele>2477.000000</ele>
				<time>1970-01-01T00:00:00Z</time>
			</trkpt>
			<trkpt lat="33.274483" lon="103.818283">
				<ele>2477.000000</ele>
				<time>1970-01-01T00:00:00Z</time>
			</trkpt>
			<trkpt lat="33.274483" lon="103.818275">
				<ele>2477.000000</ele>
				<time>1970-01-01T00:00:00Z</time>
			</trkpt>
			<trkpt lat="33.274483" lon="103.818275">
				<ele>2477.000000</ele>
				<time>1970-01-01T00:00:00Z</time>
			</trkpt>
			<trkpt lat="33.274483" lon="103.818268">
				<ele>2477.000000</ele>
				<time>1970-01-01T00:00:00Z</time>
			</trkpt>
			<trkpt lat="33.274487" lon="103.818268">
				<ele>2477.000000</ele>
				<time>1970-01-01T00:00:00Z</time>
			</trkpt>
			<trkpt lat="33.274487" lon="103.818260">
				<ele>2477.000000</ele>
				<time>1970-01-01T00:00:00Z</time>
			</trkpt>
			<trkpt lat="33.274494" lon="103.818260">
				<ele>2477.000000</ele>
				<time>1970-01-01T00:00:00Z</time>
			</trkpt>
			<trkpt lat="33.274494" lon="103.818260">
				<ele>2477.000000</ele>
				<time>1970-01-01T00:00:00Z</time>
			</trkpt>
			<trkpt lat="33.274498" lon="103.818253">
				<ele>2477.000000</ele>
				<time>1970-01-01T00:00:00Z</time>
			</trkpt>
			<trkpt lat="33.274502" lon="103.818253">
				<ele>2477.000000</ele>
				<time>1970-01-01T00:00:00Z</time>
			</trkpt>
			<trkpt lat="33.274502" lon="103.818245">
				<ele>2477.000000</ele>
				<time>1970-01-01T00:00:00Z</time>
			</trkpt>
			<trkpt lat="33.274506" lon="103.818245">
				<ele>2477.000000</ele>
				<time>1970-01-01T00:00:00Z</time>
			</trkpt>
			<trkpt lat="33.274506" lon="103.818237">
				<ele>2477.000000</ele>
				<time>1970-01-01T00:00:00Z</time>
			</trkpt>
			<trkpt lat="33.274509" lon="103.818237">
				<ele>2477.000000</ele>
				<time>1970-01-01T00:00:00Z</time>
			</trkpt>
			<trkpt lat="33.274509" lon="103.818237">
				<ele>2477.000000</ele>
				<time>1970-01-01T00:00:00Z</time>
			</trkpt>
			<trkpt lat="33.274509" lon="103.818230">
				<ele>2477.000000</ele>
				<time>1970-01-01T00:00:00Z</time>
			</trkpt>
			<trkpt lat="33.274513" lon="103.818230">
				<ele>2477.000000</ele>
				<time>1970-01-01T00:00:00Z</time>
			</trkpt>
			<trkpt lat="33.274513" lon="103.818222">
				<ele>2477.000000</ele>
				<time>1970-01-01T00:00:00Z</time>
			</trkpt>
			<trkpt lat="33.274521" lon="103.818222">
				<ele>2477.000000</ele>
				<time>1970-01-01T00:00:00Z</time>
			</trkpt>
			<trkpt lat="33.274521" lon="103.818222">
				<ele>2477.000000</ele>
				<time>1970-01-01T00:00:00Z</time>
			</trkpt>
			<trkpt lat="33.274525" lon="103.818222">
				<ele>2477.000000</ele>
				<time>1970-01-01T00:00:00Z</time>
			</trkpt>
			<trkpt lat="33.274525" lon="103.818214">
				<ele>2477.000000</ele>
				<time>1970-01-01T00:00:00Z</time>
			</trkpt>
			<trkpt lat="33.274525" lon="103.818207">
				<ele>2477.000000</ele>
				<time>1970-01-01T00:00:00Z</time>
			</trkpt>
			<trkpt lat="33.274529" lon="103.818207">
				<ele>2477.000000</ele>
				<time>1970-01-01T00:00:00Z</time>
			</trkpt>
			<trkpt lat="33.274529" lon="103.818207">
				<ele>2477.000000</ele>
				<time>1970-01-01T00:00:00Z</time>
			</trkpt>
			<trkpt lat="33.274532" lon="103.818207">
				<ele>2477.000000</ele>
				<time>1970-01-01T00:00:00Z</time>
			</trkpt>
			<trkpt lat="33.274532" lon="103.818199">
				<ele>2477.000000</ele>
				<time>1970-01-01T00:00:00Z</time>
			</trkpt>
			<trkpt lat="33.274536" lon="103.818199">
				<ele>2477.000000</ele>
				<time>1970-01-01T00:00:00Z</time>
			</trkpt>
			<trkpt lat="33.274536" lon="103.818192">
				<ele>2470.000000</ele>
				<time>1970-01-01T00:00:00Z</time>
			</trkpt>
			<trkpt lat="33.274536" lon="103.818184">
				<ele>2470.000000</ele>
				<time>1970-01-01T00:00:00Z</time>
			</trkpt>
			<trkpt lat="33.274540" lon="103.818184">
				<ele>2470.000000</ele>
				<time>1970-01-01T00:00:00Z</time>
			</trkpt>
			<trkpt lat="33.274540" lon="103.818184">
				<ele>2470.000000</ele>
				<time>1970-01-01T00:00:00Z</time>
			</trkpt>
			<trkpt lat="33.274548" lon="103.818184">
				<ele>2470.000000</ele>
				<time>1970-01-01T00:00:00Z</time>
			</trkpt>
			<trkpt lat="33.274548" lon="103.818176">
				<ele>2470.000000</ele>
				<time>1970-01-01T00:00:00Z</time>
			</trkpt>
			<trkpt lat="33.274551" lon="103.818176">
				<ele>2470.000000</ele>
				<time>1970-01-01T00:00:00Z</time>
			</trkpt>
			<trkpt lat="33.274551" lon="103.818169">
				<ele>2470.000000</ele>
				<time>1970-01-01T00:00:00Z</time>
			</trkpt>
			<trkpt lat="33.274555" lon="103.818169">
				<ele>2470.000000</ele>
				<time>1970-01-01T00:00:00Z</time>
			</trkpt>
			<trkpt lat="33.274559" lon="103.818169">
				<ele>2470.000000</ele>
				<time>1970-01-01T00:00:00Z</time>
			</trkpt>
			<trkpt lat="33.274559" lon="103.818161">
				<ele>2470.000000</ele>
				<time>1970-01-01T00:00:00Z</time>
			</trkpt>
			<trkpt lat="33.274563" lon="103.818161">
				<ele>2470.000000</ele>
				<time>1970-01-01T00:00:00Z</time>
			</trkpt>
			<trkpt lat="33.274563" lon="103.818153">
				<ele>2470.000000</ele>
				<time>1970-01-01T00:00:00Z</time>
			</trkpt>
			<trkpt lat="33.274563" lon="103.818146">
				<ele>2470.000000</ele>
				<time>1970-01-01T00:00:00Z</time>
			</trkpt>
			<trkpt lat="33.274570" lon="103.818146">
				<ele>2470.000000</ele>
				<time>1970-01-01T00:00:00Z</time>
			</trkpt>
			<trkpt lat="33.274570" lon="103.818146">
				<ele>2470.000000</ele>
				<time>1970-01-01T00:00:00Z</time>
			</trkpt>
			<trkpt lat="33.274574" lon="103.818138">
				<ele>2470.000000</ele>
				<time>1970-01-01T00:00:00Z</time>
			</trkpt>
			<trkpt lat="33.274578" lon="103.818138">
				<ele>2470.000000</ele>
				<time>1970-01-01T00:00:00Z</time>
			</trkpt>
			<trkpt lat="33.274578" lon="103.818130">
				<ele>2470.000000</ele>
				<time>1970-01-01T00:00:00Z</time>
			</trkpt>
			<trkpt lat="33.274582" lon="103.818130">
				<ele>2470.000000</ele>
				<time>1970-01-01T00:00:00Z</time>
			</trkpt>
			<trkpt lat="33.274582" lon="103.818123">
				<ele>2470.000000</ele>
				<time>1970-01-01T00:00:00Z</time>
			</trkpt>
			<trkpt lat="33.274586" lon="103.818115">
				<ele>2481.000000</ele>
				<time>1970-01-01T00:00:00Z</time>
			</trkpt>
			<trkpt lat="33.274586" lon="103.818115">
				<ele>2481.000000</ele>
				<time>1970-01-01T00:00:00Z</time>
			</trkpt>
			<trkpt lat="33.274590" lon="103.818115">
				<ele>2481.000000</ele>
				<time>1970-01-01T00:00:00Z</time>
			</trkpt>
			<trkpt lat="33.274597" lon="103.818115">
				<ele>2481.000000</ele>
				<time>1970-01-01T00:00:00Z</time>
			</trkpt>
			<trkpt lat="33.274597" lon="103.818108">
				<ele>2481.000000</ele>
				<time>1970-01-01T00:00:00Z</time>
			</trkpt>
			<trkpt lat="33.274597" lon="103.818100">
				<ele>2481.000000</ele>
				<time>1970-01-01T00:00:00Z</time>
			</trkpt>
			<trkpt lat="33.274601" lon="103.818092">
				<ele>2481.000000</ele>
				<time>1970-01-01T00:00:00Z</time>
			</trkpt>
			<trkpt lat="33.274601" lon="103.818092">
				<ele>2481.000000</ele>
				<time>1970-01-01T00:00:00Z</time>
			</trkpt>
			<trkpt lat="33.274605" lon="103.818092">
				<ele>2481.000000</ele>
				<time>1970-01-01T00:00:00Z</time>
			</trkpt>
			<trkpt lat="33.274605" lon="103.818085">
				<ele>2481.000000</ele>
				<time>1970-01-01T00:00:00Z</time>
			</trkpt>
			<trkpt lat="33.274609" lon="103.818085">
				<ele>2481.000000</ele>
				<time>1970-01-01T00:00:00Z</time>
			</trkpt>
			<trkpt lat="33.274609" lon="103.818077">
				<ele>2481.000000</ele>
				<time>1970-01-01T00:00:00Z</time>
			</trkpt>
			<trkpt lat="33.274612" lon="103.818077">
				<ele>2481.000000</ele>
				<time>1970-01-01T00:00:00Z</time>
			</trkpt>
			<trkpt lat="33.274612" lon="103.818077">
				<ele>2481.000000</ele>
				<time>1970-01-01T00:00:00Z</time>
			</trkpt>
			<trkpt lat="33.274616" lon="103.818077">
				<ele>2481.000000</ele>
				<time>1970-01-01T00:00:00Z</time>
			</trkpt>
			<trkpt lat="33.274616" lon="103.818069">
				<ele>2481.000000</ele>
				<time>1970-01-01T00:00:00Z</time>
			</trkpt>
			<trkpt lat="33.274616" lon="103.818062">
				<ele>2481.000000</ele>
				<time>1970-01-01T00:00:00Z</time>
			</trkpt>
			<trkpt lat="33.274624" lon="103.818062">
				<ele>2481.000000</ele>
				<time>1970-01-01T00:00:00Z</time>
			</trkpt>
			<trkpt lat="33.274624" lon="103.818062">
				<ele>2481.000000</ele>
				<time>1970-01-01T00:00:00Z</time>
			</trkpt>
			<trkpt lat="33.274624" lon="103.818054">
				<ele>2481.000000</ele>
				<time>1970-01-01T00:00:00Z</time>
			</trkpt>
			<trkpt lat="33.274628" lon="103.818054">
				<ele>2481.000000</ele>
				<time>1970-01-01T00:00:00Z</time>
			</trkpt>
			<trkpt lat="33.274628" lon="103.818047">
				<ele>2481.000000</ele>
				<time>1970-01-01T00:00:00Z</time>
			</trkpt>
			<trkpt lat="33.274632" lon="103.818047">
				<ele>2481.000000</ele>
				<time>1970-01-01T00:00:00Z</time>
			</trkpt>
			<trkpt lat="33.274632" lon="103.818039">
				<ele>2481.000000</ele>
				<time>1970-01-01T00:00:00Z</time>
			</trkpt>
			<trkpt lat="33.274635" lon="103.818039">
				<ele>2481.000000</ele>
				<time>1970-01-01T00:00:00Z</time>
			</trkpt>
			<trkpt lat="33.274635" lon="103.818039">
				<ele>2481.000000</ele>
				<time>1970-01-01T00:00:00Z</time>
			</trkpt>
			<trkpt lat="33.274635" lon="103.818031">
				<ele>2481.000000</ele>
				<time>1970-01-01T00:00:00Z</time>
			</trkpt>
			<trkpt lat="33.274639" lon="103.818031">
				<ele>2481.000000</ele>
				<time>1970-01-01T00:00:00Z</time>
			</trkpt>
			<trkpt lat="33.274639" lon="103.818024">
				<ele>2481.000000</ele>
				<time>1970-01-01T00:00:00Z</time>
			</trkpt>
			<trkpt lat="33.274639" lon="103.818024">
				<ele>2481.000000</ele>
				<time>1970-01-01T00:00:00Z</time>
			</trkpt>
			<trkpt lat="33.274647" lon="103.818024">
				<ele>2481.000000</ele>
				<time>1970-01-01T00:00:00Z</time>
			</trkpt>
			<trkpt lat="33.274651" lon="103.818024">
				<ele>2481.000000</ele>
				<time>1970-01-01T00:00:00Z</time>
			</trkpt>
			<trkpt lat="33.274651" lon="103.818016">
				<ele>2481.000000</ele>
				<time>1970-01-01T00:00:00Z</time>
			</trkpt>
			<trkpt lat="33.274651" lon="103.818008">
				<ele>2481.000000</ele>
				<time>1970-01-01T00:00:00Z</time>
			</trkpt>
			<trkpt lat="33.274654" lon="103.818008">
				<ele>2481.000000</ele>
				<time>1970-01-01T00:00:00Z</time>
			</trkpt>
			<trkpt lat="33.274654" lon="103.818001">
				<ele>2481.000000</ele>
				<time>1970-01-01T00:00:00Z</time>
			</trkpt>
			<trkpt lat="33.274658" lon="103.818001">
				<ele>2481.000000</ele>
				<time>1970-01-01T00:00:00Z</time>
			</trkpt>
			<trkpt lat="33.274658" lon="103.818001">
				<ele>2481.000000</ele>
				<time>1970-01-01T00:00:00Z</time>
			</trkpt>
			<trkpt lat="33.274662" lon="103.818001">
				<ele>2481.000000</ele>
				<time>1970-01-01T00:00:00Z</time>
			</trkpt>
			<trkpt lat="33.274662" lon="103.817993">
				<ele>2481.000000</ele>
				<time>1970-01-01T00:00:00Z</time>
			</trkpt>
			<trkpt lat="33.274666" lon="103.817993">
				<ele>2481.000000</ele>
				<time>1970-01-01T00:00:00Z</time>
			</trkpt>
			<trkpt lat="33.274666" lon="103.817986">
				<ele>2481.000000</ele>
				<time>1970-01-01T00:00:00Z</time>
			</trkpt>
			<trkpt lat="33.274673" lon="103.817986">
				<ele>2481.000000</ele>
				<time>1970-01-01T00:00:00Z</time>
			</trkpt>
			<trkpt lat="33.274673" lon="103.817978">
				<ele>2481.000000</ele>
				<time>1970-01-01T00:00:00Z</time>
			</trkpt>
			<trkpt lat="33.274677" lon="103.817978">
				<ele>2481.000000</ele>
				<time>1970-01-01T00:00:00Z</time>
			</trkpt>
			<trkpt lat="33.274677" lon="103.817970">
				<ele>2481.000000</ele>
				<time>1970-01-01T00:00:00Z</time>
			</trkpt>
			<trkpt lat="33.274677" lon="103.817970">
				<ele>2481.000000</ele>
				<time>1970-01-01T00:00:00Z</time>
			</trkpt>
			<trkpt lat="33.274681" lon="103.817970">
				<ele>2481.000000</ele>
				<time>1970-01-01T00:00:00Z</time>
			</trkpt>
			<trkpt lat="33.274681" lon="103.817963">
				<ele>2481.000000</ele>
				<time>1970-01-01T00:00:00Z</time>
			</trkpt>
			<trkpt lat="33.274685" lon="103.817963">
				<ele>2481.000000</ele>
				<time>1970-01-01T00:00:00Z</time>
			</trkpt>
			<trkpt lat="33.274685" lon="103.817955">
				<ele>2481.000000</ele>
				<time>1970-01-01T00:00:00Z</time>
			</trkpt>
			<trkpt lat="33.274689" lon="103.817955">
				<ele>2481.000000</ele>
				<time>1970-01-01T00:00:00Z</time>
			</trkpt>
			<trkpt lat="33.274689" lon="103.817947">
				<ele>2481.000000</ele>
				<time>1970-01-01T00:00:00Z</time>
			</trkpt>
			<trkpt lat="33.274693" lon="103.817947">
				<ele>2481.000000</ele>
				<time>1970-01-01T00:00:00Z</time>
			</trkpt>
			<trkpt lat="33.274693" lon="103.817947">
				<ele>2481.000000</ele>
				<time>1970-01-01T00:00:00Z</time>
			</trkpt>
			<trkpt lat="33.274700" lon="103.817947">
				<ele>2481.000000</ele>
				<time>1970-01-01T00:00:00Z</time>
			</trkpt>
			<trkpt lat="33.274700" lon="103.817940">
				<ele>2481.000000</ele>
				<time>1970-01-01T00:00:00Z</time>
			</trkpt>
			<trkpt lat="33.274700" lon="103.817932">
				<ele>2481.000000</ele>
				<time>1970-01-01T00:00:00Z</time>
			</trkpt>
			<trkpt lat="33.274704" lon="103.817932">
				<ele>2481.000000</ele>
				<time>1970-01-01T00:00:00Z</time>
			</trkpt>
			<trkpt lat="33.274704" lon="103.817932">
				<ele>2481.000000</ele>
				<time>1970-01-01T00:00:00Z</time>
			</trkpt>
			<trkpt lat="33.274708" lon="103.817932">
				<ele>2481.000000</ele>
				<time>1970-01-01T00:00:00Z</time>
			</trkpt>
			<trkpt lat="33.274708" lon="103.817924">
				<ele>2481.000000</ele>
				<time>1970-01-01T00:00:00Z</time>
			</trkpt>
			<trkpt lat="33.274708" lon="103.817917">
				<ele>2481.000000</ele>
				<time>1970-01-01T00:00:00Z</time>
			</trkpt>
			<trkpt lat="33.274712" lon="103.817917">
				<ele>2481.000000</ele>
				<time>1970-01-01T00:00:00Z</time>
			</trkpt>
			<trkpt lat="33.274712" lon="103.817917">
				<ele>2481.000000</ele>
				<time>1970-01-01T00:00:00Z</time>
			</trkpt>
			<trkpt lat="33.274715" lon="103.817917">
				<ele>2481.000000</ele>
				<time>1970-01-01T00:00:00Z</time>
			</trkpt>
			<trkpt lat="33.274715" lon="103.817909">
				<ele>2476.000000</ele>
				<time>1970-01-01T00:00:00Z</time>
			</trkpt>
			<trkpt lat="33.274715" lon="103.817902">
				<ele>2476.000000</ele>
				<time>1970-01-01T00:00:00Z</time>
			</trkpt>
			<trkpt lat="33.274723" lon="103.817894">
				<ele>2476.000000</ele>
				<time>1970-01-01T00:00:00Z</time>
			</trkpt>
			<trkpt lat="33.274727" lon="103.817894">
				<ele>2476.000000</ele>
				<time>1970-01-01T00:00:00Z</time>
			</trkpt>
			<trkpt lat="33.274731" lon="103.817886">
				<ele>2476.000000</ele>
				<time>1970-01-01T00:00:00Z</time>
			</trkpt>
			<trkpt lat="33.274731" lon="103.817879">
				<ele>2476.000000</ele>
				<time>1970-01-01T00:00:00Z</time>
			</trkpt>
			<trkpt lat="33.274734" lon="103.817879">
				<ele>2476.000000</ele>
				<time>1970-01-01T00:00:00Z</time>
			</trkpt>
			<trkpt lat="33.274734" lon="103.817879">
				<ele>2476.000000</ele>
				<time>1970-01-01T00:00:00Z</time>
			</trkpt>
			<trkpt lat="33.274738" lon="103.817879">
				<ele>2476.000000</ele>
				<time>1970-01-01T00:00:00Z</time>
			</trkpt>
			<trkpt lat="33.274742" lon="103.817871">
				<ele>2476.000000</ele>
				<time>1970-01-01T00:00:00Z</time>
			</trkpt>
			<trkpt lat="33.274742" lon="103.817863">
				<ele>2476.000000</ele>
				<time>1970-01-01T00:00:00Z</time>
			</trkpt>
			<trkpt lat="33.274750" lon="103.817863">
				<ele>2476.000000</ele>
				<time>1970-01-01T00:00:00Z</time>
			</trkpt>
			<trkpt lat="33.274754" lon="103.817863">
				<ele>2476.000000</ele>
				<time>1970-01-01T00:00:00Z</time>
			</trkpt>
			<trkpt lat="33.274784" lon="103.817825">
				<ele>2476.000000</ele>
				<time>1970-01-01T00:00:00Z</time>
			</trkpt>
			<trkpt lat="33.274784" lon="103.817825">
				<ele>2476.000000</ele>
				<time>1970-01-01T00:00:00Z</time>
			</trkpt>
			<trkpt lat="33.274788" lon="103.817825">
				<ele>2476.000000</ele>
				<time>1970-01-01T00:00:00Z</time>
			</trkpt>
			<trkpt lat="33.274792" lon="103.817825">
				<ele>2476.000000</ele>
				<time>1970-01-01T00:00:00Z</time>
			</trkpt>
			<trkpt lat="33.274792" lon="103.817818">
				<ele>2476.000000</ele>
				<time>1970-01-01T00:00:00Z</time>
			</trkpt>
			<trkpt lat="33.274799" lon="103.817818">
				<ele>2476.000000</ele>
				<time>1970-01-01T00:00:00Z</time>
			</trkpt>
			<trkpt lat="33.274799" lon="103.817810">
				<ele>2476.000000</ele>
				<time>1970-01-01T00:00:00Z</time>
			</trkpt>
			<trkpt lat="33.274803" lon="103.817810">
				<ele>2476.000000</ele>
				<time>1970-01-01T00:00:00Z</time>
			</trkpt>
			<trkpt lat="33.274803" lon="103.817802">
				<ele>2476.000000</ele>
				<time>1970-01-01T00:00:00Z</time>
			</trkpt>
			<trkpt lat="33.274803" lon="103.817802">
				<ele>2476.000000</ele>
				<time>1970-01-01T00:00:00Z</time>
			</trkpt>
			<trkpt lat="33.274807" lon="103.817802">
				<ele>2476.000000</ele>
				<time>1970-01-01T00:00:00Z</time>
			</trkpt>
			<trkpt lat="33.274811" lon="103.817795">
				<ele>2476.000000</ele>
				<time>1970-01-01T00:00:00Z</time>
			</trkpt>
			<trkpt lat="33.274811" lon="103.817787">
				<ele>2476.000000</ele>
				<time>1970-01-01T00:00:00Z</time>
			</trkpt>
			<trkpt lat="33.274815" lon="103.817787">
				<ele>2476.000000</ele>
				<time>1970-01-01T00:00:00Z</time>
			</trkpt>
			<trkpt lat="33.274815" lon="103.817787">
				<ele>2476.000000</ele>
				<time>1970-01-01T00:00:00Z</time>
			</trkpt>
			<trkpt lat="33.274818" lon="103.817780">
				<ele>2476.000000</ele>
				<time>1970-01-01T00:00:00Z</time>
			</trkpt>
			<trkpt lat="33.274818" lon="103.817772">
				<ele>2476.000000</ele>
				<time>1970-01-01T00:00:00Z</time>
			</trkpt>
			<trkpt lat="33.274826" lon="103.817772">
				<ele>2476.000000</ele>
				<time>1970-01-01T00:00:00Z</time>
			</trkpt>
			<trkpt lat="33.274826" lon="103.817772">
				<ele>2476.000000</ele>
				<time>1970-01-01T00:00:00Z</time>
			</trkpt>
			<trkpt lat="33.274830" lon="103.817772">
				<ele>2476.000000</ele>
				<time>1970-01-01T00:00:00Z</time>
			</trkpt>
			<trkpt lat="33.274830" lon="103.817764">
				<ele>2476.000000</ele>
				<time>1970-01-01T00:00:00Z</time>
			</trkpt>
			<trkpt lat="33.274834" lon="103.817757">
				<ele>2476.000000</ele>
				<time>1970-01-01T00:00:00Z</time>
			</trkpt>
			<trkpt lat="33.274834" lon="103.817749">
				<ele>2476.000000</ele>
				<time>1970-01-01T00:00:00Z</time>
			</trkpt>
			<trkpt lat="33.274837" lon="103.817749">
				<ele>2476.000000</ele>
				<time>1970-01-01T00:00:00Z</time>
			</trkpt>
			<trkpt lat="33.274837" lon="103.817749">
				<ele>2476.000000</ele>
				<time>1970-01-01T00:00:00Z</time>
			</trkpt>
			<trkpt lat="33.274841" lon="103.817749">
				<ele>2476.000000</ele>
				<time>1970-01-01T00:00:00Z</time>
			</trkpt>
			<trkpt lat="33.274841" lon="103.817741">
				<ele>2476.000000</ele>
				<time>1970-01-01T00:00:00Z</time>
			</trkpt>
			<trkpt lat="33.274845" lon="103.817741">
				<ele>2476.000000</ele>
				<time>1970-01-01T00:00:00Z</time>
			</trkpt>
			<trkpt lat="33.274845" lon="103.817734">
				<ele>2476.000000</ele>
				<time>1970-01-01T00:00:00Z</time>
			</trkpt>
			<trkpt lat="33.274845" lon="103.817734">
				<ele>2476.000000</ele>
				<time>1970-01-01T00:00:00Z</time>
			</trkpt>
			<trkpt lat="33.274853" lon="103.817734">
				<ele>2476.000000</ele>
				<time>1970-01-01T00:00:00Z</time>
			</trkpt>
			<trkpt lat="33.274853" lon="103.817726">
				<ele>2476.000000</ele>
				<time>1970-01-01T00:00:00Z</time>
			</trkpt>
			<trkpt lat="33.274857" lon="103.817726">
				<ele>2476.000000</ele>
				<time>1970-01-01T00:00:00Z</time>
			</trkpt>
			<trkpt lat="33.274857" lon="103.817719">
				<ele>2476.000000</ele>
				<time>1970-01-01T00:00:00Z</time>
			</trkpt>
			<trkpt lat="33.274860" lon="103.817719">
				<ele>2476.000000</ele>
				<time>1970-01-01T00:00:00Z</time>
			</trkpt>
			<trkpt lat="33.274860" lon="103.817719">
				<ele>2476.000000</ele>
				<time>1970-01-01T00:00:00Z</time>
			</trkpt>
			<trkpt lat="33.274860" lon="103.817711">
				<ele>2476.000000</ele>
				<time>1970-01-01T00:00:00Z</time>
			</trkpt>
			<trkpt lat="33.274864" lon="103.817711">
				<ele>2494.000000</ele>
				<time>1970-01-01T00:00:00Z</time>
			</trkpt>
			<trkpt lat="33.274864" lon="103.817703">
				<ele>2494.000000</ele>
				<time>1970-01-01T00:00:00Z</time>
			</trkpt>
			<trkpt lat="33.274868" lon="103.817703">
				<ele>2494.000000</ele>
				<time>1970-01-01T00:00:00Z</time>
			</trkpt>
			<trkpt lat="33.274868" lon="103.817696">
				<ele>2494.000000</ele>
				<time>1970-01-01T00:00:00Z</time>
			</trkpt>
			<trkpt lat="33.274872" lon="103.817696">
				<ele>2494.000000</ele>
				<time>1970-01-01T00:00:00Z</time>
			</trkpt>
			<trkpt lat="33.274872" lon="103.817696">
				<ele>2494.000000</ele>
				<time>1970-01-01T00:00:00Z</time>
			</trkpt>
			<trkpt lat="33.274872" lon="103.817688">
				<ele>2494.000000</ele>
				<time>1970-01-01T00:00:00Z</time>
			</trkpt>
			<trkpt lat="33.274879" lon="103.817688">
				<ele>2494.000000</ele>
				<time>1970-01-01T00:00:00Z</time>
			</trkpt>
			<trkpt lat="33.274879" lon="103.817680">
				<ele>2494.000000</ele>
				<time>1970-01-01T00:00:00Z</time>
			</trkpt>
			<trkpt lat="33.274883" lon="103.817680">
				<ele>2494.000000</ele>
				<time>1970-01-01T00:00:00Z</time>
			</trkpt>
			<trkpt lat="33.274883" lon="103.817680">
				<ele>2494.000000</ele>
				<time>1970-01-01T00:00:00Z</time>
			</trkpt>
			<trkpt lat="33.274887" lon="103.817680">
				<ele>2494.000000</ele>
				<time>1970-01-01T00:00:00Z</time>
			</trkpt>
			<trkpt lat="33.274887" lon="103.817673">
				<ele>2494.000000</ele>
				<time>1970-01-01T00:00:00Z</time>
			</trkpt>
			<trkpt lat="33.274891" lon="103.817673">
				<ele>2494.000000</ele>
				<time>1970-01-01T00:00:00Z</time>
			</trkpt>
			<trkpt lat="33.274891" lon="103.817665">
				<ele>2494.000000</ele>
				<time>1970-01-01T00:00:00Z</time>
			</trkpt>
			<trkpt lat="33.274895" lon="103.817665">
				<ele>2494.000000</ele>
				<time>1970-01-01T00:00:00Z</time>
			</trkpt>
			<trkpt lat="33.274895" lon="103.817657">
				<ele>2494.000000</ele>
				<time>1970-01-01T00:00:00Z</time>
			</trkpt>
			<trkpt lat="33.274902" lon="103.817657">
				<ele>2494.000000</ele>
				<time>1970-01-01T00:00:00Z</time>
			</trkpt>
			<trkpt lat="33.274902" lon="103.817657">
				<ele>2494.000000</ele>
				<time>1970-01-01T00:00:00Z</time>
			</trkpt>
			<trkpt lat="33.274906" lon="103.817657">
				<ele>2494.000000</ele>
				<time>1970-01-01T00:00:00Z</time>
			</trkpt>
			<trkpt lat="33.274906" lon="103.817650">
				<ele>2494.000000</ele>
				<time>1970-01-01T00:00:00Z</time>
			</trkpt>
			<trkpt lat="33.274906" lon="103.817642">
				<ele>2494.000000</ele>
				<time>1970-01-01T00:00:00Z</time>
			</trkpt>
			<trkpt lat="33.274910" lon="103.817642">
				<ele>2494.000000</ele>
				<time>1970-01-01T00:00:00Z</time>
			</trkpt>
			<trkpt lat="33.274910" lon="103.817642">
				<ele>2494.000000</ele>
				<time>1970-01-01T00:00:00Z</time>
			</trkpt>
			<trkpt lat="33.274914" lon="103.817642">
				<ele>2494.000000</ele>
				<time>1970-01-01T00:00:00Z</time>
			</trkpt>
			<trkpt lat="33.274914" lon="103.817635">
				<ele>2484.000000</ele>
				<time>1970-01-01T00:00:00Z</time>
			</trkpt>
			<trkpt lat="33.274918" lon="103.817635">
				<ele>2484.000000</ele>
				<time>1970-01-01T00:00:00Z</time>
			</trkpt>
			<trkpt lat="33.274921" lon="103.817635">
				<ele>2484.000000</ele>
				<time>1970-01-01T00:00:00Z</time>
			</trkpt>
			<trkpt lat="33.274921" lon="103.817627">
				<ele>2484.000000</ele>
				<time>1970-01-01T00:00:00Z</time>
			</trkpt>
			<trkpt lat="33.274921" lon="103.817627">
				<ele>2484.000000</ele>
				<time>1970-01-01T00:00:00Z</time>
			</trkpt>
			<trkpt lat="33.274929" lon="103.817627">
				<ele>2484.000000</ele>
				<time>1970-01-01T00:00:00Z</time>
			</trkpt>
			<trkpt lat="33.274929" lon="103.817619">
				<ele>2484.000000</ele>
				<time>1970-01-01T00:00:00Z</time>
			</trkpt>
			<trkpt lat="33.274933" lon="103.817619">
				<ele>2484.000000</ele>
				<time>1970-01-01T00:00:00Z</time>
			</trkpt>
			<trkpt lat="33.274933" lon="103.817612">
				<ele>2484.000000</ele>
				<time>1970-01-01T00:00:00Z</time>
			</trkpt>
			<trkpt lat="33.274937" lon="103.817612">
				<ele>2484.000000</ele>
				<time>1970-01-01T00:00:00Z</time>
			</trkpt>
			<trkpt lat="33.274937" lon="103.817604">
				<ele>2484.000000</ele>
				<time>1970-01-01T00:00:00Z</time>
			</trkpt>
			<trkpt lat="33.274940" lon="103.817604">
				<ele>2484.000000</ele>
				<time>1970-01-01T00:00:00Z</time>
			</trkpt>
			<trkpt lat="33.274940" lon="103.817604">
				<ele>2484.000000</ele>
				<time>1970-01-01T00:00:00Z</time>
			</trkpt>
			<trkpt lat="33.274940" lon="103.817596">
				<ele>2484.000000</ele>
				<time>1970-01-01T00:00:00Z</time>
			</trkpt>
			<trkpt lat="33.274944" lon="103.817596">
				<ele>2484.000000</ele>
				<time>1970-01-01T00:00:00Z</time>
			</trkpt>
			<trkpt lat="33.274944" lon="103.817589">
				<ele>2484.000000</ele>
				<time>1970-01-01T00:00:00Z</time>
			</trkpt>
			<trkpt lat="33.274948" lon="103.817589">
				<ele>2484.000000</ele>
				<time>1970-01-01T00:00:00Z</time>
			</trkpt>
			<trkpt lat="33.274948" lon="103.817589">
				<ele>2484.000000</ele>
				<time>1970-01-01T00:00:00Z</time>
			</trkpt>
			<trkpt lat="33.274956" lon="103.817589">
				<ele>2484.000000</ele>
				<time>1970-01-01T00:00:00Z</time>
			</trkpt>
			<trkpt lat="33.274956" lon="103.817581">
				<ele>2484.000000</ele>
				<time>1970-01-01T00:00:00Z</time>
			</trkpt>
			<trkpt lat="33.274960" lon="103.817581">
				<ele>2484.000000</ele>
				<time>1970-01-01T00:00:00Z</time>
			</trkpt>
			<trkpt lat="33.274960" lon="103.817574">
				<ele>2484.000000</ele>
				<time>1970-01-01T00:00:00Z</time>
			</trkpt>
			<trkpt lat="33.274963" lon="103.817574">
				<ele>2484.000000</ele>
				<time>1970-01-01T00:00:00Z</time>
			</trkpt>
			<trkpt lat="33.274963" lon="103.817574">
				<ele>2484.000000</ele>
				<time>1970-01-01T00:00:00Z</time>
			</trkpt>
			<trkpt lat="33.274967" lon="103.817574">
				<ele>2484.000000</ele>
				<time>1970-01-01T00:00:00Z</time>
			</trkpt>
			<trkpt lat="33.274967" lon="103.817566">
				<ele>2484.000000</ele>
				<time>1970-01-01T00:00:00Z</time>
			</trkpt>
			<trkpt lat="33.274967" lon="103.817558">
				<ele>2484.000000</ele>
				<time>1970-01-01T00:00:00Z</time>
			</trkpt>
			<trkpt lat="33.274971" lon="103.817558">
				<ele>2484.000000</ele>
				<time>1970-01-01T00:00:00Z</time>
			</trkpt>
			<trkpt lat="33.274971" lon="103.817551">
				<ele>2484.000000</ele>
				<time>1970-01-01T00:00:00Z</time>
			</trkpt>
			<trkpt lat="33.274979" lon="103.817551">
				<ele>2484.000000</ele>
				<time>1970-01-01T00:00:00Z</time>
			</trkpt>
			<trkpt lat="33.274979" lon="103.817551">
				<ele>2484.000000</ele>
				<time>1970-01-01T00:00:00Z</time>
			</trkpt>
			<trkpt lat="33.274982" lon="103.817551">
				<ele>2484.000000</ele>
				<time>1970-01-01T00:00:00Z</time>
			</trkpt>
			<trkpt lat="33.274982" lon="103.817543">
				<ele>2484.000000</ele>
				<time>1970-01-01T00:00:00Z</time>
			</trkpt>
			<trkpt lat="33.274986" lon="103.817543">
				<ele>2484.000000</ele>
				<time>1970-01-01T00:00:00Z</time>
			</trkpt>
			<trkpt lat="33.274986" lon="103.817535">
				<ele>2484.000000</ele>
				<time>1970-01-01T00:00:00Z</time>
			</trkpt>
			<trkpt lat="33.274986" lon="103.817535">
				<ele>2484.000000</ele>
				<time>1970-01-01T00:00:00Z</time>
			</trkpt>
			<trkpt lat="33.274990" lon="103.817535">
				<ele>2484.000000</ele>
				<time>1970-01-01T00:00:00Z</time>
			</trkpt>
			<trkpt lat="33.274990" lon="103.817528">
				<ele>2484.000000</ele>
				<time>1970-01-01T00:00:00Z</time>
			</trkpt>
			<trkpt lat="33.274994" lon="103.817528">
				<ele>2484.000000</ele>
				<time>1970-01-01T00:00:00Z</time>
			</trkpt>
			<trkpt lat="33.274994" lon="103.817520">
				<ele>2484.000000</ele>
				<time>1970-01-01T00:00:00Z</time>
			</trkpt>
			<trkpt lat="33.274998" lon="103.817520">
				<ele>2484.000000</ele>
				<time>1970-01-01T00:00:00Z</time>
			</trkpt>
			<trkpt lat="33.274998" lon="103.817520">
				<ele>2484.000000</ele>
				<time>1970-01-01T00:00:00Z</time>
			</trkpt>
			<trkpt lat="33.274998" lon="103.817513">
				<ele>2484.000000</ele>
				<time>1970-01-01T00:00:00Z</time>
			</trkpt>
			<trkpt lat="33.275005" lon="103.817513">
				<ele>2484.000000</ele>
				<time>1970-01-01T00:00:00Z</time>
			</trkpt>
			<trkpt lat="33.275005" lon="103.817505">
				<ele>2484.000000</ele>
				<time>1970-01-01T00:00:00Z</time>
			</trkpt>
			<trkpt lat="33.275009" lon="103.817505">
				<ele>2484.000000</ele>
				<time>1970-01-01T00:00:00Z</time>
			</trkpt>
			<trkpt lat="33.275009" lon="103.817497">
				<ele>2484.000000</ele>
				<time>1970-01-01T00:00:00Z</time>
			</trkpt>
			<trkpt lat="33.275013" lon="103.817497">
				<ele>2484.000000</ele>
				<time>1970-01-01T00:00:00Z</time>
			</trkpt>
			<trkpt lat="33.275013" lon="103.817497">
				<ele>2484.000000</ele>
				<time>1970-01-01T00:00:00Z</time>
			</trkpt>
			<trkpt lat="33.275013" lon="103.817490">
				<ele>2484.000000</ele>
				<time>1970-01-01T00:00:00Z</time>
			</trkpt>
			<trkpt lat="33.275017" lon="103.817490">
				<ele>2484.000000</ele>
				<time>1970-01-01T00:00:00Z</time>
			</trkpt>
			<trkpt lat="33.275017" lon="103.817482">
				<ele>2484.000000</ele>
				<time>1970-01-01T00:00:00Z</time>
			</trkpt>
			<trkpt lat="33.275021" lon="103.817482">
				<ele>2484.000000</ele>
				<time>1970-01-01T00:00:00Z</time>
			</trkpt>
			<trkpt lat="33.275021" lon="103.817482">
				<ele>2484.000000</ele>
				<time>1970-01-01T00:00:00Z</time>
			</trkpt>
			<trkpt lat="33.275021" lon="103.817474">
				<ele>2484.000000</ele>
				<time>1970-01-01T00:00:00Z</time>
			</trkpt>
			<trkpt lat="33.275024" lon="103.817474">
				<ele>2484.000000</ele>
				<time>1970-01-01T00:00:00Z</time>
			</trkpt>
			<trkpt lat="33.275024" lon="103.817467">
				<ele>2484.000000</ele>
				<time>1970-01-01T00:00:00Z</time>
			</trkpt>
			<trkpt lat="33.275032" lon="103.817467">
				<ele>2484.000000</ele>
				<time>1970-01-01T00:00:00Z</time>
			</trkpt>
			<trkpt lat="33.275032" lon="103.817459">
				<ele>2484.000000</ele>
				<time>1970-01-01T00:00:00Z</time>
			</trkpt>
			<trkpt lat="33.275036" lon="103.817459">
				<ele>2484.000000</ele>
				<time>1970-01-01T00:00:00Z</time>
			</trkpt>
			<trkpt lat="33.275036" lon="103.817459">
				<ele>2484.000000</ele>
				<time>1970-01-01T00:00:00Z</time>
			</trkpt>
			<trkpt lat="33.275036" lon="103.817451">
				<ele>2484.000000</ele>
				<time>1970-01-01T00:00:00Z</time>
			</trkpt>
			<trkpt lat="33.275040" lon="103.817451">
				<ele>2484.000000</ele>
				<time>1970-01-01T00:00:00Z</time>
			</trkpt>
			<trkpt lat="33.275040" lon="103.817444">
				<ele>2484.000000</ele>
				<time>1970-01-01T00:00:00Z</time>
			</trkpt>
			<trkpt lat="33.275040" lon="103.817444">
				<ele>2484.000000</ele>
				<time>1970-01-01T00:00:00Z</time>
			</trkpt>
			<trkpt lat="33.275043" lon="103.817444">
				<ele>2484.000000</ele>
				<time>1970-01-01T00:00:00Z</time>
			</trkpt>
			<trkpt lat="33.275047" lon="103.817444">
				<ele>2484.000000</ele>
				<time>1970-01-01T00:00:00Z</time>
			</trkpt>
			<trkpt lat="33.275047" lon="103.817436">
				<ele>2484.000000</ele>
				<time>1970-01-01T00:00:00Z</time>
			</trkpt>
			<trkpt lat="33.275047" lon="103.817429">
				<ele>2484.000000</ele>
				<time>1970-01-01T00:00:00Z</time>
			</trkpt>
			<trkpt lat="33.275055" lon="103.817429">
				<ele>2484.000000</ele>
				<time>1970-01-01T00:00:00Z</time>
			</trkpt>
			<trkpt lat="33.275055" lon="103.817429">
				<ele>2484.000000</ele>
				<time>1970-01-01T00:00:00Z</time>
			</trkpt>
			<trkpt lat="33.275055" lon="103.817421">
				<ele>2484.000000</ele>
				<time>1970-01-01T00:00:00Z</time>
			</trkpt>
			<trkpt lat="33.275059" lon="103.817421">
				<ele>2484.000000</ele>
				<time>1970-01-01T00:00:00Z</time>
			</trkpt>
			<trkpt lat="33.275059" lon="103.817413">
				<ele>2484.000000</ele>
				<time>1970-01-01T00:00:00Z</time>
			</trkpt>
			<trkpt lat="33.275063" lon="103.817413">
				<ele>2484.000000</ele>
				<time>1970-01-01T00:00:00Z</time>
			</trkpt>
			<trkpt lat="33.275063" lon="103.817406">
				<ele>2484.000000</ele>
				<time>1970-01-01T00:00:00Z</time>
			</trkpt>
			<trkpt lat="33.275066" lon="103.817406">
				<ele>2484.000000</ele>
				<time>1970-01-01T00:00:00Z</time>
			</trkpt>
			<trkpt lat="33.275070" lon="103.817406">
				<ele>2484.000000</ele>
				<time>1970-01-01T00:00:00Z</time>
			</trkpt>
			<trkpt lat="33.275070" lon="103.817398">
				<ele>2484.000000</ele>
				<time>1970-01-01T00:00:00Z</time>
			</trkpt>
			<trkpt lat="33.275070" lon="103.817390">
				<ele>2484.000000</ele>
				<time>1970-01-01T00:00:00Z</time>
			</trkpt>
			<trkpt lat="33.275074" lon="103.817390">
				<ele>2484.000000</ele>
				<time>1970-01-01T00:00:00Z</time>
			</trkpt>
			<trkpt lat="33.275074" lon="103.817390">
				<ele>2484.000000</ele>
				<time>1970-01-01T00:00:00Z</time>
			</trkpt>
			<trkpt lat="33.275082" lon="103.817390">
				<ele>2484.000000</ele>
				<time>1970-01-01T00:00:00Z</time>
			</trkpt>
			<trkpt lat="33.275082" lon="103.817383">
				<ele>2484.000000</ele>
				<time>1970-01-01T00:00:00Z</time>
			</trkpt>
			<trkpt lat="33.275082" lon="103.817375">
				<ele>2484.000000</ele>
				<time>1970-01-01T00:00:00Z</time>
			</trkpt>
			<trkpt lat="33.275085" lon="103.817375">
				<ele>2484.000000</ele>
				<time>1970-01-01T00:00:00Z</time>
			</trkpt>
			<trkpt lat="33.275085" lon="103.817375">
				<ele>2484.000000</ele>
				<time>1970-01-01T00:00:00Z</time>
			</trkpt>
			<trkpt lat="33.275089" lon="103.817375">
				<ele>2484.000000</ele>
				<time>1970-01-01T00:00:00Z</time>
			</trkpt>
			<trkpt lat="33.275089" lon="103.817368">
				<ele>2484.000000</ele>
				<time>1970-01-01T00:00:00Z</time>
			</trkpt>
			<trkpt lat="33.275093" lon="103.817368">
				<ele>2484.000000</ele>
				<time>1970-01-01T00:00:00Z</time>
			</trkpt>
			<trkpt lat="33.275093" lon="103.817360">
				<ele>2480.000000</ele>
				<time>1970-01-01T00:00:00Z</time>
			</trkpt>
			<trkpt lat="33.275093" lon="103.817352">
				<ele>2480.000000</ele>
				<time>1970-01-01T00:00:00Z</time>
			</trkpt>
			<trkpt lat="33.275097" lon="103.817352">
				<ele>2480.000000</ele>
				<time>1970-01-01T00:00:00Z</time>
			</trkpt>
			<trkpt lat="33.275097" lon="103.817352">
				<ele>2480.000000</ele>
				<time>1970-01-01T00:00:00Z</time>
			</trkpt>
			<trkpt lat="33.275097" lon="103.817345">
				<ele>2480.000000</ele>
				<time>1970-01-01T00:00:00Z</time>
			</trkpt>
			<trkpt lat="33.275101" lon="103.817345">
				<ele>2480.000000</ele>
				<time>1970-01-01T00:00:00Z</time>
			</trkpt>
			<trkpt lat="33.275108" lon="103.817345">
				<ele>2480.000000</ele>
				<time>1970-01-01T00:00:00Z</time>
			</trkpt>
			<trkpt lat="33.275108" lon="103.817337">
				<ele>2480.000000</ele>
				<time>1970-01-01T00:00:00Z</time>
			</trkpt>
			<trkpt lat="33.275108" lon="103.817337">
				<ele>2480.000000</ele>
				<time>1970-01-01T00:00:00Z</time>
			</trkpt>
			<trkpt lat="33.275112" lon="103.817337">
				<ele>2480.000000</ele>
				<time>1970-01-01T00:00:00Z</time>
			</trkpt>
			<trkpt lat="33.275112" lon="103.817329">
				<ele>2480.000000</ele>
				<time>1970-01-01T00:00:00Z</time>
			</trkpt>
			<trkpt lat="33.275112" lon="103.817322">
				<ele>2480.000000</ele>
				<time>1970-01-01T00:00:00Z</time>
			</trkpt>
			<trkpt lat="33.275116" lon="103.817322">
				<ele>2480.000000</ele>
				<time>1970-01-01T00:00:00Z</time>
			</trkpt>
			<trkpt lat="33.275116" lon="103.817314">
				<ele>2480.000000</ele>
				<time>1970-01-01T00:00:00Z</time>
			</trkpt>
			<trkpt lat="33.275116" lon="103.817314">
				<ele>2480.000000</ele>
				<time>1970-01-01T00:00:00Z</time>
			</trkpt>
			<trkpt lat="33.275120" lon="103.817314">
				<ele>2480.000000</ele>
				<time>1970-01-01T00:00:00Z</time>
			</trkpt>
			<trkpt lat="33.275124" lon="103.817314">
				<ele>2480.000000</ele>
				<time>1970-01-01T00:00:00Z</time>
			</trkpt>
			<trkpt lat="33.275124" lon="103.817307">
				<ele>2480.000000</ele>
				<time>1970-01-01T00:00:00Z</time>
			</trkpt>
			<trkpt lat="33.275124" lon="103.817299">
				<ele>2480.000000</ele>
				<time>1970-01-01T00:00:00Z</time>
			</trkpt>
			<trkpt lat="33.275131" lon="103.817299">
				<ele>2480.000000</ele>
				<time>1970-01-01T00:00:00Z</time>
			</trkpt>
			<trkpt lat="33.275131" lon="103.817299">
				<ele>2480.000000</ele>
				<time>1970-01-01T00:00:00Z</time>
			</trkpt>
			<trkpt lat="33.275131" lon="103.817291">
				<ele>2480.000000</ele>
				<time>1970-01-01T00:00:00Z</time>
			</trkpt>
			<trkpt lat="33.275135" lon="103.817291">
				<ele>2480.000000</ele>
				<time>1970-01-01T00:00:00Z</time>
			</trkpt>
			<trkpt lat="33.275135" lon="103.817284">
				<ele>2480.000000</ele>
				<time>1970-01-01T00:00:00Z</time>
			</trkpt>
			<trkpt lat="33.275139" lon="103.817284">
				<ele>2480.000000</ele>
				<time>1970-01-01T00:00:00Z</time>
			</trkpt>
			<trkpt lat="33.275139" lon="103.817284">
				<ele>2480.000000</ele>
				<time>1970-01-01T00:00:00Z</time>
			</trkpt>
			<trkpt lat="33.275143" lon="103.817284">
				<ele>2490.000000</ele>
				<time>1970-01-01T00:00:00Z</time>
			</trkpt>
			<trkpt lat="33.275143" lon="103.817276">
				<ele>2490.000000</ele>
				<time>1970-01-01T00:00:00Z</time>
			</trkpt>
			<trkpt lat="33.275143" lon="103.817268">
				<ele>2490.000000</ele>
				<time>1970-01-01T00:00:00Z</time>
			</trkpt>
			<trkpt lat="33.275146" lon="103.817268">
				<ele>2490.000000</ele>
				<time>1970-01-01T00:00:00Z</time>
			</trkpt>
			<trkpt lat="33.275146" lon="103.817261">
				<ele>2490.000000</ele>
				<time>1970-01-01T00:00:00Z</time>
			</trkpt>
			<trkpt lat="33.275150" lon="103.817261">
				<ele>2490.000000</ele>
				<time>1970-01-01T00:00:00Z</time>
			</trkpt>
			<trkpt lat="33.275150" lon="103.817261">
				<ele>2490.000000</ele>
				<time>1970-01-01T00:00:00Z</time>
			</trkpt>
			<trkpt lat="33.275150" lon="103.817253">
				<ele>2490.000000</ele>
				<time>1970-01-01T00:00:00Z</time>
			</trkpt>
			<trkpt lat="33.275158" lon="103.817253">
				<ele>2490.000000</ele>
				<time>1970-01-01T00:00:00Z</time>
			</trkpt>
			<trkpt lat="33.275158" lon="103.817245">
				<ele>2490.000000</ele>
				<time>1970-01-01T00:00:00Z</time>
			</trkpt>
			<trkpt lat="33.275162" lon="103.817245">
				<ele>2490.000000</ele>
				<time>1970-01-01T00:00:00Z</time>
			</trkpt>
			<trkpt lat="33.275162" lon="103.817245">
				<ele>2490.000000</ele>
				<time>1970-01-01T00:00:00Z</time>
			</trkpt>
			<trkpt lat="33.275166" lon="103.817238">
				<ele>2490.000000</ele>
				<time>1970-01-01T00:00:00Z</time>
			</trkpt>
			<trkpt lat="33.275166" lon="103.817230">
				<ele>2490.000000</ele>
				<time>1970-01-01T00:00:00Z</time>
			</trkpt>
			<trkpt lat="33.275169" lon="103.817230">
				<ele>2490.000000</ele>
				<time>1970-01-01T00:00:00Z</time>
			</trkpt>
			<trkpt lat="33.275169" lon="103.817230">
				<ele>2490.000000</ele>
				<time>1970-01-01T00:00:00Z</time>
			</trkpt>
			<trkpt lat="33.275169" lon="103.817223">
				<ele>2490.000000</ele>
				<time>1970-01-01T00:00:00Z</time>
			</trkpt>
			<trkpt lat="33.275173" lon="103.817223">
				<ele>2490.000000</ele>
				<time>1970-01-01T00:00:00Z</time>
			</trkpt>
			<trkpt lat="33.275177" lon="103.817223">
				<ele>2490.000000</ele>
				<time>1970-01-01T00:00:00Z</time>
			</trkpt>
			<trkpt lat="33.275177" lon="103.817215">
				<ele>2490.000000</ele>
				<time>1970-01-01T00:00:00Z</time>
			</trkpt>
			<trkpt lat="33.275177" lon="103.817207">
				<ele>2490.000000</ele>
				<time>1970-01-01T00:00:00Z</time>
			</trkpt>
			<trkpt lat="33.275185" lon="103.817207">
				<ele>2490.000000</ele>
				<time>1970-01-01T00:00:00Z</time>
			</trkpt>
			<trkpt lat="33.275185" lon="103.817207">
				<ele>2490.000000</ele>
				<time>1970-01-01T00:00:00Z</time>
			</trkpt>
			<trkpt lat="33.275188" lon="103.817200">
				<ele>2490.000000</ele>
				<time>1970-01-01T00:00:00Z</time>
			</trkpt>
			<trkpt lat="33.275188" lon="103.817192">
				<ele>2490.000000</ele>
				<time>1970-01-01T00:00:00Z</time>
			</trkpt>
			<trkpt lat="33.275192" lon="103.817192">
				<ele>2490.000000</ele>
				<time>1970-01-01T00:00:00Z</time>
			</trkpt>
			<trkpt lat="33.275192" lon="103.817192">
				<ele>2490.000000</ele>
				<time>1970-01-01T00:00:00Z</time>
			</trkpt>
			<trkpt lat="33.275196" lon="103.817192">
				<ele>2490.000000</ele>
				<time>1970-01-01T00:00:00Z</time>
			</trkpt>
			<trkpt lat="33.275196" lon="103.817184">
				<ele>2490.000000</ele>
				<time>1970-01-01T00:00:00Z</time>
			</trkpt>
			<trkpt lat="33.275200" lon="103.817184">
				<ele>2490.000000</ele>
				<time>1970-01-01T00:00:00Z</time>
			</trkpt>
			<trkpt lat="33.275200" lon="103.817177">
				<ele>2490.000000</ele>
				<time>1970-01-01T00:00:00Z</time>
			</trkpt>
			<trkpt lat="33.275200" lon="103.817177">
				<ele>2490.000000</ele>
				<time>1970-01-01T00:00:00Z</time>
			</trkpt>
			<trkpt lat="33.275204" lon="103.817177">
				<ele>2490.000000</ele>
				<time>1970-01-01T00:00:00Z</time>
			</trkpt>
			<trkpt lat="33.275204" lon="103.817169">
				<ele>2490.000000</ele>
				<time>1970-01-01T00:00:00Z</time>
			</trkpt>
			<trkpt lat="33.275211" lon="103.817162">
				<ele>2490.000000</ele>
				<time>1970-01-01T00:00:00Z</time>
			</trkpt>
			<trkpt lat="33.275211" lon="103.817154">
				<ele>2490.000000</ele>
				<time>1970-01-01T00:00:00Z</time>
			</trkpt>
			<trkpt lat="33.275215" lon="103.817154">
				<ele>2490.000000</ele>
				<time>1970-01-01T00:00:00Z</time>
			</trkpt>
			<trkpt lat="33.275219" lon="103.817154">
				<ele>2490.000000</ele>
				<time>1970-01-01T00:00:00Z</time>
			</trkpt>
			<trkpt lat="33.275219" lon="103.817146">
				<ele>2490.000000</ele>
				<time>1970-01-01T00:00:00Z</time>
			</trkpt>
			<trkpt lat="33.275219" lon="103.817139">
				<ele>2490.000000</ele>
				<time>1970-01-01T00:00:00Z</time>
			</trkpt>
			<trkpt lat="33.275223" lon="103.817139">
				<ele>2490.000000</ele>
				<time>1970-01-01T00:00:00Z</time>
			</trkpt>
			<trkpt lat="33.275223" lon="103.817139">
				<ele>2490.000000</ele>
				<time>1970-01-01T00:00:00Z</time>
			</trkpt>
			<trkpt lat="33.275223" lon="103.817131">
				<ele>2490.000000</ele>
				<time>1970-01-01T00:00:00Z</time>
			</trkpt>
			<trkpt lat="33.275227" lon="103.817131">
				<ele>2490.000000</ele>
				<time>1970-01-01T00:00:00Z</time>
			</trkpt>
			<trkpt lat="33.275227" lon="103.817123">
				<ele>2490.000000</ele>
				<time>1970-01-01T00:00:00Z</time>
			</trkpt>
			<trkpt lat="33.275234" lon="103.817123">
				<ele>2490.000000</ele>
				<time>1970-01-01T00:00:00Z</time>
			</trkpt>
			<trkpt lat="33.275234" lon="103.817116">
				<ele>2490.000000</ele>
				<time>1970-01-01T00:00:00Z</time>
			</trkpt>
			<trkpt lat="33.275234" lon="103.817116">
				<ele>2490.000000</ele>
				<time>1970-01-01T00:00:00Z</time>
			</trkpt>
			<trkpt lat="33.275238" lon="103.817116">
				<ele>2490.000000</ele>
				<time>1970-01-01T00:00:00Z</time>
			</trkpt>
			<trkpt lat="33.275238" lon="103.817108">
				<ele>2490.000000</ele>
				<time>1970-01-01T00:00:00Z</time>
			</trkpt>
			<trkpt lat="33.275242" lon="103.817108">
				<ele>2490.000000</ele>
				<time>1970-01-01T00:00:00Z</time>
			</trkpt>
			<trkpt lat="33.275242" lon="103.817101">
				<ele>2490.000000</ele>
				<time>1970-01-01T00:00:00Z</time>
			</trkpt>
			<trkpt lat="33.275242" lon="103.817101">
				<ele>2490.000000</ele>
				<time>1970-01-01T00:00:00Z</time>
			</trkpt>
			<trkpt lat="33.275246" lon="103.817093">
				<ele>2490.000000</ele>
				<time>1970-01-01T00:00:00Z</time>
			</trkpt>
			<trkpt lat="33.275246" lon="103.817085">
				<ele>2490.000000</ele>
				<time>1970-01-01T00:00:00Z</time>
			</trkpt>
			<trkpt lat="33.275249" lon="103.817085">
				<ele>2490.000000</ele>
				<time>1970-01-01T00:00:00Z</time>
			</trkpt>
			<trkpt lat="33.275249" lon="103.817085">
				<ele>2490.000000</ele>
				<time>1970-01-01T00:00:00Z</time>
			</trkpt>
			<trkpt lat="33.275253" lon="103.817085">
				<ele>2490.000000</ele>
				<time>1970-01-01T00:00:00Z</time>
			</trkpt>
			<trkpt lat="33.275253" lon="103.817078">
				<ele>2477.000000</ele>
				<time>1970-01-01T00:00:00Z</time>
			</trkpt>
			<trkpt lat="33.275261" lon="103.817078">
				<ele>2477.000000</ele>
				<time>1970-01-01T00:00:00Z</time>
			</trkpt>
			<trkpt lat="33.275261" lon="103.817070">
				<ele>2477.000000</ele>
				<time>1970-01-01T00:00:00Z</time>
			</trkpt>
			<trkpt lat="33.275261" lon="103.817062">
				<ele>2477.000000</ele>
				<time>1970-01-01T00:00:00Z</time>
			</trkpt>
			<trkpt lat="33.275265" lon="103.817062">
				<ele>2477.000000</ele>
				<time>1970-01-01T00:00:00Z</time>
			</trkpt>
			<trkpt lat="33.275265" lon="103.817062">
				<ele>2477.000000</ele>
				<time>1970-01-01T00:00:00Z</time>
			</trkpt>
			<trkpt lat="33.275265" lon="103.817055">
				<ele>2477.000000</ele>
				<time>1970-01-01T00:00:00Z</time>
			</trkpt>
			<trkpt lat="33.275269" lon="103.817055">
				<ele>2477.000000</ele>
				<time>1970-01-01T00:00:00Z</time>
			</trkpt>
			<trkpt lat="33.275269" lon="103.817047">
				<ele>2477.000000</ele>
				<time>1970-01-01T00:00:00Z</time>
			</trkpt>
			<trkpt lat="33.275272" lon="103.817047">
				<ele>2477.000000</ele>
				<time>1970-01-01T00:00:00Z</time>
			</trkpt>
			<trkpt lat="33.275272" lon="103.817047">
				<ele>2477.000000</ele>
				<time>1970-01-01T00:00:00Z</time>
			</trkpt>
			<trkpt lat="33.275272" lon="103.817039">
				<ele>2477.000000</ele>
				<time>1970-01-01T00:00:00Z</time>
			</trkpt>
			<trkpt lat="33.275276" lon="103.817039">
				<ele>2477.000000</ele>
				<time>1970-01-01T00:00:00Z</time>
			</trkpt>
			<trkpt lat="33.275276" lon="103.817032">
				<ele>2477.000000</ele>
				<time>1970-01-01T00:00:00Z</time>
			</trkpt>
			<trkpt lat="33.275280" lon="103.817032">
				<ele>2477.000000</ele>
				<time>1970-01-01T00:00:00Z</time>
			</trkpt>
			<trkpt lat="33.275280" lon="103.817032">
				<ele>2477.000000</ele>
				<time>1970-01-01T00:00:00Z</time>
			</trkpt>
			<trkpt lat="33.275280" lon="103.817024">
				<ele>2477.000000</ele>
				<time>1970-01-01T00:00:00Z</time>
			</trkpt>
			<trkpt lat="33.275280" lon="103.817017">
				<ele>2477.000000</ele>
				<time>1970-01-01T00:00:00Z</time>
			</trkpt>
			<trkpt lat="33.275288" lon="103.817017">
				<ele>2477.000000</ele>
				<time>1970-01-01T00:00:00Z</time>
			</trkpt>
			<trkpt lat="33.275288" lon="103.817009">
				<ele>2477.000000</ele>
				<time>1970-01-01T00:00:00Z</time>
			</trkpt>
			<trkpt lat="33.275291" lon="103.817009">
				<ele>2477.000000</ele>
				<time>1970-01-01T00:00:00Z</time>
			</trkpt>
			<trkpt lat="33.275291" lon="103.817009">
				<ele>2477.000000</ele>
				<time>1970-01-01T00:00:00Z</time>
			</trkpt>
			<trkpt lat="33.275291" lon="103.817001">
				<ele>2477.000000</ele>
				<time>1970-01-01T00:00:00Z</time>
			</trkpt>
			<trkpt lat="33.275295" lon="103.817001">
				<ele>2477.000000</ele>
				<time>1970-01-01T00:00:00Z</time>
			</trkpt>
			<trkpt lat="33.275295" lon="103.816994">
				<ele>2477.000000</ele>
				<time>1970-01-01T00:00:00Z</time>
			</trkpt>
			<trkpt lat="33.275299" lon="103.816994">
				<ele>2477.000000</ele>
				<time>1970-01-01T00:00:00Z</time>
			</trkpt>
			<trkpt lat="33.275299" lon="103.816994">
				<ele>2477.000000</ele>
				<time>1970-01-01T00:00:00Z</time>
			</trkpt>
			<trkpt lat="33.275299" lon="103.816986">
				<ele>2477.000000</ele>
				<time>1970-01-01T00:00:00Z</time>
			</trkpt>
			<trkpt lat="33.275299" lon="103.816978">
				<ele>2477.000000</ele>
				<time>1970-01-01T00:00:00Z</time>
			</trkpt>
			<trkpt lat="33.275303" lon="103.816978">
				<ele>2477.000000</ele>
				<time>1970-01-01T00:00:00Z</time>
			</trkpt>
			<trkpt lat="33.275303" lon="103.816971">
				<ele>2477.000000</ele>
				<time>1970-01-01T00:00:00Z</time>
			</trkpt>
			<trkpt lat="33.275311" lon="103.816971">
				<ele>2477.000000</ele>
				<time>1970-01-01T00:00:00Z</time>
			</trkpt>
			<trkpt lat="33.275311" lon="103.816971">
				<ele>2477.000000</ele>
				<time>1970-01-01T00:00:00Z</time>
			</trkpt>
			<trkpt lat="33.275311" lon="103.816963">
				<ele>2477.000000</ele>
				<time>1970-01-01T00:00:00Z</time>
			</trkpt>
			<trkpt lat="33.275314" lon="103.816956">
				<ele>2477.000000</ele>
				<time>1970-01-01T00:00:00Z</time>
			</trkpt>
			<trkpt lat="33.275314" lon="103.816956">
				<ele>2477.000000</ele>
				<time>1970-01-01T00:00:00Z</time>
			</trkpt>
			<trkpt lat="33.275318" lon="103.816956">
				<ele>2477.000000</ele>
				<time>1970-01-01T00:00:00Z</time>
			</trkpt>
			<trkpt lat="33.275318" lon="103.816948">
				<ele>2477.000000</ele>
				<time>1970-01-01T00:00:00Z</time>
			</trkpt>
			<trkpt lat="33.275322" lon="103.816948">
				<ele>2477.000000</ele>
				<time>1970-01-01T00:00:00Z</time>
			</trkpt>
			<trkpt lat="33.275322" lon="103.816940">
				<ele>2477.000000</ele>
				<time>1970-01-01T00:00:00Z</time>
			</trkpt>
			<trkpt lat="33.275322" lon="103.816940">
				<ele>2477.000000</ele>
				<time>1970-01-01T00:00:00Z</time>
			</trkpt>
			<trkpt lat="33.275326" lon="103.816940">
				<ele>2477.000000</ele>
				<time>1970-01-01T00:00:00Z</time>
			</trkpt>
			<trkpt lat="33.275326" lon="103.816933">
				<ele>2477.000000</ele>
				<time>1970-01-01T00:00:00Z</time>
			</trkpt>
			<trkpt lat="33.275326" lon="103.816925">
				<ele>2477.000000</ele>
				<time>1970-01-01T00:00:00Z</time>
			</trkpt>
			<trkpt lat="33.275330" lon="103.816925">
				<ele>2477.000000</ele>
				<time>1970-01-01T00:00:00Z</time>
			</trkpt>
			<trkpt lat="33.275330" lon="103.816917">
				<ele>2477.000000</ele>
				<time>1970-01-01T00:00:00Z</time>
			</trkpt>
			<trkpt lat="33.275330" lon="103.816917">
				<ele>2477.000000</ele>
				<time>1970-01-01T00:00:00Z</time>
			</trkpt>
			<trkpt lat="33.275337" lon="103.816917">
				<ele>2477.000000</ele>
				<time>1970-01-01T00:00:00Z</time>
			</trkpt>
			<trkpt lat="33.275337" lon="103.816910">
				<ele>2477.000000</ele>
				<time>1970-01-01T00:00:00Z</time>
			</trkpt>
			<trkpt lat="33.275341" lon="103.816910">
				<ele>2477.000000</ele>
				<time>1970-01-01T00:00:00Z</time>
			</trkpt>
			<trkpt lat="33.275341" lon="103.816902">
				<ele>2477.000000</ele>
				<time>1970-01-01T00:00:00Z</time>
			</trkpt>
			<trkpt lat="33.275341" lon="103.816902">
				<ele>2477.000000</ele>
				<time>1970-01-01T00:00:00Z</time>
			</trkpt>
			<trkpt lat="33.275345" lon="103.816902">
				<ele>2477.000000</ele>
				<time>1970-01-01T00:00:00Z</time>
			</trkpt>
			<trkpt lat="33.275345" lon="103.816895">
				<ele>2477.000000</ele>
				<time>1970-01-01T00:00:00Z</time>
			</trkpt>
			<trkpt lat="33.275349" lon="103.816895">
				<ele>2477.000000</ele>
				<time>1970-01-01T00:00:00Z</time>
			</trkpt>
			<trkpt lat="33.275349" lon="103.816887">
				<ele>2477.000000</ele>
				<time>1970-01-01T00:00:00Z</time>
			</trkpt>
			<trkpt lat="33.275349" lon="103.816887">
				<ele>2477.000000</ele>
				<time>1970-01-01T00:00:00Z</time>
			</trkpt>
			<trkpt lat="33.275352" lon="103.816887">
				<ele>2477.000000</ele>
				<time>1970-01-01T00:00:00Z</time>
			</trkpt>
			<trkpt lat="33.275352" lon="103.816879">
				<ele>2477.000000</ele>
				<time>1970-01-01T00:00:00Z</time>
			</trkpt>
			<trkpt lat="33.275356" lon="103.816879">
				<ele>2477.000000</ele>
				<time>1970-01-01T00:00:00Z</time>
			</trkpt>
			<trkpt lat="33.275356" lon="103.816872">
				<ele>2477.000000</ele>
				<time>1970-01-01T00:00:00Z</time>
			</trkpt>
			<trkpt lat="33.275356" lon="103.816864">
				<ele>2477.000000</ele>
				<time>1970-01-01T00:00:00Z</time>
			</trkpt>
			<trkpt lat="33.275364" lon="103.816864">
				<ele>2477.000000</ele>
				<time>1970-01-01T00:00:00Z</time>
			</trkpt>
			<trkpt lat="33.275364" lon="103.816864">
				<ele>2477.000000</ele>
				<time>1970-01-01T00:00:00Z</time>
			</trkpt>
			<trkpt lat="33.275368" lon="103.816856">
				<ele>2477.000000</ele>
				<time>1970-01-01T00:00:00Z</time>
			</trkpt>
			<trkpt lat="33.275368" lon="103.816849">
				<ele>2477.000000</ele>
				<time>1970-01-01T00:00:00Z</time>
			</trkpt>
			<trkpt lat="33.275372" lon="103.816849">
				<ele>2477.000000</ele>
				<time>1970-01-01T00:00:00Z</time>
			</trkpt>
			<trkpt lat="33.275372" lon="103.816849">
				<ele>2477.000000</ele>
				<time>1970-01-01T00:00:00Z</time>
			</trkpt>
			<trkpt lat="33.275375" lon="103.816849">
				<ele>2477.000000</ele>
				<time>1970-01-01T00:00:00Z</time>
			</trkpt>
			<trkpt lat="33.275375" lon="103.816841">
				<ele>2477.000000</ele>
				<time>1970-01-01T00:00:00Z</time>
			</trkpt>
			<trkpt lat="33.275379" lon="103.816841">
				<ele>2477.000000</ele>
				<time>1970-01-01T00:00:00Z</time>
			</trkpt>
			<trkpt lat="33.275379" lon="103.816833">
				<ele>2477.000000</ele>
				<time>1970-01-01T00:00:00Z</time>
			</trkpt>
			<trkpt lat="33.275387" lon="103.816833">
				<ele>2477.000000</ele>
				<time>1970-01-01T00:00:00Z</time>
			</trkpt>
			<trkpt lat="33.275387" lon="103.816833">
				<ele>2477.000000</ele>
				<time>1970-01-01T00:00:00Z</time>
			</trkpt>
			<trkpt lat="33.275391" lon="103.816833">
				<ele>2477.000000</ele>
				<time>1970-01-01T00:00:00Z</time>
			</trkpt>
			<trkpt lat="33.275391" lon="103.816826">
				<ele>2477.000000</ele>
				<time>1970-01-01T00:00:00Z</time>
			</trkpt>
			<trkpt lat="33.275394" lon="103.816826">
				<ele>2477.000000</ele>
				<time>1970-01-01T00:00:00Z</time>
			</trkpt>
			<trkpt lat="33.275398" lon="103.816826">
				<ele>2477.000000</ele>
				<time>1970-01-01T00:00:00Z</time>
			</trkpt>
			<trkpt lat="33.275398" lon="103.816818">
				<ele>2477.000000</ele>
				<time>1970-01-01T00:00:00Z</time>
			</trkpt>
			<trkpt lat="33.275402" lon="103.816818">
				<ele>2477.000000</ele>
				<time>1970-01-01T00:00:00Z</time>
			</trkpt>
			<trkpt lat="33.275406" lon="103.816818">
				<ele>2477.000000</ele>
				<time>1970-01-01T00:00:00Z</time>
			</trkpt>
			<trkpt lat="33.275406" lon="103.816811">
				<ele>2477.000000</ele>
				<time>1970-01-01T00:00:00Z</time>
			</trkpt>
			<trkpt lat="33.275414" lon="103.816811">
				<ele>2477.000000</ele>
				<time>1970-01-01T00:00:00Z</time>
			</trkpt>
			<trkpt lat="33.275417" lon="103.816811">
				<ele>2485.000000</ele>
				<time>1970-01-01T00:00:00Z</time>
			</trkpt>
			<trkpt lat="33.275421" lon="103.816811">
				<ele>2485.000000</ele>
				<time>1970-01-01T00:00:00Z</time>
			</trkpt>
			<trkpt lat="33.275421" lon="103.816803">
				<ele>2473.000000</ele>
				<time>1970-01-01T00:00:00Z</time>
			</trkpt>
			<trkpt lat="33.275425" lon="103.816803">
				<ele>2473.000000</ele>
				<time>1970-01-01T00:00:00Z</time>
			</trkpt>
			<trkpt lat="33.275429" lon="103.816803">
				<ele>2473.000000</ele>
				<time>1970-01-01T00:00:00Z</time>
			</trkpt>
			<trkpt lat="33.275429" lon="103.816795">
				<ele>2473.000000</ele>
				<time>1970-01-01T00:00:00Z</time>
			</trkpt>
			<trkpt lat="33.275433" lon="103.816795">
				<ele>2473.000000</ele>
				<time>1970-01-01T00:00:00Z</time>
			</trkpt>
			<trkpt lat="33.275440" lon="103.816795">
				<ele>2473.000000</ele>
				<time>1970-01-01T00:00:00Z</time>
			</trkpt>
			<trkpt lat="33.275440" lon="103.816795">
				<ele>2473.000000</ele>
				<time>1970-01-01T00:00:00Z</time>
			</trkpt>
			<trkpt lat="33.275444" lon="103.816795">
				<ele>2473.000000</ele>
				<time>1970-01-01T00:00:00Z</time>
			</trkpt>
			<trkpt lat="33.275448" lon="103.816795">
				<ele>2473.000000</ele>
				<time>1970-01-01T00:00:00Z</time>
			</trkpt>
			<trkpt lat="33.275452" lon="103.816795">
				<ele>2473.000000</ele>
				<time>1970-01-01T00:00:00Z</time>
			</trkpt>
			<trkpt lat="33.275455" lon="103.816795">
				<ele>2473.000000</ele>
				<time>1970-01-01T00:00:00Z</time>
			</trkpt>
			<trkpt lat="33.275455" lon="103.816788">
				<ele>2473.000000</ele>
				<time>1970-01-01T00:00:00Z</time>
			</trkpt>
			<trkpt lat="33.275463" lon="103.816788">
				<ele>2473.000000</ele>
				<time>1970-01-01T00:00:00Z</time>
			</trkpt>
			<trkpt lat="33.275463" lon="103.816780">
				<ele>2473.000000</ele>
				<time>1970-01-01T00:00:00Z</time>
			</trkpt>
			<trkpt lat="33.275467" lon="103.816780">
				<ele>2473.000000</ele>
				<time>1970-01-01T00:00:00Z</time>
			</trkpt>
			<trkpt lat="33.275471" lon="103.816780">
				<ele>2473.000000</ele>
				<time>1970-01-01T00:00:00Z</time>
			</trkpt>
			<trkpt lat="33.275475" lon="103.816780">
				<ele>2473.000000</ele>
				<time>1970-01-01T00:00:00Z</time>
			</trkpt>
			<trkpt lat="33.275475" lon="103.816772">
				<ele>2473.000000</ele>
				<time>1970-01-01T00:00:00Z</time>
			</trkpt>
			<trkpt lat="33.275478" lon="103.816772">
				<ele>2473.000000</ele>
				<time>1970-01-01T00:00:00Z</time>
			</trkpt>
			<trkpt lat="33.275482" lon="103.816772">
				<ele>2473.000000</ele>
				<time>1970-01-01T00:00:00Z</time>
			</trkpt>
			<trkpt lat="33.275490" lon="103.816772">
				<ele>2473.000000</ele>
				<time>1970-01-01T00:00:00Z</time>
			</trkpt>
			<trkpt lat="33.275494" lon="103.816772">
				<ele>2473.000000</ele>
				<time>1970-01-01T00:00:00Z</time>
			</trkpt>
			<trkpt lat="33.275494" lon="103.816772">
				<ele>2473.000000</ele>
				<time>1970-01-01T00:00:00Z</time>
			</trkpt>
			<trkpt lat="33.275497" lon="103.816772">
				<ele>2473.000000</ele>
				<time>1970-01-01T00:00:00Z</time>
			</trkpt>
			<trkpt lat="33.275501" lon="103.816772">
				<ele>2473.000000</ele>
				<time>1970-01-01T00:00:00Z</time>
			</trkpt>
			<trkpt lat="33.275505" lon="103.816772">
				<ele>2473.000000</ele>
				<time>1970-01-01T00:00:00Z</time>
			</trkpt>
			<trkpt lat="33.275509" lon="103.816772">
				<ele>2473.000000</ele>
				<time>1970-01-01T00:00:00Z</time>
			</trkpt>
			<trkpt lat="33.275517" lon="103.816772">
				<ele>2473.000000</ele>
				<time>1970-01-01T00:00:00Z</time>
			</trkpt>
			<trkpt lat="33.275520" lon="103.816772">
				<ele>2473.000000</ele>
				<time>1970-01-01T00:00:00Z</time>
			</trkpt>
			<trkpt lat="33.275524" lon="103.816772">
				<ele>2473.000000</ele>
				<time>1970-01-01T00:00:00Z</time>
			</trkpt>
			<trkpt lat="33.275528" lon="103.816772">
				<ele>2473.000000</ele>
				<time>1970-01-01T00:00:00Z</time>
			</trkpt>
			<trkpt lat="33.275532" lon="103.816772">
				<ele>2473.000000</ele>
				<time>1970-01-01T00:00:00Z</time>
			</trkpt>
			<trkpt lat="33.275536" lon="103.816772">
				<ele>2473.000000</ele>
				<time>1970-01-01T00:00:00Z</time>
			</trkpt>
			<trkpt lat="33.275543" lon="103.816772">
				<ele>2473.000000</ele>
				<time>1970-01-01T00:00:00Z</time>
			</trkpt>
			<trkpt lat="33.275547" lon="103.816772">
				<ele>2473.000000</ele>
				<time>1970-01-01T00:00:00Z</time>
			</trkpt>
			<trkpt lat="33.275551" lon="103.816772">
				<ele>2473.000000</ele>
				<time>1970-01-01T00:00:00Z</time>
			</trkpt>
			<trkpt lat="33.275555" lon="103.816772">
				<ele>2473.000000</ele>
				<time>1970-01-01T00:00:00Z</time>
			</trkpt>
			<trkpt lat="33.275558" lon="103.816772">
				<ele>2473.000000</ele>
				<time>1970-01-01T00:00:00Z</time>
			</trkpt>
			<trkpt lat="33.275566" lon="103.816772">
				<ele>2473.000000</ele>
				<time>1970-01-01T00:00:00Z</time>
			</trkpt>
			<trkpt lat="33.275570" lon="103.816772">
				<ele>2473.000000</ele>
				<time>1970-01-01T00:00:00Z</time>
			</trkpt>
			<trkpt lat="33.275574" lon="103.816772">
				<ele>2473.000000</ele>
				<time>1970-01-01T00:00:00Z</time>
			</trkpt>
			<trkpt lat="33.275578" lon="103.816772">
				<ele>2473.000000</ele>
				<time>1970-01-01T00:00:00Z</time>
			</trkpt>
			<trkpt lat="33.275581" lon="103.816772">
				<ele>2473.000000</ele>
				<time>1970-01-01T00:00:00Z</time>
			</trkpt>
			<trkpt lat="33.275585" lon="103.816772">
				<ele>2473.000000</ele>
				<time>1970-01-01T00:00:00Z</time>
			</trkpt>
			<trkpt lat="33.275593" lon="103.816772">
				<ele>2473.000000</ele>
				<time>1970-01-01T00:00:00Z</time>
			</trkpt>
			<trkpt lat="33.275597" lon="103.816772">
				<ele>2473.000000</ele>
				<time>1970-01-01T00:00:00Z</time>
			</trkpt>
			<trkpt lat="33.275597" lon="103.816772">
				<ele>2473.000000</ele>
				<time>1970-01-01T00:00:00Z</time>
			</trkpt>
			<trkpt lat="33.275600" lon="103.816772">
				<ele>2473.000000</ele>
				<time>1970-01-01T00:00:00Z</time>
			</trkpt>
			<trkpt lat="33.275604" lon="103.816772">
				<ele>2473.000000</ele>
				<time>1970-01-01T00:00:00Z</time>
			</trkpt>
			<trkpt lat="33.275608" lon="103.816772">
				<ele>2473.000000</ele>
				<time>1970-01-01T00:00:00Z</time>
			</trkpt>
			<trkpt lat="33.275612" lon="103.816772">
				<ele>2473.000000</ele>
				<time>1970-01-01T00:00:00Z</time>
			</trkpt>
			<trkpt lat="33.275620" lon="103.816780">
				<ele>2473.000000</ele>
				<time>1970-01-01T00:00:00Z</time>
			</trkpt>
			<trkpt lat="33.275623" lon="103.816780">
				<ele>2473.000000</ele>
				<time>1970-01-01T00:00:00Z</time>
			</trkpt>
			<trkpt lat="33.275627" lon="103.816788">
				<ele>2473.000000</ele>
				<time>1970-01-01T00:00:00Z</time>
			</trkpt>
			<trkpt lat="33.275631" lon="103.816788">
				<ele>2473.000000</ele>
				<time>1970-01-01T00:00:00Z</time>
			</trkpt>
			<trkpt lat="33.275635" lon="103.816788">
				<ele>2473.000000</ele>
				<time>1970-01-01T00:00:00Z</time>
			</trkpt>
			<trkpt lat="33.275635" lon="103.816795">
				<ele>2473.000000</ele>
				<time>1970-01-01T00:00:00Z</time>
			</trkpt>
			<trkpt lat="33.275642" lon="103.816795">
				<ele>2473.000000</ele>
				<time>1970-01-01T00:00:00Z</time>
			</trkpt>
			<trkpt lat="33.275646" lon="103.816795">
				<ele>2473.000000</ele>
				<time>1970-01-01T00:00:00Z</time>
			</trkpt>
			<trkpt lat="33.275650" lon="103.816795">
				<ele>2473.000000</ele>
				<time>1970-01-01T00:00:00Z</time>
			</trkpt>
			<trkpt lat="33.275654" lon="103.816795">
				<ele>2473.000000</ele>
				<time>1970-01-01T00:00:00Z</time>
			</trkpt>
			<trkpt lat="33.275654" lon="103.816795">
				<ele>2473.000000</ele>
				<time>1970-01-01T00:00:00Z</time>
			</trkpt>
			<trkpt lat="33.275658" lon="103.816795">
				<ele>2473.000000</ele>
				<time>1970-01-01T00:00:00Z</time>
			</trkpt>
			<trkpt lat="33.275661" lon="103.816795">
				<ele>2473.000000</ele>
				<time>1970-01-01T00:00:00Z</time>
			</trkpt>
			<trkpt lat="33.275669" lon="103.816795">
				<ele>2473.000000</ele>
				<time>1970-01-01T00:00:00Z</time>
			</trkpt>
			<trkpt lat="33.275669" lon="103.816803">
				<ele>2473.000000</ele>
				<time>1970-01-01T00:00:00Z</time>
			</trkpt>
			<trkpt lat="33.275673" lon="103.816803">
				<ele>2473.000000</ele>
				<time>1970-01-01T00:00:00Z</time>
			</trkpt>
			<trkpt lat="33.275673" lon="103.816811">
				<ele>2485.000000</ele>
				<time>1970-01-01T00:00:00Z</time>
			</trkpt>
			<trkpt lat="33.275677" lon="103.816811">
				<ele>2485.000000</ele>
				<time>1970-01-01T00:00:00Z</time>
			</trkpt>
			<trkpt lat="33.275681" lon="103.816811">
				<ele>2485.000000</ele>
				<time>1970-01-01T00:00:00Z</time>
			</trkpt>
			<trkpt lat="33.275684" lon="103.816811">
				<ele>2485.000000</ele>
				<time>1970-01-01T00:00:00Z</time>
			</trkpt>
			<trkpt lat="33.275688" lon="103.816811">
				<ele>2485.000000</ele>
				<time>1970-01-01T00:00:00Z</time>
			</trkpt>
			<trkpt lat="33.275688" lon="103.816811">
				<ele>2485.000000</ele>
				<time>1970-01-01T00:00:00Z</time>
			</trkpt>
			<trkpt lat="33.275696" lon="103.816811">
				<ele>2480.000000</ele>
				<time>1970-01-01T00:00:00Z</time>
			</trkpt>
			<trkpt lat="33.275700" lon="103.816811">
				<ele>2480.000000</ele>
				<time>1970-01-01T00:00:00Z</time>
			</trkpt>
			<trkpt lat="33.275700" lon="103.816818">
				<ele>2480.000000</ele>
				<time>1970-01-01T00:00:00Z</time>
			</trkpt>
			<trkpt lat="33.275703" lon="103.816818">
				<ele>2480.000000</ele>
				<time>1970-01-01T00:00:00Z</time>
			</trkpt>
			<trkpt lat="33.275707" lon="103.816818">
				<ele>2480.000000</ele>
				<time>1970-01-01T00:00:00Z</time>
			</trkpt>
			<trkpt lat="33.275711" lon="103.816818">
				<ele>2480.000000</ele>
				<time>1970-01-01T00:00:00Z</time>
			</trkpt>
			<trkpt lat="33.275711" lon="103.816826">
				<ele>2480.000000</ele>
				<time>1970-01-01T00:00:00Z</time>
			</trkpt>
			<trkpt lat="33.275719" lon="103.816826">
				<ele>2480.000000</ele>
				<time>1970-01-01T00:00:00Z</time>
			</trkpt>
			<trkpt lat="33.275723" lon="103.816833">
				<ele>2480.000000</ele>
				<time>1970-01-01T00:00:00Z</time>
			</trkpt>
			<trkpt lat="33.275726" lon="103.816833">
				<ele>2480.000000</ele>
				<time>1970-01-01T00:00:00Z</time>
			</trkpt>
			<trkpt lat="33.275730" lon="103.816833">
				<ele>2480.000000</ele>
				<time>1970-01-01T00:00:00Z</time>
			</trkpt>
			<trkpt lat="33.275730" lon="103.816833">
				<ele>2480.000000</ele>
				<time>1970-01-01T00:00:00Z</time>
			</trkpt>
			<trkpt lat="33.275734" lon="103.816833">
				<ele>2480.000000</ele>
				<time>1970-01-01T00:00:00Z</time>
			</trkpt>
			<trkpt lat="33.275738" lon="103.816833">
				<ele>2480.000000</ele>
				<time>1970-01-01T00:00:00Z</time>
			</trkpt>
			<trkpt lat="33.275738" lon="103.816841">
				<ele>2480.000000</ele>
				<time>1970-01-01T00:00:00Z</time>
			</trkpt>
			<trkpt lat="33.275745" lon="103.816841">
				<ele>2480.000000</ele>
				<time>1970-01-01T00:00:00Z</time>
			</trkpt>
			<trkpt lat="33.275749" lon="103.816841">
				<ele>2480.000000</ele>
				<time>1970-01-01T00:00:00Z</time>
			</trkpt>
			<trkpt lat="33.275753" lon="103.816841">
				<ele>2480.000000</ele>
				<time>1970-01-01T00:00:00Z</time>
			</trkpt>
			<trkpt lat="33.275753" lon="103.816849">
				<ele>2480.000000</ele>
				<time>1970-01-01T00:00:00Z</time>
			</trkpt>
			<trkpt lat="33.275757" lon="103.816849">
				<ele>2480.000000</ele>
				<time>1970-01-01T00:00:00Z</time>
			</trkpt>
			<trkpt lat="33.275757" lon="103.816849">
				<ele>2480.000000</ele>
				<time>1970-01-01T00:00:00Z</time>
			</trkpt>
			<trkpt lat="33.275761" lon="103.816849">
				<ele>2480.000000</ele>
				<time>1970-01-01T00:00:00Z</time>
			</trkpt>
			<trkpt lat="33.275764" lon="103.816849">
				<ele>2480.000000</ele>
				<time>1970-01-01T00:00:00Z</time>
			</trkpt>
			<trkpt lat="33.275764" lon="103.816856">
				<ele>2480.000000</ele>
				<time>1970-01-01T00:00:00Z</time>
			</trkpt>
			<trkpt lat="33.275772" lon="103.816856">
				<ele>2480.000000</ele>
				<time>1970-01-01T00:00:00Z</time>
			</trkpt>
			<trkpt lat="33.275776" lon="103.816856">
				<ele>2480.000000</ele>
				<time>1970-01-01T00:00:00Z</time>
			</trkpt>
			<trkpt lat="33.275776" lon="103.816864">
				<ele>2480.000000</ele>
				<time>1970-01-01T00:00:00Z</time>
			</trkpt>
			<trkpt lat="33.275780" lon="103.816864">
				<ele>2480.000000</ele>
				<time>1970-01-01T00:00:00Z</time>
			</trkpt>
			<trkpt lat="33.275780" lon="103.816864">
				<ele>2480.000000</ele>
				<time>1970-01-01T00:00:00Z</time>
			</trkpt>
			<trkpt lat="33.275784" lon="103.816864">
				<ele>2480.000000</ele>
				<time>1970-01-01T00:00:00Z</time>
			</trkpt>
			<trkpt lat="33.275787" lon="103.816864">
				<ele>2480.000000</ele>
				<time>1970-01-01T00:00:00Z</time>
			</trkpt>
			<trkpt lat="33.275787" lon="103.816872">
				<ele>2480.000000</ele>
				<time>1970-01-01T00:00:00Z</time>
			</trkpt>
			<trkpt lat="33.275795" lon="103.816872">
				<ele>2480.000000</ele>
				<time>1970-01-01T00:00:00Z</time>
			</trkpt>
			<trkpt lat="33.275799" lon="103.816872">
				<ele>2480.000000</ele>
				<time>1970-01-01T00:00:00Z</time>
			</trkpt>
			<trkpt lat="33.275799" lon="103.816879">
				<ele>2480.000000</ele>
				<time>1970-01-01T00:00:00Z</time>
			</trkpt>
			<trkpt lat="33.275803" lon="103.816879">
				<ele>2480.000000</ele>
				<time>1970-01-01T00:00:00Z</time>
			</trkpt>
			<trkpt lat="33.275806" lon="103.816879">
				<ele>2480.000000</ele>
				<time>1970-01-01T00:00:00Z</time>
			</trkpt>
			<trkpt lat="33.275806" lon="103.816887">
				<ele>2480.000000</ele>
				<time>1970-01-01T00:00:00Z</time>
			</trkpt>
			<trkpt lat="33.275810" lon="103.816887">
				<ele>2480.000000</ele>
				<time>1970-01-01T00:00:00Z</time>
			</trkpt>
			<trkpt lat="33.275814" lon="103.816887">
				<ele>2480.000000</ele>
				<time>1970-01-01T00:00:00Z</time>
			</trkpt>
			<trkpt lat="33.275814" lon="103.816887">
				<ele>2480.000000</ele>
				<time>1970-01-01T00:00:00Z</time>
			</trkpt>
			<trkpt lat="33.275814" lon="103.816895">
				<ele>2480.000000</ele>
				<time>1970-01-01T00:00:00Z</time>
			</trkpt>
			<trkpt lat="33.275822" lon="103.816895">
				<ele>2480.000000</ele>
				<time>1970-01-01T00:00:00Z</time>
			</trkpt>
			<trkpt lat="33.275826" lon="103.816902">
				<ele>2480.000000</ele>
				<time>1970-01-01T00:00:00Z</time>
			</trkpt>
			<trkpt lat="33.275829" lon="103.816902">
				<ele>2480.000000</ele>
				<time>1970-01-01T00:00:00Z</time>
			</trkpt>
			<trkpt lat="33.275829" lon="103.816902">
				<ele>2480.000000</ele>
				<time>1970-01-01T00:00:00Z</time>
			</trkpt>
			<trkpt lat="33.275833" lon="103.816902">
				<ele>2480.000000</ele>
				<time>1970-01-01T00:00:00Z</time>
			</trkpt>
			<trkpt lat="33.275833" lon="103.816910">
				<ele>2480.000000</ele>
				<time>1970-01-01T00:00:00Z</time>
			</trkpt>
			<trkpt lat="33.275837" lon="103.816910">
				<ele>2480.000000</ele>
				<time>1970-01-01T00:00:00Z</time>
			</trkpt>
			<trkpt lat="33.275841" lon="103.816910">
				<ele>2480.000000</ele>
				<time>1970-01-01T00:00:00Z</time>
			</trkpt>
			<trkpt lat="33.275841" lon="103.816917">
				<ele>2480.000000</ele>
				<time>1970-01-01T00:00:00Z</time>
			</trkpt>
			<trkpt lat="33.275848" lon="103.816917">
				<ele>2480.000000</ele>
				<time>1970-01-01T00:00:00Z</time>
			</trkpt>
			<trkpt lat="33.275848" lon="103.816917">
				<ele>2480.000000</ele>
				<time>1970-01-01T00:00:00Z</time>
			</trkpt>
			<trkpt lat="33.275852" lon="103.816917">
				<ele>2480.000000</ele>
				<time>1970-01-01T00:00:00Z</time>
			</trkpt>
			<trkpt lat="33.275852" lon="103.816925">
				<ele>2480.000000</ele>
				<time>1970-01-01T00:00:00Z</time>
			</trkpt>
			<trkpt lat="33.275856" lon="103.816925">
				<ele>2480.000000</ele>
				<time>1970-01-01T00:00:00Z</time>
			</trkpt>
			<trkpt lat="33.275856" lon="103.816933">
				<ele>2480.000000</ele>
				<time>1970-01-01T00:00:00Z</time>
			</trkpt>
			<trkpt lat="33.275860" lon="103.816933">
				<ele>2480.000000</ele>
				<time>1970-01-01T00:00:00Z</time>
			</trkpt>
			<trkpt lat="33.275860" lon="103.816940">
				<ele>2480.000000</ele>
				<time>1970-01-01T00:00:00Z</time>
			</trkpt>
			<trkpt lat="33.275864" lon="103.816940">
				<ele>2480.000000</ele>
				<time>1970-01-01T00:00:00Z</time>
			</trkpt>
			<trkpt lat="33.275864" lon="103.816940">
				<ele>2480.000000</ele>
				<time>1970-01-01T00:00:00Z</time>
			</trkpt>
			<trkpt lat="33.275867" lon="103.816940">
				<ele>2480.000000</ele>
				<time>1970-01-01T00:00:00Z</time>
			</trkpt>
			<trkpt lat="33.275867" lon="103.816948">
				<ele>2480.000000</ele>
				<time>1970-01-01T00:00:00Z</time>
			</trkpt>
			<trkpt lat="33.275875" lon="103.816948">
				<ele>2480.000000</ele>
				<time>1970-01-01T00:00:00Z</time>
			</trkpt>
			<trkpt lat="33.275875" lon="103.816956">
				<ele>2480.000000</ele>
				<time>1970-01-01T00:00:00Z</time>
			</trkpt>
			<trkpt lat="33.275879" lon="103.816956">
				<ele>2480.000000</ele>
				<time>1970-01-01T00:00:00Z</time>
			</trkpt>
			<trkpt lat="33.275879" lon="103.816956">
				<ele>2480.000000</ele>
				<time>1970-01-01T00:00:00Z</time>
			</trkpt>
			<trkpt lat="33.275883" lon="103.816956">
				<ele>2480.000000</ele>
				<time>1970-01-01T00:00:00Z</time>
			</trkpt>
			<trkpt lat="33.275883" lon="103.816963">
				<ele>2480.000000</ele>
				<time>1970-01-01T00:00:00Z</time>
			</trkpt>
			<trkpt lat="33.275887" lon="103.816963">
				<ele>2480.000000</ele>
				<time>1970-01-01T00:00:00Z</time>
			</trkpt>
			<trkpt lat="33.275887" lon="103.816971">
				<ele>2480.000000</ele>
				<time>1970-01-01T00:00:00Z</time>
			</trkpt>
			<trkpt lat="33.275890" lon="103.816971">
				<ele>2480.000000</ele>
				<time>1970-01-01T00:00:00Z</time>
			</trkpt>
			<trkpt lat="33.275890" lon="103.816971">
				<ele>2480.000000</ele>
				<time>1970-01-01T00:00:00Z</time>
			</trkpt>
			<trkpt lat="33.275898" lon="103.816971">
				<ele>2480.000000</ele>
				<time>1970-01-01T00:00:00Z</time>
			</trkpt>
			<trkpt lat="33.275898" lon="103.816978">
				<ele>2480.000000</ele>
				<time>1970-01-01T00:00:00Z</time>
			</trkpt>
			<trkpt lat="33.275902" lon="103.816978">
				<ele>2480.000000</ele>
				<time>1970-01-01T00:00:00Z</time>
			</trkpt>
			<trkpt lat="33.275902" lon="103.816986">
				<ele>2480.000000</ele>
				<time>1970-01-01T00:00:00Z</time>
			</trkpt>
			<trkpt lat="33.275906" lon="103.816986">
				<ele>2480.000000</ele>
				<time>1970-01-01T00:00:00Z</time>
			</trkpt>
			<trkpt lat="33.275906" lon="103.816994">
				<ele>2480.000000</ele>
				<time>1970-01-01T00:00:00Z</time>
			</trkpt>
			<trkpt lat="33.275909" lon="103.816994">
				<ele>2480.000000</ele>
				<time>1970-01-01T00:00:00Z</time>
			</trkpt>
			<trkpt lat="33.275909" lon="103.816994">
				<ele>2480.000000</ele>
				<time>1970-01-01T00:00:00Z</time>
			</trkpt>
			<trkpt lat="33.275913" lon="103.816994">
				<ele>2480.000000</ele>
				<time>1970-01-01T00:00:00Z</time>
			</trkpt>
			<trkpt lat="33.275913" lon="103.817001">
				<ele>2480.000000</ele>
				<time>1970-01-01T00:00:00Z</time>
			</trkpt>
			<trkpt lat="33.275917" lon="103.817001">
				<ele>2480.000000</ele>
				<time>1970-01-01T00:00:00Z</time>
			</trkpt>
			<trkpt lat="33.275925" lon="103.817001">
				<ele>2480.000000</ele>
				<time>1970-01-01T00:00:00Z</time>
			</trkpt>
			<trkpt lat="33.275925" lon="103.817009">
				<ele>2480.000000</ele>
				<time>1970-01-01T00:00:00Z</time>
			</trkpt>
			<trkpt lat="33.275928" lon="103.817009">
				<ele>2480.000000</ele>
				<time>1970-01-01T00:00:00Z</time>
			</trkpt>
			<trkpt lat="33.275928" lon="103.817009">
				<ele>2480.000000</ele>
				<time>1970-01-01T00:00:00Z</time>
			</trkpt>
			<trkpt lat="33.275932" lon="103.817009">
				<ele>2480.000000</ele>
				<time>1970-01-01T00:00:00Z</time>
			</trkpt>
			<trkpt lat="33.275932" lon="103.817017">
				<ele>2480.000000</ele>
				<time>1970-01-01T00:00:00Z</time>
			</trkpt>
			<trkpt lat="33.275936" lon="103.817017">
				<ele>2480.000000</ele>
				<time>1970-01-01T00:00:00Z</time>
			</trkpt>
			<trkpt lat="33.275940" lon="103.817017">
				<ele>2480.000000</ele>
				<time>1970-01-01T00:00:00Z</time>
			</trkpt>
			<trkpt lat="33.275940" lon="103.817024">
				<ele>2480.000000</ele>
				<time>1970-01-01T00:00:00Z</time>
			</trkpt>
			<trkpt lat="33.275944" lon="103.817032">
				<ele>2480.000000</ele>
				<time>1970-01-01T00:00:00Z</time>
			</trkpt>
			<trkpt lat="33.275951" lon="103.817032">
				<ele>2480.000000</ele>
				<time>1970-01-01T00:00:00Z</time>
			</trkpt>
			<trkpt lat="33.275951" lon="103.817032">
				<ele>2480.000000</ele>
				<time>1970-01-01T00:00:00Z</time>
			</trkpt>
			<trkpt lat="33.275955" lon="103.817032">
				<ele>2480.000000</ele>
				<time>1970-01-01T00:00:00Z</time>
			</trkpt>
			<trkpt lat="33.275959" lon="103.817032">
				<ele>2480.000000</ele>
				<time>1970-01-01T00:00:00Z</time>
			</trkpt>
			<trkpt lat="33.275959" lon="103.817039">
				<ele>2480.000000</ele>
				<time>1970-01-01T00:00:00Z</time>
			</trkpt>
			<trkpt lat="33.275963" lon="103.817039">
				<ele>2480.000000</ele>
				<time>1970-01-01T00:00:00Z</time>
			</trkpt>
			<trkpt lat="33.275967" lon="103.817047">
				<ele>2480.000000</ele>
				<time>1970-01-01T00:00:00Z</time>
			</trkpt>
			<trkpt lat="33.275967" lon="103.817047">
				<ele>2480.000000</ele>
				<time>1970-01-01T00:00:00Z</time>
			</trkpt>
			<trkpt lat="33.275974" lon="103.817047">
				<ele>2479.000000</ele>
				<time>1970-01-01T00:00:00Z</time>
			</trkpt>
			<trkpt lat="33.275978" lon="103.817047">
				<ele>2479.000000</ele>
				<time>1970-01-01T00:00:00Z</time>
			</trkpt>
			<trkpt lat="33.275978" lon="103.817055">
				<ele>2479.000000</ele>
				<time>1970-01-01T00:00:00Z</time>
			</trkpt>
			<trkpt lat="33.275982" lon="103.817055">
				<ele>2479.000000</ele>
				<time>1970-01-01T00:00:00Z</time>
			</trkpt>
			<trkpt lat="33.275982" lon="103.817062">
				<ele>2479.000000</ele>
				<time>1970-01-01T00:00:00Z</time>
			</trkpt>
			<trkpt lat="33.275986" lon="103.817062">
				<ele>2479.000000</ele>
				<time>1970-01-01T00:00:00Z</time>
			</trkpt>
			<trkpt lat="33.275990" lon="103.817062">
				<ele>2479.000000</ele>
				<time>1970-01-01T00:00:00Z</time>
			</trkpt>
			<trkpt lat="33.275990" lon="103.817062">
				<ele>2479.000000</ele>
				<time>1970-01-01T00:00:00Z</time>
			</trkpt>
			<trkpt lat="33.275993" lon="103.817062">
				<ele>2479.000000</ele>
				<time>1970-01-01T00:00:00Z</time>
			</trkpt>
			<trkpt lat="33.275993" lon="103.817070">
				<ele>2479.000000</ele>
				<time>1970-01-01T00:00:00Z</time>
			</trkpt>
			<trkpt lat="33.276001" lon="103.817070">
				<ele>2479.000000</ele>
				<time>1970-01-01T00:00:00Z</time>
			</trkpt>
			<trkpt lat="33.276005" lon="103.817078">
				<ele>2479.000000</ele>
				<time>1970-01-01T00:00:00Z</time>
			</trkpt>
			<trkpt lat="33.276009" lon="103.817078">
				<ele>2479.000000</ele>
				<time>1970-01-01T00:00:00Z</time>
			</trkpt>
			<trkpt lat="33.276009" lon="103.817085">
				<ele>2493.000000</ele>
				<time>1970-01-01T00:00:00Z</time>
			</trkpt>
			<trkpt lat="33.276012" lon="103.817085">
				<ele>2493.000000</ele>
				<time>1970-01-01T00:00:00Z</time>
			</trkpt>
			<trkpt lat="33.276016" lon="103.817085">
				<ele>2493.000000</ele>
				<time>1970-01-01T00:00:00Z</time>
			</trkpt>
			<trkpt lat="33.276016" lon="103.817085">
				<ele>2493.000000</ele>
				<time>1970-01-01T00:00:00Z</time>
			</trkpt>
			<trkpt lat="33.276020" lon="103.817085">
				<ele>2493.000000</ele>
				<time>1970-01-01T00:00:00Z</time>
			</trkpt>
			<trkpt lat="33.276020" lon="103.817093">
				<ele>2493.000000</ele>
				<time>1970-01-01T00:00:00Z</time>
			</trkpt>
			<trkpt lat="33.276028" lon="103.817093">
				<ele>2493.000000</ele>
				<time>1970-01-01T00:00:00Z</time>
			</trkpt>
			<trkpt lat="33.276031" lon="103.817093">
				<ele>2493.000000</ele>
				<time>1970-01-01T00:00:00Z</time>
			</trkpt>
			<trkpt lat="33.276031" lon="103.817101">
				<ele>2493.000000</ele>
				<time>1970-01-01T00:00:00Z</time>
			</trkpt>
			<trkpt lat="33.276035" lon="103.817101">
				<ele>2493.000000</ele>
				<time>1970-01-01T00:00:00Z</time>
			</trkpt>
			<trkpt lat="33.276039" lon="103.817101">
				<ele>2493.000000</ele>
				<time>1970-01-01T00:00:00Z</time>
			</trkpt>
			<trkpt lat="33.276039" lon="103.817101">
				<ele>2493.000000</ele>
				<time>1970-01-01T00:00:00Z</time>
			</trkpt>
			<trkpt lat="33.276039" lon="103.817108">
				<ele>2493.000000</ele>
				<time>1970-01-01T00:00:00Z</time>
			</trkpt>
			<trkpt lat="33.276043" lon="103.817108">
				<ele>2493.000000</ele>
				<time>1970-01-01T00:00:00Z</time>
			</trkpt>
			<trkpt lat="33.276051" lon="103.817108">
				<ele>2493.000000</ele>
				<time>1970-01-01T00:00:00Z</time>
			</trkpt>
			<trkpt lat="33.276054" lon="103.817108">
				<ele>2493.000000</ele>
				<time>1970-01-01T00:00:00Z</time>
			</trkpt>
			<trkpt lat="33.276054" lon="103.817116">
				<ele>2493.000000</ele>
				<time>1970-01-01T00:00:00Z</time>
			</trkpt>
			<trkpt lat="33.276058" lon="103.817116">
				<ele>2493.000000</ele>
				<time>1970-01-01T00:00:00Z</time>
			</trkpt>
			<trkpt lat="33.276058" lon="103.817116">
				<ele>2493.000000</ele>
				<time>1970-01-01T00:00:00Z</time>
			</trkpt>
			<trkpt lat="33.276062" lon="103.817116">
				<ele>2493.000000</ele>
				<time>1970-01-01T00:00:00Z</time>
			</trkpt>
			<trkpt lat="33.276066" lon="103.817116">
				<ele>2493.000000</ele>
				<time>1970-01-01T00:00:00Z</time>
			</trkpt>
			<trkpt lat="33.276070" lon="103.817123">
				<ele>2493.000000</ele>
				<time>1970-01-01T00:00:00Z</time>
			</trkpt>
			<trkpt lat="33.276077" lon="103.817123">
				<ele>2493.000000</ele>
				<time>1970-01-01T00:00:00Z</time>
			</trkpt>
			<trkpt lat="33.276081" lon="103.817131">
				<ele>2493.000000</ele>
				<time>1970-01-01T00:00:00Z</time>
			</trkpt>
			<trkpt lat="33.276085" lon="103.817131">
				<ele>2493.000000</ele>
				<time>1970-01-01T00:00:00Z</time>
			</trkpt>
			<trkpt lat="33.276089" lon="103.817131">
				<ele>2493.000000</ele>
				<time>1970-01-01T00:00:00Z</time>
			</trkpt>
			<trkpt lat="33.276089" lon="103.817139">
				<ele>2493.000000</ele>
				<time>1970-01-01T00:00:00Z</time>
			</trkpt>
			<trkpt lat="33.276093" lon="103.817139">
				<ele>2493.000000</ele>
				<time>1970-01-01T00:00:00Z</time>
			</trkpt>
			<trkpt lat="33.276093" lon="103.817139">
				<ele>2493.000000</ele>
				<time>1970-01-01T00:00:00Z</time>
			</trkpt>
			<trkpt lat="33.276096" lon="103.817139">
				<ele>2493.000000</ele>
				<time>1970-01-01T00:00:00Z</time>
			</trkpt>
			<trkpt lat="33.276104" lon="103.817139">
				<ele>2493.000000</ele>
				<time>1970-01-01T00:00:00Z</time>
			</trkpt>
			<trkpt lat="33.276108" lon="103.817139">
				<ele>2493.000000</ele>
				<time>1970-01-01T00:00:00Z</time>
			</trkpt>
			<trkpt lat="33.276108" lon="103.817146">
				<ele>2493.000000</ele>
				<time>1970-01-01T00:00:00Z</time>
			</trkpt>
			<trkpt lat="33.276112" lon="103.817146">
				<ele>2493.000000</ele>
				<time>1970-01-01T00:00:00Z</time>
			</trkpt>
			<trkpt lat="33.276115" lon="103.817146">
				<ele>2493.000000</ele>
				<time>1970-01-01T00:00:00Z</time>
			</trkpt>
			<trkpt lat="33.276115" lon="103.817154">
				<ele>2493.000000</ele>
				<time>1970-01-01T00:00:00Z</time>
			</trkpt>
			<trkpt lat="33.276119" lon="103.817154">
				<ele>2493.000000</ele>
				<time>1970-01-01T00:00:00Z</time>
			</trkpt>
			<trkpt lat="33.276127" lon="103.817154">
				<ele>2493.000000</ele>
				<time>1970-01-01T00:00:00Z</time>
			</trkpt>
			<trkpt lat="33.276131" lon="103.817154">
				<ele>2493.000000</ele>
				<time>1970-01-01T00:00:00Z</time>
			</trkpt>
			<trkpt lat="33.276131" lon="103.817154">
				<ele>2493.000000</ele>
				<time>1970-01-01T00:00:00Z</time>
			</trkpt>
			<trkpt lat="33.276134" lon="103.817154">
				<ele>2493.000000</ele>
				<time>1970-01-01T00:00:00Z</time>
			</trkpt>
			<trkpt lat="33.276138" lon="103.817162">
				<ele>2493.000000</ele>
				<time>1970-01-01T00:00:00Z</time>
			</trkpt>
			<trkpt lat="33.276142" lon="103.817162">
				<ele>2493.000000</ele>
				<time>1970-01-01T00:00:00Z</time>
			</trkpt>
			<trkpt lat="33.276146" lon="103.817162">
				<ele>2493.000000</ele>
				<time>1970-01-01T00:00:00Z</time>
			</trkpt>
			<trkpt lat="33.276154" lon="103.817162">
				<ele>2493.000000</ele>
				<time>1970-01-01T00:00:00Z</time>
			</trkpt>
			<trkpt lat="33.276157" lon="103.817162">
				<ele>2493.000000</ele>
				<time>1970-01-01T00:00:00Z</time>
			</trkpt>
			<trkpt lat="33.276157" lon="103.817169">
				<ele>2493.000000</ele>
				<time>1970-01-01T00:00:00Z</time>
			</trkpt>
			<trkpt lat="33.276161" lon="103.817169">
				<ele>2493.000000</ele>
				<time>1970-01-01T00:00:00Z</time>
			</trkpt>
			<trkpt lat="33.276165" lon="103.817169">
				<ele>2493.000000</ele>
				<time>1970-01-01T00:00:00Z</time>
			</trkpt>
			<trkpt lat="33.276169" lon="103.817169">
				<ele>2493.000000</ele>
				<time>1970-01-01T00:00:00Z</time>
			</trkpt>
			<trkpt lat="33.276173" lon="103.817169">
				<ele>2493.000000</ele>
				<time>1970-01-01T00:00:00Z</time>
			</trkpt>
			<trkpt lat="33.276173" lon="103.817177">
				<ele>2493.000000</ele>
				<time>1970-01-01T00:00:00Z</time>
			</trkpt>
			<trkpt lat="33.276180" lon="103.817177">
				<ele>2493.000000</ele>
				<time>1970-01-01T00:00:00Z</time>
			</trkpt>
			<trkpt lat="33.276184" lon="103.817177">
				<ele>2493.000000</ele>
				<time>1970-01-01T00:00:00Z</time>
			</trkpt>
			<trkpt lat="33.276188" lon="103.817177">
				<ele>2493.000000</ele>
				<time>1970-01-01T00:00:00Z</time>
			</trkpt>
			<trkpt lat="33.276188" lon="103.817177">
				<ele>2493.000000</ele>
				<time>1970-01-01T00:00:00Z</time>
			</trkpt>
			<trkpt lat="33.276192" lon="103.817177">
				<ele>2493.000000</ele>
				<time>1970-01-01T00:00:00Z</time>
			</trkpt>
			<trkpt lat="33.276196" lon="103.817177">
				<ele>2493.000000</ele>
				<time>1970-01-01T00:00:00Z</time>
			</trkpt>
			<trkpt lat="33.276199" lon="103.817177">
				<ele>2493.000000</ele>
				<time>1970-01-01T00:00:00Z</time>
			</trkpt>
			<trkpt lat="33.276199" lon="103.817184">
				<ele>2493.000000</ele>
				<time>1970-01-01T00:00:00Z</time>
			</trkpt>
			<trkpt lat="33.276207" lon="103.817184">
				<ele>2493.000000</ele>
				<time>1970-01-01T00:00:00Z</time>
			</trkpt>
			<trkpt lat="33.276211" lon="103.817184">
				<ele>2493.000000</ele>
				<time>1970-01-01T00:00:00Z</time>
			</trkpt>
			<trkpt lat="33.276215" lon="103.817184">
				<ele>2493.000000</ele>
				<time>1970-01-01T00:00:00Z</time>
			</trkpt>
			<trkpt lat="33.276218" lon="103.817184">
				<ele>2493.000000</ele>
				<time>1970-01-01T00:00:00Z</time>
			</trkpt>
			<trkpt lat="33.276222" lon="103.817184">
				<ele>2493.000000</ele>
				<time>1970-01-01T00:00:00Z</time>
			</trkpt>
			<trkpt lat="33.276222" lon="103.817192">
				<ele>2493.000000</ele>
				<time>1970-01-01T00:00:00Z</time>
			</trkpt>
			<trkpt lat="33.276230" lon="103.817192">
				<ele>2493.000000</ele>
				<time>1970-01-01T00:00:00Z</time>
			</trkpt>
			<trkpt lat="33.276234" lon="103.817192">
				<ele>2493.000000</ele>
				<time>1970-01-01T00:00:00Z</time>
			</trkpt>
			<trkpt lat="33.276237" lon="103.817192">
				<ele>2493.000000</ele>
				<time>1970-01-01T00:00:00Z</time>
			</trkpt>
			<trkpt lat="33.276241" lon="103.817192">
				<ele>2493.000000</ele>
				<time>1970-01-01T00:00:00Z</time>
			</trkpt>
			<trkpt lat="33.276245" lon="103.817192">
				<ele>2493.000000</ele>
				<time>1970-01-01T00:00:00Z</time>
			</trkpt>
			<trkpt lat="33.276245" lon="103.817192">
				<ele>2493.000000</ele>
				<time>1970-01-01T00:00:00Z</time>
			</trkpt>
			<trkpt lat="33.276249" lon="103.817192">
				<ele>2493.000000</ele>
				<time>1970-01-01T00:00:00Z</time>
			</trkpt>
			<trkpt lat="33.276257" lon="103.817192">
				<ele>2484.000000</ele>
				<time>1970-01-01T00:00:00Z</time>
			</trkpt>
			<trkpt lat="33.276260" lon="103.817192">
				<ele>2484.000000</ele>
				<time>1970-01-01T00:00:00Z</time>
			</trkpt>
			<trkpt lat="33.276264" lon="103.817192">
				<ele>2484.000000</ele>
				<time>1970-01-01T00:00:00Z</time>
			</trkpt>
			<trkpt lat="33.276268" lon="103.817192">
				<ele>2484.000000</ele>
				<time>1970-01-01T00:00:00Z</time>
			</trkpt>
			<trkpt lat="33.276272" lon="103.817192">
				<ele>2484.000000</ele>
				<time>1970-01-01T00:00:00Z</time>
			</trkpt>
			<trkpt lat="33.276276" lon="103.817192">
				<ele>2484.000000</ele>
				<time>1970-01-01T00:00:00Z</time>
			</trkpt>
			<trkpt lat="33.276283" lon="103.817200">
				<ele>2484.000000</ele>
				<time>1970-01-01T00:00:00Z</time>
			</trkpt>
			<trkpt lat="33.276287" lon="103.817200">
				<ele>2484.000000</ele>
				<time>1970-01-01T00:00:00Z</time>
			</trkpt>
			<trkpt lat="33.276291" lon="103.817200">
				<ele>2484.000000</ele>
				<time>1970-01-01T00:00:00Z</time>
			</trkpt>
			<trkpt lat="33.276291" lon="103.817207">
				<ele>2484.000000</ele>
				<time>1970-01-01T00:00:00Z</time>
			</trkpt>
			<trkpt lat="33.276295" lon="103.817207">
				<ele>2484.000000</ele>
				<time>1970-01-01T00:00:00Z</time>
			</trkpt>
			<trkpt lat="33.276299" lon="103.817207">
				<ele>2484.000000</ele>
				<time>1970-01-01T00:00:00Z</time>
			</trkpt>
			<trkpt lat="33.276306" lon="103.817207">
				<ele>2484.000000</ele>
				<time>1970-01-01T00:00:00Z</time>
			</trkpt>
			<trkpt lat="33.276310" lon="103.817207">
				<ele>2484.000000</ele>
				<time>1970-01-01T00:00:00Z</time>
			</trkpt>
			<trkpt lat="33.276314" lon="103.817207">
				<ele>2484.000000</ele>
				<time>1970-01-01T00:00:00Z</time>
			</trkpt>
			<trkpt lat="33.276318" lon="103.817207">
				<ele>2484.000000</ele>
				<time>1970-01-01T00:00:00Z</time>
			</trkpt>
			<trkpt lat="33.276321" lon="103.817207">
				<ele>2484.000000</ele>
				<time>1970-01-01T00:00:00Z</time>
			</trkpt>
			<trkpt lat="33.276325" lon="103.817207">
				<ele>2484.000000</ele>
				<time>1970-01-01T00:00:00Z</time>
			</trkpt>
			<trkpt lat="33.276333" lon="103.817207">
				<ele>2484.000000</ele>
				<time>1970-01-01T00:00:00Z</time>
			</trkpt>
			<trkpt lat="33.276337" lon="103.817207">
				<ele>2484.000000</ele>
				<time>1970-01-01T00:00:00Z</time>
			</trkpt>
			<trkpt lat="33.276340" lon="103.817207">
				<ele>2484.000000</ele>
				<time>1970-01-01T00:00:00Z</time>
			</trkpt>
			<trkpt lat="33.276344" lon="103.817207">
				<ele>2484.000000</ele>
				<time>1970-01-01T00:00:00Z</time>
			</trkpt>
			<trkpt lat="33.276348" lon="103.817207">
				<ele>2484.000000</ele>
				<time>1970-01-01T00:00:00Z</time>
			</trkpt>
			<trkpt lat="33.276352" lon="103.817207">
				<ele>2484.000000</ele>
				<time>1970-01-01T00:00:00Z</time>
			</trkpt>
			<trkpt lat="33.276360" lon="103.817207">
				<ele>2484.000000</ele>
				<time>1970-01-01T00:00:00Z</time>
			</trkpt>
			<trkpt lat="33.276363" lon="103.817207">
				<ele>2484.000000</ele>
				<time>1970-01-01T00:00:00Z</time>
			</trkpt>
			<trkpt lat="33.276367" lon="103.817207">
				<ele>2484.000000</ele>
				<time>1970-01-01T00:00:00Z</time>
			</trkpt>
			<trkpt lat="33.276367" lon="103.817207">
				<ele>2484.000000</ele>
				<time>1970-01-01T00:00:00Z</time>
			</trkpt>
			<trkpt lat="33.276371" lon="103.817207">
				<ele>2484.000000</ele>
				<time>1970-01-01T00:00:00Z</time>
			</trkpt>
			<trkpt lat="33.276375" lon="103.817207">
				<ele>2484.000000</ele>
				<time>1970-01-01T00:00:00Z</time>
			</trkpt>
			<trkpt lat="33.276382" lon="103.817207">
				<ele>2484.000000</ele>
				<time>1970-01-01T00:00:00Z</time>
			</trkpt>
			<trkpt lat="33.276386" lon="103.817207">
				<ele>2484.000000</ele>
				<time>1970-01-01T00:00:00Z</time>
			</trkpt>
			<trkpt lat="33.276390" lon="103.817207">
				<ele>2484.000000</ele>
				<time>1970-01-01T00:00:00Z</time>
			</trkpt>
			<trkpt lat="33.276394" lon="103.817207">
				<ele>2484.000000</ele>
				<time>1970-01-01T00:00:00Z</time>
			</trkpt>
			<trkpt lat="33.276398" lon="103.817207">
				<ele>2484.000000</ele>
				<time>1970-01-01T00:00:00Z</time>
			</trkpt>
			<trkpt lat="33.276402" lon="103.817207">
				<ele>2484.000000</ele>
				<time>1970-01-01T00:00:00Z</time>
			</trkpt>
			<trkpt lat="33.276409" lon="103.817207">
				<ele>2484.000000</ele>
				<time>1970-01-01T00:00:00Z</time>
			</trkpt>
			<trkpt lat="33.276413" lon="103.817207">
				<ele>2484.000000</ele>
				<time>1970-01-01T00:00:00Z</time>
			</trkpt>
			<trkpt lat="33.276417" lon="103.817207">
				<ele>2484.000000</ele>
				<time>1970-01-01T00:00:00Z</time>
			</trkpt>
			<trkpt lat="33.276421" lon="103.817207">
				<ele>2484.000000</ele>
				<time>1970-01-01T00:00:00Z</time>
			</trkpt>
			<trkpt lat="33.276424" lon="103.817207">
				<ele>2484.000000</ele>
				<time>1970-01-01T00:00:00Z</time>
			</trkpt>
			<trkpt lat="33.276428" lon="103.817207">
				<ele>2484.000000</ele>
				<time>1970-01-01T00:00:00Z</time>
			</trkpt>
			<trkpt lat="33.276436" lon="103.817207">
				<ele>2484.000000</ele>
				<time>1970-01-01T00:00:00Z</time>
			</trkpt>
			<trkpt lat="33.276440" lon="103.817207">
				<ele>2484.000000</ele>
				<time>1970-01-01T00:00:00Z</time>
			</trkpt>
			<trkpt lat="33.276443" lon="103.817207">
				<ele>2484.000000</ele>
				<time>1970-01-01T00:00:00Z</time>
			</trkpt>
			<trkpt lat="33.276447" lon="103.817207">
				<ele>2484.000000</ele>
				<time>1970-01-01T00:00:00Z</time>
			</trkpt>
			<trkpt lat="33.276447" lon="103.817215">
				<ele>2484.000000</ele>
				<time>1970-01-01T00:00:00Z</time>
			</trkpt>
			<trkpt lat="33.276451" lon="103.817215">
				<ele>2484.000000</ele>
				<time>1970-01-01T00:00:00Z</time>
			</trkpt>
			<trkpt lat="33.276459" lon="103.817215">
				<ele>2484.000000</ele>
				<time>1970-01-01T00:00:00Z</time>
			</trkpt>
			<trkpt lat="33.276463" lon="103.817215">
				<ele>2484.000000</ele>
				<time>1970-01-01T00:00:00Z</time>
			</trkpt>
			<trkpt lat="33.276466" lon="103.817215">
				<ele>2484.000000</ele>
				<time>1970-01-01T00:00:00Z</time>
			</trkpt>
			<trkpt lat="33.276470" lon="103.817223">
				<ele>2484.000000</ele>
				<time>1970-01-01T00:00:00Z</time>
			</trkpt>
			<trkpt lat="33.276474" lon="103.817223">
				<ele>2484.000000</ele>
				<time>1970-01-01T00:00:00Z</time>
			</trkpt>
			<trkpt lat="33.276474" lon="103.817230">
				<ele>2484.000000</ele>
				<time>1970-01-01T00:00:00Z</time>
			</trkpt>
			<trkpt lat="33.276478" lon="103.817230">
				<ele>2484.000000</ele>
				<time>1970-01-01T00:00:00Z</time>
			</trkpt>
			<trkpt lat="33.276485" lon="103.817230">
				<ele>2484.000000</ele>
				<time>1970-01-01T00:00:00Z</time>
			</trkpt>
			<trkpt lat="33.276489" lon="103.817230">
				<ele>2484.000000</ele>
				<time>1970-01-01T00:00:00Z</time>
			</trkpt>
			<trkpt lat="33.276493" lon="103.817230">
				<ele>2484.000000</ele>
				<time>1970-01-01T00:00:00Z</time>
			</trkpt>
			<trkpt lat="33.276497" lon="103.817230">
				<ele>2484.000000</ele>
				<time>1970-01-01T00:00:00Z</time>
			</trkpt>
			<trkpt lat="33.276497" lon="103.817230">
				<ele>2484.000000</ele>
				<time>1970-01-01T00:00:00Z</time>
			</trkpt>
			<trkpt lat="33.276501" lon="103.817230">
				<ele>2484.000000</ele>
				<time>1970-01-01T00:00:00Z</time>
			</trkpt>
			<trkpt lat="33.276505" lon="103.817230">
				<ele>2484.000000</ele>
				<time>1970-01-01T00:00:00Z</time>
			</trkpt>
			<trkpt lat="33.276512" lon="103.817230">
				<ele>2484.000000</ele>
				<time>1970-01-01T00:00:00Z</time>
			</trkpt>
			<trkpt lat="33.276516" lon="103.817230">
				<ele>2484.000000</ele>
				<time>1970-01-01T00:00:00Z</time>
			</trkpt>
			<trkpt lat="33.276520" lon="103.817230">
				<ele>2484.000000</ele>
				<time>1970-01-01T00:00:00Z</time>
			</trkpt>
			<trkpt lat="33.276520" lon="103.817238">
				<ele>2484.000000</ele>
				<time>1970-01-01T00:00:00Z</time>
			</trkpt>
			<trkpt lat="33.276524" lon="103.817238">
				<ele>2484.000000</ele>
				<time>1970-01-01T00:00:00Z</time>
			</trkpt>
			<trkpt lat="33.276527" lon="103.817238">
				<ele>2484.000000</ele>
				<time>1970-01-01T00:00:00Z</time>
			</trkpt>
			<trkpt lat="33.276531" lon="103.817238">
				<ele>2480.000000</ele>
				<time>1970-01-01T00:00:00Z</time>
			</trkpt>
			<trkpt lat="33.276531" lon="103.817230">
				<ele>2480.000000</ele>
				<time>1970-01-01T00:00:00Z</time>
			</trkpt>
			<trkpt lat="33.276539" lon="103.817230">
				<ele>2480.000000</ele>
				<time>1970-01-01T00:00:00Z</time>
			</trkpt>
			<trkpt lat="33.276543" lon="103.817230">
				<ele>2480.000000</ele>
				<time>1970-01-01T00:00:00Z</time>
			</trkpt>
			<trkpt lat="33.276546" lon="103.817230">
				<ele>2480.000000</ele>
				<time>1970-01-01T00:00:00Z</time>
			</trkpt>
			<trkpt lat="33.276550" lon="103.817230">
				<ele>2480.000000</ele>
				<time>1970-01-01T00:00:00Z</time>
			</trkpt>
			<trkpt lat="33.276554" lon="103.817230">
				<ele>2480.000000</ele>
				<time>1970-01-01T00:00:00Z</time>
			</trkpt>
			<trkpt lat="33.276562" lon="103.817230">
				<ele>2480.000000</ele>
				<time>1970-01-01T00:00:00Z</time>
			</trkpt>
			<trkpt lat="33.276566" lon="103.817230">
				<ele>2480.000000</ele>
				<time>1970-01-01T00:00:00Z</time>
			</trkpt>
			<trkpt lat="33.276569" lon="103.817230">
				<ele>2480.000000</ele>
				<time>1970-01-01T00:00:00Z</time>
			</trkpt>
			<trkpt lat="33.276573" lon="103.817230">
				<ele>2480.000000</ele>
				<time>1970-01-01T00:00:00Z</time>
			</trkpt>
			<trkpt lat="33.276577" lon="103.817230">
				<ele>2480.000000</ele>
				<time>1970-01-01T00:00:00Z</time>
			</trkpt>
			<trkpt lat="33.276581" lon="103.817230">
				<ele>2480.000000</ele>
				<time>1970-01-01T00:00:00Z</time>
			</trkpt>
			<trkpt lat="33.276588" lon="103.817230">
				<ele>2480.000000</ele>
				<time>1970-01-01T00:00:00Z</time>
			</trkpt>
			<trkpt lat="33.276592" lon="103.817230">
				<ele>2480.000000</ele>
				<time>1970-01-01T00:00:00Z</time>
			</trkpt>
			<trkpt lat="33.276596" lon="103.817230">
				<ele>2480.000000</ele>
				<time>1970-01-01T00:00:00Z</time>
			</trkpt>
			<trkpt lat="33.276600" lon="103.817230">
				<ele>2480.000000</ele>
				<time>1970-01-01T00:00:00Z</time>
			</trkpt>
			<trkpt lat="33.276604" lon="103.817230">
				<ele>2480.000000</ele>
				<time>1970-01-01T00:00:00Z</time>
			</trkpt>
			<trkpt lat="33.276604" lon="103.817230">
				<ele>2480.000000</ele>
				<time>1970-01-01T00:00:00Z</time>
			</trkpt>
			<trkpt lat="33.276608" lon="103.817230">
				<ele>2480.000000</ele>
				<time>1970-01-01T00:00:00Z</time>
			</trkpt>
			<trkpt lat="33.276615" lon="103.817230">
				<ele>2480.000000</ele>
				<time>1970-01-01T00:00:00Z</time>
			</trkpt>
			<trkpt lat="33.276619" lon="103.817230">
				<ele>2480.000000</ele>
				<time>1970-01-01T00:00:00Z</time>
			</trkpt>
			<trkpt lat="33.276623" lon="103.817230">
				<ele>2480.000000</ele>
				<time>1970-01-01T00:00:00Z</time>
			</trkpt>
			<trkpt lat="33.276627" lon="103.817230">
				<ele>2480.000000</ele>
				<time>1970-01-01T00:00:00Z</time>
			</trkpt>
			<trkpt lat="33.276630" lon="103.817230">
				<ele>2480.000000</ele>
				<time>1970-01-01T00:00:00Z</time>
			</trkpt>
			<trkpt lat="33.276638" lon="103.817230">
				<ele>2480.000000</ele>
				<time>1970-01-01T00:00:00Z</time>
			</trkpt>
			<trkpt lat="33.276642" lon="103.817230">
				<ele>2480.000000</ele>
				<time>1970-01-01T00:00:00Z</time>
			</trkpt>
			<trkpt lat="33.276646" lon="103.817230">
				<ele>2480.000000</ele>
				<time>1970-01-01T00:00:00Z</time>
			</trkpt>
			<trkpt lat="33.276649" lon="103.817230">
				<ele>2480.000000</ele>
				<time>1970-01-01T00:00:00Z</time>
			</trkpt>
			<trkpt lat="33.276653" lon="103.817230">
				<ele>2480.000000</ele>
				<time>1970-01-01T00:00:00Z</time>
			</trkpt>
			<trkpt lat="33.276657" lon="103.817230">
				<ele>2480.000000</ele>
				<time>1970-01-01T00:00:00Z</time>
			</trkpt>
			<trkpt lat="33.276665" lon="103.817230">
				<ele>2480.000000</ele>
				<time>1970-01-01T00:00:00Z</time>
			</trkpt>
			<trkpt lat="33.276669" lon="103.817230">
				<ele>2480.000000</ele>
				<time>1970-01-01T00:00:00Z</time>
			</trkpt>
			<trkpt lat="33.276672" lon="103.817230">
				<ele>2480.000000</ele>
				<time>1970-01-01T00:00:00Z</time>
			</trkpt>
			<trkpt lat="33.276676" lon="103.817230">
				<ele>2480.000000</ele>
				<time>1970-01-01T00:00:00Z</time>
			</trkpt>
			<trkpt lat="33.276680" lon="103.817230">
				<ele>2480.000000</ele>
				<time>1970-01-01T00:00:00Z</time>
			</trkpt>
			<trkpt lat="33.276684" lon="103.817230">
				<ele>2480.000000</ele>
				<time>1970-01-01T00:00:00Z</time>
			</trkpt>
			<trkpt lat="33.276691" lon="103.817230">
				<ele>2480.000000</ele>
				<time>1970-01-01T00:00:00Z</time>
			</trkpt>
			<trkpt lat="33.276695" lon="103.817230">
				<ele>2480.000000</ele>
				<time>1970-01-01T00:00:00Z</time>
			</trkpt>
			<trkpt lat="33.276699" lon="103.817230">
				<ele>2480.000000</ele>
				<time>1970-01-01T00:00:00Z</time>
			</trkpt>
			<trkpt lat="33.276703" lon="103.817230">
				<ele>2480.000000</ele>
				<time>1970-01-01T00:00:00Z</time>
			</trkpt>
			<trkpt lat="33.276707" lon="103.817230">
				<ele>2480.000000</ele>
				<time>1970-01-01T00:00:00Z</time>
			</trkpt>
			<trkpt lat="33.276714" lon="103.817230">
				<ele>2480.000000</ele>
				<time>1970-01-01T00:00:00Z</time>
			</trkpt>
			<trkpt lat="33.276718" lon="103.817230">
				<ele>2480.000000</ele>
				<time>1970-01-01T00:00:00Z</time>
			</trkpt>
			<trkpt lat="33.276722" lon="103.817230">
				<ele>2480.000000</ele>
				<time>1970-01-01T00:00:00Z</time>
			</trkpt>
			<trkpt lat="33.276726" lon="103.817230">
				<ele>2480.000000</ele>
				<time>1970-01-01T00:00:00Z</time>
			</trkpt>
			<trkpt lat="33.276730" lon="103.817230">
				<ele>2480.000000</ele>
				<time>1970-01-01T00:00:00Z</time>
			</trkpt>
			<trkpt lat="33.276733" lon="103.817230">
				<ele>2480.000000</ele>
				<time>1970-01-01T00:00:00Z</time>
			</trkpt>
			<trkpt lat="33.276741" lon="103.817230">
				<ele>2480.000000</ele>
				<time>1970-01-01T00:00:00Z</time>
			</trkpt>
			<trkpt lat="33.276745" lon="103.817230">
				<ele>2480.000000</ele>
				<time>1970-01-01T00:00:00Z</time>
			</trkpt>
			<trkpt lat="33.276749" lon="103.817230">
				<ele>2480.000000</ele>
				<time>1970-01-01T00:00:00Z</time>
			</trkpt>
			<trkpt lat="33.276752" lon="103.817230">
				<ele>2480.000000</ele>
				<time>1970-01-01T00:00:00Z</time>
			</trkpt>
			<trkpt lat="33.276756" lon="103.817230">
				<ele>2480.000000</ele>
				<time>1970-01-01T00:00:00Z</time>
			</trkpt>
			<trkpt lat="33.276760" lon="103.817230">
				<ele>2480.000000</ele>
				<time>1970-01-01T00:00:00Z</time>
			</trkpt>
			<trkpt lat="33.276760" lon="103.817223">
				<ele>2480.000000</ele>
				<time>1970-01-01T00:00:00Z</time>
			</trkpt>
			<trkpt lat="33.276768" lon="103.817223">
				<ele>2480.000000</ele>
				<time>1970-01-01T00:00:00Z</time>
			</trkpt>
			<trkpt lat="33.276772" lon="103.817223">
				<ele>2480.000000</ele>
				<time>1970-01-01T00:00:00Z</time>
			</trkpt>
			<trkpt lat="33.276775" lon="103.817223">
				<ele>2480.000000</ele>
				<time>1970-01-01T00:00:00Z</time>
			</trkpt>
			<trkpt lat="33.276779" lon="103.817223">
				<ele>2480.000000</ele>
				<time>1970-01-01T00:00:00Z</time>
			</trkpt>
			<trkpt lat="33.276783" lon="103.817223">
				<ele>2480.000000</ele>
				<time>1970-01-01T00:00:00Z</time>
			</trkpt>
			<trkpt lat="33.276791" lon="103.817223">
				<ele>2480.000000</ele>
				<time>1970-01-01T00:00:00Z</time>
			</trkpt>
			<trkpt lat="33.276794" lon="103.817223">
				<ele>2480.000000</ele>
				<time>1970-01-01T00:00:00Z</time>
			</trkpt>
			<trkpt lat="33.276798" lon="103.817223">
				<ele>2480.000000</ele>
				<time>1970-01-01T00:00:00Z</time>
			</trkpt>
			<trkpt lat="33.276802" lon="103.817223">
				<ele>2480.000000</ele>
				<time>1970-01-01T00:00:00Z</time>
			</trkpt>
			<trkpt lat="33.276806" lon="103.817223">
				<ele>2474.000000</ele>
				<time>1970-01-01T00:00:00Z</time>
			</trkpt>
			<trkpt lat="33.276810" lon="103.817215">
				<ele>2474.000000</ele>
				<time>1970-01-01T00:00:00Z</time>
			</trkpt>
			<trkpt lat="33.276817" lon="103.817215">
				<ele>2474.000000</ele>
				<time>1970-01-01T00:00:00Z</time>
			</trkpt>
			<trkpt lat="33.276821" lon="103.817215">
				<ele>2474.000000</ele>
				<time>1970-01-01T00:00:00Z</time>
			</trkpt>
			<trkpt lat="33.276825" lon="103.817215">
				<ele>2474.000000</ele>
				<time>1970-01-01T00:00:00Z</time>
			</trkpt>
			<trkpt lat="33.276829" lon="103.817215">
				<ele>2474.000000</ele>
				<time>1970-01-01T00:00:00Z</time>
			</trkpt>
			<trkpt lat="33.276833" lon="103.817215">
				<ele>2474.000000</ele>
				<time>1970-01-01T00:00:00Z</time>
			</trkpt>
			<trkpt lat="33.276836" lon="103.817215">
				<ele>2474.000000</ele>
				<time>1970-01-01T00:00:00Z</time>
			</trkpt>
			<trkpt lat="33.276844" lon="103.817215">
				<ele>2474.000000</ele>
				<time>1970-01-01T00:00:00Z</time>
			</trkpt>
			<trkpt lat="33.276848" lon="103.817215">
				<ele>2474.000000</ele>
				<time>1970-01-01T00:00:00Z</time>
			</trkpt>
			<trkpt lat="33.276852" lon="103.817215">
				<ele>2474.000000</ele>
				<time>1970-01-01T00:00:00Z</time>
			</trkpt>
			<trkpt lat="33.276855" lon="103.817207">
				<ele>2474.000000</ele>
				<time>1970-01-01T00:00:00Z</time>
			</trkpt>
			<trkpt lat="33.276859" lon="103.817207">
				<ele>2474.000000</ele>
				<time>1970-01-01T00:00:00Z</time>
			</trkpt>
			<trkpt lat="33.276863" lon="103.817207">
				<ele>2474.000000</ele>
				<time>1970-01-01T00:00:00Z</time>
			</trkpt>
			<trkpt lat="33.276871" lon="103.817207">
				<ele>2474.000000</ele>
				<time>1970-01-01T00:00:00Z</time>
			</trkpt>
			<trkpt lat="33.276875" lon="103.817207">
				<ele>2474.000000</ele>
				<time>1970-01-01T00:00:00Z</time>
			</trkpt>
			<trkpt lat="33.276878" lon="103.817207">
				<ele>2474.000000</ele>
				<time>1970-01-01T00:00:00Z</time>
			</trkpt>
			<trkpt lat="33.276878" lon="103.817207">
				<ele>2474.000000</ele>
				<time>1970-01-01T00:00:00Z</time>
			</trkpt>
			<trkpt lat="33.276882" lon="103.817207">
				<ele>2474.000000</ele>
				<time>1970-01-01T00:00:00Z</time>
			</trkpt>
			<trkpt lat="33.276886" lon="103.817207">
				<ele>2474.000000</ele>
				<time>1970-01-01T00:00:00Z</time>
			</trkpt>
			<trkpt lat="33.276894" lon="103.817207">
				<ele>2474.000000</ele>
				<time>1970-01-01T00:00:00Z</time>
			</trkpt>
			<trkpt lat="33.276897" lon="103.817207">
				<ele>2474.000000</ele>
				<time>1970-01-01T00:00:00Z</time>
			</trkpt>
			<trkpt lat="33.276901" lon="103.817207">
				<ele>2474.000000</ele>
				<time>1970-01-01T00:00:00Z</time>
			</trkpt>
			<trkpt lat="33.276905" lon="103.817207">
				<ele>2474.000000</ele>
				<time>1970-01-01T00:00:00Z</time>
			</trkpt>
			<trkpt lat="33.276909" lon="103.817207">
				<ele>2474.000000</ele>
				<time>1970-01-01T00:00:00Z</time>
			</trkpt>
			<trkpt lat="33.276913" lon="103.817207">
				<ele>2474.000000</ele>
				<time>1970-01-01T00:00:00Z</time>
			</trkpt>
			<trkpt lat="33.276913" lon="103.817200">
				<ele>2474.000000</ele>
				<time>1970-01-01T00:00:00Z</time>
			</trkpt>
			<trkpt lat="33.276920" lon="103.817200">
				<ele>2474.000000</ele>
				<time>1970-01-01T00:00:00Z</time>
			</trkpt>
			<trkpt lat="33.276924" lon="103.817200">
				<ele>2474.000000</ele>
				<time>1970-01-01T00:00:00Z</time>
			</trkpt>
			<trkpt lat="33.276928" lon="103.817200">
				<ele>2474.000000</ele>
				<time>1970-01-01T00:00:00Z</time>
			</trkpt>
			<trkpt lat="33.276932" lon="103.817200">
				<ele>2474.000000</ele>
				<time>1970-01-01T00:00:00Z</time>
			</trkpt>
			<trkpt lat="33.276936" lon="103.817200">
				<ele>2474.000000</ele>
				<time>1970-01-01T00:00:00Z</time>
			</trkpt>
			<trkpt lat="33.276939" lon="103.817200">
				<ele>2474.000000</ele>
				<time>1970-01-01T00:00:00Z</time>
			</trkpt>
			<trkpt lat="33.276939" lon="103.817192">
				<ele>2474.000000</ele>
				<time>1970-01-01T00:00:00Z</time>
			</trkpt>
			<trkpt lat="33.276947" lon="103.817192">
				<ele>2474.000000</ele>
				<time>1970-01-01T00:00:00Z</time>
			</trkpt>
			<trkpt lat="33.276951" lon="103.817192">
				<ele>2474.000000</ele>
				<time>1970-01-01T00:00:00Z</time>
			</trkpt>
			<trkpt lat="33.276955" lon="103.817192">
				<ele>2474.000000</ele>
				<time>1970-01-01T00:00:00Z</time>
			</trkpt>
			<trkpt lat="33.276958" lon="103.817192">
				<ele>2474.000000</ele>
				<time>1970-01-01T00:00:00Z</time>
			</trkpt>
			<trkpt lat="33.276958" lon="103.817192">
				<ele>2474.000000</ele>
				<time>1970-01-01T00:00:00Z</time>
			</trkpt>
			<trkpt lat="33.276962" lon="103.817192">
				<ele>2474.000000</ele>
				<time>1970-01-01T00:00:00Z</time>
			</trkpt>
			<trkpt lat="33.276962" lon="103.817184">
				<ele>2474.000000</ele>
				<time>1970-01-01T00:00:00Z</time>
			</trkpt>
			<trkpt lat="33.276970" lon="103.817184">
				<ele>2474.000000</ele>
				<time>1970-01-01T00:00:00Z</time>
			</trkpt>
			<trkpt lat="33.276974" lon="103.817184">
				<ele>2474.000000</ele>
				<time>1970-01-01T00:00:00Z</time>
			</trkpt>
			<trkpt lat="33.276978" lon="103.817184">
				<ele>2474.000000</ele>
				<time>1970-01-01T00:00:00Z</time>
			</trkpt>
			<trkpt lat="33.276981" lon="103.817184">
				<ele>2474.000000</ele>
				<time>1970-01-01T00:00:00Z</time>
			</trkpt>
			<trkpt lat="33.276981" lon="103.817177">
				<ele>2474.000000</ele>
				<time>1970-01-01T00:00:00Z</time>
			</trkpt>
			<trkpt lat="33.276985" lon="103.817177">
				<ele>2474.000000</ele>
				<time>1970-01-01T00:00:00Z</time>
			</trkpt>
			<trkpt lat="33.276989" lon="103.817177">
				<ele>2474.000000</ele>
				<time>1970-01-01T00:00:00Z</time>
			</trkpt>
			<trkpt lat="33.276997" lon="103.817177">
				<ele>2474.000000</ele>
				<time>1970-01-01T00:00:00Z</time>
			</trkpt>
			<trkpt lat="33.277000" lon="103.817177">
				<ele>2474.000000</ele>
				<time>1970-01-01T00:00:00Z</time>
			</trkpt>
			<trkpt lat="33.277000" lon="103.817177">
				<ele>2474.000000</ele>
				<time>1970-01-01T00:00:00Z</time>
			</trkpt>
			<trkpt lat="33.277004" lon="103.817177">
				<ele>2474.000000</ele>
				<time>1970-01-01T00:00:00Z</time>
			</trkpt>
			<trkpt lat="33.277008" lon="103.817177">
				<ele>2474.000000</ele>
				<time>1970-01-01T00:00:00Z</time>
			</trkpt>
			<trkpt lat="33.277008" lon="103.817169">
				<ele>2474.000000</ele>
				<time>1970-01-01T00:00:00Z</time>
			</trkpt>
			<trkpt lat="33.277012" lon="103.817169">
				<ele>2474.000000</ele>
				<time>1970-01-01T00:00:00Z</time>
			</trkpt>
			<trkpt lat="33.277016" lon="103.817169">
				<ele>2474.000000</ele>
				<time>1970-01-01T00:00:00Z</time>
			</trkpt>
			<trkpt lat="33.277023" lon="103.817169">
				<ele>2474.000000</ele>
				<time>1970-01-01T00:00:00Z</time>
			</trkpt>
			<trkpt lat="33.277023" lon="103.817162">
				<ele>2474.000000</ele>
				<time>1970-01-01T00:00:00Z</time>
			</trkpt>
			<trkpt lat="33.277027" lon="103.817162">
				<ele>2474.000000</ele>
				<time>1970-01-01T00:00:00Z</time>
			</trkpt>
			<trkpt lat="33.277031" lon="103.817162">
				<ele>2474.000000</ele>
				<time>1970-01-01T00:00:00Z</time>
			</trkpt>
			<trkpt lat="33.277035" lon="103.817162">
				<ele>2474.000000</ele>
				<time>1970-01-01T00:00:00Z</time>
			</trkpt>
			<trkpt lat="33.277039" lon="103.817162">
				<ele>2474.000000</ele>
				<time>1970-01-01T00:00:00Z</time>
			</trkpt>
			<trkpt lat="33.277046" lon="103.817162">
				<ele>2474.000000</ele>
				<time>1970-01-01T00:00:00Z</time>
			</trkpt>
			<trkpt lat="33.277046" lon="103.817154">
				<ele>2474.000000</ele>
				<time>1970-01-01T00:00:00Z</time>
			</trkpt>
			<trkpt lat="33.277050" lon="103.817154">
				<ele>2474.000000</ele>
				<time>1970-01-01T00:00:00Z</time>
			</trkpt>
			<trkpt lat="33.277054" lon="103.817154">
				<ele>2474.000000</ele>
				<time>1970-01-01T00:00:00Z</time>
			</trkpt>
			<trkpt lat="33.277058" lon="103.817154">
				<ele>2474.000000</ele>
				<time>1970-01-01T00:00:00Z</time>
			</trkpt>
			<trkpt lat="33.277061" lon="103.817154">
				<ele>2474.000000</ele>
				<time>1970-01-01T00:00:00Z</time>
			</trkpt>
			<trkpt lat="33.277061" lon="103.817154">
				<ele>2474.000000</ele>
				<time>1970-01-01T00:00:00Z</time>
			</trkpt>
			<trkpt lat="33.277065" lon="103.817154">
				<ele>2474.000000</ele>
				<time>1970-01-01T00:00:00Z</time>
			</trkpt>
			<trkpt lat="33.277073" lon="103.817154">
				<ele>2474.000000</ele>
				<time>1970-01-01T00:00:00Z</time>
			</trkpt>
			<trkpt lat="33.277077" lon="103.817154">
				<ele>2474.000000</ele>
				<time>1970-01-01T00:00:00Z</time>
			</trkpt>
			<trkpt lat="33.277081" lon="103.817154">
				<ele>2474.000000</ele>
				<time>1970-01-01T00:00:00Z</time>
			</trkpt>
			<trkpt lat="33.277084" lon="103.817154">
				<ele>2474.000000</ele>
				<time>1970-01-01T00:00:00Z</time>
			</trkpt>
			<trkpt lat="33.277088" lon="103.817154">
				<ele>2474.000000</ele>
				<time>1970-01-01T00:00:00Z</time>
			</trkpt>
			<trkpt lat="33.277088" lon="103.817146">
				<ele>2474.000000</ele>
				<time>1970-01-01T00:00:00Z</time>
			</trkpt>
			<trkpt lat="33.277092" lon="103.817146">
				<ele>2474.000000</ele>
				<time>1970-01-01T00:00:00Z</time>
			</trkpt>
			<trkpt lat="33.277100" lon="103.817146">
				<ele>2474.000000</ele>
				<time>1970-01-01T00:00:00Z</time>
			</trkpt>
			<trkpt lat="33.277103" lon="103.817146">
				<ele>2474.000000</ele>
				<time>1970-01-01T00:00:00Z</time>
			</trkpt>
			<trkpt lat="33.277103" lon="103.817139">
				<ele>2474.000000</ele>
				<time>1970-01-01T00:00:00Z</time>
			</trkpt>
			<trkpt lat="33.277107" lon="103.817139">
				<ele>2474.000000</ele>
				<time>1970-01-01T00:00:00Z</time>
			</trkpt>
			<trkpt lat="33.277111" lon="103.817139">
				<ele>2474.000000</ele>
				<time>1970-01-01T00:00:00Z</time>
			</trkpt>
			<trkpt lat="33.277115" lon="103.817139">
				<ele>2474.000000</ele>
				<time>1970-01-01T00:00:00Z</time>
			</trkpt>
			<trkpt lat="33.277119" lon="103.817139">
				<ele>2474.000000</ele>
				<time>1970-01-01T00:00:00Z</time>
			</trkpt>
			<trkpt lat="33.277126" lon="103.817139">
				<ele>2474.000000</ele>
				<time>1970-01-01T00:00:00Z</time>
			</trkpt>
			<trkpt lat="33.277126" lon="103.817139">
				<ele>2474.000000</ele>
				<time>1970-01-01T00:00:00Z</time>
			</trkpt>
			<trkpt lat="33.277130" lon="103.817139">
				<ele>2474.000000</ele>
				<time>1970-01-01T00:00:00Z</time>
			</trkpt>
			<trkpt lat="33.277134" lon="103.817139">
				<ele>2474.000000</ele>
				<time>1970-01-01T00:00:00Z</time>
			</trkpt>
			<trkpt lat="33.277138" lon="103.817139">
				<ele>2474.000000</ele>
				<time>1970-01-01T00:00:00Z</time>
			</trkpt>
			<trkpt lat="33.277142" lon="103.817139">
				<ele>2474.000000</ele>
				<time>1970-01-01T00:00:00Z</time>
			</trkpt>
			<trkpt lat="33.277149" lon="103.817139">
				<ele>2474.000000</ele>
				<time>1970-01-01T00:00:00Z</time>
			</trkpt>
			<trkpt lat="33.277149" lon="103.817131">
				<ele>2474.000000</ele>
				<time>1970-01-01T00:00:00Z</time>
			</trkpt>
			<trkpt lat="33.277153" lon="103.817131">
				<ele>2474.000000</ele>
				<time>1970-01-01T00:00:00Z</time>
			</trkpt>
			<trkpt lat="33.277157" lon="103.817131">
				<ele>2474.000000</ele>
				<time>1970-01-01T00:00:00Z</time>
			</trkpt>
			<trkpt lat="33.277161" lon="103.817131">
				<ele>2474.000000</ele>
				<time>1970-01-01T00:00:00Z</time>
			</trkpt>
			<trkpt lat="33.277164" lon="103.817131">
				<ele>2474.000000</ele>
				<time>1970-01-01T00:00:00Z</time>
			</trkpt>
			<trkpt lat="33.277168" lon="103.817131">
				<ele>2474.000000</ele>
				<time>1970-01-01T00:00:00Z</time>
			</trkpt>
			<trkpt lat="33.277168" lon="103.817123">
				<ele>2474.000000</ele>
				<time>1970-01-01T00:00:00Z</time>
			</trkpt>
			<trkpt lat="33.277176" lon="103.817123">
				<ele>2474.000000</ele>
				<time>1970-01-01T00:00:00Z</time>
			</trkpt>
			<trkpt lat="33.277180" lon="103.817123">
				<ele>2474.000000</ele>
				<time>1970-01-01T00:00:00Z</time>
			</trkpt>
			<trkpt lat="33.277184" lon="103.817123">
				<ele>2474.000000</ele>
				<time>1970-01-01T00:00:00Z</time>
			</trkpt>
			<trkpt lat="33.277184" lon="103.817116">
				<ele>2474.000000</ele>
				<time>1970-01-01T00:00:00Z</time>
			</trkpt>
			<trkpt lat="33.277187" lon="103.817116">
				<ele>2474.000000</ele>
				<time>1970-01-01T00:00:00Z</time>
			</trkpt>
			<trkpt lat="33.277191" lon="103.817116">
				<ele>2474.000000</ele>
				<time>1970-01-01T00:00:00Z</time>
			</trkpt>
			<trkpt lat="33.277195" lon="103.817116">
				<ele>2474.000000</ele>
				<time>1970-01-01T00:00:00Z</time>
			</trkpt>
			<trkpt lat="33.277203" lon="103.817116">
				<ele>2474.000000</ele>
				<time>1970-01-01T00:00:00Z</time>
			</trkpt>
			<trkpt lat="33.277206" lon="103.817116">
				<ele>2474.000000</ele>
				<time>1970-01-01T00:00:00Z</time>
			</trkpt>
			<trkpt lat="33.277210" lon="103.817116">
				<ele>2474.000000</ele>
				<time>1970-01-01T00:00:00Z</time>
			</trkpt>
			<trkpt lat="33.277214" lon="103.817116">
				<ele>2474.000000</ele>
				<time>1970-01-01T00:00:00Z</time>
			</trkpt>
			<trkpt lat="33.277218" lon="103.817116">
				<ele>2474.000000</ele>
				<time>1970-01-01T00:00:00Z</time>
			</trkpt>
			<trkpt lat="33.277225" lon="103.817116">
				<ele>2474.000000</ele>
				<time>1970-01-01T00:00:00Z</time>
			</trkpt>
			<trkpt lat="33.277229" lon="103.817116">
				<ele>2474.000000</ele>
				<time>1970-01-01T00:00:00Z</time>
			</trkpt>
			<trkpt lat="33.277233" lon="103.817116">
				<ele>2474.000000</ele>
				<time>1970-01-01T00:00:00Z</time>
			</trkpt>
			<trkpt lat="33.277237" lon="103.817116">
				<ele>2474.000000</ele>
				<time>1970-01-01T00:00:00Z</time>
			</trkpt>
			<trkpt lat="33.277241" lon="103.817116">
				<ele>2474.000000</ele>
				<time>1970-01-01T00:00:00Z</time>
			</trkpt>
			<trkpt lat="33.277245" lon="103.817116">
				<ele>2474.000000</ele>
				<time>1970-01-01T00:00:00Z</time>
			</trkpt>
			<trkpt lat="33.277252" lon="103.817116">
				<ele>2474.000000</ele>
				<time>1970-01-01T00:00:00Z</time>
			</trkpt>
			<trkpt lat="33.277256" lon="103.817116">
				<ele>2474.000000</ele>
				<time>1970-01-01T00:00:00Z</time>
			</trkpt>
			<trkpt lat="33.277260" lon="103.817116">
				<ele>2474.000000</ele>
				<time>1970-01-01T00:00:00Z</time>
			</trkpt>
			<trkpt lat="33.277264" lon="103.817116">
				<ele>2474.000000</ele>
				<time>1970-01-01T00:00:00Z</time>
			</trkpt>
			<trkpt lat="33.277267" lon="103.817116">
				<ele>2474.000000</ele>
				<time>1970-01-01T00:00:00Z</time>
			</trkpt>
			<trkpt lat="33.277271" lon="103.817116">
				<ele>2474.000000</ele>
				<time>1970-01-01T00:00:00Z</time>
			</trkpt>
			<trkpt lat="33.277279" lon="103.817116">
				<ele>2474.000000</ele>
				<time>1970-01-01T00:00:00Z</time>
			</trkpt>
			<trkpt lat="33.277279" lon="103.817108">
				<ele>2474.000000</ele>
				<time>1970-01-01T00:00:00Z</time>
			</trkpt>
			<trkpt lat="33.277283" lon="103.817108">
				<ele>2474.000000</ele>
				<time>1970-01-01T00:00:00Z</time>
			</trkpt>
			<trkpt lat="33.277287" lon="103.817108">
				<ele>2474.000000</ele>
				<time>1970-01-01T00:00:00Z</time>
			</trkpt>
			<trkpt lat="33.277290" lon="103.817108">
				<ele>2474.000000</ele>
				<time>1970-01-01T00:00:00Z</time>
			</trkpt>
			<trkpt lat="33.277294" lon="103.817108">
				<ele>2474.000000</ele>
				<time>1970-01-01T00:00:00Z</time>
			</trkpt>
			<trkpt lat="33.277302" lon="103.817108">
				<ele>2474.000000</ele>
				<time>1970-01-01T00:00:00Z</time>
			</trkpt>
			<trkpt lat="33.277306" lon="103.817108">
				<ele>2474.000000</ele>
				<time>1970-01-01T00:00:00Z</time>
			</trkpt>
			<trkpt lat="33.277309" lon="103.817108">
				<ele>2474.000000</ele>
				<time>1970-01-01T00:00:00Z</time>
			</trkpt>
			<trkpt lat="33.277313" lon="103.817108">
				<ele>2474.000000</ele>
				<time>1970-01-01T00:00:00Z</time>
			</trkpt>
			<trkpt lat="33.277317" lon="103.817108">
				<ele>2474.000000</ele>
				<time>1970-01-01T00:00:00Z</time>
			</trkpt>
			<trkpt lat="33.277317" lon="103.817101">
				<ele>2474.000000</ele>
				<time>1970-01-01T00:00:00Z</time>
			</trkpt>
			<trkpt lat="33.277321" lon="103.817101">
				<ele>2474.000000</ele>
				<time>1970-01-01T00:00:00Z</time>
			</trkpt>
			<trkpt lat="33.277328" lon="103.817101">
				<ele>2474.000000</ele>
				<time>1970-01-01T00:00:00Z</time>
			</trkpt>
			<trkpt lat="33.277332" lon="103.817101">
				<ele>2474.000000</ele>
				<time>1970-01-01T00:00:00Z</time>
			</trkpt>
			<trkpt lat="33.277336" lon="103.817101">
				<ele>2474.000000</ele>
				<time>1970-01-01T00:00:00Z</time>
			</trkpt>
			<trkpt lat="33.277340" lon="103.817101">
				<ele>2474.000000</ele>
				<time>1970-01-01T00:00:00Z</time>
			</trkpt>
			<trkpt lat="33.277344" lon="103.817101">
				<ele>2474.000000</ele>
				<time>1970-01-01T00:00:00Z</time>
			</trkpt>
			<trkpt lat="33.277348" lon="103.817101">
				<ele>2474.000000</ele>
				<time>1970-01-01T00:00:00Z</time>
			</trkpt>
			<trkpt lat="33.277355" lon="103.817101">
				<ele>2474.000000</ele>
				<time>1970-01-01T00:00:00Z</time>
			</trkpt>
			<trkpt lat="33.277359" lon="103.817101">
				<ele>2474.000000</ele>
				<time>1970-01-01T00:00:00Z</time>
			</trkpt>
			<trkpt lat="33.277363" lon="103.817101">
				<ele>2477.000000</ele>
				<time>1970-01-01T00:00:00Z</time>
			</trkpt>
			<trkpt lat="33.277367" lon="103.817101">
				<ele>2477.000000</ele>
				<time>1970-01-01T00:00:00Z</time>
			</trkpt>
			<trkpt lat="33.277370" lon="103.817101">
				<ele>2477.000000</ele>
				<time>1970-01-01T00:00:00Z</time>
			</trkpt>
			<trkpt lat="33.277378" lon="103.817101">
				<ele>2477.000000</ele>
				<time>1970-01-01T00:00:00Z</time>
			</trkpt>
			<trkpt lat="33.277382" lon="103.817101">
				<ele>2477.000000</ele>
				<time>1970-01-01T00:00:00Z</time>
			</trkpt>
			<trkpt lat="33.277386" lon="103.817101">
				<ele>2477.000000</ele>
				<time>1970-01-01T00:00:00Z</time>
			</trkpt>
			<trkpt lat="33.277386" lon="103.817093">
				<ele>2477.000000</ele>
				<time>1970-01-01T00:00:00Z</time>
			</trkpt>
			<trkpt lat="33.277390" lon="103.817093">
				<ele>2477.000000</ele>
				<time>1970-01-01T00:00:00Z</time>
			</trkpt>
			<trkpt lat="33.277393" lon="103.817093">
				<ele>2477.000000</ele>
				<time>1970-01-01T00:00:00Z</time>
			</trkpt>
			<trkpt lat="33.277397" lon="103.817093">
				<ele>2477.000000</ele>
				<time>1970-01-01T00:00:00Z</time>
			</trkpt>
			<trkpt lat="33.277405" lon="103.817093">
				<ele>2477.000000</ele>
				<time>1970-01-01T00:00:00Z</time>
			</trkpt>
			<trkpt lat="33.277409" lon="103.817093">
				<ele>2477.000000</ele>
				<time>1970-01-01T00:00:00Z</time>
			</trkpt>
			<trkpt lat="33.277412" lon="103.817093">
				<ele>2477.000000</ele>
				<time>1970-01-01T00:00:00Z</time>
			</trkpt>
			<trkpt lat="33.277416" lon="103.817093">
				<ele>2477.000000</ele>
				<time>1970-01-01T00:00:00Z</time>
			</trkpt>
			<trkpt lat="33.277416" lon="103.817085">
				<ele>2477.000000</ele>
				<time>1970-01-01T00:00:00Z</time>
			</trkpt>
			<trkpt lat="33.277420" lon="103.817085">
				<ele>2477.000000</ele>
				<time>1970-01-01T00:00:00Z</time>
			</trkpt>
			<trkpt lat="33.277424" lon="103.817085">
				<ele>2477.000000</ele>
				<time>1970-01-01T00:00:00Z</time>
			</trkpt>
			<trkpt lat="33.277431" lon="103.817085">
				<ele>2477.000000</ele>
				<time>1970-01-01T00:00:00Z</time>
			</trkpt>
			<trkpt lat="33.277435" lon="103.817085">
				<ele>2477.000000</ele>
				<time>1970-01-01T00:00:00Z</time>
			</trkpt>
			<trkpt lat="33.277439" lon="103.817085">
				<ele>2477.000000</ele>
				<time>1970-01-01T00:00:00Z</time>
			</trkpt>
			<trkpt lat="33.277443" lon="103.817085">
				<ele>2477.000000</ele>
				<time>1970-01-01T00:00:00Z</time>
			</trkpt>
			<trkpt lat="33.277447" lon="103.817085">
				<ele>2477.000000</ele>
				<time>1970-01-01T00:00:00Z</time>
			</trkpt>
			<trkpt lat="33.277447" lon="103.817085">
				<ele>2477.000000</ele>
				<time>1970-01-01T00:00:00Z</time>
			</trkpt>
			<trkpt lat="33.277454" lon="103.817085">
				<ele>2477.000000</ele>
				<time>1970-01-01T00:00:00Z</time>
			</trkpt>
			<trkpt lat="33.277458" lon="103.817085">
				<ele>2477.000000</ele>
				<time>1970-01-01T00:00:00Z</time>
			</trkpt>
			<trkpt lat="33.277462" lon="103.817085">
				<ele>2477.000000</ele>
				<time>1970-01-01T00:00:00Z</time>
			</trkpt>
			<trkpt lat="33.277466" lon="103.817085">
				<ele>2477.000000</ele>
				<time>1970-01-01T00:00:00Z</time>
			</trkpt>
			<trkpt lat="33.277466" lon="103.817078">
				<ele>2458.000000</ele>
				<time>1970-01-01T00:00:00Z</time>
			</trkpt>
			<trkpt lat="33.277470" lon="103.817078">
				<ele>2458.000000</ele>
				<time>1970-01-01T00:00:00Z</time>
			</trkpt>
			<trkpt lat="33.277473" lon="103.817078">
				<ele>2458.000000</ele>
				<time>1970-01-01T00:00:00Z</time>
			</trkpt>
			<trkpt lat="33.277481" lon="103.817078">
				<ele>2458.000000</ele>
				<time>1970-01-01T00:00:00Z</time>
			</trkpt>
			<trkpt lat="33.277485" lon="103.817078">
				<ele>2458.000000</ele>
				<time>1970-01-01T00:00:00Z</time>
			</trkpt>
			<trkpt lat="33.277489" lon="103.817078">
				<ele>2458.000000</ele>
				<time>1970-01-01T00:00:00Z</time>
			</trkpt>
			<trkpt lat="33.277489" lon="103.817078">
				<ele>2458.000000</ele>
				<time>1970-01-01T00:00:00Z</time>
			</trkpt>
			<trkpt lat="33.277607" lon="103.817055">
				<ele>2458.000000</ele>
				<time>1970-01-01T00:00:00Z</time>
			</trkpt>
			<trkpt lat="33.277695" lon="103.817093">
				<ele>2474.000000</ele>
				<time>1970-01-01T00:00:00Z</time>
			</trkpt>
			<trkpt lat="33.277748" lon="103.817200">
				<ele>2474.000000</ele>
				<time>1970-01-01T00:00:00Z</time>
			</trkpt>
			<trkpt lat="33.277840" lon="103.817245">
				<ele>2474.000000</ele>
				<time>1970-01-01T00:00:00Z</time>
			</trkpt>
			<trkpt lat="33.277924" lon="103.817329">
				<ele>2464.000000</ele>
				<time>1970-01-01T00:00:00Z</time>
			</trkpt>
			<trkpt lat="33.278004" lon="103.817390">
				<ele>2478.000000</ele>
				<time>1970-01-01T00:00:00Z</time>
			</trkpt>
			<trkpt lat="33.278069" lon="103.817497">
				<ele>2478.000000</ele>
				<time>1970-01-01T00:00:00Z</time>
			</trkpt>
			<trkpt lat="33.278160" lon="103.817543">
				<ele>2478.000000</ele>
				<time>1970-01-01T00:00:00Z</time>
			</trkpt>
			<trkpt lat="33.278244" lon="103.817581">
				<ele>2471.000000</ele>
				<time>1970-01-01T00:00:00Z</time>
			</trkpt>
			<trkpt lat="33.278328" lon="103.817635">
				<ele>2471.000000</ele>
				<time>1970-01-01T00:00:00Z</time>
			</trkpt>
			<trkpt lat="33.278393" lon="103.817711">
				<ele>2482.000000</ele>
				<time>1970-01-01T00:00:00Z</time>
			</trkpt>
			<trkpt lat="33.278454" lon="103.817802">
				<ele>2482.000000</ele>
				<time>1970-01-01T00:00:00Z</time>
			</trkpt>
			<trkpt lat="33.278526" lon="103.817863">
				<ele>2475.000000</ele>
				<time>1970-01-01T00:00:00Z</time>
			</trkpt>
			<trkpt lat="33.278618" lon="103.817924">
				<ele>2487.000000</ele>
				<time>1970-01-01T00:00:00Z</time>
			</trkpt>
			<trkpt lat="33.278690" lon="103.817986">
				<ele>2487.000000</ele>
				<time>1970-01-01T00:00:00Z</time>
			</trkpt>
			<trkpt lat="33.278736" lon="103.818085">
				<ele>2487.000000</ele>
				<time>1970-01-01T00:00:00Z</time>
			</trkpt>
			<trkpt lat="33.278774" lon="103.818199">
				<ele>2490.000000</ele>
				<time>1970-01-01T00:00:00Z</time>
			</trkpt>
			<trkpt lat="33.278809" lon="103.818306">
				<ele>2490.000000</ele>
				<time>1970-01-01T00:00:00Z</time>
			</trkpt>
			<trkpt lat="33.278900" lon="103.818359">
				<ele>2490.000000</ele>
				<time>1970-01-01T00:00:00Z</time>
			</trkpt>
			<trkpt lat="33.278976" lon="103.818428">
				<ele>2490.000000</ele>
				<time>1970-01-01T00:00:00Z</time>
			</trkpt>
			<trkpt lat="33.279053" lon="103.818504">
				<ele>2486.000000</ele>
				<time>1970-01-01T00:00:00Z</time>
			</trkpt>
			<trkpt lat="33.279057" lon="103.818619">
				<ele>2486.000000</ele>
				<time>1970-01-01T00:00:00Z</time>
			</trkpt>
			<trkpt lat="33.279041" lon="103.818726">
				<ele>2486.000000</ele>
				<time>1970-01-01T00:00:00Z</time>
			</trkpt>
			<trkpt lat="33.279079" lon="103.818825">
				<ele>2493.000000</ele>
				<time>1970-01-01T00:00:00Z</time>
			</trkpt>
			<trkpt lat="33.279148" lon="103.818893">
				<ele>2493.000000</ele>
				<time>1970-01-01T00:00:00Z</time>
			</trkpt>
			<trkpt lat="33.279221" lon="103.819000">
				<ele>2493.000000</ele>
				<time>1970-01-01T00:00:00Z</time>
			</trkpt>
			<trkpt lat="33.279305" lon="103.819054">
				<ele>2500.000000</ele>
				<time>1970-01-01T00:00:00Z</time>
			</trkpt>
			<trkpt lat="33.279373" lon="103.819130">
				<ele>2499.000000</ele>
				<time>1970-01-01T00:00:00Z</time>
			</trkpt>
			<trkpt lat="33.279430" lon="103.819221">
				<ele>2499.000000</ele>
				<time>1970-01-01T00:00:00Z</time>
			</trkpt>
			<trkpt lat="33.279499" lon="103.819305">
				<ele>2499.000000</ele>
				<time>1970-01-01T00:00:00Z</time>
			</trkpt>
			<trkpt lat="33.279583" lon="103.819344">
				<ele>2506.000000</ele>
				<time>1970-01-01T00:00:00Z</time>
			</trkpt>
			<trkpt lat="33.279667" lon="103.819389">
				<ele>2504.000000</ele>
				<time>1970-01-01T00:00:00Z</time>
			</trkpt>
			<trkpt lat="33.279732" lon="103.819466">
				<ele>2504.000000</ele>
				<time>1970-01-01T00:00:00Z</time>
			</trkpt>
			<trkpt lat="33.279675" lon="103.819557">
				<ele>2504.000000</ele>
				<time>1970-01-01T00:00:00Z</time>
			</trkpt>
			<trkpt lat="33.279747" lon="103.819656">
				<ele>2506.000000</ele>
				<time>1970-01-01T00:00:00Z</time>
			</trkpt>
			<trkpt lat="33.279720" lon="103.819786">
				<ele>2506.000000</ele>
				<time>1970-01-01T00:00:00Z</time>
			</trkpt>
			<trkpt lat="33.279774" lon="103.819878">
				<ele>2509.000000</ele>
				<time>1970-01-01T00:00:00Z</time>
			</trkpt>
			<trkpt lat="33.279720" lon="103.819992">
				<ele>2509.000000</ele>
				<time>1970-01-01T00:00:00Z</time>
			</trkpt>
			<trkpt lat="33.279705" lon="103.820107">
				<ele>2509.000000</ele>
				<time>1970-01-01T00:00:00Z</time>
			</trkpt>
			<trkpt lat="33.279781" lon="103.820038">
				<ele>2509.000000</ele>
				<time>1970-01-01T00:00:00Z</time>
			</trkpt>
			<trkpt lat="33.279839" lon="103.820183">
				<ele>2516.000000</ele>
				<time>1970-01-01T00:00:00Z</time>
			</trkpt>
			<trkpt lat="33.279930" lon="103.820129">
				<ele>2503.000000</ele>
				<time>1970-01-01T00:00:00Z</time>
			</trkpt>
			<trkpt lat="33.279961" lon="103.820030">
				<ele>2503.000000</ele>
				<time>1970-01-01T00:00:00Z</time>
			</trkpt>
			<trkpt lat="33.280052" lon="103.820038">
				<ele>2503.000000</ele>
				<time>1970-01-01T00:00:00Z</time>
			</trkpt>
			<trkpt lat="33.280140" lon="103.820076">
				<ele>2504.000000</ele>
				<time>1970-01-01T00:00:00Z</time>
			</trkpt>
			<trkpt lat="33.280212" lon="103.820007">
				<ele>2504.000000</ele>
				<time>1970-01-01T00:00:00Z</time>
			</trkpt>
			<trkpt lat="33.280296" lon="103.819962">
				<ele>2504.000000</ele>
				<time>1970-01-01T00:00:00Z</time>
			</trkpt>
			<trkpt lat="33.280365" lon="103.819870">
				<ele>2504.000000</ele>
				<time>1970-01-01T00:00:00Z</time>
			</trkpt>
			<trkpt lat="33.280407" lon="103.819763">
				<ele>2500.000000</ele>
				<time>1970-01-01T00:00:00Z</time>
			</trkpt>
			<trkpt lat="33.280441" lon="103.819656">
				<ele>2509.000000</ele>
				<time>1970-01-01T00:00:00Z</time>
			</trkpt>
			<trkpt lat="33.280479" lon="103.819557">
				<ele>2500.000000</ele>
				<time>1970-01-01T00:00:00Z</time>
			</trkpt>
			<trkpt lat="33.280514" lon="103.819450">
				<ele>2500.000000</ele>
				<time>1970-01-01T00:00:00Z</time>
			</trkpt>
			<trkpt lat="33.280567" lon="103.819359">
				<ele>2500.000000</ele>
				<time>1970-01-01T00:00:00Z</time>
			</trkpt>
			<trkpt lat="33.280632" lon="103.819283">
				<ele>2495.000000</ele>
				<time>1970-01-01T00:00:00Z</time>
			</trkpt>
			<trkpt lat="33.280704" lon="103.819206">
				<ele>2498.000000</ele>
				<time>1970-01-01T00:00:00Z</time>
			</trkpt>
			<trkpt lat="33.280804" lon="103.819214">
				<ele>2498.000000</ele>
				<time>1970-01-01T00:00:00Z</time>
			</trkpt>
			<trkpt lat="33.280899" lon="103.819229">
				<ele>2498.000000</ele>
				<time>1970-01-01T00:00:00Z</time>
			</trkpt>
			<trkpt lat="33.280972" lon="103.819305">
				<ele>2498.000000</ele>
				<time>1970-01-01T00:00:00Z</time>
			</trkpt>
			<trkpt lat="33.281071" lon="103.819344">
				<ele>2510.000000</ele>
				<time>1970-01-01T00:00:00Z</time>
			</trkpt>
			<trkpt lat="33.281158" lon="103.819397">
				<ele>2510.000000</ele>
				<time>1970-01-01T00:00:00Z</time>
			</trkpt>
			<trkpt lat="33.281250" lon="103.819420">
				<ele>2510.000000</ele>
				<time>1970-01-01T00:00:00Z</time>
			</trkpt>
			<trkpt lat="33.281330" lon="103.819473">
				<ele>2505.000000</ele>
				<time>1970-01-01T00:00:00Z</time>
			</trkpt>
			<trkpt lat="33.281429" lon="103.819511">
				<ele>2505.000000</ele>
				<time>1970-01-01T00:00:00Z</time>
			</trkpt>
			<trkpt lat="33.281513" lon="103.819542">
				<ele>2505.000000</ele>
				<time>1970-01-01T00:00:00Z</time>
			</trkpt>
			<trkpt lat="33.281620" lon="103.819542">
				<ele>2501.000000</ele>
				<time>1970-01-01T00:00:00Z</time>
			</trkpt>
			<trkpt lat="33.281715" lon="103.819527">
				<ele>2501.000000</ele>
				<time>1970-01-01T00:00:00Z</time>
			</trkpt>
			<trkpt lat="33.281815" lon="103.819519">
				<ele>2506.000000</ele>
				<time>1970-01-01T00:00:00Z</time>
			</trkpt>
			<trkpt lat="33.281906" lon="103.819534">
				<ele>2506.000000</ele>
				<time>1970-01-01T00:00:00Z</time>
			</trkpt>
			<trkpt lat="33.281998" lon="103.819534">
				<ele>2506.000000</ele>
				<time>1970-01-01T00:00:00Z</time>
			</trkpt>
			<trkpt lat="33.282093" lon="103.819519">
				<ele>2507.000000</ele>
				<time>1970-01-01T00:00:00Z</time>
			</trkpt>
			<trkpt lat="33.282188" lon="103.819542">
				<ele>2507.000000</ele>
				<time>1970-01-01T00:00:00Z</time>
			</trkpt>
			<trkpt lat="33.282257" lon="103.819626">
				<ele>2519.000000</ele>
				<time>1970-01-01T00:00:00Z</time>
			</trkpt>
			<trkpt lat="33.282345" lon="103.819702">
				<ele>2519.000000</ele>
				<time>1970-01-01T00:00:00Z</time>
			</trkpt>
			<trkpt lat="33.282368" lon="103.819809">
				<ele>2520.000000</ele>
				<time>1970-01-01T00:00:00Z</time>
			</trkpt>
			<trkpt lat="33.282421" lon="103.819901">
				<ele>2534.000000</ele>
				<time>1970-01-01T00:00:00Z</time>
			</trkpt>
			<trkpt lat="33.282490" lon="103.819977">
				<ele>2534.000000</ele>
				<time>1970-01-01T00:00:00Z</time>
			</trkpt>
			<trkpt lat="33.282532" lon="103.820076">
				<ele>2534.000000</ele>
				<time>1970-01-01T00:00:00Z</time>
			</trkpt>
			<trkpt lat="33.282612" lon="103.820137">
				<ele>2534.000000</ele>
				<time>1970-01-01T00:00:00Z</time>
			</trkpt>
			<trkpt lat="33.282696" lon="103.820190">
				<ele>2546.000000</ele>
				<time>1970-01-01T00:00:00Z</time>
			</trkpt>
			<trkpt lat="33.282787" lon="103.820244">
				<ele>2546.000000</ele>
				<time>1970-01-01T00:00:00Z</time>
			</trkpt>
			<trkpt lat="33.282829" lon="103.820351">
				<ele>2546.000000</ele>
				<time>1970-01-01T00:00:00Z</time>
			</trkpt>
			<trkpt lat="33.282936" lon="103.820343">
				<ele>2549.000000</ele>
				<time>1970-01-01T00:00:00Z</time>
			</trkpt>
			<trkpt lat="33.283035" lon="103.820305">
				<ele>2549.000000</ele>
				<time>1970-01-01T00:00:00Z</time>
			</trkpt>
			<trkpt lat="33.283100" lon="103.820221">
				<ele>2549.000000</ele>
				<time>1970-01-01T00:00:00Z</time>
			</trkpt>
			<trkpt lat="33.283203" lon="103.820183">
				<ele>2542.000000</ele>
				<time>1970-01-01T00:00:00Z</time>
			</trkpt>
			<trkpt lat="33.283249" lon="103.820084">
				<ele>2529.000000</ele>
				<time>1970-01-01T00:00:00Z</time>
			</trkpt>
			<trkpt lat="33.283340" lon="103.820015">
				<ele>2529.000000</ele>
				<time>1970-01-01T00:00:00Z</time>
			</trkpt>
			<trkpt lat="33.283424" lon="103.819954">
				<ele>2529.000000</ele>
				<time>1970-01-01T00:00:00Z</time>
			</trkpt>
			<trkpt lat="33.283497" lon="103.819878">
				<ele>2526.000000</ele>
				<time>1970-01-01T00:00:00Z</time>
			</trkpt>
			<trkpt lat="33.283573" lon="103.819801">
				<ele>2520.000000</ele>
				<time>1970-01-01T00:00:00Z</time>
			</trkpt>
			<trkpt lat="33.283646" lon="103.819733">
				<ele>2520.000000</ele>
				<time>1970-01-01T00:00:00Z</time>
			</trkpt>
			<trkpt lat="33.283737" lon="103.819695">
				<ele>2520.000000</ele>
				<time>1970-01-01T00:00:00Z</time>
			</trkpt>
			<trkpt lat="33.283817" lon="103.819756">
				<ele>2518.000000</ele>
				<time>1970-01-01T00:00:00Z</time>
			</trkpt>
			<trkpt lat="33.283913" lon="103.819748">
				<ele>2518.000000</ele>
				<time>1970-01-01T00:00:00Z</time>
			</trkpt>
			<trkpt lat="33.284000" lon="103.819794">
				<ele>2518.000000</ele>
				<time>1970-01-01T00:00:00Z</time>
			</trkpt>
			<trkpt lat="33.284084" lon="103.819839">
				<ele>2520.000000</ele>
				<time>1970-01-01T00:00:00Z</time>
			</trkpt>
			<trkpt lat="33.284161" lon="103.819908">
				<ele>2528.000000</ele>
				<time>1970-01-01T00:00:00Z</time>
			</trkpt>
			<trkpt lat="33.284237" lon="103.819962">
				<ele>2528.000000</ele>
				<time>1970-01-01T00:00:00Z</time>
			</trkpt>
			<trkpt lat="33.284351" lon="103.819984">
				<ele>2530.000000</ele>
				<time>1970-01-01T00:00:00Z</time>
			</trkpt>
			<trkpt lat="33.284317" lon="103.820091">
				<ele>2530.000000</ele>
				<time>1970-01-01T00:00:00Z</time>
			</trkpt>
			<trkpt lat="33.284386" lon="103.820190">
				<ele>2534.000000</ele>
				<time>1970-01-01T00:00:00Z</time>
			</trkpt>
			<trkpt lat="33.284470" lon="103.820244">
				<ele>2534.000000</ele>
				<time>1970-01-01T00:00:00Z</time>
			</trkpt>
			<trkpt lat="33.284546" lon="103.820297">
				<ele>2534.000000</ele>
				<time>1970-01-01T00:00:00Z</time>
			</trkpt>
			<trkpt lat="33.284641" lon="103.820320">
				<ele>2526.000000</ele>
				<time>1970-01-01T00:00:00Z</time>
			</trkpt>
			<trkpt lat="33.284729" lon="103.820381">
				<ele>2526.000000</ele>
				<time>1970-01-01T00:00:00Z</time>
			</trkpt>
			<trkpt lat="33.284775" lon="103.820480">
				<ele>2536.000000</ele>
				<time>1970-01-01T00:00:00Z</time>
			</trkpt>
			<trkpt lat="33.284840" lon="103.820572">
				<ele>2536.000000</ele>
				<time>1970-01-01T00:00:00Z</time>
			</trkpt>
			<trkpt lat="33.284924" lon="103.820625">
				<ele>2530.000000</ele>
				<time>1970-01-01T00:00:00Z</time>
			</trkpt>
			<trkpt lat="33.284985" lon="103.820717">
				<ele>2540.000000</ele>
				<time>1970-01-01T00:00:00Z</time>
			</trkpt>
			<trkpt lat="33.285072" lon="103.820770">
				<ele>2540.000000</ele>
				<time>1970-01-01T00:00:00Z</time>
			</trkpt>
			<trkpt lat="33.285172" lon="103.820770">
				<ele>2540.000000</ele>
				<time>1970-01-01T00:00:00Z</time>
			</trkpt>
			<trkpt lat="33.285259" lon="103.820740">
				<ele>2540.000000</ele>
				<time>1970-01-01T00:00:00Z</time>
			</trkpt>
			<trkpt lat="33.285343" lon="103.820686">
				<ele>2534.000000</ele>
				<time>1970-01-01T00:00:00Z</time>
			</trkpt>
			<trkpt lat="33.285427" lon="103.820732">
				<ele>2540.000000</ele>
				<time>1970-01-01T00:00:00Z</time>
			</trkpt>
			<trkpt lat="33.285519" lon="103.820747">
				<ele>2540.000000</ele>
				<time>1970-01-01T00:00:00Z</time>
			</trkpt>
			<trkpt lat="33.285614" lon="103.820770">
				<ele>2540.000000</ele>
				<time>1970-01-01T00:00:00Z</time>
			</trkpt>
			<trkpt lat="33.285706" lon="103.820763">
				<ele>2534.000000</ele>
				<time>1970-01-01T00:00:00Z</time>
			</trkpt>
			<trkpt lat="33.285809" lon="103.820770">
				<ele>2534.000000</ele>
				<time>1970-01-01T00:00:00Z</time>
			</trkpt>
			<trkpt lat="33.285885" lon="103.820831">
				<ele>2534.000000</ele>
				<time>1970-01-01T00:00:00Z</time>
			</trkpt>
			<trkpt lat="33.285969" lon="103.820877">
				<ele>2534.000000</ele>
				<time>1970-01-01T00:00:00Z</time>
			</trkpt>
			<trkpt lat="33.286060" lon="103.820930">
				<ele>2525.000000</ele>
				<time>1970-01-01T00:00:00Z</time>
			</trkpt>
			<trkpt lat="33.286133" lon="103.821007">
				<ele>2534.000000</ele>
				<time>1970-01-01T00:00:00Z</time>
			</trkpt>
			<trkpt lat="33.286217" lon="103.821060">
				<ele>2534.000000</ele>
				<time>1970-01-01T00:00:00Z</time>
			</trkpt>
			<trkpt lat="33.286308" lon="103.821053">
				<ele>2530.000000</ele>
				<time>1970-01-01T00:00:00Z</time>
			</trkpt>
			<trkpt lat="33.286404" lon="103.821030">
				<ele>2530.000000</ele>
				<time>1970-01-01T00:00:00Z</time>
			</trkpt>
			<trkpt lat="33.286499" lon="103.821022">
				<ele>2530.000000</ele>
				<time>1970-01-01T00:00:00Z</time>
			</trkpt>
			<trkpt lat="33.286591" lon="103.821037">
				<ele>2527.000000</ele>
				<time>1970-01-01T00:00:00Z</time>
			</trkpt>
			<trkpt lat="33.286694" lon="103.821030">
				<ele>2527.000000</ele>
				<time>1970-01-01T00:00:00Z</time>
			</trkpt>
			<trkpt lat="33.286789" lon="103.820992">
				<ele>2527.000000</ele>
				<time>1970-01-01T00:00:00Z</time>
			</trkpt>
			<trkpt lat="33.286869" lon="103.821045">
				<ele>2526.000000</ele>
				<time>1970-01-01T00:00:00Z</time>
			</trkpt>
			<trkpt lat="33.286964" lon="103.821060">
				<ele>2526.000000</ele>
				<time>1970-01-01T00:00:00Z</time>
			</trkpt>
			<trkpt lat="33.287048" lon="103.821098">
				<ele>2526.000000</ele>
				<time>1970-01-01T00:00:00Z</time>
			</trkpt>
			<trkpt lat="33.287144" lon="103.821106">
				<ele>2525.000000</ele>
				<time>1970-01-01T00:00:00Z</time>
			</trkpt>
			<trkpt lat="33.287228" lon="103.821159">
				<ele>2525.000000</ele>
				<time>1970-01-01T00:00:00Z</time>
			</trkpt>
			<trkpt lat="33.287319" lon="103.821167">
				<ele>2525.000000</ele>
				<time>1970-01-01T00:00:00Z</time>
			</trkpt>
			<trkpt lat="33.287407" lon="103.821144">
				<ele>2517.000000</ele>
				<time>1970-01-01T00:00:00Z</time>
			</trkpt>
			<trkpt lat="33.287472" lon="103.821060">
				<ele>2517.000000</ele>
				<time>1970-01-01T00:00:00Z</time>
			</trkpt>
			<trkpt lat="33.287556" lon="103.821014">
				<ele>2517.000000</ele>
				<time>1970-01-01T00:00:00Z</time>
			</trkpt>
			<trkpt lat="33.287571" lon="103.820908">
				<ele>2504.000000</ele>
				<time>1970-01-01T00:00:00Z</time>
			</trkpt>
			<trkpt lat="33.287663" lon="103.820885">
				<ele>2495.000000</ele>
				<time>1970-01-01T00:00:00Z</time>
			</trkpt>
			<trkpt lat="33.287746" lon="103.820953">
				<ele>2495.000000</ele>
				<time>1970-01-01T00:00:00Z</time>
			</trkpt>
			<trkpt lat="33.287819" lon="103.821022">
				<ele>2510.000000</ele>
				<time>1970-01-01T00:00:00Z</time>
			</trkpt>
			<trkpt lat="33.287907" lon="103.821060">
				<ele>2510.000000</ele>
				<time>1970-01-01T00:00:00Z</time>
			</trkpt>
			<trkpt lat="33.287975" lon="103.821136">
				<ele>2498.000000</ele>
				<time>1970-01-01T00:00:00Z</time>
			</trkpt>
			<trkpt lat="33.288033" lon="103.821228">
				<ele>2498.000000</ele>
				<time>1970-01-01T00:00:00Z</time>
			</trkpt>
			<trkpt lat="33.288109" lon="103.821289">
				<ele>2521.000000</ele>
				<time>1970-01-01T00:00:00Z</time>
			</trkpt>
			<trkpt lat="33.288208" lon="103.821274">
				<ele>2517.000000</ele>
				<time>1970-01-01T00:00:00Z</time>
			</trkpt>
			<trkpt lat="33.288307" lon="103.821274">
				<ele>2517.000000</ele>
				<time>1970-01-01T00:00:00Z</time>
			</trkpt>
			<trkpt lat="33.288406" lon="103.821289">
				<ele>2517.000000</ele>
				<time>1970-01-01T00:00:00Z</time>
			</trkpt>
			<trkpt lat="33.288498" lon="103.821304">
				<ele>2522.000000</ele>
				<time>1970-01-01T00:00:00Z</time>
			</trkpt>
			<trkpt lat="33.288586" lon="103.821342">
				<ele>2522.000000</ele>
				<time>1970-01-01T00:00:00Z</time>
			</trkpt>
			<trkpt lat="33.288677" lon="103.821396">
				<ele>2522.000000</ele>
				<time>1970-01-01T00:00:00Z</time>
			</trkpt>
			<trkpt lat="33.288769" lon="103.821419">
				<ele>2507.000000</ele>
				<time>1970-01-01T00:00:00Z</time>
			</trkpt>
			<trkpt lat="33.288860" lon="103.821396">
				<ele>2507.000000</ele>
				<time>1970-01-01T00:00:00Z</time>
			</trkpt>
			<trkpt lat="33.288960" lon="103.821404">
				<ele>2507.000000</ele>
				<time>1970-01-01T00:00:00Z</time>
			</trkpt>
			<trkpt lat="33.289059" lon="103.821404">
				<ele>2515.000000</ele>
				<time>1970-01-01T00:00:00Z</time>
			</trkpt>
			<trkpt lat="33.289146" lon="103.821419">
				<ele>2515.000000</ele>
				<time>1970-01-01T00:00:00Z</time>
			</trkpt>
			<trkpt lat="33.289242" lon="103.821388">
				<ele>2515.000000</ele>
				<time>1970-01-01T00:00:00Z</time>
			</trkpt>
			<trkpt lat="33.289318" lon="103.821327">
				<ele>2514.000000</ele>
				<time>1970-01-01T00:00:00Z</time>
			</trkpt>
			<trkpt lat="33.289387" lon="103.821259">
				<ele>2514.000000</ele>
				<time>1970-01-01T00:00:00Z</time>
			</trkpt>
			<trkpt lat="33.289452" lon="103.821167">
				<ele>2498.000000</ele>
				<time>1970-01-01T00:00:00Z</time>
			</trkpt>
			<trkpt lat="33.289494" lon="103.821060">
				<ele>2498.000000</ele>
				<time>1970-01-01T00:00:00Z</time>
			</trkpt>
			<trkpt lat="33.289513" lon="103.820953">
				<ele>2486.000000</ele>
				<time>1970-01-01T00:00:00Z</time>
			</trkpt>
			<trkpt lat="33.289574" lon="103.820862">
				<ele>2486.000000</ele>
				<time>1970-01-01T00:00:00Z</time>
			</trkpt>
			<trkpt lat="33.289612" lon="103.820732">
				<ele>2505.000000</ele>
				<time>1970-01-01T00:00:00Z</time>
			</trkpt>
			<trkpt lat="33.289631" lon="103.820625">
				<ele>2490.000000</ele>
				<time>1970-01-01T00:00:00Z</time>
			</trkpt>
			<trkpt lat="33.289661" lon="103.820518">
				<ele>2490.000000</ele>
				<time>1970-01-01T00:00:00Z</time>
			</trkpt>
			<trkpt lat="33.289703" lon="103.820419">
				<ele>2490.000000</ele>
				<time>1970-01-01T00:00:00Z</time>
			</trkpt>
			<trkpt lat="33.289700" lon="103.820312">
				<ele>2474.000000</ele>
				<time>1970-01-01T00:00:00Z</time>
			</trkpt>
			<trkpt lat="33.289787" lon="103.820290">
				<ele>2474.000000</ele>
				<time>1970-01-01T00:00:00Z</time>
			</trkpt>
			<trkpt lat="33.289879" lon="103.820259">
				<ele>2484.000000</ele>
				<time>1970-01-01T00:00:00Z</time>
			</trkpt>
			<trkpt lat="33.289967" lon="103.820229">
				<ele>2484.000000</ele>
				<time>1970-01-01T00:00:00Z</time>
			</trkpt>
			<trkpt lat="33.290054" lon="103.820183">
				<ele>2484.000000</ele>
				<time>1970-01-01T00:00:00Z</time>
			</trkpt>
			<trkpt lat="33.290146" lon="103.820168">
				<ele>2489.000000</ele>
				<time>1970-01-01T00:00:00Z</time>
			</trkpt>
			<trkpt lat="33.290241" lon="103.820152">
				<ele>2489.000000</ele>
				<time>1970-01-01T00:00:00Z</time>
			</trkpt>
			<trkpt lat="33.290291" lon="103.820114">
				<ele>2475.000000</ele>
				<time>1970-01-01T00:00:00Z</time>
			</trkpt>
			<trkpt lat="33.290348" lon="103.820084">
				<ele>2475.000000</ele>
				<time>1970-01-01T00:00:00Z</time>
			</trkpt>
			<trkpt lat="33.290424" lon="103.820084">
				<ele>2477.000000</ele>
				<time>1970-01-01T00:00:00Z</time>
			</trkpt>
			<trkpt lat="33.290485" lon="103.820099">
				<ele>2477.000000</ele>
				<time>1970-01-01T00:00:00Z</time>
			</trkpt>
			<trkpt lat="33.290573" lon="103.820114">
				<ele>2477.000000</ele>
				<time>1970-01-01T00:00:00Z</time>
			</trkpt>
			<trkpt lat="33.290661" lon="103.820152">
				<ele>2492.000000</ele>
				<time>1970-01-01T00:00:00Z</time>
			</trkpt>
			<trkpt lat="33.290756" lon="103.820152">
				<ele>2488.000000</ele>
				<time>1970-01-01T00:00:00Z</time>
			</trkpt>
			<trkpt lat="33.290852" lon="103.820145">
				<ele>2488.000000</ele>
				<time>1970-01-01T00:00:00Z</time>
			</trkpt>
			<trkpt lat="33.290947" lon="103.820152">
				<ele>2488.000000</ele>
				<time>1970-01-01T00:00:00Z</time>
			</trkpt>
			<trkpt lat="33.291042" lon="103.820137">
				<ele>2477.000000</ele>
				<time>1970-01-01T00:00:00Z</time>
			</trkpt>
			<trkpt lat="33.291138" lon="103.820152">
				<ele>2485.000000</ele>
				<time>1970-01-01T00:00:00Z</time>
			</trkpt>
			<trkpt lat="33.291229" lon="103.820175">
				<ele>2485.000000</ele>
				<time>1970-01-01T00:00:00Z</time>
			</trkpt>
			<trkpt lat="33.291317" lon="103.820229">
				<ele>2480.000000</ele>
				<time>1970-01-01T00:00:00Z</time>
			</trkpt>
			<trkpt lat="33.291393" lon="103.820290">
				<ele>2480.000000</ele>
				<time>1970-01-01T00:00:00Z</time>
			</trkpt>
			<trkpt lat="33.291481" lon="103.820335">
				<ele>2480.000000</ele>
				<time>1970-01-01T00:00:00Z</time>
			</trkpt>
			<trkpt lat="33.291573" lon="103.820358">
				<ele>2470.000000</ele>
				<time>1970-01-01T00:00:00Z</time>
			</trkpt>
			<trkpt lat="33.291668" lon="103.820396">
				<ele>2470.000000</ele>
				<time>1970-01-01T00:00:00Z</time>
			</trkpt>
			<trkpt lat="33.291767" lon="103.820412">
				<ele>2470.000000</ele>
				<time>1970-01-01T00:00:00Z</time>
			</trkpt>
			<trkpt lat="33.291866" lon="103.820442">
				<ele>2467.000000</ele>
				<time>1970-01-01T00:00:00Z</time>
			</trkpt>
			<trkpt lat="33.291962" lon="103.820473">
				<ele>2467.000000</ele>
				<time>1970-01-01T00:00:00Z</time>
			</trkpt>
			<trkpt lat="33.292049" lon="103.820518">
				<ele>2467.000000</ele>
				<time>1970-01-01T00:00:00Z</time>
			</trkpt>
			<trkpt lat="33.292118" lon="103.820541">
				<ele>2459.000000</ele>
				<time>1970-01-01T00:00:00Z</time>
			</trkpt>
			<trkpt lat="33.292118" lon="103.820541">
				<ele>2459.000000</ele>
				<time>1970-01-01T00:00:00Z</time>
			</trkpt>
			<trkpt lat="33.292217" lon="103.820534">
				<ele>2459.000000</ele>
				<time>1970-01-01T00:00:00Z</time>
			</trkpt>
			<trkpt lat="33.292240" lon="103.820511">
				<ele>2459.000000</ele>
				<time>1970-01-01T00:00:00Z</time>
			</trkpt>
			<trkpt lat="33.292240" lon="103.820511">
				<ele>2459.000000</ele>
				<time>1970-01-01T00:00:00Z</time>
			</trkpt>
			<trkpt lat="33.292240" lon="103.820511">
				<ele>2459.000000</ele>
				<time>1970-01-01T00:00:00Z</time>
			</trkpt>
			<trkpt lat="33.292336" lon="103.820473">
				<ele>2459.000000</ele>
				<time>1970-01-01T00:00:00Z</time>
			</trkpt>
			<trkpt lat="33.292423" lon="103.820419">
				<ele>2459.000000</ele>
				<time>1970-01-01T00:00:00Z</time>
			</trkpt>
			<trkpt lat="33.292511" lon="103.820389">
				<ele>2451.000000</ele>
				<time>1970-01-01T00:00:00Z</time>
			</trkpt>
			<trkpt lat="33.292603" lon="103.820358">
				<ele>2451.000000</ele>
				<time>1970-01-01T00:00:00Z</time>
			</trkpt>
			<trkpt lat="33.292694" lon="103.820358">
				<ele>2456.000000</ele>
				<time>1970-01-01T00:00:00Z</time>
			</trkpt>
			<trkpt lat="33.292786" lon="103.820374">
				<ele>2456.000000</ele>
				<time>1970-01-01T00:00:00Z</time>
			</trkpt>
			<trkpt lat="33.292877" lon="103.820351">
				<ele>2456.000000</ele>
				<time>1970-01-01T00:00:00Z</time>
			</trkpt>
			<trkpt lat="33.292973" lon="103.820351">
				<ele>2446.000000</ele>
				<time>1970-01-01T00:00:00Z</time>
			</trkpt>
			<trkpt lat="33.293068" lon="103.820358">
				<ele>2446.000000</ele>
				<time>1970-01-01T00:00:00Z</time>
			</trkpt>
			<trkpt lat="33.293167" lon="103.820351">
				<ele>2446.000000</ele>
				<time>1970-01-01T00:00:00Z</time>
			</trkpt>
			<trkpt lat="33.293266" lon="103.820351">
				<ele>2436.000000</ele>
				<time>1970-01-01T00:00:00Z</time>
			</trkpt>
			<trkpt lat="33.293350" lon="103.820297">
				<ele>2436.000000</ele>
				<time>1970-01-01T00:00:00Z</time>
			</trkpt>
			<trkpt lat="33.293415" lon="103.820213">
				<ele>2436.000000</ele>
				<time>1970-01-01T00:00:00Z</time>
			</trkpt>
			<trkpt lat="33.293446" lon="103.820107">
				<ele>2433.000000</ele>
				<time>1970-01-01T00:00:00Z</time>
			</trkpt>
			<trkpt lat="33.293484" lon="103.820000">
				<ele>2432.000000</ele>
				<time>1970-01-01T00:00:00Z</time>
			</trkpt>
			<trkpt lat="33.293510" lon="103.819901">
				<ele>2432.000000</ele>
				<time>1970-01-01T00:00:00Z</time>
			</trkpt>
			<trkpt lat="33.293545" lon="103.819794">
				<ele>2429.000000</ele>
				<time>1970-01-01T00:00:00Z</time>
			</trkpt>
			<trkpt lat="33.293594" lon="103.819664">
				<ele>2429.000000</ele>
				<time>1970-01-01T00:00:00Z</time>
			</trkpt>
			<trkpt lat="33.293594" lon="103.819664">
				<ele>2429.000000</ele>
				<time>1970-01-01T00:00:00Z</time>
			</trkpt>
			<trkpt lat="33.293594" lon="103.819664">
				<ele>2429.000000</ele>
				<time>1970-01-01T00:00:00Z</time>
			</trkpt>
			<trkpt lat="33.293636" lon="103.819679">
				<ele>2429.000000</ele>
				<time>1970-01-01T00:00:00Z</time>
			</trkpt>
			<trkpt lat="33.293671" lon="103.819786">
				<ele>2429.000000</ele>
				<time>1970-01-01T00:00:00Z</time>
			</trkpt>
			<trkpt lat="33.293674" lon="103.819908">
				<ele>2432.000000</ele>
				<time>1970-01-01T00:00:00Z</time>
			</trkpt>
			<trkpt lat="33.293697" lon="103.820038">
				<ele>2432.000000</ele>
				<time>1970-01-01T00:00:00Z</time>
			</trkpt>
			<trkpt lat="33.293736" lon="103.820152">
				<ele>2434.000000</ele>
				<time>1970-01-01T00:00:00Z</time>
			</trkpt>
			<trkpt lat="33.293823" lon="103.820206">
				<ele>2433.000000</ele>
				<time>1970-01-01T00:00:00Z</time>
			</trkpt>
			<trkpt lat="33.293922" lon="103.820206">
				<ele>2433.000000</ele>
				<time>1970-01-01T00:00:00Z</time>
			</trkpt>
			<trkpt lat="33.294022" lon="103.820213">
				<ele>2433.000000</ele>
				<time>1970-01-01T00:00:00Z</time>
			</trkpt>
			<trkpt lat="33.294117" lon="103.820198">
				<ele>2429.000000</ele>
				<time>1970-01-01T00:00:00Z</time>
			</trkpt>
			<trkpt lat="33.294216" lon="103.820213">
				<ele>2429.000000</ele>
				<time>1970-01-01T00:00:00Z</time>
			</trkpt>
			<trkpt lat="33.294266" lon="103.820244">
				<ele>2429.000000</ele>
				<time>1970-01-01T00:00:00Z</time>
			</trkpt>
			<trkpt lat="33.294304" lon="103.820229">
				<ele>2429.000000</ele>
				<time>1970-01-01T00:00:00Z</time>
			</trkpt>
			<trkpt lat="33.294388" lon="103.820198">
				<ele>2427.000000</ele>
				<time>1970-01-01T00:00:00Z</time>
			</trkpt>
			<trkpt lat="33.294487" lon="103.820206">
				<ele>2427.000000</ele>
				<time>1970-01-01T00:00:00Z</time>
			</trkpt>
			<trkpt lat="33.294590" lon="103.820213">
				<ele>2430.000000</ele>
				<time>1970-01-01T00:00:00Z</time>
			</trkpt>
			<trkpt lat="33.294693" lon="103.820175">
				<ele>2430.000000</ele>
				<time>1970-01-01T00:00:00Z</time>
			</trkpt>
			<trkpt lat="33.294792" lon="103.820152">
				<ele>2430.000000</ele>
				<time>1970-01-01T00:00:00Z</time>
			</trkpt>
			<trkpt lat="33.294884" lon="103.820129">
				<ele>2419.000000</ele>
				<time>1970-01-01T00:00:00Z</time>
			</trkpt>
			<trkpt lat="33.294971" lon="103.820137">
				<ele>2419.000000</ele>
				<time>1970-01-01T00:00:00Z</time>
			</trkpt>
			<trkpt lat="33.295074" lon="103.820160">
				<ele>2432.000000</ele>
				<time>1970-01-01T00:00:00Z</time>
			</trkpt>
			<trkpt lat="33.295170" lon="103.820175">
				<ele>2431.000000</ele>
				<time>1970-01-01T00:00:00Z</time>
			</trkpt>
			<trkpt lat="33.295261" lon="103.820190">
				<ele>2431.000000</ele>
				<time>1970-01-01T00:00:00Z</time>
			</trkpt>
			<trkpt lat="33.295341" lon="103.820145">
				<ele>2431.000000</ele>
				<time>1970-01-01T00:00:00Z</time>
			</trkpt>
			<trkpt lat="33.295433" lon="103.820091">
				<ele>2425.000000</ele>
				<time>1970-01-01T00:00:00Z</time>
			</trkpt>
			<trkpt lat="33.295521" lon="103.820030">
				<ele>2425.000000</ele>
				<time>1970-01-01T00:00:00Z</time>
			</trkpt>
			<trkpt lat="33.295609" lon="103.820038">
				<ele>2425.000000</ele>
				<time>1970-01-01T00:00:00Z</time>
			</trkpt>
			<trkpt lat="33.295700" lon="103.820053">
				<ele>2432.000000</ele>
				<time>1970-01-01T00:00:00Z</time>
			</trkpt>
			<trkpt lat="33.295788" lon="103.820023">
				<ele>2432.000000</ele>
				<time>1970-01-01T00:00:00Z</time>
			</trkpt>
			<trkpt lat="33.295883" lon="103.819992">
				<ele>2432.000000</ele>
				<time>1970-01-01T00:00:00Z</time>
			</trkpt>
			<trkpt lat="33.295979" lon="103.819992">
				<ele>2438.000000</ele>
				<time>1970-01-01T00:00:00Z</time>
			</trkpt>
			<trkpt lat="33.296066" lon="103.819969">
				<ele>2438.000000</ele>
				<time>1970-01-01T00:00:00Z</time>
			</trkpt>
			<trkpt lat="33.296154" lon="103.819946">
				<ele>2438.000000</ele>
				<time>1970-01-01T00:00:00Z</time>
			</trkpt>
			<trkpt lat="33.296249" lon="103.819923">
				<ele>2438.000000</ele>
				<time>1970-01-01T00:00:00Z</time>
			</trkpt>
			<trkpt lat="33.296341" lon="103.819901">
				<ele>2440.000000</ele>
				<time>1970-01-01T00:00:00Z</time>
			</trkpt>
			<trkpt lat="33.296379" lon="103.819870">
				<ele>2440.000000</ele>
				<time>1970-01-01T00:00:00Z</time>
			</trkpt>
			<trkpt lat="33.296448" lon="103.819855">
				<ele>2422.000000</ele>
				<time>1970-01-01T00:00:00Z</time>
			</trkpt>
			<trkpt lat="33.296539" lon="103.819832">
				<ele>2425.000000</ele>
				<time>1970-01-01T00:00:00Z</time>
			</trkpt>
			<trkpt lat="33.296635" lon="103.819817">
				<ele>2425.000000</ele>
				<time>1970-01-01T00:00:00Z</time>
			</trkpt>
			<trkpt lat="33.296719" lon="103.819756">
				<ele>2425.000000</ele>
				<time>1970-01-01T00:00:00Z</time>
			</trkpt>
			<trkpt lat="33.296791" lon="103.819664">
				<ele>2425.000000</ele>
				<time>1970-01-01T00:00:00Z</time>
			</trkpt>
			<trkpt lat="33.296825" lon="103.819572">
				<ele>2417.000000</ele>
				<time>1970-01-01T00:00:00Z</time>
			</trkpt>
			<trkpt lat="33.296898" lon="103.819565">
				<ele>2417.000000</ele>
				<time>1970-01-01T00:00:00Z</time>
			</trkpt>
			<trkpt lat="33.296989" lon="103.819588">
				<ele>2427.000000</ele>
				<time>1970-01-01T00:00:00Z</time>
			</trkpt>
			<trkpt lat="33.297100" lon="103.819641">
				<ele>2421.000000</ele>
				<time>1970-01-01T00:00:00Z</time>
			</trkpt>
			<trkpt lat="33.297199" lon="103.819626">
				<ele>2421.000000</ele>
				<time>1970-01-01T00:00:00Z</time>
			</trkpt>
			<trkpt lat="33.297298" lon="103.819611">
				<ele>2421.000000</ele>
				<time>1970-01-01T00:00:00Z</time>
			</trkpt>
			<trkpt lat="33.297394" lon="103.819603">
				<ele>2423.000000</ele>
				<time>1970-01-01T00:00:00Z</time>
			</trkpt>
			<trkpt lat="33.297485" lon="103.819633">
				<ele>2423.000000</ele>
				<time>1970-01-01T00:00:00Z</time>
			</trkpt>
			<trkpt lat="33.297577" lon="103.819633">
				<ele>2423.000000</ele>
				<time>1970-01-01T00:00:00Z</time>
			</trkpt>
			<trkpt lat="33.297668" lon="103.819611">
				<ele>2425.000000</ele>
				<time>1970-01-01T00:00:00Z</time>
			</trkpt>
			<trkpt lat="33.297752" lon="103.819565">
				<ele>2412.000000</ele>
				<time>1970-01-01T00:00:00Z</time>
			</trkpt>
			<trkpt lat="33.297836" lon="103.819496">
				<ele>2412.000000</ele>
				<time>1970-01-01T00:00:00Z</time>
			</trkpt>
			<trkpt lat="33.297932" lon="103.819458">
				<ele>2412.000000</ele>
				<time>1970-01-01T00:00:00Z</time>
			</trkpt>
			<trkpt lat="33.298027" lon="103.819435">
				<ele>2412.000000</ele>
				<time>1970-01-01T00:00:00Z</time>
			</trkpt>
			<trkpt lat="33.298115" lon="103.819405">
				<ele>2412.000000</ele>
				<time>1970-01-01T00:00:00Z</time>
			</trkpt>
			<trkpt lat="33.298218" lon="103.819420">
				<ele>2418.000000</ele>
				<time>1970-01-01T00:00:00Z</time>
			</trkpt>
			<trkpt lat="33.298306" lon="103.819473">
				<ele>2418.000000</ele>
				<time>1970-01-01T00:00:00Z</time>
			</trkpt>
			<trkpt lat="33.298389" lon="103.819534">
				<ele>2418.000000</ele>
				<time>1970-01-01T00:00:00Z</time>
			</trkpt>
			<trkpt lat="33.298389" lon="103.819534">
				<ele>2418.000000</ele>
				<time>1970-01-01T00:00:00Z</time>
			</trkpt>
			<trkpt lat="33.298473" lon="103.819588">
				<ele>2426.000000</ele>
				<time>1970-01-01T00:00:00Z</time>
			</trkpt>
			<trkpt lat="33.298473" lon="103.819588">
				<ele>2426.000000</ele>
				<time>1970-01-01T00:00:00Z</time>
			</trkpt>
			<trkpt lat="33.298542" lon="103.819656">
				<ele>2426.000000</ele>
				<time>1970-01-01T00:00:00Z</time>
			</trkpt>
			<trkpt lat="33.298580" lon="103.819756">
				<ele>2426.000000</ele>
				<time>1970-01-01T00:00:00Z</time>
			</trkpt>
			<trkpt lat="33.298664" lon="103.819786">
				<ele>2426.000000</ele>
				<time>1970-01-01T00:00:00Z</time>
			</trkpt>
			<trkpt lat="33.298759" lon="103.819817">
				<ele>2424.000000</ele>
				<time>1970-01-01T00:00:00Z</time>
			</trkpt>
			<trkpt lat="33.298866" lon="103.819817">
				<ele>2424.000000</ele>
				<time>1970-01-01T00:00:00Z</time>
			</trkpt>
			<trkpt lat="33.298973" lon="103.819794">
				<ele>2424.000000</ele>
				<time>1970-01-01T00:00:00Z</time>
			</trkpt>
			<trkpt lat="33.299076" lon="103.819771">
				<ele>2418.000000</ele>
				<time>1970-01-01T00:00:00Z</time>
			</trkpt>
			<trkpt lat="33.299164" lon="103.819702">
				<ele>2418.000000</ele>
				<time>1970-01-01T00:00:00Z</time>
			</trkpt>
			<trkpt lat="33.299255" lon="103.819672">
				<ele>2418.000000</ele>
				<time>1970-01-01T00:00:00Z</time>
			</trkpt>
			<trkpt lat="33.299351" lon="103.819656">
				<ele>2418.000000</ele>
				<time>1970-01-01T00:00:00Z</time>
			</trkpt>
			<trkpt lat="33.299446" lon="103.819641">
				<ele>2418.000000</ele>
				<time>1970-01-01T00:00:00Z</time>
			</trkpt>
			<trkpt lat="33.299538" lon="103.819672">
				<ele>2418.000000</ele>
				<time>1970-01-01T00:00:00Z</time>
			</trkpt>
			<trkpt lat="33.299625" lon="103.819687">
				<ele>2420.000000</ele>
				<time>1970-01-01T00:00:00Z</time>
			</trkpt>
			<trkpt lat="33.299717" lon="103.819733">
				<ele>2420.000000</ele>
				<time>1970-01-01T00:00:00Z</time>
			</trkpt>
			<trkpt lat="33.299809" lon="103.819771">
				<ele>2420.000000</ele>
				<time>1970-01-01T00:00:00Z</time>
			</trkpt>
			<trkpt lat="33.299908" lon="103.819786">
				<ele>2414.000000</ele>
				<time>1970-01-01T00:00:00Z</time>
			</trkpt>
			<trkpt lat="33.299984" lon="103.819717">
				<ele>2414.000000</ele>
				<time>1970-01-01T00:00:00Z</time>
			</trkpt>
			<trkpt lat="33.300068" lon="103.819664">
				<ele>2414.000000</ele>
				<time>1970-01-01T00:00:00Z</time>
			</trkpt>
			<trkpt lat="33.300156" lon="103.819664">
				<ele>2406.000000</ele>
				<time>1970-01-01T00:00:00Z</time>
			</trkpt>
			<trkpt lat="33.300251" lon="103.819656">
				<ele>2406.000000</ele>
				<time>1970-01-01T00:00:00Z</time>
			</trkpt>
			<trkpt lat="33.300346" lon="103.819672">
				<ele>2406.000000</ele>
				<time>1970-01-01T00:00:00Z</time>
			</trkpt>
			<trkpt lat="33.300438" lon="103.819672">
				<ele>2408.000000</ele>
				<time>1970-01-01T00:00:00Z</time>
			</trkpt>
			<trkpt lat="33.300529" lon="103.819695">
				<ele>2408.000000</ele>
				<time>1970-01-01T00:00:00Z</time>
			</trkpt>
			<trkpt lat="33.300621" lon="103.819687">
				<ele>2408.000000</ele>
				<time>1970-01-01T00:00:00Z</time>
			</trkpt>
			<trkpt lat="33.300713" lon="103.819656">
				<ele>2404.000000</ele>
				<time>1970-01-01T00:00:00Z</time>
			</trkpt>
			<trkpt lat="33.300770" lon="103.819565">
				<ele>2391.000000</ele>
				<time>1970-01-01T00:00:00Z</time>
			</trkpt>
			<trkpt lat="33.300835" lon="103.819481">
				<ele>2391.000000</ele>
				<time>1970-01-01T00:00:00Z</time>
			</trkpt>
			<trkpt lat="33.300919" lon="103.819427">
				<ele>2391.000000</ele>
				<time>1970-01-01T00:00:00Z</time>
			</trkpt>
			<trkpt lat="33.301018" lon="103.819420">
				<ele>2384.000000</ele>
				<time>1970-01-01T00:00:00Z</time>
			</trkpt>
			<trkpt lat="33.301109" lon="103.819405">
				<ele>2384.000000</ele>
				<time>1970-01-01T00:00:00Z</time>
			</trkpt>
			<trkpt lat="33.301186" lon="103.819336">
				<ele>2384.000000</ele>
				<time>1970-01-01T00:00:00Z</time>
			</trkpt>
			<trkpt lat="33.301186" lon="103.819336">
				<ele>2384.000000</ele>
				<time>1970-01-01T00:00:00Z</time>
			</trkpt>
			<trkpt lat="33.301228" lon="103.819237">
				<ele>2375.000000</ele>
				<time>1970-01-01T00:00:00Z</time>
			</trkpt>
			<trkpt lat="33.301228" lon="103.819237">
				<ele>2375.000000</ele>
				<time>1970-01-01T00:00:00Z</time>
			</trkpt>
			<trkpt lat="33.301281" lon="103.819130">
				<ele>2373.000000</ele>
				<time>1970-01-01T00:00:00Z</time>
			</trkpt>
			<trkpt lat="33.301373" lon="103.819092">
				<ele>2373.000000</ele>
				<time>1970-01-01T00:00:00Z</time>
			</trkpt>
			<trkpt lat="33.301411" lon="103.819000">
				<ele>2367.000000</ele>
				<time>1970-01-01T00:00:00Z</time>
			</trkpt>
			<trkpt lat="33.301449" lon="103.818901">
				<ele>2367.000000</ele>
				<time>1970-01-01T00:00:00Z</time>
			</trkpt>
			<trkpt lat="33.301525" lon="103.818848">
				<ele>2367.000000</ele>
				<time>1970-01-01T00:00:00Z</time>
			</trkpt>
			<trkpt lat="33.301605" lon="103.818787">
				<ele>2374.000000</ele>
				<time>1970-01-01T00:00:00Z</time>
			</trkpt>
			<trkpt lat="33.301651" lon="103.818695">
				<ele>2365.000000</ele>
				<time>1970-01-01T00:00:00Z</time>
			</trkpt>
			<trkpt lat="33.301708" lon="103.818604">
				<ele>2365.000000</ele>
				<time>1970-01-01T00:00:00Z</time>
			</trkpt>
			<trkpt lat="33.301769" lon="103.818512">
				<ele>2365.000000</ele>
				<time>1970-01-01T00:00:00Z</time>
			</trkpt>
			<trkpt lat="33.301815" lon="103.818405">
				<ele>2357.000000</ele>
				<time>1970-01-01T00:00:00Z</time>
			</trkpt>
			<trkpt lat="33.301884" lon="103.818336">
				<ele>2357.000000</ele>
				<time>1970-01-01T00:00:00Z</time>
			</trkpt>
			<trkpt lat="33.301884" lon="103.818336">
				<ele>2357.000000</ele>
				<time>1970-01-01T00:00:00Z</time>
			</trkpt>
			<trkpt lat="33.301884" lon="103.818336">
				<ele>2357.000000</ele>
				<time>1970-01-01T00:00:00Z</time>
			</trkpt>
			<trkpt lat="33.301884" lon="103.818336">
				<ele>2357.000000</ele>
				<time>1970-01-01T00:00:00Z</time>
			</trkpt>
			<trkpt lat="33.301884" lon="103.818336">
				<ele>2357.000000</ele>
				<time>1970-01-01T00:00:00Z</time>
			</trkpt>
			<trkpt lat="33.301884" lon="103.818336">
				<ele>2357.000000</ele>
				<time>1970-01-01T00:00:00Z</time>
			</trkpt>
			<trkpt lat="33.301884" lon="103.818336">
				<ele>2357.000000</ele>
				<time>1970-01-01T00:00:00Z</time>
			</trkpt>
			<trkpt lat="33.301884" lon="103.818336">
				<ele>2357.000000</ele>
				<time>1970-01-01T00:00:00Z</time>
			</trkpt>
			<trkpt lat="33.301926" lon="103.818352">
				<ele>2357.000000</ele>
				<time>1970-01-01T00:00:00Z</time>
			</trkpt>
			<trkpt lat="33.302002" lon="103.818375">
				<ele>2357.000000</ele>
				<time>1970-01-01T00:00:00Z</time>
			</trkpt>
			<trkpt lat="33.302094" lon="103.818398">
				<ele>2359.000000</ele>
				<time>1970-01-01T00:00:00Z</time>
			</trkpt>
			<trkpt lat="33.302189" lon="103.818428">
				<ele>2359.000000</ele>
				<time>1970-01-01T00:00:00Z</time>
			</trkpt>
			<trkpt lat="33.302280" lon="103.818398">
				<ele>2359.000000</ele>
				<time>1970-01-01T00:00:00Z</time>
			</trkpt>
			<trkpt lat="33.302364" lon="103.818451">
				<ele>2358.000000</ele>
				<time>1970-01-01T00:00:00Z</time>
			</trkpt>
			<trkpt lat="33.302456" lon="103.818459">
				<ele>2358.000000</ele>
				<time>1970-01-01T00:00:00Z</time>
			</trkpt>
			<trkpt lat="33.302525" lon="103.818527">
				<ele>2374.000000</ele>
				<time>1970-01-01T00:00:00Z</time>
			</trkpt>
			<trkpt lat="33.302624" lon="103.818565">
				<ele>2374.000000</ele>
				<time>1970-01-01T00:00:00Z</time>
			</trkpt>
			<trkpt lat="33.302624" lon="103.818565">
				<ele>2374.000000</ele>
				<time>1970-01-01T00:00:00Z</time>
			</trkpt>
			<trkpt lat="33.302624" lon="103.818565">
				<ele>2374.000000</ele>
				<time>1970-01-01T00:00:00Z</time>
			</trkpt>
			<trkpt lat="33.302624" lon="103.818565">
				<ele>2374.000000</ele>
				<time>1970-01-01T00:00:00Z</time>
			</trkpt>
			<trkpt lat="33.302624" lon="103.818565">
				<ele>2374.000000</ele>
				<time>1970-01-01T00:00:00Z</time>
			</trkpt>
			<trkpt lat="33.302624" lon="103.818565">
				<ele>2374.000000</ele>
				<time>1970-01-01T00:00:00Z</time>
			</trkpt>
			<trkpt lat="33.302624" lon="103.818565">
				<ele>2374.000000</ele>
				<time>1970-01-01T00:00:00Z</time>
			</trkpt>
			<trkpt lat="33.302624" lon="103.818565">
				<ele>2374.000000</ele>
				<time>1970-01-01T00:00:00Z</time>
			</trkpt>
			<trkpt lat="33.302624" lon="103.818565">
				<ele>2374.000000</ele>
				<time>1970-01-01T00:00:00Z</time>
			</trkpt>
			<trkpt lat="33.302624" lon="103.818565">
				<ele>2374.000000</ele>
				<time>1970-01-01T00:00:00Z</time>
			</trkpt>
			<trkpt lat="33.302719" lon="103.818611">
				<ele>2376.000000</ele>
				<time>1970-01-01T00:00:00Z</time>
			</trkpt>
			<trkpt lat="33.302719" lon="103.818611">
				<ele>2376.000000</ele>
				<time>1970-01-01T00:00:00Z</time>
			</trkpt>
			<trkpt lat="33.302830" lon="103.818649">
				<ele>2376.000000</ele>
				<time>1970-01-01T00:00:00Z</time>
			</trkpt>
			<trkpt lat="33.302921" lon="103.818695">
				<ele>2375.000000</ele>
				<time>1970-01-01T00:00:00Z</time>
			</trkpt>
			<trkpt lat="33.303009" lon="103.818733">
				<ele>2375.000000</ele>
				<time>1970-01-01T00:00:00Z</time>
			</trkpt>
			<trkpt lat="33.303089" lon="103.818672">
				<ele>2375.000000</ele>
				<time>1970-01-01T00:00:00Z</time>
			</trkpt>
			<trkpt lat="33.303169" lon="103.818604">
				<ele>2375.000000</ele>
				<time>1970-01-01T00:00:00Z</time>
			</trkpt>
			<trkpt lat="33.303257" lon="103.818619">
				<ele>2363.000000</ele>
				<time>1970-01-01T00:00:00Z</time>
			</trkpt>
			<trkpt lat="33.303345" lon="103.818604">
				<ele>2363.000000</ele>
				<time>1970-01-01T00:00:00Z</time>
			</trkpt>
			<trkpt lat="33.303429" lon="103.818542">
				<ele>2363.000000</ele>
				<time>1970-01-01T00:00:00Z</time>
			</trkpt>
			<trkpt lat="33.303505" lon="103.818459">
				<ele>2348.000000</ele>
				<time>1970-01-01T00:00:00Z</time>
			</trkpt>
			<trkpt lat="33.303589" lon="103.818413">
				<ele>2348.000000</ele>
				<time>1970-01-01T00:00:00Z</time>
			</trkpt>
			<trkpt lat="33.303658" lon="103.818336">
				<ele>2348.000000</ele>
				<time>1970-01-01T00:00:00Z</time>
			</trkpt>
			<trkpt lat="33.303707" lon="103.818245">
				<ele>2348.000000</ele>
				<time>1970-01-01T00:00:00Z</time>
			</trkpt>
			<trkpt lat="33.303768" lon="103.818153">
				<ele>2323.000000</ele>
				<time>1970-01-01T00:00:00Z</time>
			</trkpt>
			<trkpt lat="33.303833" lon="103.818077">
				<ele>2323.000000</ele>
				<time>1970-01-01T00:00:00Z</time>
			</trkpt>
			<trkpt lat="33.303848" lon="103.817955">
				<ele>2323.000000</ele>
				<time>1970-01-01T00:00:00Z</time>
			</trkpt>
			<trkpt lat="33.303913" lon="103.817871">
				<ele>2312.000000</ele>
				<time>1970-01-01T00:00:00Z</time>
			</trkpt>
			<trkpt lat="33.303886" lon="103.817757">
				<ele>2312.000000</ele>
				<time>1970-01-01T00:00:00Z</time>
			</trkpt>
			<trkpt lat="33.303802" lon="103.817680">
				<ele>2312.000000</ele>
				<time>1970-01-01T00:00:00Z</time>
			</trkpt>
			<trkpt lat="33.303719" lon="103.817635">
				<ele>2302.000000</ele>
				<time>1970-01-01T00:00:00Z</time>
			</trkpt>
			<trkpt lat="33.303638" lon="103.817574">
				<ele>2302.000000</ele>
				<time>1970-01-01T00:00:00Z</time>
			</trkpt>
			<trkpt lat="33.303608" lon="103.817467">
				<ele>2302.000000</ele>
				<time>1970-01-01T00:00:00Z</time>
			</trkpt>
			<trkpt lat="33.303711" lon="103.817413">
				<ele>2302.000000</ele>
				<time>1970-01-01T00:00:00Z</time>
			</trkpt>
			<trkpt lat="33.303787" lon="103.817345">
				<ele>2282.000000</ele>
				<time>1970-01-01T00:00:00Z</time>
			</trkpt>
			<trkpt lat="33.303852" lon="103.817268">
				<ele>2282.000000</ele>
				<time>1970-01-01T00:00:00Z</time>
			</trkpt>
			<trkpt lat="33.303913" lon="103.817192">
				<ele>2282.000000</ele>
				<time>1970-01-01T00:00:00Z</time>
			</trkpt>
			<trkpt lat="33.303982" lon="103.817108">
				<ele>2282.000000</ele>
				<time>1970-01-01T00:00:00Z</time>
			</trkpt>
			<trkpt lat="33.304058" lon="103.817039">
				<ele>2260.000000</ele>
				<time>1970-01-01T00:00:00Z</time>
			</trkpt>
			<trkpt lat="33.304123" lon="103.816933">
				<ele>2260.000000</ele>
				<time>1970-01-01T00:00:00Z</time>
			</trkpt>
			<trkpt lat="33.304195" lon="103.816856">
				<ele>2260.000000</ele>
				<time>1970-01-01T00:00:00Z</time>
			</trkpt>
			<trkpt lat="33.304211" lon="103.816757">
				<ele>2250.000000</ele>
				<time>1970-01-01T00:00:00Z</time>
			</trkpt>
			<trkpt lat="33.304184" lon="103.816643">
				<ele>2250.000000</ele>
				<time>1970-01-01T00:00:00Z</time>
			</trkpt>
			<trkpt lat="33.304165" lon="103.816528">
				<ele>2250.000000</ele>
				<time>1970-01-01T00:00:00Z</time>
			</trkpt>
			<trkpt lat="33.304142" lon="103.816414">
				<ele>2238.000000</ele>
				<time>1970-01-01T00:00:00Z</time>
			</trkpt>
			<trkpt lat="33.304150" lon="103.816307">
				<ele>2238.000000</ele>
				<time>1970-01-01T00:00:00Z</time>
			</trkpt>
			<trkpt lat="33.304134" lon="103.816200">
				<ele>2223.000000</ele>
				<time>1970-01-01T00:00:00Z</time>
			</trkpt>
			<trkpt lat="33.304214" lon="103.816124">
				<ele>2223.000000</ele>
				<time>1970-01-01T00:00:00Z</time>
			</trkpt>
			<trkpt lat="33.304298" lon="103.816063">
				<ele>2223.000000</ele>
				<time>1970-01-01T00:00:00Z</time>
			</trkpt>
			<trkpt lat="33.304398" lon="103.816017">
				<ele>2228.000000</ele>
				<time>1970-01-01T00:00:00Z</time>
			</trkpt>
			<trkpt lat="33.304493" lon="103.815994">
				<ele>2228.000000</ele>
				<time>1970-01-01T00:00:00Z</time>
			</trkpt>
			<trkpt lat="33.304592" lon="103.815979">
				<ele>2222.000000</ele>
				<time>1970-01-01T00:00:00Z</time>
			</trkpt>
			<trkpt lat="33.304588" lon="103.815941">
				<ele>2205.000000</ele>
				<time>1970-01-01T00:00:00Z</time>
			</trkpt>
			<trkpt lat="33.304485" lon="103.815918">
				<ele>2212.000000</ele>
				<time>1970-01-01T00:00:00Z</time>
			</trkpt>
			<trkpt lat="33.304382" lon="103.815872">
				<ele>2212.000000</ele>
				<time>1970-01-01T00:00:00Z</time>
			</trkpt>
			<trkpt lat="33.304287" lon="103.815849">
				<ele>2213.000000</ele>
				<time>1970-01-01T00:00:00Z</time>
			</trkpt>
			<trkpt lat="33.304203" lon="103.815819">
				<ele>2213.000000</ele>
				<time>1970-01-01T00:00:00Z</time>
			</trkpt>
			<trkpt lat="33.304138" lon="103.815742">
				<ele>2213.000000</ele>
				<time>1970-01-01T00:00:00Z</time>
			</trkpt>
			<trkpt lat="33.304153" lon="103.815643">
				<ele>2208.000000</ele>
				<time>1970-01-01T00:00:00Z</time>
			</trkpt>
			<trkpt lat="33.304264" lon="103.815559">
				<ele>2208.000000</ele>
				<time>1970-01-01T00:00:00Z</time>
			</trkpt>
			<trkpt lat="33.304356" lon="103.815552">
				<ele>2206.000000</ele>
				<time>1970-01-01T00:00:00Z</time>
			</trkpt>
			<trkpt lat="33.304451" lon="103.815536">
				<ele>2206.000000</ele>
				<time>1970-01-01T00:00:00Z</time>
			</trkpt>
			<trkpt lat="33.304562" lon="103.815529">
				<ele>2206.000000</ele>
				<time>1970-01-01T00:00:00Z</time>
			</trkpt>
			<trkpt lat="33.304657" lon="103.815498">
				<ele>2207.000000</ele>
				<time>1970-01-01T00:00:00Z</time>
			</trkpt>
			<trkpt lat="33.304749" lon="103.815483">
				<ele>2207.000000</ele>
				<time>1970-01-01T00:00:00Z</time>
			</trkpt>
			<trkpt lat="33.304855" lon="103.815460">
				<ele>2207.000000</ele>
				<time>1970-01-01T00:00:00Z</time>
			</trkpt>
			<trkpt lat="33.304970" lon="103.815445">
				<ele>2202.000000</ele>
				<time>1970-01-01T00:00:00Z</time>
			</trkpt>
			<trkpt lat="33.305073" lon="103.815437">
				<ele>2202.000000</ele>
				<time>1970-01-01T00:00:00Z</time>
			</trkpt>
			<trkpt lat="33.305168" lon="103.815445">
				<ele>2202.000000</ele>
				<time>1970-01-01T00:00:00Z</time>
			</trkpt>
			<trkpt lat="33.305279" lon="103.815468">
				<ele>2202.000000</ele>
				<time>1970-01-01T00:00:00Z</time>
			</trkpt>
			<trkpt lat="33.305389" lon="103.815437">
				<ele>2202.000000</ele>
				<time>1970-01-01T00:00:00Z</time>
			</trkpt>
			<trkpt lat="33.305492" lon="103.815422">
				<ele>2199.000000</ele>
				<time>1970-01-01T00:00:00Z</time>
			</trkpt>
			<trkpt lat="33.305595" lon="103.815399">
				<ele>2202.000000</ele>
				<time>1970-01-01T00:00:00Z</time>
			</trkpt>
			<trkpt lat="33.305698" lon="103.815369">
				<ele>2202.000000</ele>
				<time>1970-01-01T00:00:00Z</time>
			</trkpt>
			<trkpt lat="33.305790" lon="103.815331">
				<ele>2202.000000</ele>
				<time>1970-01-01T00:00:00Z</time>
			</trkpt>
			<trkpt lat="33.305878" lon="103.815292">
				<ele>2202.000000</ele>
				<time>1970-01-01T00:00:00Z</time>
			</trkpt>
			<trkpt lat="33.305973" lon="103.815247">
				<ele>2204.000000</ele>
				<time>1970-01-01T00:00:00Z</time>
			</trkpt>
			<trkpt lat="33.306061" lon="103.815201">
				<ele>2204.000000</ele>
				<time>1970-01-01T00:00:00Z</time>
			</trkpt>
			<trkpt lat="33.306061" lon="103.815201">
				<ele>2204.000000</ele>
				<time>1970-01-01T00:00:00Z</time>
			</trkpt>
			<trkpt lat="33.306061" lon="103.815201">
				<ele>2204.000000</ele>
				<time>1970-01-01T00:00:00Z</time>
			</trkpt>
			<trkpt lat="33.306061" lon="103.815201">
				<ele>2204.000000</ele>
				<time>1970-01-01T00:00:00Z</time>
			</trkpt>
			<trkpt lat="33.306061" lon="103.815201">
				<ele>2204.000000</ele>
				<time>1970-01-01T00:00:00Z</time>
			</trkpt>
			<trkpt lat="33.306061" lon="103.815201">
				<ele>2204.000000</ele>
				<time>1970-01-01T00:00:00Z</time>
			</trkpt>
			<trkpt lat="33.306061" lon="103.815201">
				<ele>2204.000000</ele>
				<time>1970-01-01T00:00:00Z</time>
			</trkpt>
			<trkpt lat="33.306061" lon="103.815201">
				<ele>2204.000000</ele>
				<time>1970-01-01T00:00:00Z</time>
			</trkpt>
			<trkpt lat="33.306149" lon="103.815178">
				<ele>2204.000000</ele>
				<time>1970-01-01T00:00:00Z</time>
			</trkpt>
			<trkpt lat="33.306149" lon="103.815178">
				<ele>2204.000000</ele>
				<time>1970-01-01T00:00:00Z</time>
			</trkpt>
			<trkpt lat="33.306149" lon="103.815178">
				<ele>2204.000000</ele>
				<time>1970-01-01T00:00:00Z</time>
			</trkpt>
			<trkpt lat="33.306240" lon="103.815102">
				<ele>2203.000000</ele>
				<time>1970-01-01T00:00:00Z</time>
			</trkpt>
			<trkpt lat="33.306240" lon="103.815102">
				<ele>2203.000000</ele>
				<time>1970-01-01T00:00:00Z</time>
			</trkpt>
			<trkpt lat="33.306351" lon="103.815086">
				<ele>2204.000000</ele>
				<time>1970-01-01T00:00:00Z</time>
			</trkpt>
			<trkpt lat="33.306446" lon="103.815079">
				<ele>2204.000000</ele>
				<time>1970-01-01T00:00:00Z</time>
			</trkpt>
			<trkpt lat="33.306641" lon="103.815056">
				<ele>2204.000000</ele>
				<time>1970-01-01T00:00:00Z</time>
			</trkpt>
			<trkpt lat="33.306732" lon="103.815041">
				<ele>2204.000000</ele>
				<time>1970-01-01T00:00:00Z</time>
			</trkpt>
			<trkpt lat="33.306831" lon="103.815002">
				<ele>2204.000000</ele>
				<time>1970-01-01T00:00:00Z</time>
			</trkpt>
			<trkpt lat="33.306931" lon="103.814995">
				<ele>2204.000000</ele>
				<time>1970-01-01T00:00:00Z</time>
			</trkpt>
		</trkseg>
	</trk>
</gpx>
